<?xml version="1.0" encoding="UTF-8" standalone="no" ?>
<gpx xmlns="http://www.topografix.com/GPX/1/1" xmlns:xsi="http://www.w3.org/2001/XMLSchema-instance" xsi:schemaLocation="http://www.topografix.com/GPX/1/1 http://www.topografix.com/GPX/1/1/gpx.xsd" version="1.1" creator="VisuGPX - https://www.visugpx.com">
  <metadata>
    <name>Parcours Rumes groupe B du 5 juillet 2018</name>
    <desc><![CDATA[Parcours Rumes groupe B envoyé par Daniel]]></desc>
  </metadata>
  <trk>
    <name><![CDATA[Rumes]]></name>
    <trkseg>
      <trkpt lat="50.55587" lon="3.30392">
        <ele>53.517586</ele>
        <time>2018-07-05T12:00:23Z</time>
      </trkpt>
      <trkpt lat="50.5559" lon="3.30378">
        <ele>53.744659</ele>
        <time>2018-07-05T12:00:33Z</time>
      </trkpt>
      <trkpt lat="50.55589" lon="3.30367">
        <ele>53.782318</ele>
        <time>2018-07-05T12:00:35Z</time>
      </trkpt>
      <trkpt lat="50.55588" lon="3.3036">
        <ele>53.727905</ele>
        <time>2018-07-05T12:00:37Z</time>
      </trkpt>
      <trkpt lat="50.55587" lon="3.30351">
        <ele>53.809368</ele>
        <time>2018-07-05T12:00:39Z</time>
      </trkpt>
      <trkpt lat="50.55585" lon="3.30341">
        <ele>53.897209</ele>
        <time>2018-07-05T12:00:41Z</time>
      </trkpt>
      <trkpt lat="50.55583" lon="3.30332">
        <ele>53.890942</ele>
        <time>2018-07-05T12:00:43Z</time>
      </trkpt>
      <trkpt lat="50.55581" lon="3.3032">
        <ele>53.966225</ele>
        <time>2018-07-05T12:00:45Z</time>
      </trkpt>
      <trkpt lat="50.55578" lon="3.3031">
        <ele>54.037586</ele>
        <time>2018-07-05T12:00:47Z</time>
      </trkpt>
      <trkpt lat="50.55576" lon="3.30298">
        <ele>54.083191</ele>
        <time>2018-07-05T12:00:49Z</time>
      </trkpt>
      <trkpt lat="50.55574" lon="3.30286">
        <ele>54.450001</ele>
        <time>2018-07-05T12:00:51Z</time>
      </trkpt>
      <trkpt lat="50.55571" lon="3.30274">
        <ele>54.391441</ele>
        <time>2018-07-05T12:00:53Z</time>
      </trkpt>
      <trkpt lat="50.55568" lon="3.30261">
        <ele>54.427704</ele>
        <time>2018-07-05T12:00:55Z</time>
      </trkpt>
      <trkpt lat="50.55565" lon="3.30247">
        <ele>54.369152</ele>
        <time>2018-07-05T12:00:57Z</time>
      </trkpt>
      <trkpt lat="50.55563" lon="3.30232">
        <ele>54.291779</ele>
        <time>2018-07-05T12:00:59Z</time>
      </trkpt>
      <trkpt lat="50.55562" lon="3.30218">
        <ele>54.339893</ele>
        <time>2018-07-05T12:01:01Z</time>
      </trkpt>
      <trkpt lat="50.55561" lon="3.30203">
        <ele>54.324486</ele>
        <time>2018-07-05T12:01:03Z</time>
      </trkpt>
      <trkpt lat="50.5556" lon="3.30189">
        <ele>54.326721</ele>
        <time>2018-07-05T12:01:05Z</time>
      </trkpt>
      <trkpt lat="50.5556" lon="3.30174">
        <ele>54.312092</ele>
        <time>2018-07-05T12:01:07Z</time>
      </trkpt>
      <trkpt lat="50.55559" lon="3.30159">
        <ele>54.358459</ele>
        <time>2018-07-05T12:01:09Z</time>
      </trkpt>
      <trkpt lat="50.55558" lon="3.30145">
        <ele>54.368919</ele>
        <time>2018-07-05T12:01:11Z</time>
      </trkpt>
      <trkpt lat="50.55557" lon="3.30131">
        <ele>54.154411</ele>
        <time>2018-07-05T12:01:13Z</time>
      </trkpt>
      <trkpt lat="50.55555" lon="3.30118">
        <ele>54.174683</ele>
        <time>2018-07-05T12:01:15Z</time>
      </trkpt>
      <trkpt lat="50.55555" lon="3.30105">
        <ele>54.099445</ele>
        <time>2018-07-05T12:01:17Z</time>
      </trkpt>
      <trkpt lat="50.55555" lon="3.30093">
        <ele>54.203991</ele>
        <time>2018-07-05T12:01:19Z</time>
      </trkpt>
      <trkpt lat="50.55555" lon="3.30082">
        <ele>54.011585</ele>
        <time>2018-07-05T12:01:21Z</time>
      </trkpt>
      <trkpt lat="50.55555" lon="3.3007">
        <ele>53.976032</ele>
        <time>2018-07-05T12:01:23Z</time>
      </trkpt>
      <trkpt lat="50.55555" lon="3.30059">
        <ele>53.911201</ele>
        <time>2018-07-05T12:01:25Z</time>
      </trkpt>
      <trkpt lat="50.55556" lon="3.30048">
        <ele>53.81081</ele>
        <time>2018-07-05T12:01:27Z</time>
      </trkpt>
      <trkpt lat="50.55556" lon="3.30037">
        <ele>53.806671</ele>
        <time>2018-07-05T12:01:29Z</time>
      </trkpt>
      <trkpt lat="50.55555" lon="3.30026">
        <ele>53.790413</ele>
        <time>2018-07-05T12:01:31Z</time>
      </trkpt>
      <trkpt lat="50.55555" lon="3.30015">
        <ele>53.707684</ele>
        <time>2018-07-05T12:01:33Z</time>
      </trkpt>
      <trkpt lat="50.55555" lon="3.30004">
        <ele>53.76833</ele>
        <time>2018-07-05T12:01:35Z</time>
      </trkpt>
      <trkpt lat="50.55556" lon="3.29993">
        <ele>53.771812</ele>
        <time>2018-07-05T12:01:37Z</time>
      </trkpt>
      <trkpt lat="50.55557" lon="3.29981">
        <ele>53.872192</ele>
        <time>2018-07-05T12:01:39Z</time>
      </trkpt>
      <trkpt lat="50.55557" lon="3.2997">
        <ele>53.924477</ele>
        <time>2018-07-05T12:01:41Z</time>
      </trkpt>
      <trkpt lat="50.55557" lon="3.29958">
        <ele>53.891773</ele>
        <time>2018-07-05T12:01:43Z</time>
      </trkpt>
      <trkpt lat="50.55558" lon="3.29947">
        <ele>53.889252</ele>
        <time>2018-07-05T12:01:45Z</time>
      </trkpt>
      <trkpt lat="50.55559" lon="3.29936">
        <ele>53.976967</ele>
        <time>2018-07-05T12:01:47Z</time>
      </trkpt>
      <trkpt lat="50.5556" lon="3.29924">
        <ele>53.83849</ele>
        <time>2018-07-05T12:01:49Z</time>
      </trkpt>
      <trkpt lat="50.55561" lon="3.29913">
        <ele>53.94062</ele>
        <time>2018-07-05T12:01:51Z</time>
      </trkpt>
      <trkpt lat="50.55563" lon="3.29901">
        <ele>53.988708</ele>
        <time>2018-07-05T12:01:53Z</time>
      </trkpt>
      <trkpt lat="50.55565" lon="3.29889">
        <ele>54.137825</ele>
        <time>2018-07-05T12:01:55Z</time>
      </trkpt>
      <trkpt lat="50.55566" lon="3.29877">
        <ele>54.045799</ele>
        <time>2018-07-05T12:01:57Z</time>
      </trkpt>
      <trkpt lat="50.55568" lon="3.29865">
        <ele>54.091808</ele>
        <time>2018-07-05T12:01:59Z</time>
      </trkpt>
      <trkpt lat="50.5557" lon="3.29854">
        <ele>54.064625</ele>
        <time>2018-07-05T12:02:01Z</time>
      </trkpt>
      <trkpt lat="50.55572" lon="3.29844">
        <ele>54.152252</ele>
        <time>2018-07-05T12:02:03Z</time>
      </trkpt>
      <trkpt lat="50.55574" lon="3.29833">
        <ele>54.191986</ele>
        <time>2018-07-05T12:02:05Z</time>
      </trkpt>
      <trkpt lat="50.55575" lon="3.29822">
        <ele>54.254723</ele>
        <time>2018-07-05T12:02:07Z</time>
      </trkpt>
      <trkpt lat="50.55577" lon="3.29811">
        <ele>54.30492</ele>
        <time>2018-07-05T12:02:09Z</time>
      </trkpt>
      <trkpt lat="50.55579" lon="3.29799">
        <ele>54.24427</ele>
        <time>2018-07-05T12:02:11Z</time>
      </trkpt>
      <trkpt lat="50.55581" lon="3.29787">
        <ele>54.224976</ele>
        <time>2018-07-05T12:02:13Z</time>
      </trkpt>
      <trkpt lat="50.55582" lon="3.29775">
        <ele>54.206287</ele>
        <time>2018-07-05T12:02:15Z</time>
      </trkpt>
      <trkpt lat="50.55585" lon="3.29763">
        <ele>54.191643</ele>
        <time>2018-07-05T12:02:17Z</time>
      </trkpt>
      <trkpt lat="50.55587" lon="3.29751">
        <ele>54.177002</ele>
        <time>2018-07-05T12:02:19Z</time>
      </trkpt>
      <trkpt lat="50.55588" lon="3.29739">
        <ele>54.200005</ele>
        <time>2018-07-05T12:02:21Z</time>
      </trkpt>
      <trkpt lat="50.55591" lon="3.29727">
        <ele>54.515942</ele>
        <time>2018-07-05T12:02:23Z</time>
      </trkpt>
      <trkpt lat="50.55592" lon="3.29714">
        <ele>54.417652</ele>
        <time>2018-07-05T12:02:25Z</time>
      </trkpt>
      <trkpt lat="50.55594" lon="3.29701">
        <ele>54.429424</ele>
        <time>2018-07-05T12:02:27Z</time>
      </trkpt>
      <trkpt lat="50.55596" lon="3.29689">
        <ele>54.430168</ele>
        <time>2018-07-05T12:02:29Z</time>
      </trkpt>
      <trkpt lat="50.55597" lon="3.29677">
        <ele>54.528557</ele>
        <time>2018-07-05T12:02:31Z</time>
      </trkpt>
      <trkpt lat="50.55598" lon="3.29664">
        <ele>54.296425</ele>
        <time>2018-07-05T12:02:33Z</time>
      </trkpt>
      <trkpt lat="50.556" lon="3.29651">
        <ele>54.154228</ele>
        <time>2018-07-05T12:02:35Z</time>
      </trkpt>
      <trkpt lat="50.55602" lon="3.29638">
        <ele>53.991108</ele>
        <time>2018-07-05T12:02:37Z</time>
      </trkpt>
      <trkpt lat="50.55602" lon="3.29625">
        <ele>54.150074</ele>
        <time>2018-07-05T12:02:39Z</time>
      </trkpt>
      <trkpt lat="50.55601" lon="3.29612">
        <ele>54.118702</ele>
        <time>2018-07-05T12:02:41Z</time>
      </trkpt>
      <trkpt lat="50.55599" lon="3.296">
        <ele>54.104073</ele>
        <time>2018-07-05T12:02:43Z</time>
      </trkpt>
      <trkpt lat="50.55597" lon="3.29587">
        <ele>54.08963</ele>
        <time>2018-07-05T12:02:45Z</time>
      </trkpt>
      <trkpt lat="50.55593" lon="3.29576">
        <ele>54.068718</ele>
        <time>2018-07-05T12:02:47Z</time>
      </trkpt>
      <trkpt lat="50.55589" lon="3.29566">
        <ele>54.041534</ele>
        <time>2018-07-05T12:02:49Z</time>
      </trkpt>
      <trkpt lat="50.55584" lon="3.29556">
        <ele>54.062218</ele>
        <time>2018-07-05T12:02:51Z</time>
      </trkpt>
      <trkpt lat="50.55578" lon="3.29548">
        <ele>54.125191</ele>
        <time>2018-07-05T12:02:53Z</time>
      </trkpt>
      <trkpt lat="50.55571" lon="3.29541">
        <ele>54.17329</ele>
        <time>2018-07-05T12:02:55Z</time>
      </trkpt>
      <trkpt lat="50.55565" lon="3.29535">
        <ele>54.229759</ele>
        <time>2018-07-05T12:02:57Z</time>
      </trkpt>
      <trkpt lat="50.55557" lon="3.29529">
        <ele>54.112648</ele>
        <time>2018-07-05T12:02:59Z</time>
      </trkpt>
      <trkpt lat="50.5555" lon="3.29523">
        <ele>54.118916</ele>
        <time>2018-07-05T12:03:01Z</time>
      </trkpt>
      <trkpt lat="50.55544" lon="3.29517">
        <ele>54.252789</ele>
        <time>2018-07-05T12:03:03Z</time>
      </trkpt>
      <trkpt lat="50.55537" lon="3.29511">
        <ele>53.987171</ele>
        <time>2018-07-05T12:03:05Z</time>
      </trkpt>
      <trkpt lat="50.5553" lon="3.29507">
        <ele>53.999886</ele>
        <time>2018-07-05T12:03:07Z</time>
      </trkpt>
      <trkpt lat="50.55522" lon="3.29503">
        <ele>53.955341</ele>
        <time>2018-07-05T12:03:09Z</time>
      </trkpt>
      <trkpt lat="50.55515" lon="3.295">
        <ele>53.900963</ele>
        <time>2018-07-05T12:03:11Z</time>
      </trkpt>
      <trkpt lat="50.55507" lon="3.29497">
        <ele>53.93985</ele>
        <time>2018-07-05T12:03:13Z</time>
      </trkpt>
      <trkpt lat="50.55498" lon="3.29494">
        <ele>54.098774</ele>
        <time>2018-07-05T12:03:15Z</time>
      </trkpt>
      <trkpt lat="50.5549" lon="3.29492">
        <ele>54.245167</ele>
        <time>2018-07-05T12:03:17Z</time>
      </trkpt>
      <trkpt lat="50.55481" lon="3.29491">
        <ele>54.59029</ele>
        <time>2018-07-05T12:03:19Z</time>
      </trkpt>
      <trkpt lat="50.55473" lon="3.29489">
        <ele>54.581909</ele>
        <time>2018-07-05T12:03:21Z</time>
      </trkpt>
      <trkpt lat="50.55465" lon="3.29488">
        <ele>54.692791</ele>
        <time>2018-07-05T12:03:23Z</time>
      </trkpt>
      <trkpt lat="50.55456" lon="3.29487">
        <ele>54.916218</ele>
        <time>2018-07-05T12:03:25Z</time>
      </trkpt>
      <trkpt lat="50.55448" lon="3.29486">
        <ele>55.010334</ele>
        <time>2018-07-05T12:03:27Z</time>
      </trkpt>
      <trkpt lat="50.5544" lon="3.29484">
        <ele>55.125359</ele>
        <time>2018-07-05T12:03:29Z</time>
      </trkpt>
      <trkpt lat="50.55432" lon="3.29483">
        <ele>55.311729</ele>
        <time>2018-07-05T12:03:31Z</time>
      </trkpt>
      <trkpt lat="50.55423" lon="3.29482">
        <ele>55.393085</ele>
        <time>2018-07-05T12:03:33Z</time>
      </trkpt>
      <trkpt lat="50.55415" lon="3.29481">
        <ele>55.459362</ele>
        <time>2018-07-05T12:03:35Z</time>
      </trkpt>
      <trkpt lat="50.55407" lon="3.2948">
        <ele>55.583611</ele>
        <time>2018-07-05T12:03:37Z</time>
      </trkpt>
      <trkpt lat="50.55399" lon="3.29478">
        <ele>55.677387</ele>
        <time>2018-07-05T12:03:39Z</time>
      </trkpt>
      <trkpt lat="50.55391" lon="3.29476">
        <ele>55.980694</ele>
        <time>2018-07-05T12:03:41Z</time>
      </trkpt>
      <trkpt lat="50.55383" lon="3.29474">
        <ele>56.060188</ele>
        <time>2018-07-05T12:03:43Z</time>
      </trkpt>
      <trkpt lat="50.55375" lon="3.29471">
        <ele>56.183483</ele>
        <time>2018-07-05T12:03:45Z</time>
      </trkpt>
      <trkpt lat="50.55367" lon="3.29467">
        <ele>56.222771</ele>
        <time>2018-07-05T12:03:47Z</time>
      </trkpt>
      <trkpt lat="50.55359" lon="3.29462">
        <ele>56.261452</ele>
        <time>2018-07-05T12:03:49Z</time>
      </trkpt>
      <trkpt lat="50.55351" lon="3.29456">
        <ele>56.246826</ele>
        <time>2018-07-05T12:03:51Z</time>
      </trkpt>
      <trkpt lat="50.55343" lon="3.2945">
        <ele>56.502026</ele>
        <time>2018-07-05T12:03:53Z</time>
      </trkpt>
      <trkpt lat="50.55335" lon="3.29444">
        <ele>56.549225</ele>
        <time>2018-07-05T12:03:55Z</time>
      </trkpt>
      <trkpt lat="50.55327" lon="3.29438">
        <ele>56.611977</ele>
        <time>2018-07-05T12:03:57Z</time>
      </trkpt>
      <trkpt lat="50.55319" lon="3.29433">
        <ele>56.524101</ele>
        <time>2018-07-05T12:03:59Z</time>
      </trkpt>
      <trkpt lat="50.5531" lon="3.29429">
        <ele>56.877998</ele>
        <time>2018-07-05T12:04:01Z</time>
      </trkpt>
      <trkpt lat="50.55302" lon="3.29424">
        <ele>56.906982</ele>
        <time>2018-07-05T12:04:03Z</time>
      </trkpt>
      <trkpt lat="50.55294" lon="3.2942">
        <ele>56.974876</ele>
        <time>2018-07-05T12:04:05Z</time>
      </trkpt>
      <trkpt lat="50.55285" lon="3.29416">
        <ele>57.031731</ele>
        <time>2018-07-05T12:04:07Z</time>
      </trkpt>
      <trkpt lat="50.55277" lon="3.29412">
        <ele>57.063118</ele>
        <time>2018-07-05T12:04:09Z</time>
      </trkpt>
      <trkpt lat="50.55268" lon="3.29408">
        <ele>56.933483</ele>
        <time>2018-07-05T12:04:11Z</time>
      </trkpt>
      <trkpt lat="50.55259" lon="3.29404">
        <ele>56.983696</ele>
        <time>2018-07-05T12:04:13Z</time>
      </trkpt>
      <trkpt lat="50.55251" lon="3.29399">
        <ele>57.052727</ele>
        <time>2018-07-05T12:04:15Z</time>
      </trkpt>
      <trkpt lat="50.55242" lon="3.29396">
        <ele>57.124523</ele>
        <time>2018-07-05T12:04:17Z</time>
      </trkpt>
      <trkpt lat="50.55234" lon="3.29392">
        <ele>57.088112</ele>
        <time>2018-07-05T12:04:19Z</time>
      </trkpt>
      <trkpt lat="50.55225" lon="3.29388">
        <ele>57.144936</ele>
        <time>2018-07-05T12:04:21Z</time>
      </trkpt>
      <trkpt lat="50.55217" lon="3.29384">
        <ele>56.946198</ele>
        <time>2018-07-05T12:04:23Z</time>
      </trkpt>
      <trkpt lat="50.55208" lon="3.2938">
        <ele>57.02961</ele>
        <time>2018-07-05T12:04:25Z</time>
      </trkpt>
      <trkpt lat="50.552" lon="3.29375">
        <ele>56.979393</ele>
        <time>2018-07-05T12:04:27Z</time>
      </trkpt>
      <trkpt lat="50.55191" lon="3.29371">
        <ele>57.023781</ele>
        <time>2018-07-05T12:04:29Z</time>
      </trkpt>
      <trkpt lat="50.55183" lon="3.29367">
        <ele>57.33543</ele>
        <time>2018-07-05T12:04:31Z</time>
      </trkpt>
      <trkpt lat="50.55174" lon="3.29363">
        <ele>57.258018</ele>
        <time>2018-07-05T12:04:33Z</time>
      </trkpt>
      <trkpt lat="50.55165" lon="3.29358">
        <ele>57.31736</ele>
        <time>2018-07-05T12:04:35Z</time>
      </trkpt>
      <trkpt lat="50.55156" lon="3.29354">
        <ele>57.428246</ele>
        <time>2018-07-05T12:04:37Z</time>
      </trkpt>
      <trkpt lat="50.55147" lon="3.29349">
        <ele>57.23595</ele>
        <time>2018-07-05T12:04:39Z</time>
      </trkpt>
      <trkpt lat="50.55138" lon="3.29345">
        <ele>57.267326</ele>
        <time>2018-07-05T12:04:41Z</time>
      </trkpt>
      <trkpt lat="50.55129" lon="3.2934">
        <ele>56.964287</ele>
        <time>2018-07-05T12:04:43Z</time>
      </trkpt>
      <trkpt lat="50.5512" lon="3.29336">
        <ele>56.901012</ele>
        <time>2018-07-05T12:04:45Z</time>
      </trkpt>
      <trkpt lat="50.55111" lon="3.29331">
        <ele>56.887482</ele>
        <time>2018-07-05T12:04:47Z</time>
      </trkpt>
      <trkpt lat="50.55102" lon="3.29327">
        <ele>56.911327</ele>
        <time>2018-07-05T12:04:49Z</time>
      </trkpt>
      <trkpt lat="50.55093" lon="3.29322">
        <ele>56.863213</ele>
        <time>2018-07-05T12:04:51Z</time>
      </trkpt>
      <trkpt lat="50.55084" lon="3.29317">
        <ele>57.078625</ele>
        <time>2018-07-05T12:04:53Z</time>
      </trkpt>
      <trkpt lat="50.55074" lon="3.29312">
        <ele>57.009583</ele>
        <time>2018-07-05T12:04:55Z</time>
      </trkpt>
      <trkpt lat="50.55064" lon="3.29309">
        <ele>56.961475</ele>
        <time>2018-07-05T12:04:57Z</time>
      </trkpt>
      <trkpt lat="50.55054" lon="3.29308">
        <ele>56.972492</ele>
        <time>2018-07-05T12:04:59Z</time>
      </trkpt>
      <trkpt lat="50.55044" lon="3.29312">
        <ele>56.985058</ele>
        <time>2018-07-05T12:05:01Z</time>
      </trkpt>
      <trkpt lat="50.55034" lon="3.29318">
        <ele>56.964142</ele>
        <time>2018-07-05T12:05:03Z</time>
      </trkpt>
      <trkpt lat="50.55024" lon="3.29326">
        <ele>56.830242</ele>
        <time>2018-07-05T12:05:05Z</time>
      </trkpt>
      <trkpt lat="50.55015" lon="3.29334">
        <ele>56.621357</ele>
        <time>2018-07-05T12:05:07Z</time>
      </trkpt>
      <trkpt lat="50.55005" lon="3.29338">
        <ele>56.52644</ele>
        <time>2018-07-05T12:05:09Z</time>
      </trkpt>
      <trkpt lat="50.54994" lon="3.29338">
        <ele>56.296349</ele>
        <time>2018-07-05T12:05:11Z</time>
      </trkpt>
      <trkpt lat="50.54984" lon="3.29333">
        <ele>56.193855</ele>
        <time>2018-07-05T12:05:13Z</time>
      </trkpt>
      <trkpt lat="50.54974" lon="3.29325">
        <ele>56.128082</ele>
        <time>2018-07-05T12:05:15Z</time>
      </trkpt>
      <trkpt lat="50.54966" lon="3.29315">
        <ele>55.920715</ele>
        <time>2018-07-05T12:05:17Z</time>
      </trkpt>
      <trkpt lat="50.5496" lon="3.29303">
        <ele>55.711525</ele>
        <time>2018-07-05T12:05:19Z</time>
      </trkpt>
      <trkpt lat="50.54954" lon="3.29291">
        <ele>55.882896</ele>
        <time>2018-07-05T12:05:21Z</time>
      </trkpt>
      <trkpt lat="50.54948" lon="3.29279">
        <ele>55.784588</ele>
        <time>2018-07-05T12:05:23Z</time>
      </trkpt>
      <trkpt lat="50.54941" lon="3.29267">
        <ele>55.615318</ele>
        <time>2018-07-05T12:05:25Z</time>
      </trkpt>
      <trkpt lat="50.54936" lon="3.29256">
        <ele>55.535828</ele>
        <time>2018-07-05T12:05:27Z</time>
      </trkpt>
      <trkpt lat="50.54929" lon="3.29244">
        <ele>55.440868</ele>
        <time>2018-07-05T12:05:29Z</time>
      </trkpt>
      <trkpt lat="50.54924" lon="3.29232">
        <ele>55.307392</ele>
        <time>2018-07-05T12:05:31Z</time>
      </trkpt>
      <trkpt lat="50.54919" lon="3.2922">
        <ele>55.192364</ele>
        <time>2018-07-05T12:05:33Z</time>
      </trkpt>
      <trkpt lat="50.54915" lon="3.29208">
        <ele>55.068939</ele>
        <time>2018-07-05T12:05:35Z</time>
      </trkpt>
      <trkpt lat="50.54911" lon="3.29195">
        <ele>54.872295</ele>
        <time>2018-07-05T12:05:37Z</time>
      </trkpt>
      <trkpt lat="50.54907" lon="3.29181">
        <ele>54.800301</ele>
        <time>2018-07-05T12:05:39Z</time>
      </trkpt>
      <trkpt lat="50.54903" lon="3.29168">
        <ele>54.824821</ele>
        <time>2018-07-05T12:05:41Z</time>
      </trkpt>
      <trkpt lat="50.549" lon="3.29154">
        <ele>54.74115</ele>
        <time>2018-07-05T12:05:43Z</time>
      </trkpt>
      <trkpt lat="50.54899" lon="3.2914">
        <ele>54.612671</ele>
        <time>2018-07-05T12:05:45Z</time>
      </trkpt>
      <trkpt lat="50.54896" lon="3.29126">
        <ele>54.681694</ele>
        <time>2018-07-05T12:05:47Z</time>
      </trkpt>
      <trkpt lat="50.54894" lon="3.29112">
        <ele>54.738445</ele>
        <time>2018-07-05T12:05:49Z</time>
      </trkpt>
      <trkpt lat="50.54891" lon="3.29098">
        <ele>54.747601</ele>
        <time>2018-07-05T12:05:51Z</time>
      </trkpt>
      <trkpt lat="50.54888" lon="3.29085">
        <ele>54.881477</ele>
        <time>2018-07-05T12:05:53Z</time>
      </trkpt>
      <trkpt lat="50.54886" lon="3.29071">
        <ele>54.876137</ele>
        <time>2018-07-05T12:05:55Z</time>
      </trkpt>
      <trkpt lat="50.54883" lon="3.29057">
        <ele>54.88612</ele>
        <time>2018-07-05T12:05:57Z</time>
      </trkpt>
      <trkpt lat="50.54881" lon="3.29043">
        <ele>55.001148</ele>
        <time>2018-07-05T12:05:59Z</time>
      </trkpt>
      <trkpt lat="50.54879" lon="3.29029">
        <ele>54.877785</ele>
        <time>2018-07-05T12:06:01Z</time>
      </trkpt>
      <trkpt lat="50.54876" lon="3.29016">
        <ele>54.921711</ele>
        <time>2018-07-05T12:06:03Z</time>
      </trkpt>
      <trkpt lat="50.54874" lon="3.29002">
        <ele>54.886963</ele>
        <time>2018-07-05T12:06:05Z</time>
      </trkpt>
      <trkpt lat="50.54871" lon="3.28989">
        <ele>54.713409</ele>
        <time>2018-07-05T12:06:07Z</time>
      </trkpt>
      <trkpt lat="50.54869" lon="3.28975">
        <ele>54.763611</ele>
        <time>2018-07-05T12:06:09Z</time>
      </trkpt>
      <trkpt lat="50.54866" lon="3.28962">
        <ele>54.75106</ele>
        <time>2018-07-05T12:06:11Z</time>
      </trkpt>
      <trkpt lat="50.54864" lon="3.28949">
        <ele>54.779968</ele>
        <time>2018-07-05T12:06:13Z</time>
      </trkpt>
      <trkpt lat="50.54862" lon="3.28936">
        <ele>54.769501</ele>
        <time>2018-07-05T12:06:15Z</time>
      </trkpt>
      <trkpt lat="50.5486" lon="3.28922">
        <ele>54.769501</ele>
        <time>2018-07-05T12:06:17Z</time>
      </trkpt>
      <trkpt lat="50.54858" lon="3.28909">
        <ele>54.763226</ele>
        <time>2018-07-05T12:06:19Z</time>
      </trkpt>
      <trkpt lat="50.54856" lon="3.28894">
        <ele>54.699272</ele>
        <time>2018-07-05T12:06:21Z</time>
      </trkpt>
      <trkpt lat="50.54854" lon="3.2888">
        <ele>54.597626</ele>
        <time>2018-07-05T12:06:23Z</time>
      </trkpt>
      <trkpt lat="50.54853" lon="3.28866">
        <ele>54.456329</ele>
        <time>2018-07-05T12:06:25Z</time>
      </trkpt>
      <trkpt lat="50.54852" lon="3.28852">
        <ele>54.372688</ele>
        <time>2018-07-05T12:06:27Z</time>
      </trkpt>
      <trkpt lat="50.54851" lon="3.28838">
        <ele>54.316853</ele>
        <time>2018-07-05T12:06:29Z</time>
      </trkpt>
      <trkpt lat="50.5485" lon="3.28817">
        <ele>54.264282</ele>
        <time>2018-07-05T12:06:32Z</time>
      </trkpt>
      <trkpt lat="50.54849" lon="3.28802">
        <ele>54.165375</ele>
        <time>2018-07-05T12:06:34Z</time>
      </trkpt>
      <trkpt lat="50.54849" lon="3.28787">
        <ele>54.1591</ele>
        <time>2018-07-05T12:06:36Z</time>
      </trkpt>
      <trkpt lat="50.54849" lon="3.28773">
        <ele>54.04409</ele>
        <time>2018-07-05T12:06:38Z</time>
      </trkpt>
      <trkpt lat="50.54849" lon="3.28759">
        <ele>54.086132</ele>
        <time>2018-07-05T12:06:40Z</time>
      </trkpt>
      <trkpt lat="50.54848" lon="3.28745">
        <ele>54.198997</ele>
        <time>2018-07-05T12:06:42Z</time>
      </trkpt>
      <trkpt lat="50.54848" lon="3.28732">
        <ele>54.178772</ele>
        <time>2018-07-05T12:06:44Z</time>
      </trkpt>
      <trkpt lat="50.54846" lon="3.287">
        <ele>54.166908</ele>
        <time>2018-07-05T12:06:49Z</time>
      </trkpt>
      <trkpt lat="50.54845" lon="3.28687">
        <ele>54.290363</ele>
        <time>2018-07-05T12:06:51Z</time>
      </trkpt>
      <trkpt lat="50.54843" lon="3.28674">
        <ele>54.385029</ele>
        <time>2018-07-05T12:06:53Z</time>
      </trkpt>
      <trkpt lat="50.54841" lon="3.28662">
        <ele>54.495373</ele>
        <time>2018-07-05T12:06:55Z</time>
      </trkpt>
      <trkpt lat="50.54839" lon="3.2865">
        <ele>54.61673</ele>
        <time>2018-07-05T12:06:57Z</time>
      </trkpt>
      <trkpt lat="50.54837" lon="3.28637">
        <ele>54.708763</ele>
        <time>2018-07-05T12:06:59Z</time>
      </trkpt>
      <trkpt lat="50.54835" lon="3.28625">
        <ele>54.69622</ele>
        <time>2018-07-05T12:07:01Z</time>
      </trkpt>
      <trkpt lat="50.54833" lon="3.28614">
        <ele>55.081207</ele>
        <time>2018-07-05T12:07:03Z</time>
      </trkpt>
      <trkpt lat="50.54831" lon="3.28602">
        <ele>55.227638</ele>
        <time>2018-07-05T12:07:05Z</time>
      </trkpt>
      <trkpt lat="50.54829" lon="3.28589">
        <ele>55.236267</ele>
        <time>2018-07-05T12:07:07Z</time>
      </trkpt>
      <trkpt lat="50.54827" lon="3.28577">
        <ele>55.222878</ele>
        <time>2018-07-05T12:07:09Z</time>
      </trkpt>
      <trkpt lat="50.54824" lon="3.28564">
        <ele>55.39019</ele>
        <time>2018-07-05T12:07:11Z</time>
      </trkpt>
      <trkpt lat="50.54822" lon="3.28552">
        <ele>55.538063</ele>
        <time>2018-07-05T12:07:13Z</time>
      </trkpt>
      <trkpt lat="50.5482" lon="3.28539">
        <ele>55.705383</ele>
        <time>2018-07-05T12:07:15Z</time>
      </trkpt>
      <trkpt lat="50.54818" lon="3.28526">
        <ele>55.902443</ele>
        <time>2018-07-05T12:07:17Z</time>
      </trkpt>
      <trkpt lat="50.54816" lon="3.28512">
        <ele>56.050957</ele>
        <time>2018-07-05T12:07:19Z</time>
      </trkpt>
      <trkpt lat="50.54813" lon="3.28499">
        <ele>56.326855</ele>
        <time>2018-07-05T12:07:21Z</time>
      </trkpt>
      <trkpt lat="50.54811" lon="3.28485">
        <ele>56.460693</ele>
        <time>2018-07-05T12:07:23Z</time>
      </trkpt>
      <trkpt lat="50.54808" lon="3.28472">
        <ele>56.575562</ele>
        <time>2018-07-05T12:07:25Z</time>
      </trkpt>
      <trkpt lat="50.54805" lon="3.2846">
        <ele>56.620892</ele>
        <time>2018-07-05T12:07:27Z</time>
      </trkpt>
      <trkpt lat="50.54802" lon="3.28448">
        <ele>56.719795</ele>
        <time>2018-07-05T12:07:29Z</time>
      </trkpt>
      <trkpt lat="50.54798" lon="3.28435">
        <ele>56.843132</ele>
        <time>2018-07-05T12:07:31Z</time>
      </trkpt>
      <trkpt lat="50.54792" lon="3.28416">
        <ele>56.991627</ele>
        <time>2018-07-05T12:07:34Z</time>
      </trkpt>
      <trkpt lat="50.54788" lon="3.28404">
        <ele>56.970985</ele>
        <time>2018-07-05T12:07:36Z</time>
      </trkpt>
      <trkpt lat="50.54784" lon="3.28392">
        <ele>56.863476</ele>
        <time>2018-07-05T12:07:38Z</time>
      </trkpt>
      <trkpt lat="50.54781" lon="3.28379">
        <ele>56.978497</ele>
        <time>2018-07-05T12:07:40Z</time>
      </trkpt>
      <trkpt lat="50.54778" lon="3.28366">
        <ele>57.007782</ele>
        <time>2018-07-05T12:07:42Z</time>
      </trkpt>
      <trkpt lat="50.54775" lon="3.28352">
        <ele>57.071899</ele>
        <time>2018-07-05T12:07:44Z</time>
      </trkpt>
      <trkpt lat="50.54772" lon="3.28338">
        <ele>56.686913</ele>
        <time>2018-07-05T12:07:46Z</time>
      </trkpt>
      <trkpt lat="50.54769" lon="3.28324">
        <ele>56.671051</ele>
        <time>2018-07-05T12:07:48Z</time>
      </trkpt>
      <trkpt lat="50.54766" lon="3.2831">
        <ele>56.986797</ele>
        <time>2018-07-05T12:07:50Z</time>
      </trkpt>
      <trkpt lat="50.54763" lon="3.28297">
        <ele>56.993065</ele>
        <time>2018-07-05T12:07:52Z</time>
      </trkpt>
      <trkpt lat="50.5476" lon="3.28283">
        <ele>56.928234</ele>
        <time>2018-07-05T12:07:54Z</time>
      </trkpt>
      <trkpt lat="50.54758" lon="3.2827">
        <ele>56.951256</ele>
        <time>2018-07-05T12:07:56Z</time>
      </trkpt>
      <trkpt lat="50.54755" lon="3.28256">
        <ele>57.013317</ele>
        <time>2018-07-05T12:07:58Z</time>
      </trkpt>
      <trkpt lat="50.54752" lon="3.28242">
        <ele>56.947105</ele>
        <time>2018-07-05T12:08:00Z</time>
      </trkpt>
      <trkpt lat="50.5475" lon="3.28229">
        <ele>56.896912</ele>
        <time>2018-07-05T12:08:02Z</time>
      </trkpt>
      <trkpt lat="50.54747" lon="3.28215">
        <ele>56.738148</ele>
        <time>2018-07-05T12:08:04Z</time>
      </trkpt>
      <trkpt lat="50.54744" lon="3.28201">
        <ele>56.74651</ele>
        <time>2018-07-05T12:08:06Z</time>
      </trkpt>
      <trkpt lat="50.54742" lon="3.28187">
        <ele>56.503895</ele>
        <time>2018-07-05T12:08:08Z</time>
      </trkpt>
      <trkpt lat="50.54741" lon="3.28174">
        <ele>56.539452</ele>
        <time>2018-07-05T12:08:10Z</time>
      </trkpt>
      <trkpt lat="50.54739" lon="3.28161">
        <ele>56.572918</ele>
        <time>2018-07-05T12:08:12Z</time>
      </trkpt>
      <trkpt lat="50.54737" lon="3.28147">
        <ele>56.457863</ele>
        <time>2018-07-05T12:08:14Z</time>
      </trkpt>
      <trkpt lat="50.54735" lon="3.28133">
        <ele>56.33363</ele>
        <time>2018-07-05T12:08:16Z</time>
      </trkpt>
      <trkpt lat="50.54734" lon="3.28119">
        <ele>56.281334</ele>
        <time>2018-07-05T12:08:18Z</time>
      </trkpt>
      <trkpt lat="50.54733" lon="3.28105">
        <ele>56.146709</ele>
        <time>2018-07-05T12:08:20Z</time>
      </trkpt>
      <trkpt lat="50.54733" lon="3.28091">
        <ele>55.91457</ele>
        <time>2018-07-05T12:08:22Z</time>
      </trkpt>
      <trkpt lat="50.54732" lon="3.28077">
        <ele>55.889473</ele>
        <time>2018-07-05T12:08:24Z</time>
      </trkpt>
      <trkpt lat="50.54731" lon="3.28063">
        <ele>55.739647</ele>
        <time>2018-07-05T12:08:26Z</time>
      </trkpt>
      <trkpt lat="50.5473" lon="3.28049">
        <ele>55.823315</ele>
        <time>2018-07-05T12:08:28Z</time>
      </trkpt>
      <trkpt lat="50.5473" lon="3.28035">
        <ele>55.809662</ele>
        <time>2018-07-05T12:08:30Z</time>
      </trkpt>
      <trkpt lat="50.54728" lon="3.2802">
        <ele>55.8787</ele>
        <time>2018-07-05T12:08:32Z</time>
      </trkpt>
      <trkpt lat="50.54727" lon="3.28005">
        <ele>55.893341</ele>
        <time>2018-07-05T12:08:34Z</time>
      </trkpt>
      <trkpt lat="50.54725" lon="3.27991">
        <ele>55.895592</ele>
        <time>2018-07-05T12:08:36Z</time>
      </trkpt>
      <trkpt lat="50.54721" lon="3.27977">
        <ele>55.802368</ele>
        <time>2018-07-05T12:08:38Z</time>
      </trkpt>
      <trkpt lat="50.54715" lon="3.27964">
        <ele>55.841534</ele>
        <time>2018-07-05T12:08:40Z</time>
      </trkpt>
      <trkpt lat="50.54709" lon="3.27952">
        <ele>55.670021</ele>
        <time>2018-07-05T12:08:42Z</time>
      </trkpt>
      <trkpt lat="50.54702" lon="3.2794">
        <ele>55.601002</ele>
        <time>2018-07-05T12:08:44Z</time>
      </trkpt>
      <trkpt lat="50.54696" lon="3.2793">
        <ele>55.644936</ele>
        <time>2018-07-05T12:08:46Z</time>
      </trkpt>
      <trkpt lat="50.5469" lon="3.27919">
        <ele>55.774597</ele>
        <time>2018-07-05T12:08:48Z</time>
      </trkpt>
      <trkpt lat="50.54684" lon="3.27908">
        <ele>55.755775</ele>
        <time>2018-07-05T12:08:50Z</time>
      </trkpt>
      <trkpt lat="50.54677" lon="3.27897">
        <ele>55.726746</ele>
        <time>2018-07-05T12:08:52Z</time>
      </trkpt>
      <trkpt lat="50.54671" lon="3.27886">
        <ele>55.737831</ele>
        <time>2018-07-05T12:08:54Z</time>
      </trkpt>
      <trkpt lat="50.54665" lon="3.27874">
        <ele>55.666718</ele>
        <time>2018-07-05T12:08:56Z</time>
      </trkpt>
      <trkpt lat="50.5466" lon="3.27862">
        <ele>55.739922</ele>
        <time>2018-07-05T12:08:58Z</time>
      </trkpt>
      <trkpt lat="50.54656" lon="3.27849">
        <ele>55.752472</ele>
        <time>2018-07-05T12:09:00Z</time>
      </trkpt>
      <trkpt lat="50.54653" lon="3.27835">
        <ele>55.790119</ele>
        <time>2018-07-05T12:09:02Z</time>
      </trkpt>
      <trkpt lat="50.54651" lon="3.2782">
        <ele>55.971092</ele>
        <time>2018-07-05T12:09:04Z</time>
      </trkpt>
      <trkpt lat="50.54649" lon="3.27806">
        <ele>56.048454</ele>
        <time>2018-07-05T12:09:06Z</time>
      </trkpt>
      <trkpt lat="50.54646" lon="3.27791">
        <ele>55.981506</ele>
        <time>2018-07-05T12:09:08Z</time>
      </trkpt>
      <trkpt lat="50.54644" lon="3.27777">
        <ele>55.918751</ele>
        <time>2018-07-05T12:09:10Z</time>
      </trkpt>
      <trkpt lat="50.54642" lon="3.27763">
        <ele>55.88205</ele>
        <time>2018-07-05T12:09:12Z</time>
      </trkpt>
      <trkpt lat="50.54639" lon="3.27748">
        <ele>55.77536</ele>
        <time>2018-07-05T12:09:14Z</time>
      </trkpt>
      <trkpt lat="50.54638" lon="3.27734">
        <ele>55.715046</ele>
        <time>2018-07-05T12:09:16Z</time>
      </trkpt>
      <trkpt lat="50.54636" lon="3.27719">
        <ele>55.666748</ele>
        <time>2018-07-05T12:09:18Z</time>
      </trkpt>
      <trkpt lat="50.54635" lon="3.27704">
        <ele>55.720924</ele>
        <time>2018-07-05T12:09:20Z</time>
      </trkpt>
      <trkpt lat="50.54634" lon="3.2769">
        <ele>55.550781</ele>
        <time>2018-07-05T12:09:22Z</time>
      </trkpt>
      <trkpt lat="50.54633" lon="3.27676">
        <ele>55.594696</ele>
        <time>2018-07-05T12:09:24Z</time>
      </trkpt>
      <trkpt lat="50.54632" lon="3.27662">
        <ele>55.675678</ele>
        <time>2018-07-05T12:09:26Z</time>
      </trkpt>
      <trkpt lat="50.54632" lon="3.27648">
        <ele>55.631744</ele>
        <time>2018-07-05T12:09:28Z</time>
      </trkpt>
      <trkpt lat="50.54631" lon="3.27633">
        <ele>55.575279</ele>
        <time>2018-07-05T12:09:30Z</time>
      </trkpt>
      <trkpt lat="50.54629" lon="3.27618">
        <ele>55.625233</ele>
        <time>2018-07-05T12:09:32Z</time>
      </trkpt>
      <trkpt lat="50.54625" lon="3.27604">
        <ele>55.639263</ele>
        <time>2018-07-05T12:09:34Z</time>
      </trkpt>
      <trkpt lat="50.54622" lon="3.2759">
        <ele>55.5742</ele>
        <time>2018-07-05T12:09:36Z</time>
      </trkpt>
      <trkpt lat="50.54618" lon="3.27575">
        <ele>55.524006</ele>
        <time>2018-07-05T12:09:38Z</time>
      </trkpt>
      <trkpt lat="50.54614" lon="3.27561">
        <ele>55.377613</ele>
        <time>2018-07-05T12:09:40Z</time>
      </trkpt>
      <trkpt lat="50.5461" lon="3.27547">
        <ele>55.354607</ele>
        <time>2018-07-05T12:09:42Z</time>
      </trkpt>
      <trkpt lat="50.54606" lon="3.27532">
        <ele>55.263519</ele>
        <time>2018-07-05T12:09:44Z</time>
      </trkpt>
      <trkpt lat="50.54602" lon="3.27518">
        <ele>55.238422</ele>
        <time>2018-07-05T12:09:46Z</time>
      </trkpt>
      <trkpt lat="50.54598" lon="3.27504">
        <ele>55.167309</ele>
        <time>2018-07-05T12:09:48Z</time>
      </trkpt>
      <trkpt lat="50.54594" lon="3.27491">
        <ele>55.129662</ele>
        <time>2018-07-05T12:09:50Z</time>
      </trkpt>
      <trkpt lat="50.5459" lon="3.27477">
        <ele>55.041821</ele>
        <time>2018-07-05T12:09:52Z</time>
      </trkpt>
      <trkpt lat="50.54586" lon="3.27463">
        <ele>54.888203</ele>
        <time>2018-07-05T12:09:54Z</time>
      </trkpt>
      <trkpt lat="50.54582" lon="3.2745">
        <ele>54.833397</ele>
        <time>2018-07-05T12:09:56Z</time>
      </trkpt>
      <trkpt lat="50.54578" lon="3.27436">
        <ele>54.876984</ele>
        <time>2018-07-05T12:09:58Z</time>
      </trkpt>
      <trkpt lat="50.54575" lon="3.27424">
        <ele>54.776604</ele>
        <time>2018-07-05T12:10:00Z</time>
      </trkpt>
      <trkpt lat="50.54575" lon="3.27412">
        <ele>54.660198</ele>
        <time>2018-07-05T12:10:02Z</time>
      </trkpt>
      <trkpt lat="50.54582" lon="3.27404">
        <ele>54.526356</ele>
        <time>2018-07-05T12:10:04Z</time>
      </trkpt>
      <trkpt lat="50.5459" lon="3.27397">
        <ele>54.520081</ele>
        <time>2018-07-05T12:10:06Z</time>
      </trkpt>
      <trkpt lat="50.54598" lon="3.27391">
        <ele>54.420265</ele>
        <time>2018-07-05T12:10:08Z</time>
      </trkpt>
      <trkpt lat="50.54606" lon="3.27384">
        <ele>54.426422</ele>
        <time>2018-07-05T12:10:10Z</time>
      </trkpt>
      <trkpt lat="50.54613" lon="3.27376">
        <ele>54.40757</ele>
        <time>2018-07-05T12:10:12Z</time>
      </trkpt>
      <trkpt lat="50.5462" lon="3.27367">
        <ele>54.420113</ele>
        <time>2018-07-05T12:10:14Z</time>
      </trkpt>
      <trkpt lat="50.54627" lon="3.27358">
        <ele>54.510063</ele>
        <time>2018-07-05T12:10:16Z</time>
      </trkpt>
      <trkpt lat="50.54632" lon="3.27349">
        <ele>54.527</ele>
        <time>2018-07-05T12:10:18Z</time>
      </trkpt>
      <trkpt lat="50.54636" lon="3.27339">
        <ele>54.652527</ele>
        <time>2018-07-05T12:10:20Z</time>
      </trkpt>
      <trkpt lat="50.54641" lon="3.2733">
        <ele>54.857483</ele>
        <time>2018-07-05T12:10:22Z</time>
      </trkpt>
      <trkpt lat="50.54646" lon="3.27319">
        <ele>55.022743</ele>
        <time>2018-07-05T12:10:24Z</time>
      </trkpt>
      <trkpt lat="50.54648" lon="3.27307">
        <ele>55.113293</ele>
        <time>2018-07-05T12:10:26Z</time>
      </trkpt>
      <trkpt lat="50.54647" lon="3.27293">
        <ele>55.314045</ele>
        <time>2018-07-05T12:10:28Z</time>
      </trkpt>
      <trkpt lat="50.54644" lon="3.2728">
        <ele>55.514843</ele>
        <time>2018-07-05T12:10:30Z</time>
      </trkpt>
      <trkpt lat="50.54641" lon="3.27266">
        <ele>55.521137</ele>
        <time>2018-07-05T12:10:32Z</time>
      </trkpt>
      <trkpt lat="50.54638" lon="3.27252">
        <ele>55.719837</ele>
        <time>2018-07-05T12:10:34Z</time>
      </trkpt>
      <trkpt lat="50.54635" lon="3.27239">
        <ele>55.854126</ele>
        <time>2018-07-05T12:10:36Z</time>
      </trkpt>
      <trkpt lat="50.54631" lon="3.27226">
        <ele>55.864586</ele>
        <time>2018-07-05T12:10:38Z</time>
      </trkpt>
      <trkpt lat="50.54627" lon="3.27214">
        <ele>56.025654</ele>
        <time>2018-07-05T12:10:40Z</time>
      </trkpt>
      <trkpt lat="50.54623" lon="3.27202">
        <ele>56.134399</ele>
        <time>2018-07-05T12:10:42Z</time>
      </trkpt>
      <trkpt lat="50.54617" lon="3.2719">
        <ele>56.274517</ele>
        <time>2018-07-05T12:10:44Z</time>
      </trkpt>
      <trkpt lat="50.54612" lon="3.27177">
        <ele>56.416729</ele>
        <time>2018-07-05T12:10:46Z</time>
      </trkpt>
      <trkpt lat="50.54609" lon="3.27164">
        <ele>56.508766</ele>
        <time>2018-07-05T12:10:48Z</time>
      </trkpt>
      <trkpt lat="50.54606" lon="3.27151">
        <ele>56.651001</ele>
        <time>2018-07-05T12:10:50Z</time>
      </trkpt>
      <trkpt lat="50.54604" lon="3.27138">
        <ele>56.72224</ele>
        <time>2018-07-05T12:10:52Z</time>
      </trkpt>
      <trkpt lat="50.54602" lon="3.27124">
        <ele>56.828941</ele>
        <time>2018-07-05T12:10:54Z</time>
      </trkpt>
      <trkpt lat="50.546" lon="3.27111">
        <ele>56.900055</ele>
        <time>2018-07-05T12:10:56Z</time>
      </trkpt>
      <trkpt lat="50.54599" lon="3.27096">
        <ele>56.843151</ele>
        <time>2018-07-05T12:10:58Z</time>
      </trkpt>
      <trkpt lat="50.54596" lon="3.27082">
        <ele>56.744831</ele>
        <time>2018-07-05T12:11:00Z</time>
      </trkpt>
      <trkpt lat="50.54594" lon="3.27068">
        <ele>56.734364</ele>
        <time>2018-07-05T12:11:02Z</time>
      </trkpt>
      <trkpt lat="50.54593" lon="3.27054">
        <ele>56.730175</ele>
        <time>2018-07-05T12:11:04Z</time>
      </trkpt>
      <trkpt lat="50.54591" lon="3.27041">
        <ele>56.79295</ele>
        <time>2018-07-05T12:11:06Z</time>
      </trkpt>
      <trkpt lat="50.54589" lon="3.27028">
        <ele>56.819538</ele>
        <time>2018-07-05T12:11:08Z</time>
      </trkpt>
      <trkpt lat="50.54588" lon="3.27014">
        <ele>56.836845</ele>
        <time>2018-07-05T12:11:10Z</time>
      </trkpt>
      <trkpt lat="50.54586" lon="3.27">
        <ele>56.824291</ele>
        <time>2018-07-05T12:11:12Z</time>
      </trkpt>
      <trkpt lat="50.54584" lon="3.26986">
        <ele>56.864025</ele>
        <time>2018-07-05T12:11:14Z</time>
      </trkpt>
      <trkpt lat="50.54582" lon="3.26972">
        <ele>56.966564</ele>
        <time>2018-07-05T12:11:16Z</time>
      </trkpt>
      <trkpt lat="50.5458" lon="3.26957">
        <ele>56.926819</ele>
        <time>2018-07-05T12:11:18Z</time>
      </trkpt>
      <trkpt lat="50.54578" lon="3.26942">
        <ele>57.021889</ele>
        <time>2018-07-05T12:11:20Z</time>
      </trkpt>
      <trkpt lat="50.54575" lon="3.26928">
        <ele>56.933941</ele>
        <time>2018-07-05T12:11:22Z</time>
      </trkpt>
      <trkpt lat="50.54573" lon="3.26913">
        <ele>57.025993</ele>
        <time>2018-07-05T12:11:24Z</time>
      </trkpt>
      <trkpt lat="50.54571" lon="3.26899">
        <ele>57.114246</ele>
        <time>2018-07-05T12:11:26Z</time>
      </trkpt>
      <trkpt lat="50.5457" lon="3.26885">
        <ele>57.051495</ele>
        <time>2018-07-05T12:11:28Z</time>
      </trkpt>
      <trkpt lat="50.54568" lon="3.26871">
        <ele>56.974098</ele>
        <time>2018-07-05T12:11:30Z</time>
      </trkpt>
      <trkpt lat="50.54565" lon="3.26857">
        <ele>56.921795</ele>
        <time>2018-07-05T12:11:32Z</time>
      </trkpt>
      <trkpt lat="50.54563" lon="3.26842">
        <ele>56.91906</ele>
        <time>2018-07-05T12:11:34Z</time>
      </trkpt>
      <trkpt lat="50.54561" lon="3.26828">
        <ele>56.870049</ele>
        <time>2018-07-05T12:11:36Z</time>
      </trkpt>
      <trkpt lat="50.54559" lon="3.26814">
        <ele>56.847038</ele>
        <time>2018-07-05T12:11:38Z</time>
      </trkpt>
      <trkpt lat="50.54557" lon="3.268">
        <ele>56.905354</ele>
        <time>2018-07-05T12:11:40Z</time>
      </trkpt>
      <trkpt lat="50.54555" lon="3.26785">
        <ele>56.905346</ele>
        <time>2018-07-05T12:11:42Z</time>
      </trkpt>
      <trkpt lat="50.54553" lon="3.26771">
        <ele>56.905346</ele>
        <time>2018-07-05T12:11:44Z</time>
      </trkpt>
      <trkpt lat="50.54551" lon="3.26757">
        <ele>56.836315</ele>
        <time>2018-07-05T12:11:46Z</time>
      </trkpt>
      <trkpt lat="50.54549" lon="3.26743">
        <ele>56.792152</ele>
        <time>2018-07-05T12:11:48Z</time>
      </trkpt>
      <trkpt lat="50.54548" lon="3.26729">
        <ele>56.760773</ele>
        <time>2018-07-05T12:11:50Z</time>
      </trkpt>
      <trkpt lat="50.54546" lon="3.26715">
        <ele>56.743519</ele>
        <time>2018-07-05T12:11:52Z</time>
      </trkpt>
      <trkpt lat="50.54544" lon="3.26701">
        <ele>56.687031</ele>
        <time>2018-07-05T12:11:54Z</time>
      </trkpt>
      <trkpt lat="50.54542" lon="3.26688">
        <ele>56.720448</ele>
        <time>2018-07-05T12:11:56Z</time>
      </trkpt>
      <trkpt lat="50.54541" lon="3.26676">
        <ele>56.682789</ele>
        <time>2018-07-05T12:11:58Z</time>
      </trkpt>
      <trkpt lat="50.54539" lon="3.26663">
        <ele>56.704872</ele>
        <time>2018-07-05T12:12:00Z</time>
      </trkpt>
      <trkpt lat="50.54538" lon="3.26652">
        <ele>56.711143</ele>
        <time>2018-07-05T12:12:02Z</time>
      </trkpt>
      <trkpt lat="50.54537" lon="3.26641">
        <ele>56.780281</ele>
        <time>2018-07-05T12:12:04Z</time>
      </trkpt>
      <trkpt lat="50.54534" lon="3.26631">
        <ele>56.752705</ele>
        <time>2018-07-05T12:12:06Z</time>
      </trkpt>
      <trkpt lat="50.54528" lon="3.26628">
        <ele>56.710907</ele>
        <time>2018-07-05T12:12:08Z</time>
      </trkpt>
      <trkpt lat="50.54519" lon="3.26632">
        <ele>56.828041</ele>
        <time>2018-07-05T12:12:10Z</time>
      </trkpt>
      <trkpt lat="50.54512" lon="3.2664">
        <ele>56.830132</ele>
        <time>2018-07-05T12:12:12Z</time>
      </trkpt>
      <trkpt lat="50.54505" lon="3.26652">
        <ele>56.803589</ele>
        <time>2018-07-05T12:12:14Z</time>
      </trkpt>
      <trkpt lat="50.54499" lon="3.26663">
        <ele>56.737114</ele>
        <time>2018-07-05T12:12:16Z</time>
      </trkpt>
      <trkpt lat="50.54493" lon="3.26676">
        <ele>56.638805</ele>
        <time>2018-07-05T12:12:18Z</time>
      </trkpt>
      <trkpt lat="50.54487" lon="3.26688">
        <ele>56.634621</ele>
        <time>2018-07-05T12:12:20Z</time>
      </trkpt>
      <trkpt lat="50.54482" lon="3.26701">
        <ele>56.611137</ele>
        <time>2018-07-05T12:12:22Z</time>
      </trkpt>
      <trkpt lat="50.54476" lon="3.26715">
        <ele>56.604866</ele>
        <time>2018-07-05T12:12:24Z</time>
      </trkpt>
      <trkpt lat="50.5447" lon="3.26729">
        <ele>56.567219</ele>
        <time>2018-07-05T12:12:26Z</time>
      </trkpt>
      <trkpt lat="50.54464" lon="3.26743">
        <ele>56.494576</ele>
        <time>2018-07-05T12:12:28Z</time>
      </trkpt>
      <trkpt lat="50.54458" lon="3.26758">
        <ele>56.355591</ele>
        <time>2018-07-05T12:12:30Z</time>
      </trkpt>
      <trkpt lat="50.54452" lon="3.26773">
        <ele>56.200806</ele>
        <time>2018-07-05T12:12:32Z</time>
      </trkpt>
      <trkpt lat="50.54446" lon="3.26788">
        <ele>56.010475</ele>
        <time>2018-07-05T12:12:34Z</time>
      </trkpt>
      <trkpt lat="50.5444" lon="3.26802">
        <ele>55.824329</ele>
        <time>2018-07-05T12:12:36Z</time>
      </trkpt>
      <trkpt lat="50.54432" lon="3.26817">
        <ele>55.684185</ele>
        <time>2018-07-05T12:12:38Z</time>
      </trkpt>
      <trkpt lat="50.54424" lon="3.26831">
        <ele>55.507618</ele>
        <time>2018-07-05T12:12:40Z</time>
      </trkpt>
      <trkpt lat="50.54416" lon="3.26846">
        <ele>55.323284</ele>
        <time>2018-07-05T12:12:42Z</time>
      </trkpt>
      <trkpt lat="50.54408" lon="3.26861">
        <ele>55.032875</ele>
        <time>2018-07-05T12:12:44Z</time>
      </trkpt>
      <trkpt lat="50.54398" lon="3.26873">
        <ele>54.7593</ele>
        <time>2018-07-05T12:12:46Z</time>
      </trkpt>
      <trkpt lat="50.54388" lon="3.26882">
        <ele>54.420063</ele>
        <time>2018-07-05T12:12:48Z</time>
      </trkpt>
      <trkpt lat="50.54376" lon="3.2689">
        <ele>54.091736</ele>
        <time>2018-07-05T12:12:50Z</time>
      </trkpt>
      <trkpt lat="50.54364" lon="3.26897">
        <ele>53.801044</ele>
        <time>2018-07-05T12:12:52Z</time>
      </trkpt>
      <trkpt lat="50.54352" lon="3.26905">
        <ele>53.525005</ele>
        <time>2018-07-05T12:12:54Z</time>
      </trkpt>
      <trkpt lat="50.5434" lon="3.26912">
        <ele>53.397442</ele>
        <time>2018-07-05T12:12:56Z</time>
      </trkpt>
      <trkpt lat="50.54328" lon="3.2692">
        <ele>53.126343</ele>
        <time>2018-07-05T12:12:58Z</time>
      </trkpt>
      <trkpt lat="50.54316" lon="3.26927">
        <ele>52.852428</ele>
        <time>2018-07-05T12:13:00Z</time>
      </trkpt>
      <trkpt lat="50.54303" lon="3.26934">
        <ele>52.505299</ele>
        <time>2018-07-05T12:13:02Z</time>
      </trkpt>
      <trkpt lat="50.54291" lon="3.26942">
        <ele>52.174427</ele>
        <time>2018-07-05T12:13:04Z</time>
      </trkpt>
      <trkpt lat="50.54279" lon="3.2695">
        <ele>51.832623</ele>
        <time>2018-07-05T12:13:06Z</time>
      </trkpt>
      <trkpt lat="50.54267" lon="3.26957">
        <ele>51.552361</ele>
        <time>2018-07-05T12:13:08Z</time>
      </trkpt>
      <trkpt lat="50.54254" lon="3.26964">
        <ele>51.356945</ele>
        <time>2018-07-05T12:13:10Z</time>
      </trkpt>
      <trkpt lat="50.54242" lon="3.26969">
        <ele>51.14576</ele>
        <time>2018-07-05T12:13:12Z</time>
      </trkpt>
      <trkpt lat="50.54229" lon="3.2697">
        <ele>50.821697</ele>
        <time>2018-07-05T12:13:14Z</time>
      </trkpt>
      <trkpt lat="50.54216" lon="3.26969">
        <ele>50.666523</ele>
        <time>2018-07-05T12:13:16Z</time>
      </trkpt>
      <trkpt lat="50.54204" lon="3.26967">
        <ele>50.538982</ele>
        <time>2018-07-05T12:13:18Z</time>
      </trkpt>
      <trkpt lat="50.54191" lon="3.26964">
        <ele>50.348778</ele>
        <time>2018-07-05T12:13:20Z</time>
      </trkpt>
      <trkpt lat="50.54179" lon="3.26962">
        <ele>50.040237</ele>
        <time>2018-07-05T12:13:22Z</time>
      </trkpt>
      <trkpt lat="50.54166" lon="3.2696">
        <ele>49.818886</ele>
        <time>2018-07-05T12:13:24Z</time>
      </trkpt>
      <trkpt lat="50.54153" lon="3.26958">
        <ele>49.59901</ele>
        <time>2018-07-05T12:13:26Z</time>
      </trkpt>
      <trkpt lat="50.54141" lon="3.26956">
        <ele>49.556625</ele>
        <time>2018-07-05T12:13:28Z</time>
      </trkpt>
      <trkpt lat="50.54129" lon="3.26954">
        <ele>49.418655</ele>
        <time>2018-07-05T12:13:30Z</time>
      </trkpt>
      <trkpt lat="50.54118" lon="3.26952">
        <ele>49.337132</ele>
        <time>2018-07-05T12:13:32Z</time>
      </trkpt>
      <trkpt lat="50.54106" lon="3.2695">
        <ele>49.351768</ele>
        <time>2018-07-05T12:13:34Z</time>
      </trkpt>
      <trkpt lat="50.54095" lon="3.26949">
        <ele>49.27401</ele>
        <time>2018-07-05T12:13:36Z</time>
      </trkpt>
      <trkpt lat="50.54084" lon="3.26947">
        <ele>49.210953</ele>
        <time>2018-07-05T12:13:38Z</time>
      </trkpt>
      <trkpt lat="50.54074" lon="3.26945">
        <ele>49.200504</ele>
        <time>2018-07-05T12:13:40Z</time>
      </trkpt>
      <trkpt lat="50.54064" lon="3.26943">
        <ele>49.125248</ele>
        <time>2018-07-05T12:13:42Z</time>
      </trkpt>
      <trkpt lat="50.54054" lon="3.2694">
        <ele>49.100159</ele>
        <time>2018-07-05T12:13:44Z</time>
      </trkpt>
      <trkpt lat="50.54044" lon="3.26938">
        <ele>48.963833</ele>
        <time>2018-07-05T12:13:46Z</time>
      </trkpt>
      <trkpt lat="50.54034" lon="3.26935">
        <ele>48.872845</ele>
        <time>2018-07-05T12:13:48Z</time>
      </trkpt>
      <trkpt lat="50.54024" lon="3.26933">
        <ele>48.920448</ele>
        <time>2018-07-05T12:13:50Z</time>
      </trkpt>
      <trkpt lat="50.54014" lon="3.26929">
        <ele>48.805473</ele>
        <time>2018-07-05T12:13:52Z</time>
      </trkpt>
      <trkpt lat="50.54005" lon="3.26924">
        <ele>48.669605</ele>
        <time>2018-07-05T12:13:54Z</time>
      </trkpt>
      <trkpt lat="50.53997" lon="3.26918">
        <ele>48.740673</ele>
        <time>2018-07-05T12:13:56Z</time>
      </trkpt>
      <trkpt lat="50.53988" lon="3.2691">
        <ele>48.6847</ele>
        <time>2018-07-05T12:13:58Z</time>
      </trkpt>
      <trkpt lat="50.5398" lon="3.26902">
        <ele>48.665821</ele>
        <time>2018-07-05T12:14:00Z</time>
      </trkpt>
      <trkpt lat="50.53972" lon="3.26892">
        <ele>48.676403</ele>
        <time>2018-07-05T12:14:02Z</time>
      </trkpt>
      <trkpt lat="50.53964" lon="3.26883">
        <ele>48.693127</ele>
        <time>2018-07-05T12:14:04Z</time>
      </trkpt>
      <trkpt lat="50.53955" lon="3.26874">
        <ele>48.745384</ele>
        <time>2018-07-05T12:14:06Z</time>
      </trkpt>
      <trkpt lat="50.53947" lon="3.26864">
        <ele>48.81205</ele>
        <time>2018-07-05T12:14:08Z</time>
      </trkpt>
      <trkpt lat="50.53939" lon="3.26854">
        <ele>48.755608</ele>
        <time>2018-07-05T12:14:10Z</time>
      </trkpt>
      <trkpt lat="50.53931" lon="3.26844">
        <ele>48.738892</ele>
        <time>2018-07-05T12:14:12Z</time>
      </trkpt>
      <trkpt lat="50.53923" lon="3.26834">
        <ele>48.659462</ele>
        <time>2018-07-05T12:14:14Z</time>
      </trkpt>
      <trkpt lat="50.53915" lon="3.26822">
        <ele>48.544483</ele>
        <time>2018-07-05T12:14:16Z</time>
      </trkpt>
      <trkpt lat="50.53908" lon="3.26811">
        <ele>48.504559</ele>
        <time>2018-07-05T12:14:18Z</time>
      </trkpt>
      <trkpt lat="50.53901" lon="3.26799">
        <ele>48.406322</ele>
        <time>2018-07-05T12:14:20Z</time>
      </trkpt>
      <trkpt lat="50.53894" lon="3.26787">
        <ele>48.397961</ele>
        <time>2018-07-05T12:14:22Z</time>
      </trkpt>
      <trkpt lat="50.53887" lon="3.26775">
        <ele>48.425133</ele>
        <time>2018-07-05T12:14:24Z</time>
      </trkpt>
      <trkpt lat="50.53881" lon="3.26764">
        <ele>48.414673</ele>
        <time>2018-07-05T12:14:26Z</time>
      </trkpt>
      <trkpt lat="50.53875" lon="3.26753">
        <ele>48.405682</ele>
        <time>2018-07-05T12:14:28Z</time>
      </trkpt>
      <trkpt lat="50.53869" lon="3.26741">
        <ele>48.332512</ele>
        <time>2018-07-05T12:14:30Z</time>
      </trkpt>
      <trkpt lat="50.53865" lon="3.26727">
        <ele>48.240551</ele>
        <time>2018-07-05T12:14:32Z</time>
      </trkpt>
      <trkpt lat="50.53864" lon="3.26712">
        <ele>48.313709</ele>
        <time>2018-07-05T12:14:34Z</time>
      </trkpt>
      <trkpt lat="50.53864" lon="3.26696">
        <ele>48.378506</ele>
        <time>2018-07-05T12:14:36Z</time>
      </trkpt>
      <trkpt lat="50.53864" lon="3.2668">
        <ele>48.343594</ele>
        <time>2018-07-05T12:14:38Z</time>
      </trkpt>
      <trkpt lat="50.53864" lon="3.26664">
        <ele>48.188934</ele>
        <time>2018-07-05T12:14:40Z</time>
      </trkpt>
      <trkpt lat="50.53864" lon="3.26648">
        <ele>48.222385</ele>
        <time>2018-07-05T12:14:42Z</time>
      </trkpt>
      <trkpt lat="50.53863" lon="3.26632">
        <ele>48.147011</ele>
        <time>2018-07-05T12:14:44Z</time>
      </trkpt>
      <trkpt lat="50.53862" lon="3.26617">
        <ele>48.213905</ele>
        <time>2018-07-05T12:14:46Z</time>
      </trkpt>
      <trkpt lat="50.53862" lon="3.26604">
        <ele>48.172264</ele>
        <time>2018-07-05T12:14:48Z</time>
      </trkpt>
      <trkpt lat="50.53861" lon="3.26591">
        <ele>48.214882</ele>
        <time>2018-07-05T12:14:50Z</time>
      </trkpt>
      <trkpt lat="50.5386" lon="3.26578">
        <ele>48.351921</ele>
        <time>2018-07-05T12:14:52Z</time>
      </trkpt>
      <trkpt lat="50.53859" lon="3.26567">
        <ele>48.479431</ele>
        <time>2018-07-05T12:14:54Z</time>
      </trkpt>
      <trkpt lat="50.53859" lon="3.26558">
        <ele>48.48988</ele>
        <time>2018-07-05T12:14:56Z</time>
      </trkpt>
      <trkpt lat="50.53858" lon="3.26552">
        <ele>48.624287</ele>
        <time>2018-07-05T12:14:58Z</time>
      </trkpt>
      <trkpt lat="50.53857" lon="3.26547">
        <ele>48.709991</ele>
        <time>2018-07-05T12:15:00Z</time>
      </trkpt>
      <trkpt lat="50.53857" lon="3.26544">
        <ele>48.868855</ele>
        <time>2018-07-05T12:15:04Z</time>
      </trkpt>
      <trkpt lat="50.53857" lon="3.26539">
        <ele>49.000542</ele>
        <time>2018-07-05T12:15:06Z</time>
      </trkpt>
      <trkpt lat="50.53857" lon="3.26533">
        <ele>49.199131</ele>
        <time>2018-07-05T12:15:08Z</time>
      </trkpt>
      <trkpt lat="50.53858" lon="3.26526">
        <ele>49.349228</ele>
        <time>2018-07-05T12:15:10Z</time>
      </trkpt>
      <trkpt lat="50.53857" lon="3.26517">
        <ele>49.541584</ele>
        <time>2018-07-05T12:15:12Z</time>
      </trkpt>
      <trkpt lat="50.53856" lon="3.26506">
        <ele>49.635643</ele>
        <time>2018-07-05T12:15:14Z</time>
      </trkpt>
      <trkpt lat="50.53854" lon="3.26493">
        <ele>49.696281</ele>
        <time>2018-07-05T12:15:16Z</time>
      </trkpt>
      <trkpt lat="50.53853" lon="3.2648">
        <ele>49.771545</ele>
        <time>2018-07-05T12:15:18Z</time>
      </trkpt>
      <trkpt lat="50.53851" lon="3.26467">
        <ele>49.992516</ele>
        <time>2018-07-05T12:15:20Z</time>
      </trkpt>
      <trkpt lat="50.5385" lon="3.26454">
        <ele>50.300587</ele>
        <time>2018-07-05T12:15:22Z</time>
      </trkpt>
      <trkpt lat="50.53848" lon="3.26441">
        <ele>50.321484</ele>
        <time>2018-07-05T12:15:24Z</time>
      </trkpt>
      <trkpt lat="50.53846" lon="3.26427">
        <ele>50.543053</ele>
        <time>2018-07-05T12:15:26Z</time>
      </trkpt>
      <trkpt lat="50.53845" lon="3.26415">
        <ele>50.683147</ele>
        <time>2018-07-05T12:15:28Z</time>
      </trkpt>
      <trkpt lat="50.53843" lon="3.26403">
        <ele>50.846058</ele>
        <time>2018-07-05T12:15:30Z</time>
      </trkpt>
      <trkpt lat="50.53841" lon="3.26392">
        <ele>50.912788</ele>
        <time>2018-07-05T12:15:32Z</time>
      </trkpt>
      <trkpt lat="50.5384" lon="3.26381">
        <ele>50.979942</ele>
        <time>2018-07-05T12:15:34Z</time>
      </trkpt>
      <trkpt lat="50.53838" lon="3.26369">
        <ele>51.019482</ele>
        <time>2018-07-05T12:15:36Z</time>
      </trkpt>
      <trkpt lat="50.53835" lon="3.26358">
        <ele>51.090557</ele>
        <time>2018-07-05T12:15:38Z</time>
      </trkpt>
      <trkpt lat="50.53832" lon="3.26347">
        <ele>51.236919</ele>
        <time>2018-07-05T12:15:40Z</time>
      </trkpt>
      <trkpt lat="50.53828" lon="3.26336">
        <ele>51.356098</ele>
        <time>2018-07-05T12:15:42Z</time>
      </trkpt>
      <trkpt lat="50.53824" lon="3.26326">
        <ele>51.619549</ele>
        <time>2018-07-05T12:15:44Z</time>
      </trkpt>
      <trkpt lat="50.5382" lon="3.26315">
        <ele>51.753357</ele>
        <time>2018-07-05T12:15:46Z</time>
      </trkpt>
      <trkpt lat="50.53816" lon="3.26305">
        <ele>51.809814</ele>
        <time>2018-07-05T12:15:48Z</time>
      </trkpt>
      <trkpt lat="50.53812" lon="3.26294">
        <ele>51.822357</ele>
        <time>2018-07-05T12:15:50Z</time>
      </trkpt>
      <trkpt lat="50.53808" lon="3.26284">
        <ele>51.916039</ele>
        <time>2018-07-05T12:15:52Z</time>
      </trkpt>
      <trkpt lat="50.53803" lon="3.26275">
        <ele>52.014854</ele>
        <time>2018-07-05T12:15:54Z</time>
      </trkpt>
      <trkpt lat="50.53799" lon="3.26265">
        <ele>52.272022</ele>
        <time>2018-07-05T12:15:56Z</time>
      </trkpt>
      <trkpt lat="50.53794" lon="3.26255">
        <ele>52.393299</ele>
        <time>2018-07-05T12:15:58Z</time>
      </trkpt>
      <trkpt lat="50.53789" lon="3.26245">
        <ele>52.644276</ele>
        <time>2018-07-05T12:16:00Z</time>
      </trkpt>
      <trkpt lat="50.53784" lon="3.26234">
        <ele>52.67564</ele>
        <time>2018-07-05T12:16:02Z</time>
      </trkpt>
      <trkpt lat="50.5378" lon="3.26223">
        <ele>52.888123</ele>
        <time>2018-07-05T12:16:04Z</time>
      </trkpt>
      <trkpt lat="50.53775" lon="3.26212">
        <ele>53.049133</ele>
        <time>2018-07-05T12:16:06Z</time>
      </trkpt>
      <trkpt lat="50.5377" lon="3.262">
        <ele>53.13279</ele>
        <time>2018-07-05T12:16:08Z</time>
      </trkpt>
      <trkpt lat="50.53766" lon="3.26189">
        <ele>53.310539</ele>
        <time>2018-07-05T12:16:10Z</time>
      </trkpt>
      <trkpt lat="50.5376" lon="3.26177">
        <ele>53.465309</ele>
        <time>2018-07-05T12:16:12Z</time>
      </trkpt>
      <trkpt lat="50.53755" lon="3.26166">
        <ele>53.55843</ele>
        <time>2018-07-05T12:16:14Z</time>
      </trkpt>
      <trkpt lat="50.5375" lon="3.26154">
        <ele>53.566536</ele>
        <time>2018-07-05T12:16:16Z</time>
      </trkpt>
      <trkpt lat="50.53746" lon="3.26143">
        <ele>53.7141</ele>
        <time>2018-07-05T12:16:18Z</time>
      </trkpt>
      <trkpt lat="50.53741" lon="3.2613">
        <ele>53.925293</ele>
        <time>2018-07-05T12:16:20Z</time>
      </trkpt>
      <trkpt lat="50.53735" lon="3.26118">
        <ele>53.971302</ele>
        <time>2018-07-05T12:16:22Z</time>
      </trkpt>
      <trkpt lat="50.5373" lon="3.26105">
        <ele>54.004761</ele>
        <time>2018-07-05T12:16:24Z</time>
      </trkpt>
      <trkpt lat="50.53724" lon="3.26093">
        <ele>54.02066</ele>
        <time>2018-07-05T12:16:26Z</time>
      </trkpt>
      <trkpt lat="50.53718" lon="3.26082">
        <ele>54.075035</ele>
        <time>2018-07-05T12:16:28Z</time>
      </trkpt>
      <trkpt lat="50.53712" lon="3.26071">
        <ele>54.127312</ele>
        <time>2018-07-05T12:16:30Z</time>
      </trkpt>
      <trkpt lat="50.53705" lon="3.26059">
        <ele>54.158039</ele>
        <time>2018-07-05T12:16:32Z</time>
      </trkpt>
      <trkpt lat="50.53698" lon="3.26047">
        <ele>54.048756</ele>
        <time>2018-07-05T12:16:34Z</time>
      </trkpt>
      <trkpt lat="50.53693" lon="3.26034">
        <ele>54.046669</ele>
        <time>2018-07-05T12:16:36Z</time>
      </trkpt>
      <trkpt lat="50.53687" lon="3.26022">
        <ele>54.058907</ele>
        <time>2018-07-05T12:16:38Z</time>
      </trkpt>
      <trkpt lat="50.53682" lon="3.26009">
        <ele>54.134197</ele>
        <time>2018-07-05T12:16:40Z</time>
      </trkpt>
      <trkpt lat="50.53676" lon="3.25996">
        <ele>54.050526</ele>
        <time>2018-07-05T12:16:42Z</time>
      </trkpt>
      <trkpt lat="50.53671" lon="3.25982">
        <ele>54.031708</ele>
        <time>2018-07-05T12:16:44Z</time>
      </trkpt>
      <trkpt lat="50.53667" lon="3.25967">
        <ele>53.951721</ele>
        <time>2018-07-05T12:16:46Z</time>
      </trkpt>
      <trkpt lat="50.53664" lon="3.25953">
        <ele>53.964272</ele>
        <time>2018-07-05T12:16:48Z</time>
      </trkpt>
      <trkpt lat="50.53663" lon="3.25939">
        <ele>53.880623</ele>
        <time>2018-07-05T12:16:50Z</time>
      </trkpt>
      <trkpt lat="50.53661" lon="3.25924">
        <ele>53.830425</ele>
        <time>2018-07-05T12:16:52Z</time>
      </trkpt>
      <trkpt lat="50.53659" lon="3.25911">
        <ele>53.757271</ele>
        <time>2018-07-05T12:16:54Z</time>
      </trkpt>
      <trkpt lat="50.53658" lon="3.25897">
        <ele>53.802605</ele>
        <time>2018-07-05T12:16:56Z</time>
      </trkpt>
      <trkpt lat="50.53656" lon="3.25884">
        <ele>53.860149</ele>
        <time>2018-07-05T12:16:58Z</time>
      </trkpt>
      <trkpt lat="50.53651" lon="3.25873">
        <ele>53.929451</ele>
        <time>2018-07-05T12:17:00Z</time>
      </trkpt>
      <trkpt lat="50.53642" lon="3.25866">
        <ele>53.856255</ele>
        <time>2018-07-05T12:17:02Z</time>
      </trkpt>
      <trkpt lat="50.53631" lon="3.25865">
        <ele>53.803974</ele>
        <time>2018-07-05T12:17:04Z</time>
      </trkpt>
      <trkpt lat="50.53619" lon="3.25867">
        <ele>53.701508</ele>
        <time>2018-07-05T12:17:06Z</time>
      </trkpt>
      <trkpt lat="50.53608" lon="3.2587">
        <ele>53.696064</ele>
        <time>2018-07-05T12:17:08Z</time>
      </trkpt>
      <trkpt lat="50.53597" lon="3.25873">
        <ele>53.516228</ele>
        <time>2018-07-05T12:17:10Z</time>
      </trkpt>
      <trkpt lat="50.53585" lon="3.25876">
        <ele>53.528778</ele>
        <time>2018-07-05T12:17:12Z</time>
      </trkpt>
      <trkpt lat="50.53573" lon="3.25879">
        <ele>53.31424</ele>
        <time>2018-07-05T12:17:14Z</time>
      </trkpt>
      <trkpt lat="50.53561" lon="3.25881">
        <ele>53.364422</ele>
        <time>2018-07-05T12:17:16Z</time>
      </trkpt>
      <trkpt lat="50.53548" lon="3.25883">
        <ele>53.153236</ele>
        <time>2018-07-05T12:17:18Z</time>
      </trkpt>
      <trkpt lat="50.53537" lon="3.25885">
        <ele>53.048992</ele>
        <time>2018-07-05T12:17:20Z</time>
      </trkpt>
      <trkpt lat="50.53525" lon="3.25886">
        <ele>52.883766</ele>
        <time>2018-07-05T12:17:22Z</time>
      </trkpt>
      <trkpt lat="50.53515" lon="3.25885">
        <ele>52.840485</ele>
        <time>2018-07-05T12:17:24Z</time>
      </trkpt>
      <trkpt lat="50.53504" lon="3.25881">
        <ele>52.775612</ele>
        <time>2018-07-05T12:17:26Z</time>
      </trkpt>
      <trkpt lat="50.53495" lon="3.25874">
        <ele>52.654865</ele>
        <time>2018-07-05T12:17:28Z</time>
      </trkpt>
      <trkpt lat="50.53486" lon="3.25865">
        <ele>52.429039</ele>
        <time>2018-07-05T12:17:30Z</time>
      </trkpt>
      <trkpt lat="50.5348" lon="3.25853">
        <ele>52.614735</ele>
        <time>2018-07-05T12:17:32Z</time>
      </trkpt>
      <trkpt lat="50.53474" lon="3.2584">
        <ele>52.372566</ele>
        <time>2018-07-05T12:17:34Z</time>
      </trkpt>
      <trkpt lat="50.5347" lon="3.25827">
        <ele>52.374615</ele>
        <time>2018-07-05T12:17:36Z</time>
      </trkpt>
      <trkpt lat="50.53465" lon="3.25814">
        <ele>52.191277</ele>
        <time>2018-07-05T12:17:38Z</time>
      </trkpt>
      <trkpt lat="50.53459" lon="3.25801">
        <ele>52.312611</ele>
        <time>2018-07-05T12:17:40Z</time>
      </trkpt>
      <trkpt lat="50.53454" lon="3.25788">
        <ele>52.021229</ele>
        <time>2018-07-05T12:17:42Z</time>
      </trkpt>
      <trkpt lat="50.53449" lon="3.25774">
        <ele>51.87487</ele>
        <time>2018-07-05T12:17:44Z</time>
      </trkpt>
      <trkpt lat="50.53444" lon="3.25762">
        <ele>52.067291</ele>
        <time>2018-07-05T12:17:46Z</time>
      </trkpt>
      <trkpt lat="50.5344" lon="3.25749">
        <ele>51.906303</ele>
        <time>2018-07-05T12:17:48Z</time>
      </trkpt>
      <trkpt lat="50.53435" lon="3.25736">
        <ele>51.772575</ele>
        <time>2018-07-05T12:17:50Z</time>
      </trkpt>
      <trkpt lat="50.5343" lon="3.25723">
        <ele>51.822803</ele>
        <time>2018-07-05T12:17:52Z</time>
      </trkpt>
      <trkpt lat="50.53425" lon="3.2571">
        <ele>51.790668</ele>
        <time>2018-07-05T12:17:54Z</time>
      </trkpt>
      <trkpt lat="50.5342" lon="3.25698">
        <ele>51.943249</ele>
        <time>2018-07-05T12:17:56Z</time>
      </trkpt>
      <trkpt lat="50.53415" lon="3.25685">
        <ele>52.084755</ele>
        <time>2018-07-05T12:17:58Z</time>
      </trkpt>
      <trkpt lat="50.53409" lon="3.25672">
        <ele>52.25832</ele>
        <time>2018-07-05T12:18:00Z</time>
      </trkpt>
      <trkpt lat="50.53404" lon="3.25659">
        <ele>52.199787</ele>
        <time>2018-07-05T12:18:02Z</time>
      </trkpt>
      <trkpt lat="50.53399" lon="3.25646">
        <ele>52.113426</ele>
        <time>2018-07-05T12:18:04Z</time>
      </trkpt>
      <trkpt lat="50.53394" lon="3.25633">
        <ele>52.134392</ele>
        <time>2018-07-05T12:18:06Z</time>
      </trkpt>
      <trkpt lat="50.5339" lon="3.2562">
        <ele>52.209084</ele>
        <time>2018-07-05T12:18:08Z</time>
      </trkpt>
      <trkpt lat="50.53385" lon="3.25606">
        <ele>52.177711</ele>
        <time>2018-07-05T12:18:10Z</time>
      </trkpt>
      <trkpt lat="50.53381" lon="3.25593">
        <ele>51.955933</ele>
        <time>2018-07-05T12:18:12Z</time>
      </trkpt>
      <trkpt lat="50.53376" lon="3.2558">
        <ele>52.309898</ele>
        <time>2018-07-05T12:18:14Z</time>
      </trkpt>
      <trkpt lat="50.53372" lon="3.25566">
        <ele>52.319977</ele>
        <time>2018-07-05T12:18:16Z</time>
      </trkpt>
      <trkpt lat="50.53368" lon="3.25552">
        <ele>52.235699</ele>
        <time>2018-07-05T12:18:18Z</time>
      </trkpt>
      <trkpt lat="50.53365" lon="3.25537">
        <ele>52.147888</ele>
        <time>2018-07-05T12:18:20Z</time>
      </trkpt>
      <trkpt lat="50.53362" lon="3.25523">
        <ele>52.131065</ele>
        <time>2018-07-05T12:18:22Z</time>
      </trkpt>
      <trkpt lat="50.53359" lon="3.25509">
        <ele>52.221447</ele>
        <time>2018-07-05T12:18:24Z</time>
      </trkpt>
      <trkpt lat="50.53356" lon="3.25495">
        <ele>52.317619</ele>
        <time>2018-07-05T12:18:26Z</time>
      </trkpt>
      <trkpt lat="50.53352" lon="3.25481">
        <ele>52.194202</ele>
        <time>2018-07-05T12:18:28Z</time>
      </trkpt>
      <trkpt lat="50.53348" lon="3.25468">
        <ele>52.256824</ele>
        <time>2018-07-05T12:18:30Z</time>
      </trkpt>
      <trkpt lat="50.53342" lon="3.25455">
        <ele>52.219158</ele>
        <time>2018-07-05T12:18:32Z</time>
      </trkpt>
      <trkpt lat="50.53336" lon="3.25443">
        <ele>52.387932</ele>
        <time>2018-07-05T12:18:34Z</time>
      </trkpt>
      <trkpt lat="50.5333" lon="3.25432">
        <ele>52.375385</ele>
        <time>2018-07-05T12:18:36Z</time>
      </trkpt>
      <trkpt lat="50.53323" lon="3.25421">
        <ele>52.477844</ele>
        <time>2018-07-05T12:18:38Z</time>
      </trkpt>
      <trkpt lat="50.53317" lon="3.25411">
        <ele>52.352905</ele>
        <time>2018-07-05T12:18:40Z</time>
      </trkpt>
      <trkpt lat="50.5331" lon="3.25401">
        <ele>52.526447</ele>
        <time>2018-07-05T12:18:42Z</time>
      </trkpt>
      <trkpt lat="50.53304" lon="3.25392">
        <ele>52.538734</ele>
        <time>2018-07-05T12:18:44Z</time>
      </trkpt>
      <trkpt lat="50.53298" lon="3.25384">
        <ele>52.591011</ele>
        <time>2018-07-05T12:18:46Z</time>
      </trkpt>
      <trkpt lat="50.53293" lon="3.25376">
        <ele>52.609825</ele>
        <time>2018-07-05T12:18:48Z</time>
      </trkpt>
      <trkpt lat="50.53286" lon="3.25367">
        <ele>52.714355</ele>
        <time>2018-07-05T12:18:50Z</time>
      </trkpt>
      <trkpt lat="50.5328" lon="3.25358">
        <ele>52.783337</ele>
        <time>2018-07-05T12:18:52Z</time>
      </trkpt>
      <trkpt lat="50.53273" lon="3.25348">
        <ele>52.860699</ele>
        <time>2018-07-05T12:18:54Z</time>
      </trkpt>
      <trkpt lat="50.53265" lon="3.25338">
        <ele>52.729107</ele>
        <time>2018-07-05T12:18:56Z</time>
      </trkpt>
      <trkpt lat="50.53258" lon="3.25329">
        <ele>52.819641</ele>
        <time>2018-07-05T12:18:58Z</time>
      </trkpt>
      <trkpt lat="50.5325" lon="3.2532">
        <ele>52.915821</ele>
        <time>2018-07-05T12:19:00Z</time>
      </trkpt>
      <trkpt lat="50.53241" lon="3.25312">
        <ele>53.045452</ele>
        <time>2018-07-05T12:19:02Z</time>
      </trkpt>
      <trkpt lat="50.53232" lon="3.25307">
        <ele>53.104004</ele>
        <time>2018-07-05T12:19:04Z</time>
      </trkpt>
      <trkpt lat="50.53223" lon="3.25303">
        <ele>53.097729</ele>
        <time>2018-07-05T12:19:06Z</time>
      </trkpt>
      <trkpt lat="50.53213" lon="3.25301">
        <ele>53.131187</ele>
        <time>2018-07-05T12:19:08Z</time>
      </trkpt>
      <trkpt lat="50.53203" lon="3.25302">
        <ele>53.143871</ele>
        <time>2018-07-05T12:19:10Z</time>
      </trkpt>
      <trkpt lat="50.53193" lon="3.25303">
        <ele>53.183605</ele>
        <time>2018-07-05T12:19:12Z</time>
      </trkpt>
      <trkpt lat="50.53184" lon="3.25306">
        <ele>53.279793</ele>
        <time>2018-07-05T12:19:14Z</time>
      </trkpt>
      <trkpt lat="50.53174" lon="3.2531">
        <ele>53.380737</ele>
        <time>2018-07-05T12:19:16Z</time>
      </trkpt>
      <trkpt lat="50.53165" lon="3.25314">
        <ele>53.479027</ele>
        <time>2018-07-05T12:19:18Z</time>
      </trkpt>
      <trkpt lat="50.53155" lon="3.25317">
        <ele>53.434967</ele>
        <time>2018-07-05T12:19:20Z</time>
      </trkpt>
      <trkpt lat="50.53145" lon="3.25319">
        <ele>53.401794</ele>
        <time>2018-07-05T12:19:22Z</time>
      </trkpt>
      <trkpt lat="50.53135" lon="3.25322">
        <ele>53.395519</ele>
        <time>2018-07-05T12:19:24Z</time>
      </trkpt>
      <trkpt lat="50.53126" lon="3.25322">
        <ele>53.404713</ele>
        <time>2018-07-05T12:19:26Z</time>
      </trkpt>
      <trkpt lat="50.53116" lon="3.25323">
        <ele>53.405724</ele>
        <time>2018-07-05T12:19:28Z</time>
      </trkpt>
      <trkpt lat="50.53107" lon="3.25323">
        <ele>53.317902</ele>
        <time>2018-07-05T12:19:30Z</time>
      </trkpt>
      <trkpt lat="50.53097" lon="3.25322">
        <ele>53.262047</ele>
        <time>2018-07-05T12:19:32Z</time>
      </trkpt>
      <trkpt lat="50.53086" lon="3.25322">
        <ele>53.274616</ele>
        <time>2018-07-05T12:19:34Z</time>
      </trkpt>
      <trkpt lat="50.53076" lon="3.25319">
        <ele>53.261879</ele>
        <time>2018-07-05T12:19:36Z</time>
      </trkpt>
      <trkpt lat="50.53066" lon="3.25314">
        <ele>53.259743</ele>
        <time>2018-07-05T12:19:38Z</time>
      </trkpt>
      <trkpt lat="50.53055" lon="3.25307">
        <ele>53.332939</ele>
        <time>2018-07-05T12:19:40Z</time>
      </trkpt>
      <trkpt lat="50.53045" lon="3.253">
        <ele>53.140583</ele>
        <time>2018-07-05T12:19:42Z</time>
      </trkpt>
      <trkpt lat="50.53036" lon="3.25294">
        <ele>53.167767</ele>
        <time>2018-07-05T12:19:44Z</time>
      </trkpt>
      <trkpt lat="50.53026" lon="3.25288">
        <ele>53.071564</ele>
        <time>2018-07-05T12:19:46Z</time>
      </trkpt>
      <trkpt lat="50.53017" lon="3.25284">
        <ele>52.950294</ele>
        <time>2018-07-05T12:19:48Z</time>
      </trkpt>
      <trkpt lat="50.53007" lon="3.25281">
        <ele>52.962837</ele>
        <time>2018-07-05T12:19:50Z</time>
      </trkpt>
      <trkpt lat="50.52997" lon="3.25278">
        <ele>52.961987</ele>
        <time>2018-07-05T12:19:52Z</time>
      </trkpt>
      <trkpt lat="50.52988" lon="3.25275">
        <ele>53.039398</ele>
        <time>2018-07-05T12:19:54Z</time>
      </trkpt>
      <trkpt lat="50.52977" lon="3.25273">
        <ele>52.924389</ele>
        <time>2018-07-05T12:19:56Z</time>
      </trkpt>
      <trkpt lat="50.52968" lon="3.25271">
        <ele>52.784931</ele>
        <time>2018-07-05T12:19:58Z</time>
      </trkpt>
      <trkpt lat="50.52957" lon="3.25268">
        <ele>52.573738</ele>
        <time>2018-07-05T12:20:00Z</time>
      </trkpt>
      <trkpt lat="50.52947" lon="3.25266">
        <ele>52.521454</ele>
        <time>2018-07-05T12:20:02Z</time>
      </trkpt>
      <trkpt lat="50.52937" lon="3.25262">
        <ele>52.525597</ele>
        <time>2018-07-05T12:20:04Z</time>
      </trkpt>
      <trkpt lat="50.52927" lon="3.25259">
        <ele>52.410004</ele>
        <time>2018-07-05T12:20:06Z</time>
      </trkpt>
      <trkpt lat="50.52918" lon="3.25256">
        <ele>52.317394</ele>
        <time>2018-07-05T12:20:08Z</time>
      </trkpt>
      <trkpt lat="50.52908" lon="3.25252">
        <ele>52.273491</ele>
        <time>2018-07-05T12:20:10Z</time>
      </trkpt>
      <trkpt lat="50.52899" lon="3.25249">
        <ele>52.139679</ele>
        <time>2018-07-05T12:20:12Z</time>
      </trkpt>
      <trkpt lat="50.5289" lon="3.25246">
        <ele>52.005829</ele>
        <time>2018-07-05T12:20:14Z</time>
      </trkpt>
      <trkpt lat="50.52881" lon="3.25243">
        <ele>52.058113</ele>
        <time>2018-07-05T12:20:16Z</time>
      </trkpt>
      <trkpt lat="50.52873" lon="3.2524">
        <ele>51.959862</ele>
        <time>2018-07-05T12:20:18Z</time>
      </trkpt>
      <trkpt lat="50.52864" lon="3.25238">
        <ele>51.826042</ele>
        <time>2018-07-05T12:20:20Z</time>
      </trkpt>
      <trkpt lat="50.52855" lon="3.25237">
        <ele>51.757027</ele>
        <time>2018-07-05T12:20:22Z</time>
      </trkpt>
      <trkpt lat="50.52846" lon="3.25235">
        <ele>51.890076</ele>
        <time>2018-07-05T12:20:24Z</time>
      </trkpt>
      <trkpt lat="50.52836" lon="3.25233">
        <ele>51.858711</ele>
        <time>2018-07-05T12:20:26Z</time>
      </trkpt>
      <trkpt lat="50.52827" lon="3.25232">
        <ele>51.832054</ele>
        <time>2018-07-05T12:20:28Z</time>
      </trkpt>
      <trkpt lat="50.52818" lon="3.25231">
        <ele>51.88224</ele>
        <time>2018-07-05T12:20:30Z</time>
      </trkpt>
      <trkpt lat="50.52808" lon="3.25231">
        <ele>51.965889</ele>
        <time>2018-07-05T12:20:32Z</time>
      </trkpt>
      <trkpt lat="50.52799" lon="3.2523">
        <ele>52.092072</ele>
        <time>2018-07-05T12:20:34Z</time>
      </trkpt>
      <trkpt lat="50.52789" lon="3.25229">
        <ele>51.905926</ele>
        <time>2018-07-05T12:20:36Z</time>
      </trkpt>
      <trkpt lat="50.5278" lon="3.25229">
        <ele>52.004204</ele>
        <time>2018-07-05T12:20:38Z</time>
      </trkpt>
      <trkpt lat="50.5277" lon="3.25229">
        <ele>52.166405</ele>
        <time>2018-07-05T12:20:40Z</time>
      </trkpt>
      <trkpt lat="50.52761" lon="3.25228">
        <ele>52.308586</ele>
        <time>2018-07-05T12:20:42Z</time>
      </trkpt>
      <trkpt lat="50.52751" lon="3.25228">
        <ele>52.433533</ele>
        <time>2018-07-05T12:20:44Z</time>
      </trkpt>
      <trkpt lat="50.52742" lon="3.25228">
        <ele>52.492115</ele>
        <time>2018-07-05T12:20:46Z</time>
      </trkpt>
      <trkpt lat="50.52733" lon="3.25228">
        <ele>52.592094</ele>
        <time>2018-07-05T12:20:48Z</time>
      </trkpt>
      <trkpt lat="50.52724" lon="3.25227">
        <ele>52.830486</ele>
        <time>2018-07-05T12:20:50Z</time>
      </trkpt>
      <trkpt lat="50.52715" lon="3.25227">
        <ele>52.951775</ele>
        <time>2018-07-05T12:20:52Z</time>
      </trkpt>
      <trkpt lat="50.52706" lon="3.25227">
        <ele>53.060516</ele>
        <time>2018-07-05T12:20:54Z</time>
      </trkpt>
      <trkpt lat="50.52697" lon="3.25227">
        <ele>53.060516</ele>
        <time>2018-07-05T12:20:56Z</time>
      </trkpt>
      <trkpt lat="50.52688" lon="3.25226">
        <ele>53.029144</ele>
        <time>2018-07-05T12:20:58Z</time>
      </trkpt>
      <trkpt lat="50.52678" lon="3.25227">
        <ele>53.041737</ele>
        <time>2018-07-05T12:21:00Z</time>
      </trkpt>
      <trkpt lat="50.52669" lon="3.25227">
        <ele>52.964375</ele>
        <time>2018-07-05T12:21:02Z</time>
      </trkpt>
      <trkpt lat="50.5266" lon="3.25227">
        <ele>53.001171</ele>
        <time>2018-07-05T12:21:04Z</time>
      </trkpt>
      <trkpt lat="50.52651" lon="3.25227">
        <ele>53.016571</ele>
        <time>2018-07-05T12:21:06Z</time>
      </trkpt>
      <trkpt lat="50.52642" lon="3.25227">
        <ele>53.080872</ele>
        <time>2018-07-05T12:21:08Z</time>
      </trkpt>
      <trkpt lat="50.52633" lon="3.25227">
        <ele>53.151978</ele>
        <time>2018-07-05T12:21:10Z</time>
      </trkpt>
      <trkpt lat="50.52623" lon="3.25227">
        <ele>53.197987</ele>
        <time>2018-07-05T12:21:12Z</time>
      </trkpt>
      <trkpt lat="50.52613" lon="3.25227">
        <ele>53.114613</ele>
        <time>2018-07-05T12:21:14Z</time>
      </trkpt>
      <trkpt lat="50.52604" lon="3.25227">
        <ele>53.074059</ele>
        <time>2018-07-05T12:21:16Z</time>
      </trkpt>
      <trkpt lat="50.52596" lon="3.25227">
        <ele>52.992535</ele>
        <time>2018-07-05T12:21:18Z</time>
      </trkpt>
      <trkpt lat="50.52588" lon="3.25227">
        <ele>53.028374</ele>
        <time>2018-07-05T12:21:20Z</time>
      </trkpt>
      <trkpt lat="50.52579" lon="3.25227">
        <ele>52.863148</ele>
        <time>2018-07-05T12:21:22Z</time>
      </trkpt>
      <trkpt lat="50.52571" lon="3.25227">
        <ele>52.798332</ele>
        <time>2018-07-05T12:21:24Z</time>
      </trkpt>
      <trkpt lat="50.52562" lon="3.25227">
        <ele>52.635761</ele>
        <time>2018-07-05T12:21:26Z</time>
      </trkpt>
      <trkpt lat="50.52553" lon="3.25227">
        <ele>52.667126</ele>
        <time>2018-07-05T12:21:28Z</time>
      </trkpt>
      <trkpt lat="50.52545" lon="3.25228">
        <ele>52.573021</ele>
        <time>2018-07-05T12:21:30Z</time>
      </trkpt>
      <trkpt lat="50.52536" lon="3.25228">
        <ele>52.464264</ele>
        <time>2018-07-05T12:21:32Z</time>
      </trkpt>
      <trkpt lat="50.52528" lon="3.25229">
        <ele>52.470509</ele>
        <time>2018-07-05T12:21:34Z</time>
      </trkpt>
      <trkpt lat="50.5252" lon="3.2523">
        <ele>52.422405</ele>
        <time>2018-07-05T12:21:36Z</time>
      </trkpt>
      <trkpt lat="50.52513" lon="3.25229">
        <ele>52.523643</ele>
        <time>2018-07-05T12:21:38Z</time>
      </trkpt>
      <trkpt lat="50.52507" lon="3.25228">
        <ele>52.502739</ele>
        <time>2018-07-05T12:21:40Z</time>
      </trkpt>
      <trkpt lat="50.525" lon="3.25225">
        <ele>52.511055</ele>
        <time>2018-07-05T12:21:42Z</time>
      </trkpt>
      <trkpt lat="50.52493" lon="3.25228">
        <ele>52.564156</ele>
        <time>2018-07-05T12:21:44Z</time>
      </trkpt>
      <trkpt lat="50.52487" lon="3.25239">
        <ele>52.539063</ele>
        <time>2018-07-05T12:21:46Z</time>
      </trkpt>
      <trkpt lat="50.52483" lon="3.25254">
        <ele>52.526512</ele>
        <time>2018-07-05T12:21:48Z</time>
      </trkpt>
      <trkpt lat="50.52479" lon="3.25269">
        <ele>52.591339</ele>
        <time>2018-07-05T12:21:50Z</time>
      </trkpt>
      <trkpt lat="50.52475" lon="3.25283">
        <ele>52.49514</ele>
        <time>2018-07-05T12:21:52Z</time>
      </trkpt>
      <trkpt lat="50.52471" lon="3.25297">
        <ele>52.290222</ele>
        <time>2018-07-05T12:21:54Z</time>
      </trkpt>
      <trkpt lat="50.52467" lon="3.2531">
        <ele>52.189594</ele>
        <time>2018-07-05T12:21:56Z</time>
      </trkpt>
      <trkpt lat="50.52464" lon="3.25324">
        <ele>52.18808</ele>
        <time>2018-07-05T12:21:58Z</time>
      </trkpt>
      <trkpt lat="50.5246" lon="3.25338">
        <ele>52.271687</ele>
        <time>2018-07-05T12:22:00Z</time>
      </trkpt>
      <trkpt lat="50.52456" lon="3.25352">
        <ele>52.190136</ele>
        <time>2018-07-05T12:22:02Z</time>
      </trkpt>
      <trkpt lat="50.52453" lon="3.25366">
        <ele>52.137867</ele>
        <time>2018-07-05T12:22:04Z</time>
      </trkpt>
      <trkpt lat="50.52448" lon="3.2538">
        <ele>52.091866</ele>
        <time>2018-07-05T12:22:06Z</time>
      </trkpt>
      <trkpt lat="50.52444" lon="3.25394">
        <ele>52.10022</ele>
        <time>2018-07-05T12:22:08Z</time>
      </trkpt>
      <trkpt lat="50.5244" lon="3.2541">
        <ele>52.054237</ele>
        <time>2018-07-05T12:22:10Z</time>
      </trkpt>
      <trkpt lat="50.52435" lon="3.25424">
        <ele>51.995686</ele>
        <time>2018-07-05T12:22:12Z</time>
      </trkpt>
      <trkpt lat="50.52431" lon="3.2544">
        <ele>51.868156</ele>
        <time>2018-07-05T12:22:14Z</time>
      </trkpt>
      <trkpt lat="50.52426" lon="3.25455">
        <ele>51.70089</ele>
        <time>2018-07-05T12:22:16Z</time>
      </trkpt>
      <trkpt lat="50.52422" lon="3.2547">
        <ele>51.627216</ele>
        <time>2018-07-05T12:22:18Z</time>
      </trkpt>
      <trkpt lat="50.52417" lon="3.25486">
        <ele>51.565697</ele>
        <time>2018-07-05T12:22:20Z</time>
      </trkpt>
      <trkpt lat="50.52412" lon="3.25501">
        <ele>51.475792</ele>
        <time>2018-07-05T12:22:22Z</time>
      </trkpt>
      <trkpt lat="50.52408" lon="3.25517">
        <ele>51.383808</ele>
        <time>2018-07-05T12:22:24Z</time>
      </trkpt>
      <trkpt lat="50.52403" lon="3.25532">
        <ele>51.260872</ele>
        <time>2018-07-05T12:22:26Z</time>
      </trkpt>
      <trkpt lat="50.52398" lon="3.25547">
        <ele>51.158424</ele>
        <time>2018-07-05T12:22:28Z</time>
      </trkpt>
      <trkpt lat="50.52394" lon="3.25561">
        <ele>50.972321</ele>
        <time>2018-07-05T12:22:30Z</time>
      </trkpt>
      <trkpt lat="50.5239" lon="3.25576">
        <ele>50.77998</ele>
        <time>2018-07-05T12:22:32Z</time>
      </trkpt>
      <trkpt lat="50.52385" lon="3.25591">
        <ele>50.67337</ele>
        <time>2018-07-05T12:22:34Z</time>
      </trkpt>
      <trkpt lat="50.5238" lon="3.25606">
        <ele>50.57093</ele>
        <time>2018-07-05T12:22:36Z</time>
      </trkpt>
      <trkpt lat="50.52375" lon="3.25622">
        <ele>50.514908</ele>
        <time>2018-07-05T12:22:38Z</time>
      </trkpt>
      <trkpt lat="50.52371" lon="3.25636">
        <ele>50.203468</ele>
        <time>2018-07-05T12:22:40Z</time>
      </trkpt>
      <trkpt lat="50.52367" lon="3.25652">
        <ele>50.042496</ele>
        <time>2018-07-05T12:22:42Z</time>
      </trkpt>
      <trkpt lat="50.52362" lon="3.25667">
        <ele>49.940056</ele>
        <time>2018-07-05T12:22:44Z</time>
      </trkpt>
      <trkpt lat="50.52359" lon="3.25682">
        <ele>49.737282</ele>
        <time>2018-07-05T12:22:46Z</time>
      </trkpt>
      <trkpt lat="50.52355" lon="3.25697">
        <ele>49.576263</ele>
        <time>2018-07-05T12:22:48Z</time>
      </trkpt>
      <trkpt lat="50.52352" lon="3.25712">
        <ele>49.574173</ele>
        <time>2018-07-05T12:22:50Z</time>
      </trkpt>
      <trkpt lat="50.52349" lon="3.25728">
        <ele>49.421749</ele>
        <time>2018-07-05T12:22:52Z</time>
      </trkpt>
      <trkpt lat="50.52347" lon="3.25743">
        <ele>49.246887</ele>
        <time>2018-07-05T12:22:54Z</time>
      </trkpt>
      <trkpt lat="50.52345" lon="3.25759">
        <ele>49.190441</ele>
        <time>2018-07-05T12:22:56Z</time>
      </trkpt>
      <trkpt lat="50.52343" lon="3.25775">
        <ele>49.177898</ele>
        <time>2018-07-05T12:22:58Z</time>
      </trkpt>
      <trkpt lat="50.52341" lon="3.25791">
        <ele>49.090599</ele>
        <time>2018-07-05T12:23:00Z</time>
      </trkpt>
      <trkpt lat="50.52338" lon="3.25807">
        <ele>49.071789</ele>
        <time>2018-07-05T12:23:02Z</time>
      </trkpt>
      <trkpt lat="50.52336" lon="3.25823">
        <ele>48.98399</ele>
        <time>2018-07-05T12:23:04Z</time>
      </trkpt>
      <trkpt lat="50.52334" lon="3.25839">
        <ele>48.814255</ele>
        <time>2018-07-05T12:23:06Z</time>
      </trkpt>
      <trkpt lat="50.52331" lon="3.25856">
        <ele>48.742306</ele>
        <time>2018-07-05T12:23:08Z</time>
      </trkpt>
      <trkpt lat="50.52329" lon="3.25872">
        <ele>48.529102</ele>
        <time>2018-07-05T12:23:10Z</time>
      </trkpt>
      <trkpt lat="50.52326" lon="3.25888">
        <ele>48.428772</ele>
        <time>2018-07-05T12:23:12Z</time>
      </trkpt>
      <trkpt lat="50.52323" lon="3.25906">
        <ele>48.265732</ele>
        <time>2018-07-05T12:23:14Z</time>
      </trkpt>
      <trkpt lat="50.5232" lon="3.25923">
        <ele>48.190487</ele>
        <time>2018-07-05T12:23:16Z</time>
      </trkpt>
      <trkpt lat="50.52317" lon="3.25941">
        <ele>48.119213</ele>
        <time>2018-07-05T12:23:18Z</time>
      </trkpt>
      <trkpt lat="50.52314" lon="3.25958">
        <ele>47.968723</ele>
        <time>2018-07-05T12:23:20Z</time>
      </trkpt>
      <trkpt lat="50.52312" lon="3.25975">
        <ele>48.112907</ele>
        <time>2018-07-05T12:23:22Z</time>
      </trkpt>
      <trkpt lat="50.52309" lon="3.25991">
        <ele>48.014999</ele>
        <time>2018-07-05T12:23:24Z</time>
      </trkpt>
      <trkpt lat="50.52307" lon="3.26008">
        <ele>47.877052</ele>
        <time>2018-07-05T12:23:26Z</time>
      </trkpt>
      <trkpt lat="50.52304" lon="3.26025">
        <ele>47.908401</ele>
        <time>2018-07-05T12:23:28Z</time>
      </trkpt>
      <trkpt lat="50.52302" lon="3.26042">
        <ele>47.904278</ele>
        <time>2018-07-05T12:23:30Z</time>
      </trkpt>
      <trkpt lat="50.52299" lon="3.26059">
        <ele>47.690868</ele>
        <time>2018-07-05T12:23:32Z</time>
      </trkpt>
      <trkpt lat="50.52296" lon="3.26076">
        <ele>47.559853</ele>
        <time>2018-07-05T12:23:34Z</time>
      </trkpt>
      <trkpt lat="50.52294" lon="3.26093">
        <ele>47.428192</ele>
        <time>2018-07-05T12:23:36Z</time>
      </trkpt>
      <trkpt lat="50.52292" lon="3.26109">
        <ele>47.309059</ele>
        <time>2018-07-05T12:23:38Z</time>
      </trkpt>
      <trkpt lat="50.52289" lon="3.26126">
        <ele>47.168846</ele>
        <time>2018-07-05T12:23:40Z</time>
      </trkpt>
      <trkpt lat="50.52286" lon="3.26142">
        <ele>47.002934</ele>
        <time>2018-07-05T12:23:42Z</time>
      </trkpt>
      <trkpt lat="50.52284" lon="3.26158">
        <ele>46.931873</ele>
        <time>2018-07-05T12:23:44Z</time>
      </trkpt>
      <trkpt lat="50.52281" lon="3.26174">
        <ele>46.831554</ele>
        <time>2018-07-05T12:23:46Z</time>
      </trkpt>
      <trkpt lat="50.52279" lon="3.26191">
        <ele>46.787666</ele>
        <time>2018-07-05T12:23:48Z</time>
      </trkpt>
      <trkpt lat="50.52276" lon="3.26207">
        <ele>46.665241</ele>
        <time>2018-07-05T12:23:50Z</time>
      </trkpt>
      <trkpt lat="50.52274" lon="3.26223">
        <ele>46.702332</ele>
        <time>2018-07-05T12:23:52Z</time>
      </trkpt>
      <trkpt lat="50.52272" lon="3.26239">
        <ele>46.645912</ele>
        <time>2018-07-05T12:23:54Z</time>
      </trkpt>
      <trkpt lat="50.52269" lon="3.26256">
        <ele>46.64225</ele>
        <time>2018-07-05T12:23:56Z</time>
      </trkpt>
      <trkpt lat="50.52267" lon="3.26272">
        <ele>46.592094</ele>
        <time>2018-07-05T12:23:58Z</time>
      </trkpt>
      <trkpt lat="50.52264" lon="3.26289">
        <ele>46.504318</ele>
        <time>2018-07-05T12:24:00Z</time>
      </trkpt>
      <trkpt lat="50.52261" lon="3.26305">
        <ele>46.425789</ele>
        <time>2018-07-05T12:24:02Z</time>
      </trkpt>
      <trkpt lat="50.52259" lon="3.26322">
        <ele>46.432056</ele>
        <time>2018-07-05T12:24:04Z</time>
      </trkpt>
      <trkpt lat="50.52257" lon="3.26338">
        <ele>46.392357</ele>
        <time>2018-07-05T12:24:06Z</time>
      </trkpt>
      <trkpt lat="50.52255" lon="3.26354">
        <ele>46.323387</ele>
        <time>2018-07-05T12:24:08Z</time>
      </trkpt>
      <trkpt lat="50.52252" lon="3.2637">
        <ele>46.28368</ele>
        <time>2018-07-05T12:24:10Z</time>
      </trkpt>
      <trkpt lat="50.5225" lon="3.26386">
        <ele>46.235085</ele>
        <time>2018-07-05T12:24:12Z</time>
      </trkpt>
      <trkpt lat="50.52247" lon="3.26403">
        <ele>46.308228</ele>
        <time>2018-07-05T12:24:14Z</time>
      </trkpt>
      <trkpt lat="50.52244" lon="3.2642">
        <ele>46.29221</ele>
        <time>2018-07-05T12:24:16Z</time>
      </trkpt>
      <trkpt lat="50.52242" lon="3.26436">
        <ele>46.352818</ele>
        <time>2018-07-05T12:24:18Z</time>
      </trkpt>
      <trkpt lat="50.52239" lon="3.26453">
        <ele>46.366135</ele>
        <time>2018-07-05T12:24:20Z</time>
      </trkpt>
      <trkpt lat="50.52237" lon="3.2647">
        <ele>46.305534</ele>
        <time>2018-07-05T12:24:22Z</time>
      </trkpt>
      <trkpt lat="50.52234" lon="3.26486">
        <ele>46.352299</ele>
        <time>2018-07-05T12:24:24Z</time>
      </trkpt>
      <trkpt lat="50.52232" lon="3.26503">
        <ele>46.304234</ele>
        <time>2018-07-05T12:24:26Z</time>
      </trkpt>
      <trkpt lat="50.52229" lon="3.26519">
        <ele>46.235275</ele>
        <time>2018-07-05T12:24:28Z</time>
      </trkpt>
      <trkpt lat="50.52226" lon="3.26536">
        <ele>46.172585</ele>
        <time>2018-07-05T12:24:30Z</time>
      </trkpt>
      <trkpt lat="50.52224" lon="3.26553">
        <ele>46.059765</ele>
        <time>2018-07-05T12:24:32Z</time>
      </trkpt>
      <trkpt lat="50.52222" lon="3.26569">
        <ele>46.016399</ele>
        <time>2018-07-05T12:24:34Z</time>
      </trkpt>
      <trkpt lat="50.52219" lon="3.26585">
        <ele>45.976692</ele>
        <time>2018-07-05T12:24:36Z</time>
      </trkpt>
      <trkpt lat="50.52216" lon="3.26601">
        <ele>45.974083</ele>
        <time>2018-07-05T12:24:38Z</time>
      </trkpt>
      <trkpt lat="50.52214" lon="3.26617">
        <ele>45.961548</ele>
        <time>2018-07-05T12:24:40Z</time>
      </trkpt>
      <trkpt lat="50.52212" lon="3.26633">
        <ele>45.902142</ele>
        <time>2018-07-05T12:24:42Z</time>
      </trkpt>
      <trkpt lat="50.5221" lon="3.2665">
        <ele>45.943279</ele>
        <time>2018-07-05T12:24:44Z</time>
      </trkpt>
      <trkpt lat="50.52207" lon="3.26666">
        <ele>45.905663</ele>
        <time>2018-07-05T12:24:46Z</time>
      </trkpt>
      <trkpt lat="50.52205" lon="3.26682">
        <ele>45.855175</ele>
        <time>2018-07-05T12:24:48Z</time>
      </trkpt>
      <trkpt lat="50.52202" lon="3.26699">
        <ele>45.780968</ele>
        <time>2018-07-05T12:24:50Z</time>
      </trkpt>
      <trkpt lat="50.522" lon="3.26715">
        <ele>45.729248</ele>
        <time>2018-07-05T12:24:52Z</time>
      </trkpt>
      <trkpt lat="50.52197" lon="3.26731">
        <ele>45.679096</ele>
        <time>2018-07-05T12:24:54Z</time>
      </trkpt>
      <trkpt lat="50.52195" lon="3.26747">
        <ele>45.630009</ele>
        <time>2018-07-05T12:24:56Z</time>
      </trkpt>
      <trkpt lat="50.52193" lon="3.26762">
        <ele>45.567326</ele>
        <time>2018-07-05T12:24:58Z</time>
      </trkpt>
      <trkpt lat="50.5219" lon="3.26779">
        <ele>45.475376</ele>
        <time>2018-07-05T12:25:00Z</time>
      </trkpt>
      <trkpt lat="50.52188" lon="3.26795">
        <ele>45.33477</ele>
        <time>2018-07-05T12:25:02Z</time>
      </trkpt>
      <trkpt lat="50.52185" lon="3.26811">
        <ele>45.320141</ele>
        <time>2018-07-05T12:25:04Z</time>
      </trkpt>
      <trkpt lat="50.52183" lon="3.26828">
        <ele>45.204105</ele>
        <time>2018-07-05T12:25:06Z</time>
      </trkpt>
      <trkpt lat="50.52181" lon="3.26844">
        <ele>45.210373</ele>
        <time>2018-07-05T12:25:08Z</time>
      </trkpt>
      <trkpt lat="50.52178" lon="3.2686">
        <ele>45.139336</ele>
        <time>2018-07-05T12:25:10Z</time>
      </trkpt>
      <trkpt lat="50.52176" lon="3.26877">
        <ele>45.231262</ele>
        <time>2018-07-05T12:25:12Z</time>
      </trkpt>
      <trkpt lat="50.52173" lon="3.26893">
        <ele>45.191917</ele>
        <time>2018-07-05T12:25:14Z</time>
      </trkpt>
      <trkpt lat="50.52171" lon="3.2691">
        <ele>45.173985</ele>
        <time>2018-07-05T12:25:16Z</time>
      </trkpt>
      <trkpt lat="50.52168" lon="3.26925">
        <ele>45.161446</ele>
        <time>2018-07-05T12:25:18Z</time>
      </trkpt>
      <trkpt lat="50.52166" lon="3.26941">
        <ele>45.102932</ele>
        <time>2018-07-05T12:25:20Z</time>
      </trkpt>
      <trkpt lat="50.52163" lon="3.26957">
        <ele>45.081673</ele>
        <time>2018-07-05T12:25:22Z</time>
      </trkpt>
      <trkpt lat="50.52161" lon="3.26973">
        <ele>45.044731</ele>
        <time>2018-07-05T12:25:24Z</time>
      </trkpt>
      <trkpt lat="50.5216" lon="3.26989">
        <ele>44.944424</ele>
        <time>2018-07-05T12:25:26Z</time>
      </trkpt>
      <trkpt lat="50.52157" lon="3.27004">
        <ele>44.941933</ele>
        <time>2018-07-05T12:25:28Z</time>
      </trkpt>
      <trkpt lat="50.52155" lon="3.2702">
        <ele>45.115406</ele>
        <time>2018-07-05T12:25:30Z</time>
      </trkpt>
      <trkpt lat="50.52152" lon="3.27037">
        <ele>45.060066</ele>
        <time>2018-07-05T12:25:32Z</time>
      </trkpt>
      <trkpt lat="50.52149" lon="3.27053">
        <ele>45.100601</ele>
        <time>2018-07-05T12:25:34Z</time>
      </trkpt>
      <trkpt lat="50.52148" lon="3.27068">
        <ele>45.023293</ele>
        <time>2018-07-05T12:25:36Z</time>
      </trkpt>
      <trkpt lat="50.52145" lon="3.27083">
        <ele>45.128807</ele>
        <time>2018-07-05T12:25:38Z</time>
      </trkpt>
      <trkpt lat="50.52144" lon="3.27099">
        <ele>45.055687</ele>
        <time>2018-07-05T12:25:40Z</time>
      </trkpt>
      <trkpt lat="50.52142" lon="3.27115">
        <ele>45.097473</ele>
        <time>2018-07-05T12:25:42Z</time>
      </trkpt>
      <trkpt lat="50.5214" lon="3.27132">
        <ele>45.103741</ele>
        <time>2018-07-05T12:25:44Z</time>
      </trkpt>
      <trkpt lat="50.52139" lon="3.27148">
        <ele>44.931427</ele>
        <time>2018-07-05T12:25:46Z</time>
      </trkpt>
      <trkpt lat="50.52137" lon="3.27165">
        <ele>44.969044</ele>
        <time>2018-07-05T12:25:48Z</time>
      </trkpt>
      <trkpt lat="50.52134" lon="3.27181">
        <ele>44.95443</ele>
        <time>2018-07-05T12:25:50Z</time>
      </trkpt>
      <trkpt lat="50.52132" lon="3.27197">
        <ele>44.94759</ele>
        <time>2018-07-05T12:25:52Z</time>
      </trkpt>
      <trkpt lat="50.52129" lon="3.27213">
        <ele>44.790894</ele>
        <time>2018-07-05T12:25:54Z</time>
      </trkpt>
      <trkpt lat="50.52126" lon="3.27229">
        <ele>44.778767</ele>
        <time>2018-07-05T12:25:56Z</time>
      </trkpt>
      <trkpt lat="50.52123" lon="3.27246">
        <ele>44.825958</ele>
        <time>2018-07-05T12:25:58Z</time>
      </trkpt>
      <trkpt lat="50.5212" lon="3.27263">
        <ele>44.734028</ele>
        <time>2018-07-05T12:26:00Z</time>
      </trkpt>
      <trkpt lat="50.52118" lon="3.2728">
        <ele>44.73402</ele>
        <time>2018-07-05T12:26:02Z</time>
      </trkpt>
      <trkpt lat="50.52115" lon="3.27297">
        <ele>44.671711</ele>
        <time>2018-07-05T12:26:04Z</time>
      </trkpt>
      <trkpt lat="50.52113" lon="3.27314">
        <ele>44.632011</ele>
        <time>2018-07-05T12:26:06Z</time>
      </trkpt>
      <trkpt lat="50.5211" lon="3.27331">
        <ele>44.62365</ele>
        <time>2018-07-05T12:26:08Z</time>
      </trkpt>
      <trkpt lat="50.52108" lon="3.27348">
        <ele>44.404636</ele>
        <time>2018-07-05T12:26:10Z</time>
      </trkpt>
      <trkpt lat="50.52105" lon="3.27365">
        <ele>44.298744</ele>
        <time>2018-07-05T12:26:12Z</time>
      </trkpt>
      <trkpt lat="50.52102" lon="3.27382">
        <ele>44.177372</ele>
        <time>2018-07-05T12:26:14Z</time>
      </trkpt>
      <trkpt lat="50.52099" lon="3.27399">
        <ele>44.006062</ele>
        <time>2018-07-05T12:26:16Z</time>
      </trkpt>
      <trkpt lat="50.52096" lon="3.27417">
        <ele>43.878002</ele>
        <time>2018-07-05T12:26:18Z</time>
      </trkpt>
      <trkpt lat="50.52094" lon="3.27434">
        <ele>43.765152</ele>
        <time>2018-07-05T12:26:20Z</time>
      </trkpt>
      <trkpt lat="50.52091" lon="3.27451">
        <ele>43.765152</ele>
        <time>2018-07-05T12:26:22Z</time>
      </trkpt>
      <trkpt lat="50.52089" lon="3.27467">
        <ele>43.671135</ele>
        <time>2018-07-05T12:26:24Z</time>
      </trkpt>
      <trkpt lat="50.52087" lon="3.27484">
        <ele>43.466404</ele>
        <time>2018-07-05T12:26:26Z</time>
      </trkpt>
      <trkpt lat="50.52084" lon="3.27501">
        <ele>43.497738</ele>
        <time>2018-07-05T12:26:28Z</time>
      </trkpt>
      <trkpt lat="50.52082" lon="3.27518">
        <ele>43.272102</ele>
        <time>2018-07-05T12:26:30Z</time>
      </trkpt>
      <trkpt lat="50.52079" lon="3.27535">
        <ele>43.156704</ele>
        <time>2018-07-05T12:26:32Z</time>
      </trkpt>
      <trkpt lat="50.52077" lon="3.27552">
        <ele>42.99015</ele>
        <time>2018-07-05T12:26:34Z</time>
      </trkpt>
      <trkpt lat="50.52075" lon="3.27569">
        <ele>42.968685</ele>
        <time>2018-07-05T12:26:36Z</time>
      </trkpt>
      <trkpt lat="50.52073" lon="3.27585">
        <ele>42.748539</ele>
        <time>2018-07-05T12:26:38Z</time>
      </trkpt>
      <trkpt lat="50.5207" lon="3.276">
        <ele>42.591869</ele>
        <time>2018-07-05T12:26:40Z</time>
      </trkpt>
      <trkpt lat="50.52068" lon="3.27614">
        <ele>42.389244</ele>
        <time>2018-07-05T12:26:42Z</time>
      </trkpt>
      <trkpt lat="50.52066" lon="3.27628">
        <ele>42.184559</ele>
        <time>2018-07-05T12:26:44Z</time>
      </trkpt>
      <trkpt lat="50.52064" lon="3.27639">
        <ele>41.963139</ele>
        <time>2018-07-05T12:26:46Z</time>
      </trkpt>
      <trkpt lat="50.52062" lon="3.27649">
        <ele>41.900322</ele>
        <time>2018-07-05T12:26:48Z</time>
      </trkpt>
      <trkpt lat="50.52058" lon="3.27657">
        <ele>41.701855</ele>
        <time>2018-07-05T12:26:50Z</time>
      </trkpt>
      <trkpt lat="50.52054" lon="3.27664">
        <ele>41.701855</ele>
        <time>2018-07-05T12:26:52Z</time>
      </trkpt>
      <trkpt lat="50.52047" lon="3.27668">
        <ele>41.693314</ele>
        <time>2018-07-05T12:26:54Z</time>
      </trkpt>
      <trkpt lat="50.52039" lon="3.27667">
        <ele>41.525303</ele>
        <time>2018-07-05T12:26:56Z</time>
      </trkpt>
      <trkpt lat="50.52031" lon="3.27665">
        <ele>41.506508</ele>
        <time>2018-07-05T12:26:58Z</time>
      </trkpt>
      <trkpt lat="50.52023" lon="3.27663">
        <ele>41.423546</ele>
        <time>2018-07-05T12:27:00Z</time>
      </trkpt>
      <trkpt lat="50.52015" lon="3.27663">
        <ele>41.223</ele>
        <time>2018-07-05T12:27:02Z</time>
      </trkpt>
      <trkpt lat="50.52008" lon="3.27668">
        <ele>41.214638</ele>
        <time>2018-07-05T12:27:04Z</time>
      </trkpt>
      <trkpt lat="50.52005" lon="3.27679">
        <ele>41.238949</ele>
        <time>2018-07-05T12:27:06Z</time>
      </trkpt>
      <trkpt lat="50.52003" lon="3.27692">
        <ele>41.362518</ele>
        <time>2018-07-05T12:27:08Z</time>
      </trkpt>
      <trkpt lat="50.51999" lon="3.27706">
        <ele>41.191261</ele>
        <time>2018-07-05T12:27:10Z</time>
      </trkpt>
      <trkpt lat="50.51994" lon="3.27719">
        <ele>41.202339</ele>
        <time>2018-07-05T12:27:12Z</time>
      </trkpt>
      <trkpt lat="50.51989" lon="3.27734">
        <ele>41.263405</ele>
        <time>2018-07-05T12:27:14Z</time>
      </trkpt>
      <trkpt lat="50.51983" lon="3.27748">
        <ele>41.242523</ele>
        <time>2018-07-05T12:27:16Z</time>
      </trkpt>
      <trkpt lat="50.51978" lon="3.27763">
        <ele>41.226395</ele>
        <time>2018-07-05T12:27:18Z</time>
      </trkpt>
      <trkpt lat="50.51973" lon="3.27777">
        <ele>41.234749</ele>
        <time>2018-07-05T12:27:20Z</time>
      </trkpt>
      <trkpt lat="50.51967" lon="3.27791">
        <ele>41.144936</ele>
        <time>2018-07-05T12:27:22Z</time>
      </trkpt>
      <trkpt lat="50.51962" lon="3.27805">
        <ele>41.172092</ele>
        <time>2018-07-05T12:27:24Z</time>
      </trkpt>
      <trkpt lat="50.51957" lon="3.2782">
        <ele>41.205479</ele>
        <time>2018-07-05T12:27:26Z</time>
      </trkpt>
      <trkpt lat="50.51952" lon="3.27834">
        <ele>41.209328</ele>
        <time>2018-07-05T12:27:28Z</time>
      </trkpt>
      <trkpt lat="50.51947" lon="3.27848">
        <ele>41.084145</ele>
        <time>2018-07-05T12:27:30Z</time>
      </trkpt>
      <trkpt lat="50.51943" lon="3.27862">
        <ele>41.027763</ele>
        <time>2018-07-05T12:27:32Z</time>
      </trkpt>
      <trkpt lat="50.51939" lon="3.27875">
        <ele>40.722427</ele>
        <time>2018-07-05T12:27:34Z</time>
      </trkpt>
      <trkpt lat="50.51938" lon="3.27889">
        <ele>40.553486</ele>
        <time>2018-07-05T12:27:36Z</time>
      </trkpt>
      <trkpt lat="50.5194" lon="3.27904">
        <ele>40.630764</ele>
        <time>2018-07-05T12:27:38Z</time>
      </trkpt>
      <trkpt lat="50.51946" lon="3.27916">
        <ele>40.526333</ele>
        <time>2018-07-05T12:27:40Z</time>
      </trkpt>
      <trkpt lat="50.51955" lon="3.27927">
        <ele>40.411465</ele>
        <time>2018-07-05T12:27:42Z</time>
      </trkpt>
      <trkpt lat="50.51963" lon="3.27938">
        <ele>40.315163</ele>
        <time>2018-07-05T12:27:44Z</time>
      </trkpt>
      <trkpt lat="50.51971" lon="3.2795">
        <ele>40.166412</ele>
        <time>2018-07-05T12:27:46Z</time>
      </trkpt>
      <trkpt lat="50.51978" lon="3.27961">
        <ele>39.920696</ele>
        <time>2018-07-05T12:27:48Z</time>
      </trkpt>
      <trkpt lat="50.51986" lon="3.27973">
        <ele>39.851452</ele>
        <time>2018-07-05T12:27:50Z</time>
      </trkpt>
      <trkpt lat="50.51993" lon="3.27985">
        <ele>39.717148</ele>
        <time>2018-07-05T12:27:52Z</time>
      </trkpt>
      <trkpt lat="50.51999" lon="3.27999">
        <ele>39.596008</ele>
        <time>2018-07-05T12:27:54Z</time>
      </trkpt>
      <trkpt lat="50.52005" lon="3.28012">
        <ele>39.481136</ele>
        <time>2018-07-05T12:27:56Z</time>
      </trkpt>
      <trkpt lat="50.52012" lon="3.28026">
        <ele>39.347282</ele>
        <time>2018-07-05T12:27:58Z</time>
      </trkpt>
      <trkpt lat="50.52018" lon="3.2804">
        <ele>39.215397</ele>
        <time>2018-07-05T12:28:00Z</time>
      </trkpt>
      <trkpt lat="50.52024" lon="3.28053">
        <ele>39.117245</ele>
        <time>2018-07-05T12:28:02Z</time>
      </trkpt>
      <trkpt lat="50.5203" lon="3.28068">
        <ele>39.010754</ele>
        <time>2018-07-05T12:28:04Z</time>
      </trkpt>
      <trkpt lat="50.52036" lon="3.28082">
        <ele>38.771465</ele>
        <time>2018-07-05T12:28:06Z</time>
      </trkpt>
      <trkpt lat="50.52042" lon="3.28095">
        <ele>38.679909</ele>
        <time>2018-07-05T12:28:08Z</time>
      </trkpt>
      <trkpt lat="50.52047" lon="3.28109">
        <ele>38.481525</ele>
        <time>2018-07-05T12:28:10Z</time>
      </trkpt>
      <trkpt lat="50.52053" lon="3.28123">
        <ele>38.382683</ele>
        <time>2018-07-05T12:28:12Z</time>
      </trkpt>
      <trkpt lat="50.52058" lon="3.28138">
        <ele>38.491219</ele>
        <time>2018-07-05T12:28:14Z</time>
      </trkpt>
      <trkpt lat="50.52063" lon="3.28154">
        <ele>38.35133</ele>
        <time>2018-07-05T12:28:16Z</time>
      </trkpt>
      <trkpt lat="50.52067" lon="3.2817">
        <ele>38.26989</ele>
        <time>2018-07-05T12:28:18Z</time>
      </trkpt>
      <trkpt lat="50.52071" lon="3.28187">
        <ele>38.051476</ele>
        <time>2018-07-05T12:28:20Z</time>
      </trkpt>
      <trkpt lat="50.52076" lon="3.28204">
        <ele>37.888088</ele>
        <time>2018-07-05T12:28:22Z</time>
      </trkpt>
      <trkpt lat="50.52081" lon="3.2822">
        <ele>37.714787</ele>
        <time>2018-07-05T12:28:24Z</time>
      </trkpt>
      <trkpt lat="50.52087" lon="3.28235">
        <ele>37.535648</ele>
        <time>2018-07-05T12:28:26Z</time>
      </trkpt>
      <trkpt lat="50.52092" lon="3.2825">
        <ele>37.25631</ele>
        <time>2018-07-05T12:28:28Z</time>
      </trkpt>
      <trkpt lat="50.52097" lon="3.28264">
        <ele>37.095543</ele>
        <time>2018-07-05T12:28:30Z</time>
      </trkpt>
      <trkpt lat="50.52102" lon="3.28279">
        <ele>36.968185</ele>
        <time>2018-07-05T12:28:32Z</time>
      </trkpt>
      <trkpt lat="50.52106" lon="3.28295">
        <ele>36.808605</ele>
        <time>2018-07-05T12:28:34Z</time>
      </trkpt>
      <trkpt lat="50.52108" lon="3.28311">
        <ele>36.668709</ele>
        <time>2018-07-05T12:28:36Z</time>
      </trkpt>
      <trkpt lat="50.5211" lon="3.28327">
        <ele>36.547791</ele>
        <time>2018-07-05T12:28:38Z</time>
      </trkpt>
      <trkpt lat="50.5211" lon="3.28343">
        <ele>36.426994</ele>
        <time>2018-07-05T12:28:40Z</time>
      </trkpt>
      <trkpt lat="50.52111" lon="3.28359">
        <ele>36.230743</ele>
        <time>2018-07-05T12:28:42Z</time>
      </trkpt>
      <trkpt lat="50.52111" lon="3.28375">
        <ele>36.143044</ele>
        <time>2018-07-05T12:28:44Z</time>
      </trkpt>
      <trkpt lat="50.52112" lon="3.2839">
        <ele>35.9939</ele>
        <time>2018-07-05T12:28:46Z</time>
      </trkpt>
      <trkpt lat="50.52114" lon="3.28403">
        <ele>35.839424</ele>
        <time>2018-07-05T12:28:48Z</time>
      </trkpt>
      <trkpt lat="50.52116" lon="3.28415">
        <ele>35.747349</ele>
        <time>2018-07-05T12:28:50Z</time>
      </trkpt>
      <trkpt lat="50.52117" lon="3.28425">
        <ele>35.715477</ele>
        <time>2018-07-05T12:28:52Z</time>
      </trkpt>
      <trkpt lat="50.52116" lon="3.28435">
        <ele>35.595066</ele>
        <time>2018-07-05T12:28:54Z</time>
      </trkpt>
      <trkpt lat="50.52111" lon="3.28444">
        <ele>35.571053</ele>
        <time>2018-07-05T12:28:56Z</time>
      </trkpt>
      <trkpt lat="50.52107" lon="3.28455">
        <ele>35.500072</ele>
        <time>2018-07-05T12:28:58Z</time>
      </trkpt>
      <trkpt lat="50.52101" lon="3.28468">
        <ele>35.417786</ele>
        <time>2018-07-05T12:29:00Z</time>
      </trkpt>
      <trkpt lat="50.52095" lon="3.28481">
        <ele>35.345226</ele>
        <time>2018-07-05T12:29:02Z</time>
      </trkpt>
      <trkpt lat="50.52089" lon="3.28494">
        <ele>35.377205</ele>
        <time>2018-07-05T12:29:04Z</time>
      </trkpt>
      <trkpt lat="50.52083" lon="3.28508">
        <ele>35.350151</ele>
        <time>2018-07-05T12:29:06Z</time>
      </trkpt>
      <trkpt lat="50.52078" lon="3.28521">
        <ele>35.421131</ele>
        <time>2018-07-05T12:29:08Z</time>
      </trkpt>
      <trkpt lat="50.52072" lon="3.28533">
        <ele>35.427395</ele>
        <time>2018-07-05T12:29:10Z</time>
      </trkpt>
      <trkpt lat="50.52067" lon="3.28546">
        <ele>35.414871</ele>
        <time>2018-07-05T12:29:12Z</time>
      </trkpt>
      <trkpt lat="50.52063" lon="3.2856">
        <ele>35.386227</ele>
        <time>2018-07-05T12:29:14Z</time>
      </trkpt>
      <trkpt lat="50.52058" lon="3.28573">
        <ele>35.45153</ele>
        <time>2018-07-05T12:29:16Z</time>
      </trkpt>
      <trkpt lat="50.52054" lon="3.28587">
        <ele>35.370117</ele>
        <time>2018-07-05T12:29:18Z</time>
      </trkpt>
      <trkpt lat="50.5205" lon="3.28601">
        <ele>35.330452</ele>
        <time>2018-07-05T12:29:20Z</time>
      </trkpt>
      <trkpt lat="50.52046" lon="3.28615">
        <ele>35.357594</ele>
        <time>2018-07-05T12:29:22Z</time>
      </trkpt>
      <trkpt lat="50.52042" lon="3.28628">
        <ele>35.451538</ele>
        <time>2018-07-05T12:29:24Z</time>
      </trkpt>
      <trkpt lat="50.52037" lon="3.28641">
        <ele>35.4244</ele>
        <time>2018-07-05T12:29:26Z</time>
      </trkpt>
      <trkpt lat="50.52033" lon="3.28654">
        <ele>35.445286</ele>
        <time>2018-07-05T12:29:28Z</time>
      </trkpt>
      <trkpt lat="50.52028" lon="3.28667">
        <ele>35.605408</ele>
        <time>2018-07-05T12:29:30Z</time>
      </trkpt>
      <trkpt lat="50.52023" lon="3.2868">
        <ele>35.526634</ele>
        <time>2018-07-05T12:29:32Z</time>
      </trkpt>
      <trkpt lat="50.52018" lon="3.28693">
        <ele>35.55378</ele>
        <time>2018-07-05T12:29:34Z</time>
      </trkpt>
      <trkpt lat="50.52013" lon="3.28706">
        <ele>35.547512</ele>
        <time>2018-07-05T12:29:36Z</time>
      </trkpt>
      <trkpt lat="50.52007" lon="3.28719">
        <ele>35.627892</ele>
        <time>2018-07-05T12:29:38Z</time>
      </trkpt>
      <trkpt lat="50.52001" lon="3.28731">
        <ele>35.692604</ele>
        <time>2018-07-05T12:29:40Z</time>
      </trkpt>
      <trkpt lat="50.51996" lon="3.28743">
        <ele>35.719746</ele>
        <time>2018-07-05T12:29:42Z</time>
      </trkpt>
      <trkpt lat="50.5199" lon="3.28754">
        <ele>35.838741</ele>
        <time>2018-07-05T12:29:44Z</time>
      </trkpt>
      <trkpt lat="50.51984" lon="3.28765">
        <ele>35.893536</ele>
        <time>2018-07-05T12:29:46Z</time>
      </trkpt>
      <trkpt lat="50.51979" lon="3.28777">
        <ele>36.005997</ele>
        <time>2018-07-05T12:29:48Z</time>
      </trkpt>
      <trkpt lat="50.51973" lon="3.2879">
        <ele>36.024178</ele>
        <time>2018-07-05T12:29:50Z</time>
      </trkpt>
      <trkpt lat="50.51966" lon="3.28801">
        <ele>36.128551</ele>
        <time>2018-07-05T12:29:52Z</time>
      </trkpt>
      <trkpt lat="50.51959" lon="3.28812">
        <ele>36.21833</ele>
        <time>2018-07-05T12:29:54Z</time>
      </trkpt>
      <trkpt lat="50.51952" lon="3.28821">
        <ele>36.303337</ele>
        <time>2018-07-05T12:29:56Z</time>
      </trkpt>
      <trkpt lat="50.51945" lon="3.2883">
        <ele>36.24519</ele>
        <time>2018-07-05T12:29:58Z</time>
      </trkpt>
      <trkpt lat="50.51937" lon="3.2884">
        <ele>36.400219</ele>
        <time>2018-07-05T12:30:00Z</time>
      </trkpt>
      <trkpt lat="50.5193" lon="3.28851">
        <ele>36.529671</ele>
        <time>2018-07-05T12:30:02Z</time>
      </trkpt>
      <trkpt lat="50.51922" lon="3.28861">
        <ele>36.554729</ele>
        <time>2018-07-05T12:30:04Z</time>
      </trkpt>
      <trkpt lat="50.51914" lon="3.28871">
        <ele>36.579777</ele>
        <time>2018-07-05T12:30:06Z</time>
      </trkpt>
      <trkpt lat="50.51908" lon="3.28883">
        <ele>36.685894</ele>
        <time>2018-07-05T12:30:08Z</time>
      </trkpt>
      <trkpt lat="50.51902" lon="3.28895">
        <ele>36.788185</ele>
        <time>2018-07-05T12:30:10Z</time>
      </trkpt>
      <trkpt lat="50.51897" lon="3.28907">
        <ele>36.764187</ele>
        <time>2018-07-05T12:30:12Z</time>
      </trkpt>
      <trkpt lat="50.51891" lon="3.2892">
        <ele>36.912415</ele>
        <time>2018-07-05T12:30:14Z</time>
      </trkpt>
      <trkpt lat="50.51887" lon="3.28934">
        <ele>37.020988</ele>
        <time>2018-07-05T12:30:16Z</time>
      </trkpt>
      <trkpt lat="50.51882" lon="3.28948">
        <ele>37.083626</ele>
        <time>2018-07-05T12:30:18Z</time>
      </trkpt>
      <trkpt lat="50.51877" lon="3.28962">
        <ele>37.129562</ele>
        <time>2018-07-05T12:30:20Z</time>
      </trkpt>
      <trkpt lat="50.51872" lon="3.28975">
        <ele>37.154617</ele>
        <time>2018-07-05T12:30:22Z</time>
      </trkpt>
      <trkpt lat="50.51867" lon="3.28989">
        <ele>37.198463</ele>
        <time>2018-07-05T12:30:24Z</time>
      </trkpt>
      <trkpt lat="50.51862" lon="3.29002">
        <ele>37.154533</ele>
        <time>2018-07-05T12:30:26Z</time>
      </trkpt>
      <trkpt lat="50.51858" lon="3.29015">
        <ele>37.203098</ele>
        <time>2018-07-05T12:30:28Z</time>
      </trkpt>
      <trkpt lat="50.51854" lon="3.29029">
        <ele>37.184307</ele>
        <time>2018-07-05T12:30:30Z</time>
      </trkpt>
      <trkpt lat="50.51849" lon="3.29042">
        <ele>37.216236</ele>
        <time>2018-07-05T12:30:32Z</time>
      </trkpt>
      <trkpt lat="50.51845" lon="3.29055">
        <ele>37.316463</ele>
        <time>2018-07-05T12:30:34Z</time>
      </trkpt>
      <trkpt lat="50.51841" lon="3.29069">
        <ele>37.294586</ele>
        <time>2018-07-05T12:30:36Z</time>
      </trkpt>
      <trkpt lat="50.51836" lon="3.29083">
        <ele>37.383621</ele>
        <time>2018-07-05T12:30:38Z</time>
      </trkpt>
      <trkpt lat="50.51832" lon="3.29095">
        <ele>37.429012</ele>
        <time>2018-07-05T12:30:40Z</time>
      </trkpt>
      <trkpt lat="50.51827" lon="3.29107">
        <ele>37.485397</ele>
        <time>2018-07-05T12:30:42Z</time>
      </trkpt>
      <trkpt lat="50.51822" lon="3.2912">
        <ele>37.510452</ele>
        <time>2018-07-05T12:30:44Z</time>
      </trkpt>
      <trkpt lat="50.51817" lon="3.29133">
        <ele>37.618206</ele>
        <time>2018-07-05T12:30:46Z</time>
      </trkpt>
      <trkpt lat="50.51812" lon="3.29146">
        <ele>37.653706</ele>
        <time>2018-07-05T12:30:48Z</time>
      </trkpt>
      <trkpt lat="50.51806" lon="3.29158">
        <ele>37.68121</ele>
        <time>2018-07-05T12:30:50Z</time>
      </trkpt>
      <trkpt lat="50.518" lon="3.2917">
        <ele>37.707058</ele>
        <time>2018-07-05T12:30:52Z</time>
      </trkpt>
      <trkpt lat="50.51794" lon="3.29182">
        <ele>37.839333</ele>
        <time>2018-07-05T12:30:54Z</time>
      </trkpt>
      <trkpt lat="50.5179" lon="3.29194">
        <ele>37.891537</ele>
        <time>2018-07-05T12:30:56Z</time>
      </trkpt>
      <trkpt lat="50.51788" lon="3.29205">
        <ele>37.895718</ele>
        <time>2018-07-05T12:30:58Z</time>
      </trkpt>
      <trkpt lat="50.51788" lon="3.29215">
        <ele>37.92495</ele>
        <time>2018-07-05T12:31:00Z</time>
      </trkpt>
      <trkpt lat="50.51787" lon="3.29221">
        <ele>37.952095</ele>
        <time>2018-07-05T12:31:02Z</time>
      </trkpt>
      <trkpt lat="50.51787" lon="3.29225">
        <ele>38.022015</ele>
        <time>2018-07-05T12:31:04Z</time>
      </trkpt>
      <trkpt lat="50.51789" lon="3.29228">
        <ele>38.169121</ele>
        <time>2018-07-05T12:31:10Z</time>
      </trkpt>
      <trkpt lat="50.51786" lon="3.29229">
        <ele>38.383415</ele>
        <time>2018-07-05T12:31:29Z</time>
      </trkpt>
      <trkpt lat="50.51784" lon="3.29225">
        <ele>38.54427</ele>
        <time>2018-07-05T12:32:22Z</time>
      </trkpt>
      <trkpt lat="50.51783" lon="3.29215">
        <ele>38.523964</ele>
        <time>2018-07-05T12:32:24Z</time>
      </trkpt>
      <trkpt lat="50.51785" lon="3.29214">
        <ele>38.255238</ele>
        <time>2018-07-05T12:33:22Z</time>
      </trkpt>
      <trkpt lat="50.51788" lon="3.29212">
        <ele>38.124382</ele>
        <time>2018-07-05T12:34:09Z</time>
      </trkpt>
      <trkpt lat="50.51805" lon="3.2922">
        <ele>38.701157</ele>
        <time>2018-07-05T12:40:39Z</time>
      </trkpt>
      <trkpt lat="50.51807" lon="3.2922">
        <ele>38.712662</ele>
        <time>2018-07-05T12:40:41Z</time>
      </trkpt>
      <trkpt lat="50.51812" lon="3.29221">
        <ele>38.673187</ele>
        <time>2018-07-05T12:40:47Z</time>
      </trkpt>
      <trkpt lat="50.51811" lon="3.29227">
        <ele>39.083687</ele>
        <time>2018-07-05T12:49:06Z</time>
      </trkpt>
      <trkpt lat="50.51797" lon="3.29248">
        <ele>39.064827</ele>
        <time>2018-07-05T12:49:08Z</time>
      </trkpt>
      <trkpt lat="50.51799" lon="3.29255">
        <ele>39.033501</ele>
        <time>2018-07-05T12:49:10Z</time>
      </trkpt>
      <trkpt lat="50.51801" lon="3.29261">
        <ele>39.024574</ele>
        <time>2018-07-05T12:49:12Z</time>
      </trkpt>
      <trkpt lat="50.51803" lon="3.29267">
        <ele>39.024574</ele>
        <time>2018-07-05T12:49:14Z</time>
      </trkpt>
      <trkpt lat="50.51804" lon="3.29275">
        <ele>39.062168</ele>
        <time>2018-07-05T12:49:16Z</time>
      </trkpt>
      <trkpt lat="50.51807" lon="3.29283">
        <ele>39.001873</ele>
        <time>2018-07-05T12:49:18Z</time>
      </trkpt>
      <trkpt lat="50.51808" lon="3.2929">
        <ele>38.982311</ele>
        <time>2018-07-05T12:49:20Z</time>
      </trkpt>
      <trkpt lat="50.5181" lon="3.29298">
        <ele>38.865372</ele>
        <time>2018-07-05T12:49:22Z</time>
      </trkpt>
      <trkpt lat="50.51812" lon="3.29307">
        <ele>38.788109</ele>
        <time>2018-07-05T12:49:24Z</time>
      </trkpt>
      <trkpt lat="50.51814" lon="3.29316">
        <ele>38.698963</ele>
        <time>2018-07-05T12:49:26Z</time>
      </trkpt>
      <trkpt lat="50.51816" lon="3.29325">
        <ele>38.550709</ele>
        <time>2018-07-05T12:49:28Z</time>
      </trkpt>
      <trkpt lat="50.51819" lon="3.29335">
        <ele>38.511036</ele>
        <time>2018-07-05T12:49:30Z</time>
      </trkpt>
      <trkpt lat="50.51822" lon="3.29345">
        <ele>38.425415</ele>
        <time>2018-07-05T12:49:32Z</time>
      </trkpt>
      <trkpt lat="50.51827" lon="3.29356">
        <ele>38.390514</ele>
        <time>2018-07-05T12:49:34Z</time>
      </trkpt>
      <trkpt lat="50.51831" lon="3.29367">
        <ele>38.313255</ele>
        <time>2018-07-05T12:49:36Z</time>
      </trkpt>
      <trkpt lat="50.51834" lon="3.29379">
        <ele>38.221382</ele>
        <time>2018-07-05T12:49:38Z</time>
      </trkpt>
      <trkpt lat="50.51838" lon="3.29391">
        <ele>38.105522</ele>
        <time>2018-07-05T12:49:40Z</time>
      </trkpt>
      <trkpt lat="50.51843" lon="3.29403">
        <ele>37.9804</ele>
        <time>2018-07-05T12:49:42Z</time>
      </trkpt>
      <trkpt lat="50.51846" lon="3.29416">
        <ele>37.83215</ele>
        <time>2018-07-05T12:49:44Z</time>
      </trkpt>
      <trkpt lat="50.51849" lon="3.29429">
        <ele>37.752804</ele>
        <time>2018-07-05T12:49:46Z</time>
      </trkpt>
      <trkpt lat="50.51852" lon="3.29443">
        <ele>37.621101</ele>
        <time>2018-07-05T12:49:48Z</time>
      </trkpt>
      <trkpt lat="50.51856" lon="3.29458">
        <ele>37.596043</ele>
        <time>2018-07-05T12:49:50Z</time>
      </trkpt>
      <trkpt lat="50.51858" lon="3.29474">
        <ele>37.472847</ele>
        <time>2018-07-05T12:49:52Z</time>
      </trkpt>
      <trkpt lat="50.5186" lon="3.29489">
        <ele>37.302208</ele>
        <time>2018-07-05T12:49:54Z</time>
      </trkpt>
      <trkpt lat="50.51863" lon="3.29503">
        <ele>37.160213</ele>
        <time>2018-07-05T12:49:56Z</time>
      </trkpt>
      <trkpt lat="50.51865" lon="3.29517">
        <ele>37.00779</ele>
        <time>2018-07-05T12:49:58Z</time>
      </trkpt>
      <trkpt lat="50.51868" lon="3.29532">
        <ele>36.784126</ele>
        <time>2018-07-05T12:50:00Z</time>
      </trkpt>
      <trkpt lat="50.51872" lon="3.29547">
        <ele>36.696445</ele>
        <time>2018-07-05T12:50:02Z</time>
      </trkpt>
      <trkpt lat="50.51874" lon="3.29562">
        <ele>36.657455</ele>
        <time>2018-07-05T12:50:04Z</time>
      </trkpt>
      <trkpt lat="50.51876" lon="3.29578">
        <ele>36.523838</ele>
        <time>2018-07-05T12:50:06Z</time>
      </trkpt>
      <trkpt lat="50.51879" lon="3.29593">
        <ele>36.337379</ele>
        <time>2018-07-05T12:50:08Z</time>
      </trkpt>
      <trkpt lat="50.51883" lon="3.29607">
        <ele>36.360348</ele>
        <time>2018-07-05T12:50:10Z</time>
      </trkpt>
      <trkpt lat="50.51887" lon="3.29622">
        <ele>36.220463</ele>
        <time>2018-07-05T12:50:12Z</time>
      </trkpt>
      <trkpt lat="50.51891" lon="3.29636">
        <ele>36.020046</ele>
        <time>2018-07-05T12:50:14Z</time>
      </trkpt>
      <trkpt lat="50.51896" lon="3.29651">
        <ele>35.926781</ele>
        <time>2018-07-05T12:50:16Z</time>
      </trkpt>
      <trkpt lat="50.51901" lon="3.29665">
        <ele>35.748711</ele>
        <time>2018-07-05T12:50:18Z</time>
      </trkpt>
      <trkpt lat="50.51905" lon="3.29678">
        <ele>35.71484</ele>
        <time>2018-07-05T12:50:20Z</time>
      </trkpt>
      <trkpt lat="50.51911" lon="3.2969">
        <ele>35.599857</ele>
        <time>2018-07-05T12:50:22Z</time>
      </trkpt>
      <trkpt lat="50.51917" lon="3.297">
        <ele>35.501736</ele>
        <time>2018-07-05T12:50:24Z</time>
      </trkpt>
      <trkpt lat="50.51923" lon="3.2971">
        <ele>35.433327</ele>
        <time>2018-07-05T12:50:26Z</time>
      </trkpt>
      <trkpt lat="50.51931" lon="3.29719">
        <ele>35.326859</ele>
        <time>2018-07-05T12:50:28Z</time>
      </trkpt>
      <trkpt lat="50.51939" lon="3.29729">
        <ele>35.20575</ele>
        <time>2018-07-05T12:50:30Z</time>
      </trkpt>
      <trkpt lat="50.51946" lon="3.29739">
        <ele>35.052853</ele>
        <time>2018-07-05T12:50:32Z</time>
      </trkpt>
      <trkpt lat="50.51953" lon="3.29748">
        <ele>34.998581</ele>
        <time>2018-07-05T12:50:34Z</time>
      </trkpt>
      <trkpt lat="50.5196" lon="3.29757">
        <ele>34.962357</ele>
        <time>2018-07-05T12:50:36Z</time>
      </trkpt>
      <trkpt lat="50.51966" lon="3.29766">
        <ele>34.872585</ele>
        <time>2018-07-05T12:50:38Z</time>
      </trkpt>
      <trkpt lat="50.51974" lon="3.29775">
        <ele>34.799545</ele>
        <time>2018-07-05T12:50:40Z</time>
      </trkpt>
      <trkpt lat="50.51981" lon="3.29784">
        <ele>34.772408</ele>
        <time>2018-07-05T12:50:42Z</time>
      </trkpt>
      <trkpt lat="50.51989" lon="3.29793">
        <ele>34.666496</ele>
        <time>2018-07-05T12:50:44Z</time>
      </trkpt>
      <trkpt lat="50.51996" lon="3.29801">
        <ele>34.47237</ele>
        <time>2018-07-05T12:50:46Z</time>
      </trkpt>
      <trkpt lat="50.52002" lon="3.29809">
        <ele>34.351322</ele>
        <time>2018-07-05T12:50:48Z</time>
      </trkpt>
      <trkpt lat="50.52008" lon="3.29817">
        <ele>34.163452</ele>
        <time>2018-07-05T12:50:50Z</time>
      </trkpt>
      <trkpt lat="50.52015" lon="3.29826">
        <ele>33.940113</ele>
        <time>2018-07-05T12:50:52Z</time>
      </trkpt>
      <trkpt lat="50.52023" lon="3.29835">
        <ele>33.912975</ele>
        <time>2018-07-05T12:50:54Z</time>
      </trkpt>
      <trkpt lat="50.52031" lon="3.29845">
        <ele>33.927589</ele>
        <time>2018-07-05T12:50:56Z</time>
      </trkpt>
      <trkpt lat="50.52038" lon="3.29854">
        <ele>33.787056</ele>
        <time>2018-07-05T12:50:58Z</time>
      </trkpt>
      <trkpt lat="50.52046" lon="3.29864">
        <ele>33.691654</ele>
        <time>2018-07-05T12:51:00Z</time>
      </trkpt>
      <trkpt lat="50.52054" lon="3.29874">
        <ele>33.566872</ele>
        <time>2018-07-05T12:51:02Z</time>
      </trkpt>
      <trkpt lat="50.52063" lon="3.29884">
        <ele>33.481285</ele>
        <time>2018-07-05T12:51:04Z</time>
      </trkpt>
      <trkpt lat="50.5207" lon="3.29894">
        <ele>33.370663</ele>
        <time>2018-07-05T12:51:06Z</time>
      </trkpt>
      <trkpt lat="50.52078" lon="3.29904">
        <ele>33.233162</ele>
        <time>2018-07-05T12:51:08Z</time>
      </trkpt>
      <trkpt lat="50.52086" lon="3.29914">
        <ele>33.146313</ele>
        <time>2018-07-05T12:51:10Z</time>
      </trkpt>
      <trkpt lat="50.52093" lon="3.29924">
        <ele>33.05706</ele>
        <time>2018-07-05T12:51:12Z</time>
      </trkpt>
      <trkpt lat="50.521" lon="3.29934">
        <ele>32.975662</ele>
        <time>2018-07-05T12:51:14Z</time>
      </trkpt>
      <trkpt lat="50.52107" lon="3.29943">
        <ele>32.725197</ele>
        <time>2018-07-05T12:51:16Z</time>
      </trkpt>
      <trkpt lat="50.52113" lon="3.29952">
        <ele>32.56731</ele>
        <time>2018-07-05T12:51:18Z</time>
      </trkpt>
      <trkpt lat="50.52117" lon="3.29963">
        <ele>32.408707</ele>
        <time>2018-07-05T12:51:20Z</time>
      </trkpt>
      <trkpt lat="50.52119" lon="3.29976">
        <ele>32.344002</ele>
        <time>2018-07-05T12:51:22Z</time>
      </trkpt>
      <trkpt lat="50.52117" lon="3.2999">
        <ele>32.239651</ele>
        <time>2018-07-05T12:51:24Z</time>
      </trkpt>
      <trkpt lat="50.52114" lon="3.30004">
        <ele>32.241497</ele>
        <time>2018-07-05T12:51:26Z</time>
      </trkpt>
      <trkpt lat="50.52111" lon="3.30017">
        <ele>32.148003</ele>
        <time>2018-07-05T12:51:28Z</time>
      </trkpt>
      <trkpt lat="50.52107" lon="3.3003">
        <ele>32.24192</ele>
        <time>2018-07-05T12:51:30Z</time>
      </trkpt>
      <trkpt lat="50.52104" lon="3.30044">
        <ele>32.13549</ele>
        <time>2018-07-05T12:51:32Z</time>
      </trkpt>
      <trkpt lat="50.521" lon="3.30057">
        <ele>32.089584</ele>
        <time>2018-07-05T12:51:34Z</time>
      </trkpt>
      <trkpt lat="50.52097" lon="3.3007">
        <ele>31.930969</ele>
        <time>2018-07-05T12:51:36Z</time>
      </trkpt>
      <trkpt lat="50.52094" lon="3.3008">
        <ele>31.747326</ele>
        <time>2018-07-05T12:51:38Z</time>
      </trkpt>
      <trkpt lat="50.52092" lon="3.30089">
        <ele>31.751501</ele>
        <time>2018-07-05T12:51:40Z</time>
      </trkpt>
      <trkpt lat="50.5209" lon="3.30096">
        <ele>31.588726</ele>
        <time>2018-07-05T12:51:42Z</time>
      </trkpt>
      <trkpt lat="50.52091" lon="3.30105">
        <ele>31.578297</ele>
        <time>2018-07-05T12:51:44Z</time>
      </trkpt>
      <trkpt lat="50.52095" lon="3.30114">
        <ele>31.486469</ele>
        <time>2018-07-05T12:51:46Z</time>
      </trkpt>
      <trkpt lat="50.52101" lon="3.30123">
        <ele>31.443542</ele>
        <time>2018-07-05T12:51:48Z</time>
      </trkpt>
      <trkpt lat="50.52109" lon="3.30132">
        <ele>31.323853</ele>
        <time>2018-07-05T12:51:50Z</time>
      </trkpt>
      <trkpt lat="50.52115" lon="3.30141">
        <ele>31.22578</ele>
        <time>2018-07-05T12:51:52Z</time>
      </trkpt>
      <trkpt lat="50.52121" lon="3.30149">
        <ele>31.234131</ele>
        <time>2018-07-05T12:51:54Z</time>
      </trkpt>
      <trkpt lat="50.52129" lon="3.30157">
        <ele>31.229074</ele>
        <time>2018-07-05T12:51:56Z</time>
      </trkpt>
      <trkpt lat="50.52135" lon="3.30165">
        <ele>31.197773</ele>
        <time>2018-07-05T12:51:58Z</time>
      </trkpt>
      <trkpt lat="50.52141" lon="3.30173">
        <ele>31.204031</ele>
        <time>2018-07-05T12:52:00Z</time>
      </trkpt>
      <trkpt lat="50.52147" lon="3.3018">
        <ele>30.655857</ele>
        <time>2018-07-05T12:52:02Z</time>
      </trkpt>
      <trkpt lat="50.52152" lon="3.30186">
        <ele>30.586987</ele>
        <time>2018-07-05T12:52:04Z</time>
      </trkpt>
      <trkpt lat="50.52157" lon="3.30191">
        <ele>30.600613</ele>
        <time>2018-07-05T12:52:06Z</time>
      </trkpt>
      <trkpt lat="50.52161" lon="3.30194">
        <ele>30.517136</ele>
        <time>2018-07-05T12:52:08Z</time>
      </trkpt>
      <trkpt lat="50.52163" lon="3.30197">
        <ele>30.424908</ele>
        <time>2018-07-05T12:52:10Z</time>
      </trkpt>
      <trkpt lat="50.52167" lon="3.302">
        <ele>30.341427</ele>
        <time>2018-07-05T12:52:12Z</time>
      </trkpt>
      <trkpt lat="50.5217" lon="3.30203">
        <ele>30.350611</ele>
        <time>2018-07-05T12:52:14Z</time>
      </trkpt>
      <trkpt lat="50.52173" lon="3.30206">
        <ele>30.394016</ele>
        <time>2018-07-05T12:52:16Z</time>
      </trkpt>
      <trkpt lat="50.52179" lon="3.30213">
        <ele>30.949823</ele>
        <time>2018-07-05T12:52:46Z</time>
      </trkpt>
      <trkpt lat="50.52181" lon="3.30216">
        <ele>30.990982</ele>
        <time>2018-07-05T12:53:02Z</time>
      </trkpt>
      <trkpt lat="50.52184" lon="3.30218">
        <ele>31.004877</ele>
        <time>2018-07-05T12:53:04Z</time>
      </trkpt>
      <trkpt lat="50.52187" lon="3.30221">
        <ele>30.994289</ele>
        <time>2018-07-05T12:53:06Z</time>
      </trkpt>
      <trkpt lat="50.52191" lon="3.30224">
        <ele>30.437994</ele>
        <time>2018-07-05T12:56:13Z</time>
      </trkpt>
      <trkpt lat="50.52197" lon="3.30231">
        <ele>30.423401</ele>
        <time>2018-07-05T12:56:15Z</time>
      </trkpt>
      <trkpt lat="50.52201" lon="3.30235">
        <ele>30.353525</ele>
        <time>2018-07-05T12:56:17Z</time>
      </trkpt>
      <trkpt lat="50.52207" lon="3.3024">
        <ele>30.291208</ele>
        <time>2018-07-05T12:56:19Z</time>
      </trkpt>
      <trkpt lat="50.52213" lon="3.30245">
        <ele>30.274521</ele>
        <time>2018-07-05T12:56:21Z</time>
      </trkpt>
      <trkpt lat="50.52221" lon="3.30251">
        <ele>30.274521</ele>
        <time>2018-07-05T12:56:23Z</time>
      </trkpt>
      <trkpt lat="50.52228" lon="3.30258">
        <ele>30.223989</ele>
        <time>2018-07-05T12:56:25Z</time>
      </trkpt>
      <trkpt lat="50.52235" lon="3.30265">
        <ele>30.324158</ele>
        <time>2018-07-05T12:56:27Z</time>
      </trkpt>
      <trkpt lat="50.52242" lon="3.30272">
        <ele>30.340872</ele>
        <time>2018-07-05T12:56:29Z</time>
      </trkpt>
      <trkpt lat="50.52251" lon="3.30279">
        <ele>30.356176</ele>
        <time>2018-07-05T12:56:31Z</time>
      </trkpt>
      <trkpt lat="50.52259" lon="3.30285">
        <ele>30.416981</ele>
        <time>2018-07-05T12:56:33Z</time>
      </trkpt>
      <trkpt lat="50.52267" lon="3.30289">
        <ele>30.552877</ele>
        <time>2018-07-05T12:56:35Z</time>
      </trkpt>
      <trkpt lat="50.52276" lon="3.30293">
        <ele>30.602982</ele>
        <time>2018-07-05T12:56:37Z</time>
      </trkpt>
      <trkpt lat="50.52284" lon="3.30295">
        <ele>30.792912</ele>
        <time>2018-07-05T12:56:39Z</time>
      </trkpt>
      <trkpt lat="50.52293" lon="3.30297">
        <ele>30.824209</ele>
        <time>2018-07-05T12:56:41Z</time>
      </trkpt>
      <trkpt lat="50.52301" lon="3.30299">
        <ele>30.968206</ele>
        <time>2018-07-05T12:56:43Z</time>
      </trkpt>
      <trkpt lat="50.5231" lon="3.30301">
        <ele>30.955688</ele>
        <time>2018-07-05T12:56:45Z</time>
      </trkpt>
      <trkpt lat="50.52318" lon="3.30303">
        <ele>30.883823</ele>
        <time>2018-07-05T12:56:47Z</time>
      </trkpt>
      <trkpt lat="50.52326" lon="3.30305">
        <ele>30.89307</ele>
        <time>2018-07-05T12:56:49Z</time>
      </trkpt>
      <trkpt lat="50.52334" lon="3.30307">
        <ele>30.813236</ele>
        <time>2018-07-05T12:56:51Z</time>
      </trkpt>
      <trkpt lat="50.52342" lon="3.30309">
        <ele>30.998974</ele>
        <time>2018-07-05T12:56:53Z</time>
      </trkpt>
      <trkpt lat="50.5235" lon="3.30312">
        <ele>31.322454</ele>
        <time>2018-07-05T12:56:55Z</time>
      </trkpt>
      <trkpt lat="50.52358" lon="3.30315">
        <ele>31.38088</ele>
        <time>2018-07-05T12:56:57Z</time>
      </trkpt>
      <trkpt lat="50.52365" lon="3.30318">
        <ele>31.38064</ele>
        <time>2018-07-05T12:56:59Z</time>
      </trkpt>
      <trkpt lat="50.52373" lon="3.30323">
        <ele>31.51211</ele>
        <time>2018-07-05T12:57:01Z</time>
      </trkpt>
      <trkpt lat="50.52382" lon="3.30327">
        <ele>31.631062</ele>
        <time>2018-07-05T12:57:03Z</time>
      </trkpt>
      <trkpt lat="50.5239" lon="3.30333">
        <ele>31.589319</ele>
        <time>2018-07-05T12:57:05Z</time>
      </trkpt>
      <trkpt lat="50.52397" lon="3.30339">
        <ele>31.693623</ele>
        <time>2018-07-05T12:57:07Z</time>
      </trkpt>
      <trkpt lat="50.52405" lon="3.30345">
        <ele>31.672434</ele>
        <time>2018-07-05T12:57:09Z</time>
      </trkpt>
      <trkpt lat="50.52412" lon="3.30352">
        <ele>31.897823</ele>
        <time>2018-07-05T12:57:11Z</time>
      </trkpt>
      <trkpt lat="50.5242" lon="3.30361">
        <ele>32.037666</ele>
        <time>2018-07-05T12:57:13Z</time>
      </trkpt>
      <trkpt lat="50.52427" lon="3.30369">
        <ele>32.267208</ele>
        <time>2018-07-05T12:57:15Z</time>
      </trkpt>
      <trkpt lat="50.52433" lon="3.30377">
        <ele>32.237736</ele>
        <time>2018-07-05T12:57:17Z</time>
      </trkpt>
      <trkpt lat="50.52439" lon="3.30384">
        <ele>32.367119</ele>
        <time>2018-07-05T12:57:19Z</time>
      </trkpt>
      <trkpt lat="50.52444" lon="3.30391">
        <ele>32.29406</ele>
        <time>2018-07-05T12:57:21Z</time>
      </trkpt>
      <trkpt lat="50.5245" lon="3.30399">
        <ele>32.479809</ele>
        <time>2018-07-05T12:57:23Z</time>
      </trkpt>
      <trkpt lat="50.52457" lon="3.30407">
        <ele>32.577919</ele>
        <time>2018-07-05T12:57:25Z</time>
      </trkpt>
      <trkpt lat="50.52464" lon="3.30414">
        <ele>32.783398</ele>
        <time>2018-07-05T12:57:27Z</time>
      </trkpt>
      <trkpt lat="50.52471" lon="3.30421">
        <ele>33.113449</ele>
        <time>2018-07-05T12:57:29Z</time>
      </trkpt>
      <trkpt lat="50.52478" lon="3.30428">
        <ele>33.358784</ele>
        <time>2018-07-05T12:57:31Z</time>
      </trkpt>
      <trkpt lat="50.52486" lon="3.30434">
        <ele>33.713585</ele>
        <time>2018-07-05T12:57:33Z</time>
      </trkpt>
      <trkpt lat="50.52493" lon="3.30441">
        <ele>33.740719</ele>
        <time>2018-07-05T12:57:35Z</time>
      </trkpt>
      <trkpt lat="50.52501" lon="3.30447">
        <ele>33.830456</ele>
        <time>2018-07-05T12:57:37Z</time>
      </trkpt>
      <trkpt lat="50.52508" lon="3.30453">
        <ele>34.126785</ele>
        <time>2018-07-05T12:57:39Z</time>
      </trkpt>
      <trkpt lat="50.52516" lon="3.3046">
        <ele>34.226192</ele>
        <time>2018-07-05T12:57:41Z</time>
      </trkpt>
      <trkpt lat="50.52523" lon="3.30467">
        <ele>34.36602</ele>
        <time>2018-07-05T12:57:43Z</time>
      </trkpt>
      <trkpt lat="50.52531" lon="3.30473">
        <ele>34.704224</ele>
        <time>2018-07-05T12:57:45Z</time>
      </trkpt>
      <trkpt lat="50.52539" lon="3.30479">
        <ele>34.831528</ele>
        <time>2018-07-05T12:57:47Z</time>
      </trkpt>
      <trkpt lat="50.52546" lon="3.30487">
        <ele>35.119568</ele>
        <time>2018-07-05T12:57:49Z</time>
      </trkpt>
      <trkpt lat="50.52554" lon="3.30494">
        <ele>35.240959</ele>
        <time>2018-07-05T12:57:51Z</time>
      </trkpt>
      <trkpt lat="50.52562" lon="3.30502">
        <ele>35.423454</ele>
        <time>2018-07-05T12:57:53Z</time>
      </trkpt>
      <trkpt lat="50.5257" lon="3.3051">
        <ele>35.479591</ele>
        <time>2018-07-05T12:57:55Z</time>
      </trkpt>
      <trkpt lat="50.52577" lon="3.30519">
        <ele>35.519466</ele>
        <time>2018-07-05T12:57:57Z</time>
      </trkpt>
      <trkpt lat="50.52583" lon="3.30528">
        <ele>35.688557</ele>
        <time>2018-07-05T12:57:59Z</time>
      </trkpt>
      <trkpt lat="50.5259" lon="3.30539">
        <ele>35.905659</ele>
        <time>2018-07-05T12:58:01Z</time>
      </trkpt>
      <trkpt lat="50.52596" lon="3.30549">
        <ele>35.957851</ele>
        <time>2018-07-05T12:58:03Z</time>
      </trkpt>
      <trkpt lat="50.52602" lon="3.30559">
        <ele>36.039757</ele>
        <time>2018-07-05T12:58:05Z</time>
      </trkpt>
      <trkpt lat="50.52607" lon="3.30569">
        <ele>36.075245</ele>
        <time>2018-07-05T12:58:07Z</time>
      </trkpt>
      <trkpt lat="50.52613" lon="3.30579">
        <ele>36.096123</ele>
        <time>2018-07-05T12:58:09Z</time>
      </trkpt>
      <trkpt lat="50.52619" lon="3.3059">
        <ele>36.161552</ele>
        <time>2018-07-05T12:58:11Z</time>
      </trkpt>
      <trkpt lat="50.52625" lon="3.306">
        <ele>36.149979</ele>
        <time>2018-07-05T12:58:13Z</time>
      </trkpt>
      <trkpt lat="50.52631" lon="3.3061">
        <ele>36.175041</ele>
        <time>2018-07-05T12:58:15Z</time>
      </trkpt>
      <trkpt lat="50.52637" lon="3.3062">
        <ele>36.303932</ele>
        <time>2018-07-05T12:58:17Z</time>
      </trkpt>
      <trkpt lat="50.52643" lon="3.30626">
        <ele>36.350891</ele>
        <time>2018-07-05T12:58:19Z</time>
      </trkpt>
      <trkpt lat="50.52652" lon="3.30627">
        <ele>36.38364</ele>
        <time>2018-07-05T12:58:21Z</time>
      </trkpt>
      <trkpt lat="50.52659" lon="3.3062">
        <ele>36.460899</ele>
        <time>2018-07-05T12:58:23Z</time>
      </trkpt>
      <trkpt lat="50.52665" lon="3.30611">
        <ele>36.421223</ele>
        <time>2018-07-05T12:58:25Z</time>
      </trkpt>
      <trkpt lat="50.52671" lon="3.306">
        <ele>36.533947</ele>
        <time>2018-07-05T12:58:27Z</time>
      </trkpt>
      <trkpt lat="50.52676" lon="3.30588">
        <ele>36.675934</ele>
        <time>2018-07-05T12:58:29Z</time>
      </trkpt>
      <trkpt lat="50.52681" lon="3.30576">
        <ele>36.544437</ele>
        <time>2018-07-05T12:58:31Z</time>
      </trkpt>
      <trkpt lat="50.52687" lon="3.30565">
        <ele>36.521477</ele>
        <time>2018-07-05T12:58:33Z</time>
      </trkpt>
      <trkpt lat="50.52692" lon="3.30553">
        <ele>36.560268</ele>
        <time>2018-07-05T12:58:35Z</time>
      </trkpt>
      <trkpt lat="50.52698" lon="3.30542">
        <ele>36.645882</ele>
        <time>2018-07-05T12:58:37Z</time>
      </trkpt>
      <trkpt lat="50.52703" lon="3.30531">
        <ele>36.733353</ele>
        <time>2018-07-05T12:58:39Z</time>
      </trkpt>
      <trkpt lat="50.52708" lon="3.3052">
        <ele>36.877441</ele>
        <time>2018-07-05T12:58:41Z</time>
      </trkpt>
      <trkpt lat="50.52713" lon="3.30509">
        <ele>36.957615</ele>
        <time>2018-07-05T12:58:43Z</time>
      </trkpt>
      <trkpt lat="50.52719" lon="3.30498">
        <ele>37.087059</ele>
        <time>2018-07-05T12:58:45Z</time>
      </trkpt>
      <trkpt lat="50.52724" lon="3.30487">
        <ele>37.226463</ele>
        <time>2018-07-05T12:58:47Z</time>
      </trkpt>
      <trkpt lat="50.52729" lon="3.30477">
        <ele>37.36219</ele>
        <time>2018-07-05T12:58:49Z</time>
      </trkpt>
      <trkpt lat="50.52734" lon="3.30466">
        <ele>37.497921</ele>
        <time>2018-07-05T12:58:51Z</time>
      </trkpt>
      <trkpt lat="50.52739" lon="3.30455">
        <ele>37.670212</ele>
        <time>2018-07-05T12:58:53Z</time>
      </trkpt>
      <trkpt lat="50.52744" lon="3.30445">
        <ele>37.787132</ele>
        <time>2018-07-05T12:58:55Z</time>
      </trkpt>
      <trkpt lat="50.52749" lon="3.30434">
        <ele>37.958939</ele>
        <time>2018-07-05T12:58:57Z</time>
      </trkpt>
      <trkpt lat="50.52754" lon="3.30424">
        <ele>38.075867</ele>
        <time>2018-07-05T12:58:59Z</time>
      </trkpt>
      <trkpt lat="50.52759" lon="3.30413">
        <ele>38.208851</ele>
        <time>2018-07-05T12:59:01Z</time>
      </trkpt>
      <trkpt lat="50.52765" lon="3.30402">
        <ele>38.238728</ele>
        <time>2018-07-05T12:59:03Z</time>
      </trkpt>
      <trkpt lat="50.5277" lon="3.30391">
        <ele>38.253345</ele>
        <time>2018-07-05T12:59:05Z</time>
      </trkpt>
      <trkpt lat="50.52775" lon="3.3038">
        <ele>38.385139</ele>
        <time>2018-07-05T12:59:07Z</time>
      </trkpt>
      <trkpt lat="50.5278" lon="3.30369">
        <ele>38.518806</ele>
        <time>2018-07-05T12:59:09Z</time>
      </trkpt>
      <trkpt lat="50.52786" lon="3.30358">
        <ele>38.445709</ele>
        <time>2018-07-05T12:59:11Z</time>
      </trkpt>
      <trkpt lat="50.5279" lon="3.30347">
        <ele>38.689964</ele>
        <time>2018-07-05T12:59:13Z</time>
      </trkpt>
      <trkpt lat="50.52795" lon="3.30335">
        <ele>38.891644</ele>
        <time>2018-07-05T12:59:15Z</time>
      </trkpt>
      <trkpt lat="50.52799" lon="3.30324">
        <ele>38.987576</ele>
        <time>2018-07-05T12:59:17Z</time>
      </trkpt>
      <trkpt lat="50.52802" lon="3.30312">
        <ele>39.023079</ele>
        <time>2018-07-05T12:59:19Z</time>
      </trkpt>
      <trkpt lat="50.52805" lon="3.303">
        <ele>39.177605</ele>
        <time>2018-07-05T12:59:21Z</time>
      </trkpt>
      <trkpt lat="50.52807" lon="3.30286">
        <ele>39.222725</ele>
        <time>2018-07-05T12:59:23Z</time>
      </trkpt>
      <trkpt lat="50.52808" lon="3.30273">
        <ele>39.338776</ele>
        <time>2018-07-05T12:59:25Z</time>
      </trkpt>
      <trkpt lat="50.52808" lon="3.30258">
        <ele>39.35548</ele>
        <time>2018-07-05T12:59:27Z</time>
      </trkpt>
      <trkpt lat="50.52808" lon="3.30244">
        <ele>39.422676</ele>
        <time>2018-07-05T12:59:29Z</time>
      </trkpt>
      <trkpt lat="50.5281" lon="3.3023">
        <ele>39.58107</ele>
        <time>2018-07-05T12:59:31Z</time>
      </trkpt>
      <trkpt lat="50.52813" lon="3.30217">
        <ele>39.58316</ele>
        <time>2018-07-05T12:59:33Z</time>
      </trkpt>
      <trkpt lat="50.52818" lon="3.30205">
        <ele>39.685501</ele>
        <time>2018-07-05T12:59:35Z</time>
      </trkpt>
      <trkpt lat="50.52824" lon="3.30194">
        <ele>39.85886</ele>
        <time>2018-07-05T12:59:37Z</time>
      </trkpt>
      <trkpt lat="50.52831" lon="3.30184">
        <ele>39.915257</ele>
        <time>2018-07-05T12:59:39Z</time>
      </trkpt>
      <trkpt lat="50.52838" lon="3.30175">
        <ele>40.117867</ele>
        <time>2018-07-05T12:59:41Z</time>
      </trkpt>
      <trkpt lat="50.52845" lon="3.30166">
        <ele>40.145473</ele>
        <time>2018-07-05T12:59:43Z</time>
      </trkpt>
      <trkpt lat="50.52853" lon="3.30157">
        <ele>40.281223</ele>
        <time>2018-07-05T12:59:45Z</time>
      </trkpt>
      <trkpt lat="50.5286" lon="3.30147">
        <ele>40.303947</ele>
        <time>2018-07-05T12:59:47Z</time>
      </trkpt>
      <trkpt lat="50.52868" lon="3.30138">
        <ele>40.331093</ele>
        <time>2018-07-05T12:59:49Z</time>
      </trkpt>
      <trkpt lat="50.52875" lon="3.30128">
        <ele>40.395817</ele>
        <time>2018-07-05T12:59:51Z</time>
      </trkpt>
      <trkpt lat="50.52883" lon="3.30119">
        <ele>40.613029</ele>
        <time>2018-07-05T12:59:53Z</time>
      </trkpt>
      <trkpt lat="50.5289" lon="3.3011">
        <ele>40.656887</ele>
        <time>2018-07-05T12:59:55Z</time>
      </trkpt>
      <trkpt lat="50.52898" lon="3.301">
        <ele>40.756496</ele>
        <time>2018-07-05T12:59:57Z</time>
      </trkpt>
      <trkpt lat="50.52906" lon="3.30091">
        <ele>40.547848</ele>
        <time>2018-07-05T12:59:59Z</time>
      </trkpt>
      <trkpt lat="50.52915" lon="3.30082">
        <ele>40.439262</ele>
        <time>2018-07-05T13:00:01Z</time>
      </trkpt>
      <trkpt lat="50.52923" lon="3.30074">
        <ele>40.395393</ele>
        <time>2018-07-05T13:00:03Z</time>
      </trkpt>
      <trkpt lat="50.52932" lon="3.30071">
        <ele>40.351536</ele>
        <time>2018-07-05T13:00:05Z</time>
      </trkpt>
      <trkpt lat="50.5294" lon="3.30076">
        <ele>40.379574</ele>
        <time>2018-07-05T13:00:07Z</time>
      </trkpt>
      <trkpt lat="50.52947" lon="3.30085">
        <ele>40.398373</ele>
        <time>2018-07-05T13:00:09Z</time>
      </trkpt>
      <trkpt lat="50.52953" lon="3.30095">
        <ele>40.249474</ele>
        <time>2018-07-05T13:00:11Z</time>
      </trkpt>
      <trkpt lat="50.5296" lon="3.30105">
        <ele>40.149578</ele>
        <time>2018-07-05T13:00:13Z</time>
      </trkpt>
      <trkpt lat="50.52967" lon="3.30115">
        <ele>40.093182</ele>
        <time>2018-07-05T13:00:15Z</time>
      </trkpt>
      <trkpt lat="50.52974" lon="3.30124">
        <ele>40.024258</ele>
        <time>2018-07-05T13:00:17Z</time>
      </trkpt>
      <trkpt lat="50.52981" lon="3.30134">
        <ele>40.024239</ele>
        <time>2018-07-05T13:00:19Z</time>
      </trkpt>
      <trkpt lat="50.52988" lon="3.30144">
        <ele>39.773582</ele>
        <time>2018-07-05T13:00:21Z</time>
      </trkpt>
      <trkpt lat="50.52995" lon="3.30154">
        <ele>39.673313</ele>
        <time>2018-07-05T13:00:23Z</time>
      </trkpt>
      <trkpt lat="50.53002" lon="3.30163">
        <ele>39.686703</ele>
        <time>2018-07-05T13:00:25Z</time>
      </trkpt>
      <trkpt lat="50.53009" lon="3.30173">
        <ele>39.603165</ele>
        <time>2018-07-05T13:00:27Z</time>
      </trkpt>
      <trkpt lat="50.53015" lon="3.30182">
        <ele>39.700665</ele>
        <time>2018-07-05T13:00:29Z</time>
      </trkpt>
      <trkpt lat="50.53021" lon="3.30191">
        <ele>39.669338</ele>
        <time>2018-07-05T13:00:31Z</time>
      </trkpt>
      <trkpt lat="50.53029" lon="3.302">
        <ele>39.663086</ele>
        <time>2018-07-05T13:00:33Z</time>
      </trkpt>
      <trkpt lat="50.53035" lon="3.30209">
        <ele>39.522884</ele>
        <time>2018-07-05T13:00:35Z</time>
      </trkpt>
      <trkpt lat="50.53042" lon="3.30218">
        <ele>39.453957</ele>
        <time>2018-07-05T13:00:37Z</time>
      </trkpt>
      <trkpt lat="50.53048" lon="3.30228">
        <ele>39.522282</ele>
        <time>2018-07-05T13:00:39Z</time>
      </trkpt>
      <trkpt lat="50.53054" lon="3.30239">
        <ele>39.841743</ele>
        <time>2018-07-05T13:00:41Z</time>
      </trkpt>
      <trkpt lat="50.53059" lon="3.30251">
        <ele>39.923199</ele>
        <time>2018-07-05T13:00:43Z</time>
      </trkpt>
      <trkpt lat="50.53062" lon="3.30264">
        <ele>39.898201</ele>
        <time>2018-07-05T13:00:45Z</time>
      </trkpt>
      <trkpt lat="50.53064" lon="3.30276">
        <ele>40.023567</ele>
        <time>2018-07-05T13:00:47Z</time>
      </trkpt>
      <trkpt lat="50.53067" lon="3.3029">
        <ele>40.226185</ele>
        <time>2018-07-05T13:00:49Z</time>
      </trkpt>
      <trkpt lat="50.53069" lon="3.30304">
        <ele>40.410007</ele>
        <time>2018-07-05T13:00:51Z</time>
      </trkpt>
      <trkpt lat="50.53071" lon="3.30318">
        <ele>40.326725</ele>
        <time>2018-07-05T13:00:53Z</time>
      </trkpt>
      <trkpt lat="50.53075" lon="3.30332">
        <ele>40.517467</ele>
        <time>2018-07-05T13:00:55Z</time>
      </trkpt>
      <trkpt lat="50.53077" lon="3.30346">
        <ele>40.402611</ele>
        <time>2018-07-05T13:00:57Z</time>
      </trkpt>
      <trkpt lat="50.5308" lon="3.30359">
        <ele>40.396343</ele>
        <time>2018-07-05T13:00:59Z</time>
      </trkpt>
      <trkpt lat="50.53082" lon="3.30373">
        <ele>40.4799</ele>
        <time>2018-07-05T13:01:01Z</time>
      </trkpt>
      <trkpt lat="50.53085" lon="3.30386">
        <ele>40.580185</ele>
        <time>2018-07-05T13:01:03Z</time>
      </trkpt>
      <trkpt lat="50.53087" lon="3.30399">
        <ele>40.338402</ele>
        <time>2018-07-05T13:01:05Z</time>
      </trkpt>
      <trkpt lat="50.53087" lon="3.30414">
        <ele>40.416458</ele>
        <time>2018-07-05T13:01:07Z</time>
      </trkpt>
      <trkpt lat="50.53088" lon="3.30429">
        <ele>40.514626</ele>
        <time>2018-07-05T13:01:09Z</time>
      </trkpt>
      <trkpt lat="50.53088" lon="3.30443">
        <ele>40.671936</ele>
        <time>2018-07-05T13:01:11Z</time>
      </trkpt>
      <trkpt lat="50.53088" lon="3.30458">
        <ele>40.690735</ele>
        <time>2018-07-05T13:01:13Z</time>
      </trkpt>
      <trkpt lat="50.53089" lon="3.30472">
        <ele>40.837215</ele>
        <time>2018-07-05T13:01:15Z</time>
      </trkpt>
      <trkpt lat="50.53089" lon="3.30486">
        <ele>40.935379</ele>
        <time>2018-07-05T13:01:17Z</time>
      </trkpt>
      <trkpt lat="50.5309" lon="3.30499">
        <ele>40.978565</ele>
        <time>2018-07-05T13:01:19Z</time>
      </trkpt>
      <trkpt lat="50.53092" lon="3.30513">
        <ele>40.925457</ele>
        <time>2018-07-05T13:01:21Z</time>
      </trkpt>
      <trkpt lat="50.53097" lon="3.30524">
        <ele>40.956791</ele>
        <time>2018-07-05T13:01:23Z</time>
      </trkpt>
      <trkpt lat="50.53103" lon="3.30534">
        <ele>40.881607</ele>
        <time>2018-07-05T13:01:25Z</time>
      </trkpt>
      <trkpt lat="50.5311" lon="3.30543">
        <ele>41.008945</ele>
        <time>2018-07-05T13:01:27Z</time>
      </trkpt>
      <trkpt lat="50.53117" lon="3.30552">
        <ele>40.891254</ele>
        <time>2018-07-05T13:01:29Z</time>
      </trkpt>
      <trkpt lat="50.53124" lon="3.30562">
        <ele>40.7873</ele>
        <time>2018-07-05T13:01:31Z</time>
      </trkpt>
      <trkpt lat="50.5313" lon="3.30571">
        <ele>40.682838</ele>
        <time>2018-07-05T13:01:33Z</time>
      </trkpt>
      <trkpt lat="50.53137" lon="3.3058">
        <ele>40.822784</ele>
        <time>2018-07-05T13:01:35Z</time>
      </trkpt>
      <trkpt lat="50.53144" lon="3.3059">
        <ele>40.761528</ele>
        <time>2018-07-05T13:01:37Z</time>
      </trkpt>
      <trkpt lat="50.53151" lon="3.30598">
        <ele>40.918167</ele>
        <time>2018-07-05T13:01:39Z</time>
      </trkpt>
      <trkpt lat="50.53157" lon="3.30608">
        <ele>40.94323</ele>
        <time>2018-07-05T13:01:41Z</time>
      </trkpt>
      <trkpt lat="50.53164" lon="3.30617">
        <ele>40.949829</ele>
        <time>2018-07-05T13:01:43Z</time>
      </trkpt>
      <trkpt lat="50.5317" lon="3.30626">
        <ele>40.983238</ele>
        <time>2018-07-05T13:01:45Z</time>
      </trkpt>
      <trkpt lat="50.53177" lon="3.30635">
        <ele>41.29435</ele>
        <time>2018-07-05T13:01:47Z</time>
      </trkpt>
      <trkpt lat="50.53184" lon="3.30645">
        <ele>41.339531</ele>
        <time>2018-07-05T13:01:49Z</time>
      </trkpt>
      <trkpt lat="50.53191" lon="3.30654">
        <ele>41.369835</ele>
        <time>2018-07-05T13:01:51Z</time>
      </trkpt>
      <trkpt lat="50.53199" lon="3.30664">
        <ele>41.434593</ele>
        <time>2018-07-05T13:01:53Z</time>
      </trkpt>
      <trkpt lat="50.53206" lon="3.30673">
        <ele>41.434593</ele>
        <time>2018-07-05T13:01:55Z</time>
      </trkpt>
      <trkpt lat="50.53212" lon="3.30682">
        <ele>41.474277</ele>
        <time>2018-07-05T13:01:57Z</time>
      </trkpt>
      <trkpt lat="50.5322" lon="3.3069">
        <ele>41.418556</ele>
        <time>2018-07-05T13:01:59Z</time>
      </trkpt>
      <trkpt lat="50.53227" lon="3.30697">
        <ele>41.500912</ele>
        <time>2018-07-05T13:02:01Z</time>
      </trkpt>
      <trkpt lat="50.53236" lon="3.30702">
        <ele>41.51553</ele>
        <time>2018-07-05T13:02:03Z</time>
      </trkpt>
      <trkpt lat="50.53244" lon="3.30706">
        <ele>41.668015</ele>
        <time>2018-07-05T13:02:05Z</time>
      </trkpt>
      <trkpt lat="50.53253" lon="3.3071">
        <ele>41.772484</ele>
        <time>2018-07-05T13:02:07Z</time>
      </trkpt>
      <trkpt lat="50.53261" lon="3.30715">
        <ele>41.894318</ele>
        <time>2018-07-05T13:02:09Z</time>
      </trkpt>
      <trkpt lat="50.5327" lon="3.30719">
        <ele>41.862991</ele>
        <time>2018-07-05T13:02:11Z</time>
      </trkpt>
      <trkpt lat="50.53278" lon="3.30722">
        <ele>41.994118</ele>
        <time>2018-07-05T13:02:13Z</time>
      </trkpt>
      <trkpt lat="50.53287" lon="3.30726">
        <ele>42.109028</ele>
        <time>2018-07-05T13:02:15Z</time>
      </trkpt>
      <trkpt lat="50.53295" lon="3.30729">
        <ele>42.244808</ele>
        <time>2018-07-05T13:02:17Z</time>
      </trkpt>
      <trkpt lat="50.53303" lon="3.30734">
        <ele>42.56234</ele>
        <time>2018-07-05T13:02:19Z</time>
      </trkpt>
      <trkpt lat="50.53312" lon="3.30738">
        <ele>42.543541</ele>
        <time>2018-07-05T13:02:21Z</time>
      </trkpt>
      <trkpt lat="50.5332" lon="3.30741">
        <ele>42.735397</ele>
        <time>2018-07-05T13:02:23Z</time>
      </trkpt>
      <trkpt lat="50.53328" lon="3.30745">
        <ele>42.973557</ele>
        <time>2018-07-05T13:02:25Z</time>
      </trkpt>
      <trkpt lat="50.53336" lon="3.30748">
        <ele>43.136532</ele>
        <time>2018-07-05T13:02:27Z</time>
      </trkpt>
      <trkpt lat="50.53344" lon="3.30752">
        <ele>43.332924</ele>
        <time>2018-07-05T13:02:29Z</time>
      </trkpt>
      <trkpt lat="50.53352" lon="3.30755">
        <ele>43.357998</ele>
        <time>2018-07-05T13:02:31Z</time>
      </trkpt>
      <trkpt lat="50.53361" lon="3.30758">
        <ele>43.459316</ele>
        <time>2018-07-05T13:02:33Z</time>
      </trkpt>
      <trkpt lat="50.5337" lon="3.3076">
        <ele>43.622307</ele>
        <time>2018-07-05T13:02:35Z</time>
      </trkpt>
      <trkpt lat="50.53379" lon="3.30764">
        <ele>43.733028</ele>
        <time>2018-07-05T13:02:37Z</time>
      </trkpt>
      <trkpt lat="50.53388" lon="3.30767">
        <ele>43.889717</ele>
        <time>2018-07-05T13:02:39Z</time>
      </trkpt>
      <trkpt lat="50.53397" lon="3.3077">
        <ele>44.03207</ele>
        <time>2018-07-05T13:02:41Z</time>
      </trkpt>
      <trkpt lat="50.53407" lon="3.30773">
        <ele>44.088486</ele>
        <time>2018-07-05T13:02:43Z</time>
      </trkpt>
      <trkpt lat="50.53416" lon="3.30776">
        <ele>44.320572</ele>
        <time>2018-07-05T13:02:45Z</time>
      </trkpt>
      <trkpt lat="50.53425" lon="3.30779">
        <ele>44.397854</ele>
        <time>2018-07-05T13:02:47Z</time>
      </trkpt>
      <trkpt lat="50.53434" lon="3.30782">
        <ele>44.487198</ele>
        <time>2018-07-05T13:02:49Z</time>
      </trkpt>
      <trkpt lat="50.53444" lon="3.30785">
        <ele>44.577049</ele>
        <time>2018-07-05T13:02:51Z</time>
      </trkpt>
      <trkpt lat="50.53453" lon="3.30787">
        <ele>44.702866</ele>
        <time>2018-07-05T13:02:53Z</time>
      </trkpt>
      <trkpt lat="50.53462" lon="3.3079">
        <ele>44.806301</ele>
        <time>2018-07-05T13:02:55Z</time>
      </trkpt>
      <trkpt lat="50.53471" lon="3.30794">
        <ele>44.900307</ele>
        <time>2018-07-05T13:02:57Z</time>
      </trkpt>
      <trkpt lat="50.5348" lon="3.30799">
        <ele>45.019421</ele>
        <time>2018-07-05T13:02:59Z</time>
      </trkpt>
      <trkpt lat="50.53489" lon="3.30804">
        <ele>45.205383</ele>
        <time>2018-07-05T13:03:01Z</time>
      </trkpt>
      <trkpt lat="50.53497" lon="3.3081">
        <ele>45.280602</ele>
        <time>2018-07-05T13:03:03Z</time>
      </trkpt>
      <trkpt lat="50.53505" lon="3.30817">
        <ele>45.439415</ele>
        <time>2018-07-05T13:03:05Z</time>
      </trkpt>
      <trkpt lat="50.53513" lon="3.30824">
        <ele>45.320305</ele>
        <time>2018-07-05T13:03:07Z</time>
      </trkpt>
      <trkpt lat="50.53521" lon="3.30831">
        <ele>45.339111</ele>
        <time>2018-07-05T13:03:09Z</time>
      </trkpt>
      <trkpt lat="50.53529" lon="3.30839">
        <ele>45.387997</ele>
        <time>2018-07-05T13:03:11Z</time>
      </trkpt>
      <trkpt lat="50.53537" lon="3.30846">
        <ele>45.534248</ele>
        <time>2018-07-05T13:03:13Z</time>
      </trkpt>
      <trkpt lat="50.53544" lon="3.30853">
        <ele>45.617832</ele>
        <time>2018-07-05T13:03:15Z</time>
      </trkpt>
      <trkpt lat="50.53551" lon="3.30859">
        <ele>45.615635</ele>
        <time>2018-07-05T13:03:17Z</time>
      </trkpt>
      <trkpt lat="50.53558" lon="3.30864">
        <ele>45.626091</ele>
        <time>2018-07-05T13:03:19Z</time>
      </trkpt>
      <trkpt lat="50.53566" lon="3.30868">
        <ele>45.674137</ele>
        <time>2018-07-05T13:03:21Z</time>
      </trkpt>
      <trkpt lat="50.53574" lon="3.30872">
        <ele>45.830406</ele>
        <time>2018-07-05T13:03:23Z</time>
      </trkpt>
      <trkpt lat="50.53582" lon="3.30875">
        <ele>45.915894</ele>
        <time>2018-07-05T13:03:25Z</time>
      </trkpt>
      <trkpt lat="50.53591" lon="3.30878">
        <ele>46.026646</ele>
        <time>2018-07-05T13:03:27Z</time>
      </trkpt>
      <trkpt lat="50.53599" lon="3.3088">
        <ele>46.079369</ele>
        <time>2018-07-05T13:03:29Z</time>
      </trkpt>
      <trkpt lat="50.53607" lon="3.30881">
        <ele>46.169228</ele>
        <time>2018-07-05T13:03:31Z</time>
      </trkpt>
      <trkpt lat="50.53615" lon="3.30881">
        <ele>46.397015</ele>
        <time>2018-07-05T13:03:33Z</time>
      </trkpt>
      <trkpt lat="50.53624" lon="3.30882">
        <ele>46.415333</ele>
        <time>2018-07-05T13:03:35Z</time>
      </trkpt>
      <trkpt lat="50.53633" lon="3.30883">
        <ele>46.540962</ele>
        <time>2018-07-05T13:03:37Z</time>
      </trkpt>
      <trkpt lat="50.53641" lon="3.30883">
        <ele>46.645462</ele>
        <time>2018-07-05T13:03:39Z</time>
      </trkpt>
      <trkpt lat="50.5365" lon="3.30882">
        <ele>46.678902</ele>
        <time>2018-07-05T13:03:41Z</time>
      </trkpt>
      <trkpt lat="50.53659" lon="3.30882">
        <ele>46.794792</ele>
        <time>2018-07-05T13:03:43Z</time>
      </trkpt>
      <trkpt lat="50.53667" lon="3.30882">
        <ele>46.905556</ele>
        <time>2018-07-05T13:03:45Z</time>
      </trkpt>
      <trkpt lat="50.53676" lon="3.30883">
        <ele>46.945267</ele>
        <time>2018-07-05T13:03:47Z</time>
      </trkpt>
      <trkpt lat="50.53684" lon="3.30884">
        <ele>47.101997</ele>
        <time>2018-07-05T13:03:49Z</time>
      </trkpt>
      <trkpt lat="50.53693" lon="3.30884">
        <ele>47.238594</ele>
        <time>2018-07-05T13:03:51Z</time>
      </trkpt>
      <trkpt lat="50.53702" lon="3.30884">
        <ele>47.290848</ele>
        <time>2018-07-05T13:03:53Z</time>
      </trkpt>
      <trkpt lat="50.53711" lon="3.30885">
        <ele>47.382683</ele>
        <time>2018-07-05T13:03:55Z</time>
      </trkpt>
      <trkpt lat="50.5372" lon="3.30885">
        <ele>47.430382</ele>
        <time>2018-07-05T13:03:57Z</time>
      </trkpt>
      <trkpt lat="50.53729" lon="3.30884">
        <ele>47.681282</ele>
        <time>2018-07-05T13:03:59Z</time>
      </trkpt>
      <trkpt lat="50.53737" lon="3.30884">
        <ele>47.752338</ele>
        <time>2018-07-05T13:04:01Z</time>
      </trkpt>
      <trkpt lat="50.53746" lon="3.30884">
        <ele>47.89045</ele>
        <time>2018-07-05T13:04:03Z</time>
      </trkpt>
      <trkpt lat="50.53754" lon="3.30884">
        <ele>47.894638</ele>
        <time>2018-07-05T13:04:05Z</time>
      </trkpt>
      <trkpt lat="50.53764" lon="3.30884">
        <ele>47.944798</ele>
        <time>2018-07-05T13:04:07Z</time>
      </trkpt>
      <trkpt lat="50.53773" lon="3.30884">
        <ele>48.001228</ele>
        <time>2018-07-05T13:04:09Z</time>
      </trkpt>
      <trkpt lat="50.53782" lon="3.30884">
        <ele>48.199806</ele>
        <time>2018-07-05T13:04:11Z</time>
      </trkpt>
      <trkpt lat="50.53791" lon="3.30884">
        <ele>48.149651</ele>
        <time>2018-07-05T13:04:13Z</time>
      </trkpt>
      <trkpt lat="50.53801" lon="3.30885">
        <ele>48.193539</ele>
        <time>2018-07-05T13:04:15Z</time>
      </trkpt>
      <trkpt lat="50.5381" lon="3.30885">
        <ele>48.224888</ele>
        <time>2018-07-05T13:04:17Z</time>
      </trkpt>
      <trkpt lat="50.53819" lon="3.30885">
        <ele>48.234047</ele>
        <time>2018-07-05T13:04:19Z</time>
      </trkpt>
      <trkpt lat="50.53828" lon="3.30885">
        <ele>48.208004</ele>
        <time>2018-07-05T13:04:21Z</time>
      </trkpt>
      <trkpt lat="50.53838" lon="3.30885">
        <ele>48.175728</ele>
        <time>2018-07-05T13:04:23Z</time>
      </trkpt>
      <trkpt lat="50.53848" lon="3.30886">
        <ele>48.006428</ele>
        <time>2018-07-05T13:04:25Z</time>
      </trkpt>
      <trkpt lat="50.53857" lon="3.30886">
        <ele>48.067051</ele>
        <time>2018-07-05T13:04:27Z</time>
      </trkpt>
      <trkpt lat="50.53867" lon="3.30886">
        <ele>48.112881</ele>
        <time>2018-07-05T13:04:29Z</time>
      </trkpt>
      <trkpt lat="50.53875" lon="3.30887">
        <ele>47.977558</ele>
        <time>2018-07-05T13:04:31Z</time>
      </trkpt>
      <trkpt lat="50.53885" lon="3.30887">
        <ele>47.962395</ele>
        <time>2018-07-05T13:04:33Z</time>
      </trkpt>
      <trkpt lat="50.53894" lon="3.30888">
        <ele>47.931038</ele>
        <time>2018-07-05T13:04:35Z</time>
      </trkpt>
      <trkpt lat="50.53903" lon="3.30889">
        <ele>47.954163</ele>
        <time>2018-07-05T13:04:37Z</time>
      </trkpt>
      <trkpt lat="50.53912" lon="3.30889">
        <ele>47.927402</ele>
        <time>2018-07-05T13:04:39Z</time>
      </trkpt>
      <trkpt lat="50.53921" lon="3.3089">
        <ele>47.914867</ele>
        <time>2018-07-05T13:04:41Z</time>
      </trkpt>
      <trkpt lat="50.5393" lon="3.30891">
        <ele>47.879341</ele>
        <time>2018-07-05T13:04:43Z</time>
      </trkpt>
      <trkpt lat="50.53939" lon="3.30892">
        <ele>48.008961</ele>
        <time>2018-07-05T13:04:45Z</time>
      </trkpt>
      <trkpt lat="50.53948" lon="3.30893">
        <ele>48.107201</ele>
        <time>2018-07-05T13:04:47Z</time>
      </trkpt>
      <trkpt lat="50.53957" lon="3.30893">
        <ele>48.318333</ele>
        <time>2018-07-05T13:04:49Z</time>
      </trkpt>
      <trkpt lat="50.53967" lon="3.30894">
        <ele>48.316254</ele>
        <time>2018-07-05T13:04:51Z</time>
      </trkpt>
      <trkpt lat="50.53976" lon="3.30894">
        <ele>48.368523</ele>
        <time>2018-07-05T13:04:53Z</time>
      </trkpt>
      <trkpt lat="50.53986" lon="3.30895">
        <ele>48.418678</ele>
        <time>2018-07-05T13:04:55Z</time>
      </trkpt>
      <trkpt lat="50.53995" lon="3.30896">
        <ele>48.573368</ele>
        <time>2018-07-05T13:04:57Z</time>
      </trkpt>
      <trkpt lat="50.54004" lon="3.30896">
        <ele>48.659081</ele>
        <time>2018-07-05T13:04:59Z</time>
      </trkpt>
      <trkpt lat="50.54014" lon="3.30897">
        <ele>48.947571</ele>
        <time>2018-07-05T13:05:01Z</time>
      </trkpt>
      <trkpt lat="50.54024" lon="3.30897">
        <ele>49.055073</ele>
        <time>2018-07-05T13:05:03Z</time>
      </trkpt>
      <trkpt lat="50.54033" lon="3.30898">
        <ele>49.207687</ele>
        <time>2018-07-05T13:05:05Z</time>
      </trkpt>
      <trkpt lat="50.54043" lon="3.30899">
        <ele>49.190948</ele>
        <time>2018-07-05T13:05:07Z</time>
      </trkpt>
      <trkpt lat="50.54052" lon="3.30899">
        <ele>49.326538</ele>
        <time>2018-07-05T13:05:09Z</time>
      </trkpt>
      <trkpt lat="50.54062" lon="3.30899">
        <ele>49.383137</ele>
        <time>2018-07-05T13:05:11Z</time>
      </trkpt>
      <trkpt lat="50.54071" lon="3.309">
        <ele>49.617805</ele>
        <time>2018-07-05T13:05:13Z</time>
      </trkpt>
      <trkpt lat="50.5408" lon="3.309">
        <ele>49.952827</ele>
        <time>2018-07-05T13:05:15Z</time>
      </trkpt>
      <trkpt lat="50.54089" lon="3.309">
        <ele>50.032269</ele>
        <time>2018-07-05T13:05:17Z</time>
      </trkpt>
      <trkpt lat="50.54098" lon="3.30899">
        <ele>49.908958</ele>
        <time>2018-07-05T13:05:19Z</time>
      </trkpt>
      <trkpt lat="50.54107" lon="3.30899">
        <ele>49.957275</ele>
        <time>2018-07-05T13:05:21Z</time>
      </trkpt>
      <trkpt lat="50.54116" lon="3.30898">
        <ele>50.040886</ele>
        <time>2018-07-05T13:05:23Z</time>
      </trkpt>
      <trkpt lat="50.54125" lon="3.30897">
        <ele>49.877838</ele>
        <time>2018-07-05T13:05:25Z</time>
      </trkpt>
      <trkpt lat="50.54133" lon="3.30896">
        <ele>49.886604</ele>
        <time>2018-07-05T13:05:27Z</time>
      </trkpt>
      <trkpt lat="50.54142" lon="3.30895">
        <ele>49.739899</ele>
        <time>2018-07-05T13:05:29Z</time>
      </trkpt>
      <trkpt lat="50.5415" lon="3.30894">
        <ele>49.773357</ele>
        <time>2018-07-05T13:05:31Z</time>
      </trkpt>
      <trkpt lat="50.54159" lon="3.30894">
        <ele>49.704365</ele>
        <time>2018-07-05T13:05:33Z</time>
      </trkpt>
      <trkpt lat="50.54168" lon="3.30893">
        <ele>49.693897</ele>
        <time>2018-07-05T13:05:35Z</time>
      </trkpt>
      <trkpt lat="50.54176" lon="3.30892">
        <ele>49.627007</ele>
        <time>2018-07-05T13:05:37Z</time>
      </trkpt>
      <trkpt lat="50.54186" lon="3.30891">
        <ele>49.620735</ele>
        <time>2018-07-05T13:05:39Z</time>
      </trkpt>
      <trkpt lat="50.54194" lon="3.30889">
        <ele>49.44305</ele>
        <time>2018-07-05T13:05:41Z</time>
      </trkpt>
      <trkpt lat="50.54202" lon="3.30886">
        <ele>49.399136</ele>
        <time>2018-07-05T13:05:43Z</time>
      </trkpt>
      <trkpt lat="50.54211" lon="3.30883">
        <ele>49.395958</ele>
        <time>2018-07-05T13:05:45Z</time>
      </trkpt>
      <trkpt lat="50.5422" lon="3.3088">
        <ele>49.335316</ele>
        <time>2018-07-05T13:05:47Z</time>
      </trkpt>
      <trkpt lat="50.54229" lon="3.30875">
        <ele>49.362484</ele>
        <time>2018-07-05T13:05:49Z</time>
      </trkpt>
      <trkpt lat="50.54238" lon="3.30869">
        <ele>49.279152</ele>
        <time>2018-07-05T13:05:51Z</time>
      </trkpt>
      <trkpt lat="50.54247" lon="3.30863">
        <ele>49.266609</ele>
        <time>2018-07-05T13:05:53Z</time>
      </trkpt>
      <trkpt lat="50.54255" lon="3.30856">
        <ele>49.256264</ele>
        <time>2018-07-05T13:05:55Z</time>
      </trkpt>
      <trkpt lat="50.54263" lon="3.30849">
        <ele>49.078678</ele>
        <time>2018-07-05T13:05:57Z</time>
      </trkpt>
      <trkpt lat="50.5427" lon="3.3084">
        <ele>49.256386</ele>
        <time>2018-07-05T13:05:59Z</time>
      </trkpt>
      <trkpt lat="50.54277" lon="3.30831">
        <ele>49.459175</ele>
        <time>2018-07-05T13:06:01Z</time>
      </trkpt>
      <trkpt lat="50.54284" lon="3.30821">
        <ele>49.43787</ele>
        <time>2018-07-05T13:06:03Z</time>
      </trkpt>
      <trkpt lat="50.54291" lon="3.3081">
        <ele>49.619698</ele>
        <time>2018-07-05T13:06:05Z</time>
      </trkpt>
      <trkpt lat="50.54298" lon="3.308">
        <ele>49.719643</ele>
        <time>2018-07-05T13:06:07Z</time>
      </trkpt>
      <trkpt lat="50.54305" lon="3.30789">
        <ele>49.719643</ele>
        <time>2018-07-05T13:06:09Z</time>
      </trkpt>
      <trkpt lat="50.54322" lon="3.30755">
        <ele>49.857433</ele>
        <time>2018-07-05T13:06:15Z</time>
      </trkpt>
      <trkpt lat="50.54328" lon="3.30743">
        <ele>49.857674</ele>
        <time>2018-07-05T13:06:17Z</time>
      </trkpt>
      <trkpt lat="50.54334" lon="3.30731">
        <ele>50.00943</ele>
        <time>2018-07-05T13:06:19Z</time>
      </trkpt>
      <trkpt lat="50.5434" lon="3.3072">
        <ele>50.189247</ele>
        <time>2018-07-05T13:06:21Z</time>
      </trkpt>
      <trkpt lat="50.54346" lon="3.30709">
        <ele>50.270668</ele>
        <time>2018-07-05T13:06:23Z</time>
      </trkpt>
      <trkpt lat="50.54353" lon="3.30699">
        <ele>50.343849</ele>
        <time>2018-07-05T13:06:25Z</time>
      </trkpt>
      <trkpt lat="50.5436" lon="3.30689">
        <ele>50.563343</ele>
        <time>2018-07-05T13:06:27Z</time>
      </trkpt>
      <trkpt lat="50.54367" lon="3.30681">
        <ele>50.595921</ele>
        <time>2018-07-05T13:06:29Z</time>
      </trkpt>
      <trkpt lat="50.54375" lon="3.30673">
        <ele>50.555714</ele>
        <time>2018-07-05T13:06:31Z</time>
      </trkpt>
      <trkpt lat="50.54383" lon="3.30666">
        <ele>50.574532</ele>
        <time>2018-07-05T13:06:33Z</time>
      </trkpt>
      <trkpt lat="50.54391" lon="3.3066">
        <ele>50.694706</ele>
        <time>2018-07-05T13:06:35Z</time>
      </trkpt>
      <trkpt lat="50.544" lon="3.30655">
        <ele>50.784607</ele>
        <time>2018-07-05T13:06:37Z</time>
      </trkpt>
      <trkpt lat="50.54408" lon="3.3065">
        <ele>50.88287</ele>
        <time>2018-07-05T13:06:39Z</time>
      </trkpt>
      <trkpt lat="50.54417" lon="3.30647">
        <ele>50.850399</ele>
        <time>2018-07-05T13:06:41Z</time>
      </trkpt>
      <trkpt lat="50.54426" lon="3.30644">
        <ele>50.986164</ele>
        <time>2018-07-05T13:06:43Z</time>
      </trkpt>
      <trkpt lat="50.54435" lon="3.30642">
        <ele>51.111588</ele>
        <time>2018-07-05T13:06:45Z</time>
      </trkpt>
      <trkpt lat="50.54445" lon="3.30641">
        <ele>51.176384</ele>
        <time>2018-07-05T13:06:47Z</time>
      </trkpt>
      <trkpt lat="50.54453" lon="3.30641">
        <ele>51.193394</ele>
        <time>2018-07-05T13:06:49Z</time>
      </trkpt>
      <trkpt lat="50.54462" lon="3.30641">
        <ele>51.360119</ele>
        <time>2018-07-05T13:06:51Z</time>
      </trkpt>
      <trkpt lat="50.54471" lon="3.30642">
        <ele>51.368481</ele>
        <time>2018-07-05T13:06:53Z</time>
      </trkpt>
      <trkpt lat="50.5448" lon="3.30643">
        <ele>51.387291</ele>
        <time>2018-07-05T13:06:55Z</time>
      </trkpt>
      <trkpt lat="50.54488" lon="3.30644">
        <ele>51.496326</ele>
        <time>2018-07-05T13:06:57Z</time>
      </trkpt>
      <trkpt lat="50.54496" lon="3.30645">
        <ele>51.566154</ele>
        <time>2018-07-05T13:06:59Z</time>
      </trkpt>
      <trkpt lat="50.54504" lon="3.30646">
        <ele>51.654823</ele>
        <time>2018-07-05T13:07:01Z</time>
      </trkpt>
      <trkpt lat="50.54512" lon="3.30646">
        <ele>51.746925</ele>
        <time>2018-07-05T13:07:03Z</time>
      </trkpt>
      <trkpt lat="50.54521" lon="3.30647">
        <ele>51.784557</ele>
        <time>2018-07-05T13:07:05Z</time>
      </trkpt>
      <trkpt lat="50.54529" lon="3.30647">
        <ele>51.855938</ele>
        <time>2018-07-05T13:07:07Z</time>
      </trkpt>
      <trkpt lat="50.54537" lon="3.30648">
        <ele>51.937489</ele>
        <time>2018-07-05T13:07:09Z</time>
      </trkpt>
      <trkpt lat="50.54545" lon="3.30647">
        <ele>52.053368</ele>
        <time>2018-07-05T13:07:11Z</time>
      </trkpt>
      <trkpt lat="50.54554" lon="3.30645">
        <ele>52.356102</ele>
        <time>2018-07-05T13:07:13Z</time>
      </trkpt>
      <trkpt lat="50.54563" lon="3.30641">
        <ele>52.548698</ele>
        <time>2018-07-05T13:07:15Z</time>
      </trkpt>
      <trkpt lat="50.54571" lon="3.30637">
        <ele>52.664917</ele>
        <time>2018-07-05T13:07:17Z</time>
      </trkpt>
      <trkpt lat="50.5458" lon="3.30632">
        <ele>52.78878</ele>
        <time>2018-07-05T13:07:19Z</time>
      </trkpt>
      <trkpt lat="50.54588" lon="3.30625">
        <ele>53.050179</ele>
        <time>2018-07-05T13:07:21Z</time>
      </trkpt>
      <trkpt lat="50.54596" lon="3.30618">
        <ele>53.190704</ele>
        <time>2018-07-05T13:07:23Z</time>
      </trkpt>
      <trkpt lat="50.54603" lon="3.30612">
        <ele>53.311989</ele>
        <time>2018-07-05T13:07:25Z</time>
      </trkpt>
      <trkpt lat="50.5461" lon="3.30605">
        <ele>53.351734</ele>
        <time>2018-07-05T13:07:27Z</time>
      </trkpt>
      <trkpt lat="50.54618" lon="3.30599">
        <ele>53.445843</ele>
        <time>2018-07-05T13:07:29Z</time>
      </trkpt>
      <trkpt lat="50.54625" lon="3.30593">
        <ele>53.627602</ele>
        <time>2018-07-05T13:07:31Z</time>
      </trkpt>
      <trkpt lat="50.54632" lon="3.30586">
        <ele>53.812183</ele>
        <time>2018-07-05T13:07:33Z</time>
      </trkpt>
      <trkpt lat="50.54639" lon="3.3058">
        <ele>54.06942</ele>
        <time>2018-07-05T13:07:35Z</time>
      </trkpt>
      <trkpt lat="50.54646" lon="3.30573">
        <ele>54.22834</ele>
        <time>2018-07-05T13:07:37Z</time>
      </trkpt>
      <trkpt lat="50.54653" lon="3.30567">
        <ele>54.404022</ele>
        <time>2018-07-05T13:07:39Z</time>
      </trkpt>
      <trkpt lat="50.5466" lon="3.30564">
        <ele>54.626087</ele>
        <time>2018-07-05T13:07:41Z</time>
      </trkpt>
      <trkpt lat="50.54668" lon="3.30566">
        <ele>54.700523</ele>
        <time>2018-07-05T13:07:43Z</time>
      </trkpt>
      <trkpt lat="50.54675" lon="3.30572">
        <ele>54.872059</ele>
        <time>2018-07-05T13:07:45Z</time>
      </trkpt>
      <trkpt lat="50.54681" lon="3.30581">
        <ele>55.076973</ele>
        <time>2018-07-05T13:07:47Z</time>
      </trkpt>
      <trkpt lat="50.54687" lon="3.3059">
        <ele>55.127167</ele>
        <time>2018-07-05T13:07:49Z</time>
      </trkpt>
      <trkpt lat="50.54693" lon="3.306">
        <ele>55.373981</ele>
        <time>2018-07-05T13:07:51Z</time>
      </trkpt>
      <trkpt lat="50.54697" lon="3.30611">
        <ele>55.48275</ele>
        <time>2018-07-05T13:07:53Z</time>
      </trkpt>
      <trkpt lat="50.54702" lon="3.30622">
        <ele>55.538166</ele>
        <time>2018-07-05T13:07:55Z</time>
      </trkpt>
      <trkpt lat="50.54705" lon="3.30633">
        <ele>55.617901</ele>
        <time>2018-07-05T13:07:57Z</time>
      </trkpt>
      <trkpt lat="50.5471" lon="3.30645">
        <ele>55.843311</ele>
        <time>2018-07-05T13:07:59Z</time>
      </trkpt>
      <trkpt lat="50.54714" lon="3.30656">
        <ele>56.028961</ele>
        <time>2018-07-05T13:08:01Z</time>
      </trkpt>
      <trkpt lat="50.54718" lon="3.30667">
        <ele>56.127277</ele>
        <time>2018-07-05T13:08:03Z</time>
      </trkpt>
      <trkpt lat="50.54722" lon="3.30679">
        <ele>56.233948</ele>
        <time>2018-07-05T13:08:05Z</time>
      </trkpt>
      <trkpt lat="50.54726" lon="3.3069">
        <ele>56.459755</ele>
        <time>2018-07-05T13:08:07Z</time>
      </trkpt>
      <trkpt lat="50.5473" lon="3.30701">
        <ele>56.5284</ele>
        <time>2018-07-05T13:08:09Z</time>
      </trkpt>
      <trkpt lat="50.54734" lon="3.30713">
        <ele>56.663429</ele>
        <time>2018-07-05T13:08:11Z</time>
      </trkpt>
      <trkpt lat="50.54738" lon="3.30723">
        <ele>56.806843</ele>
        <time>2018-07-05T13:08:13Z</time>
      </trkpt>
      <trkpt lat="50.54741" lon="3.30734">
        <ele>56.91563</ele>
        <time>2018-07-05T13:08:15Z</time>
      </trkpt>
      <trkpt lat="50.54745" lon="3.30745">
        <ele>57.129017</ele>
        <time>2018-07-05T13:08:17Z</time>
      </trkpt>
      <trkpt lat="50.54749" lon="3.30757">
        <ele>57.154121</ele>
        <time>2018-07-05T13:08:19Z</time>
      </trkpt>
      <trkpt lat="50.54753" lon="3.30768">
        <ele>57.244305</ele>
        <time>2018-07-05T13:08:21Z</time>
      </trkpt>
      <trkpt lat="50.54757" lon="3.30779">
        <ele>57.352478</ele>
        <time>2018-07-05T13:08:23Z</time>
      </trkpt>
      <trkpt lat="50.5476" lon="3.30791">
        <ele>57.624409</ele>
        <time>2018-07-05T13:08:25Z</time>
      </trkpt>
      <trkpt lat="50.54764" lon="3.30803">
        <ele>57.706005</ele>
        <time>2018-07-05T13:08:27Z</time>
      </trkpt>
      <trkpt lat="50.54768" lon="3.30816">
        <ele>57.906635</ele>
        <time>2018-07-05T13:08:29Z</time>
      </trkpt>
      <trkpt lat="50.54772" lon="3.30828">
        <ele>58.082344</ele>
        <time>2018-07-05T13:08:31Z</time>
      </trkpt>
      <trkpt lat="50.54776" lon="3.3084">
        <ele>58.126274</ele>
        <time>2018-07-05T13:08:33Z</time>
      </trkpt>
      <trkpt lat="50.5478" lon="3.30853">
        <ele>58.265972</ele>
        <time>2018-07-05T13:08:35Z</time>
      </trkpt>
      <trkpt lat="50.54784" lon="3.30865">
        <ele>58.429756</ele>
        <time>2018-07-05T13:08:37Z</time>
      </trkpt>
      <trkpt lat="50.54789" lon="3.30877">
        <ele>58.647358</ele>
        <time>2018-07-05T13:08:39Z</time>
      </trkpt>
      <trkpt lat="50.54794" lon="3.30888">
        <ele>58.715687</ele>
        <time>2018-07-05T13:08:41Z</time>
      </trkpt>
      <trkpt lat="50.54799" lon="3.30898">
        <ele>58.891441</ele>
        <time>2018-07-05T13:08:43Z</time>
      </trkpt>
      <trkpt lat="50.54804" lon="3.30907">
        <ele>58.954212</ele>
        <time>2018-07-05T13:08:45Z</time>
      </trkpt>
      <trkpt lat="50.54805" lon="3.30919">
        <ele>59.019066</ele>
        <time>2018-07-05T13:08:47Z</time>
      </trkpt>
      <trkpt lat="50.548" lon="3.30929">
        <ele>59.157295</ele>
        <time>2018-07-05T13:08:49Z</time>
      </trkpt>
      <trkpt lat="50.54793" lon="3.30938">
        <ele>59.318798</ele>
        <time>2018-07-05T13:08:51Z</time>
      </trkpt>
      <trkpt lat="50.54786" lon="3.30947">
        <ele>59.453663</ele>
        <time>2018-07-05T13:08:53Z</time>
      </trkpt>
      <trkpt lat="50.5478" lon="3.30957">
        <ele>59.5299</ele>
        <time>2018-07-05T13:08:55Z</time>
      </trkpt>
      <trkpt lat="50.54773" lon="3.30967">
        <ele>59.737</ele>
        <time>2018-07-05T13:08:57Z</time>
      </trkpt>
      <trkpt lat="50.54767" lon="3.30978">
        <ele>59.862568</ele>
        <time>2018-07-05T13:08:59Z</time>
      </trkpt>
      <trkpt lat="50.5476" lon="3.30989">
        <ele>60.044365</ele>
        <time>2018-07-05T13:09:01Z</time>
      </trkpt>
      <trkpt lat="50.54754" lon="3.31">
        <ele>60.341858</ele>
        <time>2018-07-05T13:09:03Z</time>
      </trkpt>
      <trkpt lat="50.54747" lon="3.31011">
        <ele>60.454857</ele>
        <time>2018-07-05T13:09:05Z</time>
      </trkpt>
      <trkpt lat="50.5474" lon="3.31021">
        <ele>60.546944</ele>
        <time>2018-07-05T13:09:07Z</time>
      </trkpt>
      <trkpt lat="50.54733" lon="3.31031">
        <ele>60.534382</ele>
        <time>2018-07-05T13:09:09Z</time>
      </trkpt>
      <trkpt lat="50.54725" lon="3.31039">
        <ele>60.480431</ele>
        <time>2018-07-05T13:09:11Z</time>
      </trkpt>
      <trkpt lat="50.54716" lon="3.31047">
        <ele>60.631092</ele>
        <time>2018-07-05T13:09:13Z</time>
      </trkpt>
      <trkpt lat="50.54707" lon="3.31053">
        <ele>60.666664</ele>
        <time>2018-07-05T13:09:15Z</time>
      </trkpt>
      <trkpt lat="50.54697" lon="3.31058">
        <ele>60.607525</ele>
        <time>2018-07-05T13:09:17Z</time>
      </trkpt>
      <trkpt lat="50.54687" lon="3.31063">
        <ele>60.425507</ele>
        <time>2018-07-05T13:09:19Z</time>
      </trkpt>
      <trkpt lat="50.54677" lon="3.31067">
        <ele>60.513416</ele>
        <time>2018-07-05T13:09:21Z</time>
      </trkpt>
      <trkpt lat="50.54667" lon="3.31071">
        <ele>60.588737</ele>
        <time>2018-07-05T13:09:23Z</time>
      </trkpt>
      <trkpt lat="50.54657" lon="3.31075">
        <ele>60.509224</ele>
        <time>2018-07-05T13:09:25Z</time>
      </trkpt>
      <trkpt lat="50.54647" lon="3.31079">
        <ele>60.540611</ele>
        <time>2018-07-05T13:09:27Z</time>
      </trkpt>
      <trkpt lat="50.54637" lon="3.31083">
        <ele>60.398365</ele>
        <time>2018-07-05T13:09:29Z</time>
      </trkpt>
      <trkpt lat="50.54627" lon="3.31087">
        <ele>60.341869</ele>
        <time>2018-07-05T13:09:31Z</time>
      </trkpt>
      <trkpt lat="50.54617" lon="3.31092">
        <ele>60.253986</ele>
        <time>2018-07-05T13:09:33Z</time>
      </trkpt>
      <trkpt lat="50.54607" lon="3.31097">
        <ele>60.277637</ele>
        <time>2018-07-05T13:09:35Z</time>
      </trkpt>
      <trkpt lat="50.54597" lon="3.31102">
        <ele>60.306934</ele>
        <time>2018-07-05T13:09:37Z</time>
      </trkpt>
      <trkpt lat="50.54588" lon="3.31109">
        <ele>60.319592</ele>
        <time>2018-07-05T13:09:39Z</time>
      </trkpt>
      <trkpt lat="50.54579" lon="3.31117">
        <ele>60.106148</ele>
        <time>2018-07-05T13:09:41Z</time>
      </trkpt>
      <trkpt lat="50.54571" lon="3.31127">
        <ele>59.863476</ele>
        <time>2018-07-05T13:09:43Z</time>
      </trkpt>
      <trkpt lat="50.54563" lon="3.31137">
        <ele>59.645744</ele>
        <time>2018-07-05T13:09:45Z</time>
      </trkpt>
      <trkpt lat="50.54556" lon="3.31148">
        <ele>59.58297</ele>
        <time>2018-07-05T13:09:47Z</time>
      </trkpt>
      <trkpt lat="50.5455" lon="3.31161">
        <ele>59.601799</ele>
        <time>2018-07-05T13:09:49Z</time>
      </trkpt>
      <trkpt lat="50.54544" lon="3.31174">
        <ele>59.526867</ele>
        <time>2018-07-05T13:09:51Z</time>
      </trkpt>
      <trkpt lat="50.54538" lon="3.31187">
        <ele>59.330223</ele>
        <time>2018-07-05T13:09:53Z</time>
      </trkpt>
      <trkpt lat="50.54533" lon="3.31201">
        <ele>59.175385</ele>
        <time>2018-07-05T13:09:55Z</time>
      </trkpt>
      <trkpt lat="50.54527" lon="3.31215">
        <ele>59.118889</ele>
        <time>2018-07-05T13:09:57Z</time>
      </trkpt>
      <trkpt lat="50.54521" lon="3.31229">
        <ele>59.156548</ele>
        <time>2018-07-05T13:09:59Z</time>
      </trkpt>
      <trkpt lat="50.54515" lon="3.31243">
        <ele>59.143196</ele>
        <time>2018-07-05T13:10:01Z</time>
      </trkpt>
      <trkpt lat="50.54509" lon="3.31257">
        <ele>59.03019</ele>
        <time>2018-07-05T13:10:03Z</time>
      </trkpt>
      <trkpt lat="50.54503" lon="3.31271">
        <ele>58.947895</ele>
        <time>2018-07-05T13:10:05Z</time>
      </trkpt>
      <trkpt lat="50.54498" lon="3.31285">
        <ele>58.845375</ele>
        <time>2018-07-05T13:10:07Z</time>
      </trkpt>
      <trkpt lat="50.54492" lon="3.31299">
        <ele>58.922798</ele>
        <time>2018-07-05T13:10:09Z</time>
      </trkpt>
      <trkpt lat="50.54486" lon="3.31313">
        <ele>58.966686</ele>
        <time>2018-07-05T13:10:11Z</time>
      </trkpt>
      <trkpt lat="50.5448" lon="3.31327">
        <ele>58.859985</ele>
        <time>2018-07-05T13:10:13Z</time>
      </trkpt>
      <trkpt lat="50.54474" lon="3.31341">
        <ele>58.822319</ele>
        <time>2018-07-05T13:10:15Z</time>
      </trkpt>
      <trkpt lat="50.54468" lon="3.31356">
        <ele>58.838432</ele>
        <time>2018-07-05T13:10:17Z</time>
      </trkpt>
      <trkpt lat="50.54462" lon="3.31371">
        <ele>58.507793</ele>
        <time>2018-07-05T13:10:19Z</time>
      </trkpt>
      <trkpt lat="50.54456" lon="3.31386">
        <ele>58.486885</ele>
        <time>2018-07-05T13:10:21Z</time>
      </trkpt>
      <trkpt lat="50.5445" lon="3.314">
        <ele>58.604942</ele>
        <time>2018-07-05T13:10:23Z</time>
      </trkpt>
      <trkpt lat="50.54443" lon="3.31415">
        <ele>58.41457</ele>
        <time>2018-07-05T13:10:25Z</time>
      </trkpt>
      <trkpt lat="50.54437" lon="3.3143">
        <ele>58.366447</ele>
        <time>2018-07-05T13:10:27Z</time>
      </trkpt>
      <trkpt lat="50.54431" lon="3.31445">
        <ele>58.07143</ele>
        <time>2018-07-05T13:10:29Z</time>
      </trkpt>
      <trkpt lat="50.54425" lon="3.3146">
        <ele>57.883137</ele>
        <time>2018-07-05T13:10:31Z</time>
      </trkpt>
      <trkpt lat="50.54418" lon="3.31476">
        <ele>57.645947</ele>
        <time>2018-07-05T13:10:33Z</time>
      </trkpt>
      <trkpt lat="50.54412" lon="3.31491">
        <ele>57.719452</ele>
        <time>2018-07-05T13:10:35Z</time>
      </trkpt>
      <trkpt lat="50.54405" lon="3.31507">
        <ele>57.566753</ele>
        <time>2018-07-05T13:10:37Z</time>
      </trkpt>
      <trkpt lat="50.54398" lon="3.31523">
        <ele>57.395252</ele>
        <time>2018-07-05T13:10:39Z</time>
      </trkpt>
      <trkpt lat="50.54392" lon="3.31539">
        <ele>57.142212</ele>
        <time>2018-07-05T13:10:41Z</time>
      </trkpt>
      <trkpt lat="50.54385" lon="3.31556">
        <ele>56.687042</ele>
        <time>2018-07-05T13:10:43Z</time>
      </trkpt>
      <trkpt lat="50.54377" lon="3.31572">
        <ele>56.452789</ele>
        <time>2018-07-05T13:10:45Z</time>
      </trkpt>
      <trkpt lat="50.5437" lon="3.31589">
        <ele>56.301125</ele>
        <time>2018-07-05T13:10:47Z</time>
      </trkpt>
      <trkpt lat="50.54363" lon="3.31606">
        <ele>55.895317</ele>
        <time>2018-07-05T13:10:49Z</time>
      </trkpt>
      <trkpt lat="50.54356" lon="3.31623">
        <ele>55.328613</ele>
        <time>2018-07-05T13:10:51Z</time>
      </trkpt>
      <trkpt lat="50.5435" lon="3.31639">
        <ele>55.004448</ele>
        <time>2018-07-05T13:10:53Z</time>
      </trkpt>
      <trkpt lat="50.54342" lon="3.31657">
        <ele>54.850849</ele>
        <time>2018-07-05T13:10:55Z</time>
      </trkpt>
      <trkpt lat="50.54335" lon="3.31674">
        <ele>54.445045</ele>
        <time>2018-07-05T13:10:57Z</time>
      </trkpt>
      <trkpt lat="50.54327" lon="3.31692">
        <ele>54.27354</ele>
        <time>2018-07-05T13:10:59Z</time>
      </trkpt>
      <trkpt lat="50.54319" lon="3.31711">
        <ele>54.112511</ele>
        <time>2018-07-05T13:11:01Z</time>
      </trkpt>
      <trkpt lat="50.54312" lon="3.31729">
        <ele>53.73188</ele>
        <time>2018-07-05T13:11:03Z</time>
      </trkpt>
      <trkpt lat="50.54304" lon="3.31748">
        <ele>53.410652</ele>
        <time>2018-07-05T13:11:05Z</time>
      </trkpt>
      <trkpt lat="50.54296" lon="3.31767">
        <ele>53.092812</ele>
        <time>2018-07-05T13:11:07Z</time>
      </trkpt>
      <trkpt lat="50.54288" lon="3.31786">
        <ele>52.584675</ele>
        <time>2018-07-05T13:11:09Z</time>
      </trkpt>
      <trkpt lat="50.5428" lon="3.31805">
        <ele>52.285534</ele>
        <time>2018-07-05T13:11:11Z</time>
      </trkpt>
      <trkpt lat="50.54273" lon="3.31824">
        <ele>52.107765</ele>
        <time>2018-07-05T13:11:13Z</time>
      </trkpt>
      <trkpt lat="50.54265" lon="3.31842">
        <ele>51.770851</ele>
        <time>2018-07-05T13:11:15Z</time>
      </trkpt>
      <trkpt lat="50.54258" lon="3.3186">
        <ele>51.415382</ele>
        <time>2018-07-05T13:11:17Z</time>
      </trkpt>
      <trkpt lat="50.5425" lon="3.31878">
        <ele>51.13813</ele>
        <time>2018-07-05T13:11:19Z</time>
      </trkpt>
      <trkpt lat="50.54243" lon="3.31895">
        <ele>50.714912</ele>
        <time>2018-07-05T13:11:21Z</time>
      </trkpt>
      <trkpt lat="50.54236" lon="3.31912">
        <ele>50.551941</ele>
        <time>2018-07-05T13:11:23Z</time>
      </trkpt>
      <trkpt lat="50.54229" lon="3.31929">
        <ele>50.344959</ele>
        <time>2018-07-05T13:11:25Z</time>
      </trkpt>
      <trkpt lat="50.54221" lon="3.31947">
        <ele>50.152687</ele>
        <time>2018-07-05T13:11:27Z</time>
      </trkpt>
      <trkpt lat="50.54213" lon="3.31964">
        <ele>49.947803</ele>
        <time>2018-07-05T13:11:29Z</time>
      </trkpt>
      <trkpt lat="50.54207" lon="3.31982">
        <ele>49.747108</ele>
        <time>2018-07-05T13:11:31Z</time>
      </trkpt>
      <trkpt lat="50.54199" lon="3.31999">
        <ele>49.775654</ele>
        <time>2018-07-05T13:11:33Z</time>
      </trkpt>
      <trkpt lat="50.54192" lon="3.32017">
        <ele>49.618858</ele>
        <time>2018-07-05T13:11:35Z</time>
      </trkpt>
      <trkpt lat="50.54184" lon="3.32034">
        <ele>49.212021</ele>
        <time>2018-07-05T13:11:37Z</time>
      </trkpt>
      <trkpt lat="50.54177" lon="3.32051">
        <ele>48.942326</ele>
        <time>2018-07-05T13:11:39Z</time>
      </trkpt>
      <trkpt lat="50.5417" lon="3.32068">
        <ele>48.808151</ele>
        <time>2018-07-05T13:11:41Z</time>
      </trkpt>
      <trkpt lat="50.54163" lon="3.32085">
        <ele>48.637367</ele>
        <time>2018-07-05T13:11:43Z</time>
      </trkpt>
      <trkpt lat="50.54156" lon="3.32103">
        <ele>48.449528</ele>
        <time>2018-07-05T13:11:45Z</time>
      </trkpt>
      <trkpt lat="50.54149" lon="3.32121">
        <ele>48.186207</ele>
        <time>2018-07-05T13:11:47Z</time>
      </trkpt>
      <trkpt lat="50.54144" lon="3.32139">
        <ele>48.050377</ele>
        <time>2018-07-05T13:11:49Z</time>
      </trkpt>
      <trkpt lat="50.54139" lon="3.32158">
        <ele>47.805519</ele>
        <time>2018-07-05T13:11:51Z</time>
      </trkpt>
      <trkpt lat="50.54136" lon="3.32176">
        <ele>47.629932</ele>
        <time>2018-07-05T13:11:53Z</time>
      </trkpt>
      <trkpt lat="50.54133" lon="3.32194">
        <ele>47.435539</ele>
        <time>2018-07-05T13:11:55Z</time>
      </trkpt>
      <trkpt lat="50.54131" lon="3.32212">
        <ele>47.337341</ele>
        <time>2018-07-05T13:11:57Z</time>
      </trkpt>
      <trkpt lat="50.54129" lon="3.32229">
        <ele>47.180592</ele>
        <time>2018-07-05T13:11:59Z</time>
      </trkpt>
      <trkpt lat="50.54128" lon="3.32246">
        <ele>46.966515</ele>
        <time>2018-07-05T13:12:01Z</time>
      </trkpt>
      <trkpt lat="50.54127" lon="3.32263">
        <ele>46.933907</ele>
        <time>2018-07-05T13:12:03Z</time>
      </trkpt>
      <trkpt lat="50.54126" lon="3.32279">
        <ele>47.067616</ele>
        <time>2018-07-05T13:12:05Z</time>
      </trkpt>
      <trkpt lat="50.54125" lon="3.32296">
        <ele>46.952606</ele>
        <time>2018-07-05T13:12:07Z</time>
      </trkpt>
      <trkpt lat="50.54124" lon="3.32312">
        <ele>46.973652</ele>
        <time>2018-07-05T13:12:09Z</time>
      </trkpt>
      <trkpt lat="50.54123" lon="3.32328">
        <ele>46.846138</ele>
        <time>2018-07-05T13:12:11Z</time>
      </trkpt>
      <trkpt lat="50.54121" lon="3.32344">
        <ele>46.81897</ele>
        <time>2018-07-05T13:12:13Z</time>
      </trkpt>
      <trkpt lat="50.5412" lon="3.32359">
        <ele>46.788322</ele>
        <time>2018-07-05T13:12:15Z</time>
      </trkpt>
      <trkpt lat="50.54119" lon="3.32375">
        <ele>46.794594</ele>
        <time>2018-07-05T13:12:17Z</time>
      </trkpt>
      <trkpt lat="50.54118" lon="3.32391">
        <ele>46.807022</ele>
        <time>2018-07-05T13:12:19Z</time>
      </trkpt>
      <trkpt lat="50.54117" lon="3.32407">
        <ele>46.785789</ele>
        <time>2018-07-05T13:12:21Z</time>
      </trkpt>
      <trkpt lat="50.54116" lon="3.32422">
        <ele>46.802513</ele>
        <time>2018-07-05T13:12:23Z</time>
      </trkpt>
      <trkpt lat="50.54115" lon="3.32439">
        <ele>46.745377</ele>
        <time>2018-07-05T13:12:25Z</time>
      </trkpt>
      <trkpt lat="50.54113" lon="3.32455">
        <ele>46.708534</ele>
        <time>2018-07-05T13:12:27Z</time>
      </trkpt>
      <trkpt lat="50.54112" lon="3.32471">
        <ele>46.934227</ele>
        <time>2018-07-05T13:12:29Z</time>
      </trkpt>
      <trkpt lat="50.54111" lon="3.32488">
        <ele>47.145298</ele>
        <time>2018-07-05T13:12:31Z</time>
      </trkpt>
      <trkpt lat="50.5411" lon="3.32504">
        <ele>47.289925</ele>
        <time>2018-07-05T13:12:33Z</time>
      </trkpt>
      <trkpt lat="50.54109" lon="3.3252">
        <ele>47.450867</ele>
        <time>2018-07-05T13:12:35Z</time>
      </trkpt>
      <trkpt lat="50.54108" lon="3.32537">
        <ele>47.632698</ele>
        <time>2018-07-05T13:12:37Z</time>
      </trkpt>
      <trkpt lat="50.54106" lon="3.32553">
        <ele>47.900188</ele>
        <time>2018-07-05T13:12:39Z</time>
      </trkpt>
      <trkpt lat="50.54105" lon="3.32569">
        <ele>48.134285</ele>
        <time>2018-07-05T13:12:41Z</time>
      </trkpt>
      <trkpt lat="50.54104" lon="3.32585">
        <ele>48.229469</ele>
        <time>2018-07-05T13:12:43Z</time>
      </trkpt>
      <trkpt lat="50.54103" lon="3.32601">
        <ele>48.319344</ele>
        <time>2018-07-05T13:12:45Z</time>
      </trkpt>
      <trkpt lat="50.54102" lon="3.32617">
        <ele>48.434303</ele>
        <time>2018-07-05T13:12:47Z</time>
      </trkpt>
      <trkpt lat="50.541" lon="3.32633">
        <ele>48.49073</ele>
        <time>2018-07-05T13:12:49Z</time>
      </trkpt>
      <trkpt lat="50.54099" lon="3.32649">
        <ele>48.613506</ele>
        <time>2018-07-05T13:12:51Z</time>
      </trkpt>
      <trkpt lat="50.54098" lon="3.32665">
        <ele>48.820446</ele>
        <time>2018-07-05T13:12:53Z</time>
      </trkpt>
      <trkpt lat="50.54098" lon="3.32681">
        <ele>48.979301</ele>
        <time>2018-07-05T13:12:55Z</time>
      </trkpt>
      <trkpt lat="50.54097" lon="3.32696">
        <ele>49.02787</ele>
        <time>2018-07-05T13:12:57Z</time>
      </trkpt>
      <trkpt lat="50.54096" lon="3.3271">
        <ele>49.109394</ele>
        <time>2018-07-05T13:12:59Z</time>
      </trkpt>
      <trkpt lat="50.54094" lon="3.32725">
        <ele>49.312286</ele>
        <time>2018-07-05T13:13:01Z</time>
      </trkpt>
      <trkpt lat="50.54092" lon="3.3274">
        <ele>49.586861</ele>
        <time>2018-07-05T13:13:03Z</time>
      </trkpt>
      <trkpt lat="50.54091" lon="3.32756">
        <ele>49.785469</ele>
        <time>2018-07-05T13:13:05Z</time>
      </trkpt>
      <trkpt lat="50.5409" lon="3.32771">
        <ele>49.939381</ele>
        <time>2018-07-05T13:13:07Z</time>
      </trkpt>
      <trkpt lat="50.54089" lon="3.32786">
        <ele>50.156811</ele>
        <time>2018-07-05T13:13:09Z</time>
      </trkpt>
      <trkpt lat="50.54087" lon="3.32802">
        <ele>50.325184</ele>
        <time>2018-07-05T13:13:11Z</time>
      </trkpt>
      <trkpt lat="50.54086" lon="3.32817">
        <ele>50.504974</ele>
        <time>2018-07-05T13:13:13Z</time>
      </trkpt>
      <trkpt lat="50.54085" lon="3.32832">
        <ele>50.678505</ele>
        <time>2018-07-05T13:13:15Z</time>
      </trkpt>
      <trkpt lat="50.54084" lon="3.32847">
        <ele>50.820679</ele>
        <time>2018-07-05T13:13:17Z</time>
      </trkpt>
      <trkpt lat="50.54084" lon="3.32862">
        <ele>51.006752</ele>
        <time>2018-07-05T13:13:19Z</time>
      </trkpt>
      <trkpt lat="50.54082" lon="3.32877">
        <ele>51.142654</ele>
        <time>2018-07-05T13:13:21Z</time>
      </trkpt>
      <trkpt lat="50.54081" lon="3.32892">
        <ele>51.296253</ele>
        <time>2018-07-05T13:13:23Z</time>
      </trkpt>
      <trkpt lat="50.54081" lon="3.32906">
        <ele>51.436321</ele>
        <time>2018-07-05T13:13:25Z</time>
      </trkpt>
      <trkpt lat="50.54081" lon="3.32921">
        <ele>51.706036</ele>
        <time>2018-07-05T13:13:27Z</time>
      </trkpt>
      <trkpt lat="50.54079" lon="3.32935">
        <ele>51.948608</ele>
        <time>2018-07-05T13:13:29Z</time>
      </trkpt>
      <trkpt lat="50.54078" lon="3.3295">
        <ele>52.266411</ele>
        <time>2018-07-05T13:13:31Z</time>
      </trkpt>
      <trkpt lat="50.54076" lon="3.32965">
        <ele>52.506878</ele>
        <time>2018-07-05T13:13:33Z</time>
      </trkpt>
      <trkpt lat="50.54075" lon="3.3298">
        <ele>52.728539</ele>
        <time>2018-07-05T13:13:35Z</time>
      </trkpt>
      <trkpt lat="50.54073" lon="3.32995">
        <ele>52.979469</ele>
        <time>2018-07-05T13:13:37Z</time>
      </trkpt>
      <trkpt lat="50.54072" lon="3.33011">
        <ele>53.294746</ele>
        <time>2018-07-05T13:13:39Z</time>
      </trkpt>
      <trkpt lat="50.54071" lon="3.33026">
        <ele>53.421989</ele>
        <time>2018-07-05T13:13:41Z</time>
      </trkpt>
      <trkpt lat="50.5407" lon="3.33042">
        <ele>53.593475</ele>
        <time>2018-07-05T13:13:43Z</time>
      </trkpt>
      <trkpt lat="50.54068" lon="3.33057">
        <ele>53.758705</ele>
        <time>2018-07-05T13:13:45Z</time>
      </trkpt>
      <trkpt lat="50.54068" lon="3.33072">
        <ele>53.986645</ele>
        <time>2018-07-05T13:13:47Z</time>
      </trkpt>
      <trkpt lat="50.54067" lon="3.33087">
        <ele>54.189503</ele>
        <time>2018-07-05T13:13:49Z</time>
      </trkpt>
      <trkpt lat="50.54065" lon="3.33103">
        <ele>54.34845</ele>
        <time>2018-07-05T13:13:51Z</time>
      </trkpt>
      <trkpt lat="50.54064" lon="3.33118">
        <ele>54.422607</ele>
        <time>2018-07-05T13:13:53Z</time>
      </trkpt>
      <trkpt lat="50.54063" lon="3.33134">
        <ele>54.615105</ele>
        <time>2018-07-05T13:13:55Z</time>
      </trkpt>
      <trkpt lat="50.54062" lon="3.33148">
        <ele>54.76466</ele>
        <time>2018-07-05T13:13:57Z</time>
      </trkpt>
      <trkpt lat="50.54061" lon="3.33163">
        <ele>54.879253</ele>
        <time>2018-07-05T13:13:59Z</time>
      </trkpt>
      <trkpt lat="50.5406" lon="3.33178">
        <ele>54.967091</ele>
        <time>2018-07-05T13:14:01Z</time>
      </trkpt>
      <trkpt lat="50.54059" lon="3.33192">
        <ele>55.036095</ele>
        <time>2018-07-05T13:14:03Z</time>
      </trkpt>
      <trkpt lat="50.54058" lon="3.33207">
        <ele>55.111763</ele>
        <time>2018-07-05T13:14:05Z</time>
      </trkpt>
      <trkpt lat="50.54057" lon="3.33222">
        <ele>55.171314</ele>
        <time>2018-07-05T13:14:07Z</time>
      </trkpt>
      <trkpt lat="50.54056" lon="3.33239">
        <ele>55.189808</ele>
        <time>2018-07-05T13:14:09Z</time>
      </trkpt>
      <trkpt lat="50.54054" lon="3.33255">
        <ele>55.123127</ele>
        <time>2018-07-05T13:14:11Z</time>
      </trkpt>
      <trkpt lat="50.54053" lon="3.33272">
        <ele>55.086296</ele>
        <time>2018-07-05T13:14:13Z</time>
      </trkpt>
      <trkpt lat="50.54052" lon="3.33289">
        <ele>55.033459</ele>
        <time>2018-07-05T13:14:15Z</time>
      </trkpt>
      <trkpt lat="50.54051" lon="3.33306">
        <ele>54.920532</ele>
        <time>2018-07-05T13:14:17Z</time>
      </trkpt>
      <trkpt lat="50.5405" lon="3.33323">
        <ele>54.726044</ele>
        <time>2018-07-05T13:14:19Z</time>
      </trkpt>
      <trkpt lat="50.54049" lon="3.3334">
        <ele>54.618389</ele>
        <time>2018-07-05T13:14:21Z</time>
      </trkpt>
      <trkpt lat="50.54047" lon="3.33357">
        <ele>54.572693</ele>
        <time>2018-07-05T13:14:23Z</time>
      </trkpt>
      <trkpt lat="50.54046" lon="3.33374">
        <ele>54.369843</ele>
        <time>2018-07-05T13:14:25Z</time>
      </trkpt>
      <trkpt lat="50.54044" lon="3.33391">
        <ele>54.15443</ele>
        <time>2018-07-05T13:14:27Z</time>
      </trkpt>
      <trkpt lat="50.54043" lon="3.33407">
        <ele>53.976665</ele>
        <time>2018-07-05T13:14:29Z</time>
      </trkpt>
      <trkpt lat="50.54042" lon="3.33423">
        <ele>53.734089</ele>
        <time>2018-07-05T13:14:31Z</time>
      </trkpt>
      <trkpt lat="50.54041" lon="3.33438">
        <ele>53.481049</ele>
        <time>2018-07-05T13:14:33Z</time>
      </trkpt>
      <trkpt lat="50.54039" lon="3.33453">
        <ele>53.21748</ele>
        <time>2018-07-05T13:14:35Z</time>
      </trkpt>
      <trkpt lat="50.54038" lon="3.33467">
        <ele>52.892292</ele>
        <time>2018-07-05T13:14:37Z</time>
      </trkpt>
      <trkpt lat="50.54038" lon="3.33479">
        <ele>52.657745</ele>
        <time>2018-07-05T13:14:39Z</time>
      </trkpt>
      <trkpt lat="50.54037" lon="3.3349">
        <ele>52.390522</ele>
        <time>2018-07-05T13:14:41Z</time>
      </trkpt>
      <trkpt lat="50.54039" lon="3.335">
        <ele>52.250427</ele>
        <time>2018-07-05T13:14:43Z</time>
      </trkpt>
      <trkpt lat="50.54046" lon="3.33502">
        <ele>52.058918</ele>
        <time>2018-07-05T13:14:45Z</time>
      </trkpt>
      <trkpt lat="50.54053" lon="3.33504">
        <ele>51.983265</ele>
        <time>2018-07-05T13:14:47Z</time>
      </trkpt>
      <trkpt lat="50.5406" lon="3.33506">
        <ele>51.838001</ele>
        <time>2018-07-05T13:14:49Z</time>
      </trkpt>
      <trkpt lat="50.54068" lon="3.33507">
        <ele>51.768543</ele>
        <time>2018-07-05T13:14:51Z</time>
      </trkpt>
      <trkpt lat="50.54076" lon="3.33509">
        <ele>51.575909</ele>
        <time>2018-07-05T13:14:53Z</time>
      </trkpt>
      <trkpt lat="50.54085" lon="3.33511">
        <ele>51.468445</ele>
        <time>2018-07-05T13:14:55Z</time>
      </trkpt>
      <trkpt lat="50.54093" lon="3.33513">
        <ele>51.381401</ele>
        <time>2018-07-05T13:14:57Z</time>
      </trkpt>
      <trkpt lat="50.54102" lon="3.33514">
        <ele>51.310314</ele>
        <time>2018-07-05T13:14:59Z</time>
      </trkpt>
      <trkpt lat="50.5411" lon="3.33516">
        <ele>51.347954</ele>
        <time>2018-07-05T13:15:01Z</time>
      </trkpt>
      <trkpt lat="50.5412" lon="3.33517">
        <ele>51.328041</ele>
        <time>2018-07-05T13:15:03Z</time>
      </trkpt>
      <trkpt lat="50.54128" lon="3.33519">
        <ele>51.231865</ele>
        <time>2018-07-05T13:15:05Z</time>
      </trkpt>
      <trkpt lat="50.54137" lon="3.3352">
        <ele>51.225597</ele>
        <time>2018-07-05T13:15:07Z</time>
      </trkpt>
      <trkpt lat="50.54146" lon="3.33521">
        <ele>51.30088</ele>
        <time>2018-07-05T13:15:09Z</time>
      </trkpt>
      <trkpt lat="50.54155" lon="3.33524">
        <ele>51.332237</ele>
        <time>2018-07-05T13:15:11Z</time>
      </trkpt>
      <trkpt lat="50.54163" lon="3.33526">
        <ele>51.4347</ele>
        <time>2018-07-05T13:15:13Z</time>
      </trkpt>
      <trkpt lat="50.54172" lon="3.33528">
        <ele>51.555969</ele>
        <time>2018-07-05T13:15:15Z</time>
      </trkpt>
      <trkpt lat="50.54181" lon="3.3353">
        <ele>51.664703</ele>
        <time>2018-07-05T13:15:17Z</time>
      </trkpt>
      <trkpt lat="50.5419" lon="3.33532">
        <ele>51.831886</ele>
        <time>2018-07-05T13:15:19Z</time>
      </trkpt>
      <trkpt lat="50.54199" lon="3.33533">
        <ele>51.990021</ele>
        <time>2018-07-05T13:15:21Z</time>
      </trkpt>
      <trkpt lat="50.54208" lon="3.33535">
        <ele>52.139748</ele>
        <time>2018-07-05T13:15:23Z</time>
      </trkpt>
      <trkpt lat="50.54218" lon="3.33537">
        <ele>52.254749</ele>
        <time>2018-07-05T13:15:25Z</time>
      </trkpt>
      <trkpt lat="50.54227" lon="3.33538">
        <ele>52.383514</ele>
        <time>2018-07-05T13:15:27Z</time>
      </trkpt>
      <trkpt lat="50.54236" lon="3.33539">
        <ele>52.377739</ele>
        <time>2018-07-05T13:15:29Z</time>
      </trkpt>
      <trkpt lat="50.54245" lon="3.33541">
        <ele>52.597313</ele>
        <time>2018-07-05T13:15:31Z</time>
      </trkpt>
      <trkpt lat="50.54254" lon="3.33543">
        <ele>52.692188</ele>
        <time>2018-07-05T13:15:33Z</time>
      </trkpt>
      <trkpt lat="50.54263" lon="3.33545">
        <ele>52.882488</ele>
        <time>2018-07-05T13:15:35Z</time>
      </trkpt>
      <trkpt lat="50.54272" lon="3.33547">
        <ele>52.976349</ele>
        <time>2018-07-05T13:15:37Z</time>
      </trkpt>
      <trkpt lat="50.54281" lon="3.33549">
        <ele>53.12484</ele>
        <time>2018-07-05T13:15:39Z</time>
      </trkpt>
      <trkpt lat="50.5429" lon="3.3355">
        <ele>53.344414</ele>
        <time>2018-07-05T13:15:41Z</time>
      </trkpt>
      <trkpt lat="50.54299" lon="3.33553">
        <ele>53.388329</ele>
        <time>2018-07-05T13:15:43Z</time>
      </trkpt>
      <trkpt lat="50.54307" lon="3.33557">
        <ele>53.549358</ele>
        <time>2018-07-05T13:15:45Z</time>
      </trkpt>
      <trkpt lat="50.54315" lon="3.33564">
        <ele>53.716637</ele>
        <time>2018-07-05T13:15:47Z</time>
      </trkpt>
      <trkpt lat="50.54323" lon="3.33572">
        <ele>53.915306</ele>
        <time>2018-07-05T13:15:49Z</time>
      </trkpt>
      <trkpt lat="50.5433" lon="3.33581">
        <ele>54.044983</ele>
        <time>2018-07-05T13:15:51Z</time>
      </trkpt>
      <trkpt lat="50.54337" lon="3.33591">
        <ele>54.212288</ele>
        <time>2018-07-05T13:15:53Z</time>
      </trkpt>
      <trkpt lat="50.54344" lon="3.336">
        <ele>54.335682</ele>
        <time>2018-07-05T13:15:55Z</time>
      </trkpt>
      <trkpt lat="50.54351" lon="3.33609">
        <ele>54.427696</ele>
        <time>2018-07-05T13:15:57Z</time>
      </trkpt>
      <trkpt lat="50.54358" lon="3.3362">
        <ele>54.54491</ele>
        <time>2018-07-05T13:15:59Z</time>
      </trkpt>
      <trkpt lat="50.54366" lon="3.33629">
        <ele>54.681969</ele>
        <time>2018-07-05T13:16:01Z</time>
      </trkpt>
      <trkpt lat="50.54374" lon="3.33635">
        <ele>54.924599</ele>
        <time>2018-07-05T13:16:03Z</time>
      </trkpt>
      <trkpt lat="50.54384" lon="3.33638">
        <ele>55.031746</ele>
        <time>2018-07-05T13:16:05Z</time>
      </trkpt>
      <trkpt lat="50.54393" lon="3.3364">
        <ele>55.134228</ele>
        <time>2018-07-05T13:16:07Z</time>
      </trkpt>
      <trkpt lat="50.54402" lon="3.33642">
        <ele>55.270184</ele>
        <time>2018-07-05T13:16:09Z</time>
      </trkpt>
      <trkpt lat="50.54411" lon="3.33644">
        <ele>55.439644</ele>
        <time>2018-07-05T13:16:11Z</time>
      </trkpt>
      <trkpt lat="50.5442" lon="3.33646">
        <ele>55.482227</ele>
        <time>2018-07-05T13:16:13Z</time>
      </trkpt>
      <trkpt lat="50.54429" lon="3.33648">
        <ele>55.66209</ele>
        <time>2018-07-05T13:16:15Z</time>
      </trkpt>
      <trkpt lat="50.54438" lon="3.3365">
        <ele>55.869179</ele>
        <time>2018-07-05T13:16:17Z</time>
      </trkpt>
      <trkpt lat="50.54447" lon="3.33652">
        <ele>56.10136</ele>
        <time>2018-07-05T13:16:19Z</time>
      </trkpt>
      <trkpt lat="50.54455" lon="3.33651">
        <ele>56.170399</ele>
        <time>2018-07-05T13:16:21Z</time>
      </trkpt>
      <trkpt lat="50.54464" lon="3.33651">
        <ele>56.289635</ele>
        <time>2018-07-05T13:16:23Z</time>
      </trkpt>
      <trkpt lat="50.54474" lon="3.3365">
        <ele>56.463966</ele>
        <time>2018-07-05T13:16:25Z</time>
      </trkpt>
      <trkpt lat="50.54483" lon="3.33648">
        <ele>56.527843</ele>
        <time>2018-07-05T13:16:27Z</time>
      </trkpt>
      <trkpt lat="50.54493" lon="3.33647">
        <ele>56.795586</ele>
        <time>2018-07-05T13:16:29Z</time>
      </trkpt>
      <trkpt lat="50.54502" lon="3.33645">
        <ele>56.854164</ele>
        <time>2018-07-05T13:16:31Z</time>
      </trkpt>
      <trkpt lat="50.54512" lon="3.33644">
        <ele>56.990135</ele>
        <time>2018-07-05T13:16:33Z</time>
      </trkpt>
      <trkpt lat="50.54521" lon="3.33645">
        <ele>57.169289</ele>
        <time>2018-07-05T13:16:35Z</time>
      </trkpt>
      <trkpt lat="50.54531" lon="3.33646">
        <ele>57.323536</ele>
        <time>2018-07-05T13:16:37Z</time>
      </trkpt>
      <trkpt lat="50.54541" lon="3.33648">
        <ele>57.461601</ele>
        <time>2018-07-05T13:16:39Z</time>
      </trkpt>
      <trkpt lat="50.5455" lon="3.33653">
        <ele>57.611015</ele>
        <time>2018-07-05T13:16:41Z</time>
      </trkpt>
      <trkpt lat="50.54559" lon="3.33657">
        <ele>57.788841</ele>
        <time>2018-07-05T13:16:43Z</time>
      </trkpt>
      <trkpt lat="50.54569" lon="3.33661">
        <ele>57.88509</ele>
        <time>2018-07-05T13:16:45Z</time>
      </trkpt>
      <trkpt lat="50.54578" lon="3.33665">
        <ele>58.013039</ele>
        <time>2018-07-05T13:16:47Z</time>
      </trkpt>
      <trkpt lat="50.54586" lon="3.3367">
        <ele>58.121845</ele>
        <time>2018-07-05T13:16:49Z</time>
      </trkpt>
      <trkpt lat="50.54596" lon="3.33674">
        <ele>58.30537</ele>
        <time>2018-07-05T13:16:51Z</time>
      </trkpt>
      <trkpt lat="50.54605" lon="3.33678">
        <ele>58.448681</ele>
        <time>2018-07-05T13:16:53Z</time>
      </trkpt>
      <trkpt lat="50.54614" lon="3.33683">
        <ele>58.593056</ele>
        <time>2018-07-05T13:16:55Z</time>
      </trkpt>
      <trkpt lat="50.54623" lon="3.3369">
        <ele>58.716499</ele>
        <time>2018-07-05T13:16:57Z</time>
      </trkpt>
      <trkpt lat="50.54632" lon="3.33697">
        <ele>58.764629</ele>
        <time>2018-07-05T13:16:59Z</time>
      </trkpt>
      <trkpt lat="50.54641" lon="3.33705">
        <ele>58.871338</ele>
        <time>2018-07-05T13:17:01Z</time>
      </trkpt>
      <trkpt lat="50.5465" lon="3.33713">
        <ele>58.990593</ele>
        <time>2018-07-05T13:17:03Z</time>
      </trkpt>
      <trkpt lat="50.54659" lon="3.33721">
        <ele>59.072205</ele>
        <time>2018-07-05T13:17:05Z</time>
      </trkpt>
      <trkpt lat="50.54668" lon="3.33728">
        <ele>59.127979</ele>
        <time>2018-07-05T13:17:07Z</time>
      </trkpt>
      <trkpt lat="50.54676" lon="3.33736">
        <ele>59.266338</ele>
        <time>2018-07-05T13:17:09Z</time>
      </trkpt>
      <trkpt lat="50.54685" lon="3.33743">
        <ele>59.299583</ele>
        <time>2018-07-05T13:17:11Z</time>
      </trkpt>
      <trkpt lat="50.54693" lon="3.3375">
        <ele>59.471172</ele>
        <time>2018-07-05T13:17:13Z</time>
      </trkpt>
      <trkpt lat="50.54702" lon="3.33758">
        <ele>59.506737</ele>
        <time>2018-07-05T13:17:15Z</time>
      </trkpt>
      <trkpt lat="50.54711" lon="3.33765">
        <ele>59.569359</ele>
        <time>2018-07-05T13:17:17Z</time>
      </trkpt>
      <trkpt lat="50.5472" lon="3.33772">
        <ele>59.580383</ele>
        <time>2018-07-05T13:17:19Z</time>
      </trkpt>
      <trkpt lat="50.54728" lon="3.33778">
        <ele>59.642281</ele>
        <time>2018-07-05T13:17:21Z</time>
      </trkpt>
      <trkpt lat="50.54737" lon="3.33783">
        <ele>59.690407</ele>
        <time>2018-07-05T13:17:23Z</time>
      </trkpt>
      <trkpt lat="50.54746" lon="3.33788">
        <ele>59.573235</ele>
        <time>2018-07-05T13:17:25Z</time>
      </trkpt>
      <trkpt lat="50.54756" lon="3.33792">
        <ele>59.642292</ele>
        <time>2018-07-05T13:17:27Z</time>
      </trkpt>
      <trkpt lat="50.54765" lon="3.33795">
        <ele>59.735279</ele>
        <time>2018-07-05T13:17:29Z</time>
      </trkpt>
      <trkpt lat="50.54775" lon="3.33797">
        <ele>59.618103</ele>
        <time>2018-07-05T13:17:31Z</time>
      </trkpt>
      <trkpt lat="50.54784" lon="3.33799">
        <ele>59.603462</ele>
        <time>2018-07-05T13:17:33Z</time>
      </trkpt>
      <trkpt lat="50.54793" lon="3.33801">
        <ele>59.572376</ele>
        <time>2018-07-05T13:17:35Z</time>
      </trkpt>
      <trkpt lat="50.54802" lon="3.33803">
        <ele>59.516895</ele>
        <time>2018-07-05T13:17:37Z</time>
      </trkpt>
      <trkpt lat="50.54812" lon="3.33805">
        <ele>59.514809</ele>
        <time>2018-07-05T13:17:39Z</time>
      </trkpt>
      <trkpt lat="50.54821" lon="3.33807">
        <ele>59.554585</ele>
        <time>2018-07-05T13:17:41Z</time>
      </trkpt>
      <trkpt lat="50.54831" lon="3.33809">
        <ele>59.540638</ele>
        <time>2018-07-05T13:17:43Z</time>
      </trkpt>
      <trkpt lat="50.54841" lon="3.33811">
        <ele>59.491692</ele>
        <time>2018-07-05T13:17:45Z</time>
      </trkpt>
      <trkpt lat="50.5485" lon="3.33812">
        <ele>59.495911</ele>
        <time>2018-07-05T13:17:47Z</time>
      </trkpt>
      <trkpt lat="50.5486" lon="3.33813">
        <ele>59.485443</ele>
        <time>2018-07-05T13:17:49Z</time>
      </trkpt>
      <trkpt lat="50.5487" lon="3.33815">
        <ele>59.500793</ele>
        <time>2018-07-05T13:17:51Z</time>
      </trkpt>
      <trkpt lat="50.54879" lon="3.33817">
        <ele>59.580536</ele>
        <time>2018-07-05T13:17:53Z</time>
      </trkpt>
      <trkpt lat="50.54889" lon="3.33819">
        <ele>59.593086</ele>
        <time>2018-07-05T13:17:55Z</time>
      </trkpt>
      <trkpt lat="50.54899" lon="3.33821">
        <ele>59.752136</ele>
        <time>2018-07-05T13:17:57Z</time>
      </trkpt>
      <trkpt lat="50.54908" lon="3.33823">
        <ele>59.790703</ele>
        <time>2018-07-05T13:17:59Z</time>
      </trkpt>
      <trkpt lat="50.54917" lon="3.33824">
        <ele>59.805351</ele>
        <time>2018-07-05T13:18:01Z</time>
      </trkpt>
      <trkpt lat="50.54925" lon="3.33826">
        <ele>59.750946</ele>
        <time>2018-07-05T13:18:03Z</time>
      </trkpt>
      <trkpt lat="50.54932" lon="3.33828">
        <ele>59.740486</ele>
        <time>2018-07-05T13:18:05Z</time>
      </trkpt>
      <trkpt lat="50.54938" lon="3.33832">
        <ele>59.861835</ele>
        <time>2018-07-05T13:18:07Z</time>
      </trkpt>
      <trkpt lat="50.54941" lon="3.33843">
        <ele>59.866699</ele>
        <time>2018-07-05T13:18:09Z</time>
      </trkpt>
      <trkpt lat="50.54941" lon="3.33857">
        <ele>59.908089</ele>
        <time>2018-07-05T13:18:11Z</time>
      </trkpt>
      <trkpt lat="50.5494" lon="3.33871">
        <ele>60.083855</ele>
        <time>2018-07-05T13:18:13Z</time>
      </trkpt>
      <trkpt lat="50.5494" lon="3.33886">
        <ele>60.205231</ele>
        <time>2018-07-05T13:18:15Z</time>
      </trkpt>
      <trkpt lat="50.5494" lon="3.339">
        <ele>60.274284</ele>
        <time>2018-07-05T13:18:17Z</time>
      </trkpt>
      <trkpt lat="50.5494" lon="3.33915">
        <ele>60.329762</ele>
        <time>2018-07-05T13:18:19Z</time>
      </trkpt>
      <trkpt lat="50.54939" lon="3.33946">
        <ele>60.373711</ele>
        <time>2018-07-05T13:18:23Z</time>
      </trkpt>
      <trkpt lat="50.54939" lon="3.33962">
        <ele>60.339775</ele>
        <time>2018-07-05T13:18:25Z</time>
      </trkpt>
      <trkpt lat="50.54939" lon="3.33977">
        <ele>60.324699</ele>
        <time>2018-07-05T13:18:27Z</time>
      </trkpt>
      <trkpt lat="50.54939" lon="3.33992">
        <ele>60.468903</ele>
        <time>2018-07-05T13:18:29Z</time>
      </trkpt>
      <trkpt lat="50.54938" lon="3.34007">
        <ele>60.401909</ele>
        <time>2018-07-05T13:18:31Z</time>
      </trkpt>
      <trkpt lat="50.54938" lon="3.34022">
        <ele>60.491901</ele>
        <time>2018-07-05T13:18:33Z</time>
      </trkpt>
      <trkpt lat="50.54938" lon="3.34036">
        <ele>60.397758</ele>
        <time>2018-07-05T13:18:35Z</time>
      </trkpt>
      <trkpt lat="50.54937" lon="3.34051">
        <ele>60.374737</ele>
        <time>2018-07-05T13:18:37Z</time>
      </trkpt>
      <trkpt lat="50.54937" lon="3.34065">
        <ele>60.418682</ele>
        <time>2018-07-05T13:18:39Z</time>
      </trkpt>
      <trkpt lat="50.54937" lon="3.34078">
        <ele>60.255451</ele>
        <time>2018-07-05T13:18:41Z</time>
      </trkpt>
      <trkpt lat="50.54937" lon="3.34092">
        <ele>60.182381</ele>
        <time>2018-07-05T13:18:43Z</time>
      </trkpt>
      <trkpt lat="50.54937" lon="3.34106">
        <ele>60.178192</ele>
        <time>2018-07-05T13:18:45Z</time>
      </trkpt>
      <trkpt lat="50.54937" lon="3.34118">
        <ele>60.171917</ele>
        <time>2018-07-05T13:18:47Z</time>
      </trkpt>
      <trkpt lat="50.54937" lon="3.3413">
        <ele>60.178692</ele>
        <time>2018-07-05T13:18:49Z</time>
      </trkpt>
      <trkpt lat="50.54937" lon="3.3414">
        <ele>60.061531</ele>
        <time>2018-07-05T13:18:51Z</time>
      </trkpt>
      <trkpt lat="50.54937" lon="3.34147">
        <ele>59.999237</ele>
        <time>2018-07-05T13:18:53Z</time>
      </trkpt>
      <trkpt lat="50.54937" lon="3.34154">
        <ele>60.026897</ele>
        <time>2018-07-05T13:18:55Z</time>
      </trkpt>
      <trkpt lat="50.54941" lon="3.34161">
        <ele>59.895073</ele>
        <time>2018-07-05T13:18:57Z</time>
      </trkpt>
      <trkpt lat="50.54947" lon="3.34165">
        <ele>59.696289</ele>
        <time>2018-07-05T13:18:59Z</time>
      </trkpt>
      <trkpt lat="50.54954" lon="3.34168">
        <ele>59.715118</ele>
        <time>2018-07-05T13:19:01Z</time>
      </trkpt>
      <trkpt lat="50.54961" lon="3.34171">
        <ele>59.585564</ele>
        <time>2018-07-05T13:19:03Z</time>
      </trkpt>
      <trkpt lat="50.54968" lon="3.34172">
        <ele>59.608582</ele>
        <time>2018-07-05T13:19:05Z</time>
      </trkpt>
      <trkpt lat="50.54974" lon="3.34173">
        <ele>59.473042</ele>
        <time>2018-07-05T13:19:07Z</time>
      </trkpt>
      <trkpt lat="50.54982" lon="3.34174">
        <ele>59.416271</ele>
        <time>2018-07-05T13:19:09Z</time>
      </trkpt>
      <trkpt lat="50.54989" lon="3.34175">
        <ele>59.344025</ele>
        <time>2018-07-05T13:19:11Z</time>
      </trkpt>
      <trkpt lat="50.54997" lon="3.34178">
        <ele>59.379601</ele>
        <time>2018-07-05T13:19:13Z</time>
      </trkpt>
      <trkpt lat="50.55004" lon="3.34183">
        <ele>59.339821</ele>
        <time>2018-07-05T13:19:15Z</time>
      </trkpt>
      <trkpt lat="50.55012" lon="3.34192">
        <ele>59.346947</ele>
        <time>2018-07-05T13:19:17Z</time>
      </trkpt>
      <trkpt lat="50.55018" lon="3.34202">
        <ele>59.315948</ele>
        <time>2018-07-05T13:19:19Z</time>
      </trkpt>
      <trkpt lat="50.55023" lon="3.34214">
        <ele>59.267567</ele>
        <time>2018-07-05T13:19:21Z</time>
      </trkpt>
      <trkpt lat="50.55028" lon="3.34226">
        <ele>59.18998</ele>
        <time>2018-07-05T13:19:23Z</time>
      </trkpt>
      <trkpt lat="50.55034" lon="3.34238">
        <ele>59.166962</ele>
        <time>2018-07-05T13:19:25Z</time>
      </trkpt>
      <trkpt lat="50.55039" lon="3.34251">
        <ele>59.173241</ele>
        <time>2018-07-05T13:19:27Z</time>
      </trkpt>
      <trkpt lat="50.55043" lon="3.34263">
        <ele>59.175335</ele>
        <time>2018-07-05T13:19:29Z</time>
      </trkpt>
      <trkpt lat="50.55049" lon="3.34276">
        <ele>59.264809</ele>
        <time>2018-07-05T13:19:31Z</time>
      </trkpt>
      <trkpt lat="50.55054" lon="3.34288">
        <ele>59.264809</ele>
        <time>2018-07-05T13:19:33Z</time>
      </trkpt>
      <trkpt lat="50.55059" lon="3.34301">
        <ele>59.243889</ele>
        <time>2018-07-05T13:19:35Z</time>
      </trkpt>
      <trkpt lat="50.55064" lon="3.34312">
        <ele>59.23761</ele>
        <time>2018-07-05T13:19:37Z</time>
      </trkpt>
      <trkpt lat="50.5507" lon="3.34324">
        <ele>59.27108</ele>
        <time>2018-07-05T13:19:39Z</time>
      </trkpt>
      <trkpt lat="50.55076" lon="3.34335">
        <ele>59.277355</ele>
        <time>2018-07-05T13:19:41Z</time>
      </trkpt>
      <trkpt lat="50.55082" lon="3.34347">
        <ele>59.24707</ele>
        <time>2018-07-05T13:19:43Z</time>
      </trkpt>
      <trkpt lat="50.55089" lon="3.34358">
        <ele>59.157898</ele>
        <time>2018-07-05T13:19:45Z</time>
      </trkpt>
      <trkpt lat="50.55095" lon="3.34369">
        <ele>59.203888</ele>
        <time>2018-07-05T13:19:47Z</time>
      </trkpt>
      <trkpt lat="50.55103" lon="3.3438">
        <ele>59.162037</ele>
        <time>2018-07-05T13:19:49Z</time>
      </trkpt>
      <trkpt lat="50.55109" lon="3.3439">
        <ele>59.132744</ele>
        <time>2018-07-05T13:19:51Z</time>
      </trkpt>
      <trkpt lat="50.55116" lon="3.34402">
        <ele>59.013489</ele>
        <time>2018-07-05T13:19:53Z</time>
      </trkpt>
      <trkpt lat="50.55121" lon="3.34415">
        <ele>58.908867</ele>
        <time>2018-07-05T13:19:55Z</time>
      </trkpt>
      <trkpt lat="50.55127" lon="3.34427">
        <ele>58.860741</ele>
        <time>2018-07-05T13:19:57Z</time>
      </trkpt>
      <trkpt lat="50.55131" lon="3.3444">
        <ele>58.863312</ele>
        <time>2018-07-05T13:19:59Z</time>
      </trkpt>
      <trkpt lat="50.55134" lon="3.34454">
        <ele>58.763367</ele>
        <time>2018-07-05T13:20:01Z</time>
      </trkpt>
      <trkpt lat="50.55138" lon="3.34467">
        <ele>58.792915</ele>
        <time>2018-07-05T13:20:03Z</time>
      </trkpt>
      <trkpt lat="50.55142" lon="3.34481">
        <ele>58.732239</ele>
        <time>2018-07-05T13:20:05Z</time>
      </trkpt>
      <trkpt lat="50.55145" lon="3.34494">
        <ele>58.707134</ele>
        <time>2018-07-05T13:20:07Z</time>
      </trkpt>
      <trkpt lat="50.5515" lon="3.34508">
        <ele>58.602516</ele>
        <time>2018-07-05T13:20:09Z</time>
      </trkpt>
      <trkpt lat="50.55155" lon="3.34521">
        <ele>58.562763</ele>
        <time>2018-07-05T13:20:11Z</time>
      </trkpt>
      <trkpt lat="50.55159" lon="3.34535">
        <ele>58.497383</ele>
        <time>2018-07-05T13:20:13Z</time>
      </trkpt>
      <trkpt lat="50.55163" lon="3.34549">
        <ele>58.350941</ele>
        <time>2018-07-05T13:20:15Z</time>
      </trkpt>
      <trkpt lat="50.55167" lon="3.34562">
        <ele>58.333118</ele>
        <time>2018-07-05T13:20:17Z</time>
      </trkpt>
      <trkpt lat="50.55171" lon="3.34576">
        <ele>58.247337</ele>
        <time>2018-07-05T13:20:19Z</time>
      </trkpt>
      <trkpt lat="50.55175" lon="3.34589">
        <ele>58.339409</ele>
        <time>2018-07-05T13:20:21Z</time>
      </trkpt>
      <trkpt lat="50.55179" lon="3.34603">
        <ele>58.310925</ele>
        <time>2018-07-05T13:20:23Z</time>
      </trkpt>
      <trkpt lat="50.55183" lon="3.34616">
        <ele>58.280842</ele>
        <time>2018-07-05T13:20:25Z</time>
      </trkpt>
      <trkpt lat="50.55187" lon="3.34629">
        <ele>58.333138</ele>
        <time>2018-07-05T13:20:27Z</time>
      </trkpt>
      <trkpt lat="50.55191" lon="3.34642">
        <ele>58.25782</ele>
        <time>2018-07-05T13:20:29Z</time>
      </trkpt>
      <trkpt lat="50.55195" lon="3.34655">
        <ele>58.218067</ele>
        <time>2018-07-05T13:20:31Z</time>
      </trkpt>
      <trkpt lat="50.55198" lon="3.34669">
        <ele>58.192955</ele>
        <time>2018-07-05T13:20:33Z</time>
      </trkpt>
      <trkpt lat="50.55202" lon="3.34682">
        <ele>58.253632</ele>
        <time>2018-07-05T13:20:35Z</time>
      </trkpt>
      <trkpt lat="50.55206" lon="3.34695">
        <ele>58.234802</ele>
        <time>2018-07-05T13:20:37Z</time>
      </trkpt>
      <trkpt lat="50.5521" lon="3.34708">
        <ele>58.201897</ele>
        <time>2018-07-05T13:20:39Z</time>
      </trkpt>
      <trkpt lat="50.55214" lon="3.34722">
        <ele>58.185986</ele>
        <time>2018-07-05T13:20:41Z</time>
      </trkpt>
      <trkpt lat="50.5522" lon="3.34734">
        <ele>58.106476</ele>
        <time>2018-07-05T13:20:43Z</time>
      </trkpt>
      <trkpt lat="50.55227" lon="3.34746">
        <ele>58.152504</ele>
        <time>2018-07-05T13:20:45Z</time>
      </trkpt>
      <trkpt lat="50.55234" lon="3.34756">
        <ele>58.146221</ele>
        <time>2018-07-05T13:20:47Z</time>
      </trkpt>
      <trkpt lat="50.55242" lon="3.34765">
        <ele>58.125298</ele>
        <time>2018-07-05T13:20:49Z</time>
      </trkpt>
      <trkpt lat="50.55249" lon="3.34773">
        <ele>58.168938</ele>
        <time>2018-07-05T13:20:51Z</time>
      </trkpt>
      <trkpt lat="50.55257" lon="3.34781">
        <ele>58.191956</ele>
        <time>2018-07-05T13:20:53Z</time>
      </trkpt>
      <trkpt lat="50.55265" lon="3.34788">
        <ele>58.140312</ele>
        <time>2018-07-05T13:20:55Z</time>
      </trkpt>
      <trkpt lat="50.55273" lon="3.34796">
        <ele>58.127739</ele>
        <time>2018-07-05T13:20:57Z</time>
      </trkpt>
      <trkpt lat="50.55281" lon="3.34804">
        <ele>58.078613</ele>
        <time>2018-07-05T13:20:59Z</time>
      </trkpt>
      <trkpt lat="50.55289" lon="3.34811">
        <ele>58.03886</ele>
        <time>2018-07-05T13:21:01Z</time>
      </trkpt>
      <trkpt lat="50.55297" lon="3.34818">
        <ele>57.913322</ele>
        <time>2018-07-05T13:21:03Z</time>
      </trkpt>
      <trkpt lat="50.55305" lon="3.3482">
        <ele>58.03886</ele>
        <time>2018-07-05T13:21:05Z</time>
      </trkpt>
      <trkpt lat="50.55313" lon="3.3482">
        <ele>58.068157</ele>
        <time>2018-07-05T13:21:07Z</time>
      </trkpt>
      <trkpt lat="50.55321" lon="3.34816">
        <ele>57.907112</ele>
        <time>2018-07-05T13:21:09Z</time>
      </trkpt>
      <trkpt lat="50.55329" lon="3.34811">
        <ele>57.962158</ele>
        <time>2018-07-05T13:21:11Z</time>
      </trkpt>
      <trkpt lat="50.55337" lon="3.34807">
        <ele>57.826191</ele>
        <time>2018-07-05T13:21:13Z</time>
      </trkpt>
      <trkpt lat="50.55345" lon="3.34802">
        <ele>57.786446</ele>
        <time>2018-07-05T13:21:15Z</time>
      </trkpt>
      <trkpt lat="50.55354" lon="3.34799">
        <ele>57.690216</ele>
        <time>2018-07-05T13:21:17Z</time>
      </trkpt>
      <trkpt lat="50.55363" lon="3.34797">
        <ele>57.619122</ele>
        <time>2018-07-05T13:21:19Z</time>
      </trkpt>
      <trkpt lat="50.55372" lon="3.34796">
        <ele>57.544014</ele>
        <time>2018-07-05T13:21:21Z</time>
      </trkpt>
      <trkpt lat="50.55382" lon="3.34797">
        <ele>57.423073</ele>
        <time>2018-07-05T13:21:23Z</time>
      </trkpt>
      <trkpt lat="50.55392" lon="3.34798">
        <ele>57.361916</ele>
        <time>2018-07-05T13:21:25Z</time>
      </trkpt>
      <trkpt lat="50.55402" lon="3.34797">
        <ele>57.196648</ele>
        <time>2018-07-05T13:21:27Z</time>
      </trkpt>
      <trkpt lat="50.55411" lon="3.34797">
        <ele>57.159096</ele>
        <time>2018-07-05T13:21:29Z</time>
      </trkpt>
      <trkpt lat="50.55421" lon="3.34795">
        <ele>56.870453</ele>
        <time>2018-07-05T13:21:31Z</time>
      </trkpt>
      <trkpt lat="50.55431" lon="3.34793">
        <ele>56.824718</ele>
        <time>2018-07-05T13:21:33Z</time>
      </trkpt>
      <trkpt lat="50.55441" lon="3.34791">
        <ele>56.574505</ele>
        <time>2018-07-05T13:21:35Z</time>
      </trkpt>
      <trkpt lat="50.5545" lon="3.34788">
        <ele>56.503731</ele>
        <time>2018-07-05T13:21:37Z</time>
      </trkpt>
      <trkpt lat="50.55459" lon="3.34784">
        <ele>56.388672</ele>
        <time>2018-07-05T13:21:39Z</time>
      </trkpt>
      <trkpt lat="50.55469" lon="3.34781">
        <ele>56.231804</ele>
        <time>2018-07-05T13:21:41Z</time>
      </trkpt>
      <trkpt lat="50.55478" lon="3.34776">
        <ele>56.156502</ele>
        <time>2018-07-05T13:21:43Z</time>
      </trkpt>
      <trkpt lat="50.55487" lon="3.34772">
        <ele>55.756977</ele>
        <time>2018-07-05T13:21:45Z</time>
      </trkpt>
      <trkpt lat="50.55497" lon="3.34768">
        <ele>55.685844</ele>
        <time>2018-07-05T13:21:47Z</time>
      </trkpt>
      <trkpt lat="50.55506" lon="3.34764">
        <ele>55.450897</ele>
        <time>2018-07-05T13:21:49Z</time>
      </trkpt>
      <trkpt lat="50.55516" lon="3.34765">
        <ele>55.416481</ele>
        <time>2018-07-05T13:21:51Z</time>
      </trkpt>
      <trkpt lat="50.55524" lon="3.34772">
        <ele>55.309174</ele>
        <time>2018-07-05T13:21:53Z</time>
      </trkpt>
      <trkpt lat="50.55529" lon="3.34785">
        <ele>55.296619</ele>
        <time>2018-07-05T13:21:55Z</time>
      </trkpt>
      <trkpt lat="50.55533" lon="3.34799">
        <ele>55.099968</ele>
        <time>2018-07-05T13:21:57Z</time>
      </trkpt>
      <trkpt lat="50.55537" lon="3.34815">
        <ele>55.130241</ele>
        <time>2018-07-05T13:21:59Z</time>
      </trkpt>
      <trkpt lat="50.55539" lon="3.3483">
        <ele>54.856209</ele>
        <time>2018-07-05T13:22:01Z</time>
      </trkpt>
      <trkpt lat="50.55541" lon="3.34845">
        <ele>54.73283</ele>
        <time>2018-07-05T13:22:03Z</time>
      </trkpt>
      <trkpt lat="50.55542" lon="3.3486">
        <ele>54.628746</ele>
        <time>2018-07-05T13:22:05Z</time>
      </trkpt>
      <trkpt lat="50.55544" lon="3.34875">
        <ele>54.658031</ele>
        <time>2018-07-05T13:22:07Z</time>
      </trkpt>
      <trkpt lat="50.55547" lon="3.34889">
        <ele>54.415413</ele>
        <time>2018-07-05T13:22:09Z</time>
      </trkpt>
      <trkpt lat="50.55553" lon="3.349">
        <ele>54.243824</ele>
        <time>2018-07-05T13:22:11Z</time>
      </trkpt>
      <trkpt lat="50.55561" lon="3.34909">
        <ele>54.132965</ele>
        <time>2018-07-05T13:22:13Z</time>
      </trkpt>
      <trkpt lat="50.5557" lon="3.34914">
        <ele>54.00539</ele>
        <time>2018-07-05T13:22:15Z</time>
      </trkpt>
      <trkpt lat="50.55579" lon="3.34916">
        <ele>53.943779</ele>
        <time>2018-07-05T13:22:17Z</time>
      </trkpt>
      <trkpt lat="50.55587" lon="3.34918">
        <ele>53.892944</ele>
        <time>2018-07-05T13:22:19Z</time>
      </trkpt>
      <trkpt lat="50.55596" lon="3.3492">
        <ele>53.622242</ele>
        <time>2018-07-05T13:22:21Z</time>
      </trkpt>
      <trkpt lat="50.55605" lon="3.34922">
        <ele>53.549061</ele>
        <time>2018-07-05T13:22:23Z</time>
      </trkpt>
      <trkpt lat="50.55614" lon="3.34925">
        <ele>53.346199</ele>
        <time>2018-07-05T13:22:25Z</time>
      </trkpt>
      <trkpt lat="50.55623" lon="3.34927">
        <ele>53.267342</ele>
        <time>2018-07-05T13:22:27Z</time>
      </trkpt>
      <trkpt lat="50.55632" lon="3.34929">
        <ele>53.177238</ele>
        <time>2018-07-05T13:22:29Z</time>
      </trkpt>
      <trkpt lat="50.5564" lon="3.34932">
        <ele>53.1008</ele>
        <time>2018-07-05T13:22:31Z</time>
      </trkpt>
      <trkpt lat="50.5565" lon="3.34934">
        <ele>52.864449</ele>
        <time>2018-07-05T13:22:33Z</time>
      </trkpt>
      <trkpt lat="50.5566" lon="3.34937">
        <ele>52.774525</ele>
        <time>2018-07-05T13:22:35Z</time>
      </trkpt>
      <trkpt lat="50.55669" lon="3.3494">
        <ele>52.778706</ele>
        <time>2018-07-05T13:22:37Z</time>
      </trkpt>
      <trkpt lat="50.55678" lon="3.34943">
        <ele>52.628174</ele>
        <time>2018-07-05T13:22:39Z</time>
      </trkpt>
      <trkpt lat="50.55688" lon="3.34946">
        <ele>52.558159</ele>
        <time>2018-07-05T13:22:41Z</time>
      </trkpt>
      <trkpt lat="50.55697" lon="3.34949">
        <ele>52.390881</ele>
        <time>2018-07-05T13:22:43Z</time>
      </trkpt>
      <trkpt lat="50.55707" lon="3.34952">
        <ele>52.497536</ele>
        <time>2018-07-05T13:22:45Z</time>
      </trkpt>
      <trkpt lat="50.55716" lon="3.34955">
        <ele>52.399242</ele>
        <time>2018-07-05T13:22:47Z</time>
      </trkpt>
      <trkpt lat="50.55726" lon="3.34958">
        <ele>52.240318</ele>
        <time>2018-07-05T13:22:49Z</time>
      </trkpt>
      <trkpt lat="50.55735" lon="3.34961">
        <ele>52.110157</ele>
        <time>2018-07-05T13:22:51Z</time>
      </trkpt>
      <trkpt lat="50.55745" lon="3.34964">
        <ele>52.086536</ele>
        <time>2018-07-05T13:22:53Z</time>
      </trkpt>
      <trkpt lat="50.55755" lon="3.34966">
        <ele>51.91927</ele>
        <time>2018-07-05T13:22:55Z</time>
      </trkpt>
      <trkpt lat="50.55764" lon="3.34969">
        <ele>51.831444</ele>
        <time>2018-07-05T13:22:57Z</time>
      </trkpt>
      <trkpt lat="50.55774" lon="3.34971">
        <ele>51.775593</ele>
        <time>2018-07-05T13:22:59Z</time>
      </trkpt>
      <trkpt lat="50.55782" lon="3.34974">
        <ele>51.602531</ele>
        <time>2018-07-05T13:23:01Z</time>
      </trkpt>
      <trkpt lat="50.5579" lon="3.34977">
        <ele>51.607361</ele>
        <time>2018-07-05T13:23:03Z</time>
      </trkpt>
      <trkpt lat="50.55797" lon="3.34981">
        <ele>51.644997</ele>
        <time>2018-07-05T13:23:05Z</time>
      </trkpt>
      <trkpt lat="50.55804" lon="3.34981">
        <ele>51.647095</ele>
        <time>2018-07-05T13:23:07Z</time>
      </trkpt>
      <trkpt lat="50.55813" lon="3.34982">
        <ele>51.481331</ele>
        <time>2018-07-05T13:23:09Z</time>
      </trkpt>
      <trkpt lat="50.5582" lon="3.34987">
        <ele>51.429878</ele>
        <time>2018-07-05T13:23:11Z</time>
      </trkpt>
      <trkpt lat="50.55824" lon="3.34988">
        <ele>51.32254</ele>
        <time>2018-07-05T13:23:13Z</time>
      </trkpt>
      <trkpt lat="50.55825" lon="3.3499">
        <ele>51.244789</ele>
        <time>2018-07-05T13:23:15Z</time>
      </trkpt>
      <trkpt lat="50.55826" lon="3.3499">
        <ele>51.205059</ele>
        <time>2018-07-05T13:23:17Z</time>
      </trkpt>
      <trkpt lat="50.55828" lon="3.34992">
        <ele>51.07542</ele>
        <time>2018-07-05T13:23:19Z</time>
      </trkpt>
      <trkpt lat="50.55825" lon="3.34994">
        <ele>50.766117</ele>
        <time>2018-07-05T13:23:43Z</time>
      </trkpt>
      <trkpt lat="50.55823" lon="3.34991">
        <ele>50.698013</ele>
        <time>2018-07-05T13:26:24Z</time>
      </trkpt>
      <trkpt lat="50.55821" lon="3.34987">
        <ele>51.094444</ele>
        <time>2018-07-05T13:28:26Z</time>
      </trkpt>
      <trkpt lat="50.55818" lon="3.34991">
        <ele>51.004387</ele>
        <time>2018-07-05T13:29:18Z</time>
      </trkpt>
      <trkpt lat="50.55817" lon="3.34999">
        <ele>50.977203</ele>
        <time>2018-07-05T13:29:20Z</time>
      </trkpt>
      <trkpt lat="50.55815" lon="3.34998">
        <ele>50.818657</ele>
        <time>2018-07-05T13:29:56Z</time>
      </trkpt>
      <trkpt lat="50.55814" lon="3.34995">
        <ele>50.881386</ele>
        <time>2018-07-05T13:29:58Z</time>
      </trkpt>
      <trkpt lat="50.55811" lon="3.34975">
        <ele>50.806118</ele>
        <time>2018-07-05T13:30:00Z</time>
      </trkpt>
      <trkpt lat="50.55813" lon="3.34975">
        <ele>50.763779</ele>
        <time>2018-07-05T13:30:02Z</time>
      </trkpt>
      <trkpt lat="50.55816" lon="3.34976">
        <ele>50.689281</ele>
        <time>2018-07-05T13:30:04Z</time>
      </trkpt>
      <trkpt lat="50.55817" lon="3.34975">
        <ele>50.670479</ele>
        <time>2018-07-05T13:30:06Z</time>
      </trkpt>
      <trkpt lat="50.5582" lon="3.34976">
        <ele>50.503616</ele>
        <time>2018-07-05T13:30:12Z</time>
      </trkpt>
      <trkpt lat="50.55824" lon="3.34978">
        <ele>50.39909</ele>
        <time>2018-07-05T13:30:14Z</time>
      </trkpt>
      <trkpt lat="50.55829" lon="3.34982">
        <ele>50.363422</ele>
        <time>2018-07-05T13:30:16Z</time>
      </trkpt>
      <trkpt lat="50.55835" lon="3.34984">
        <ele>50.304886</ele>
        <time>2018-07-05T13:30:18Z</time>
      </trkpt>
      <trkpt lat="50.55842" lon="3.34986">
        <ele>50.219181</ele>
        <time>2018-07-05T13:30:20Z</time>
      </trkpt>
      <trkpt lat="50.5585" lon="3.34989">
        <ele>50.19828</ele>
        <time>2018-07-05T13:30:22Z</time>
      </trkpt>
      <trkpt lat="50.55859" lon="3.34993">
        <ele>50.227547</ele>
        <time>2018-07-05T13:30:24Z</time>
      </trkpt>
      <trkpt lat="50.55869" lon="3.34996">
        <ele>50.235909</ele>
        <time>2018-07-05T13:30:26Z</time>
      </trkpt>
      <trkpt lat="50.55878" lon="3.35">
        <ele>50.137657</ele>
        <time>2018-07-05T13:30:28Z</time>
      </trkpt>
      <trkpt lat="50.55887" lon="3.35004">
        <ele>50.058075</ele>
        <time>2018-07-05T13:30:30Z</time>
      </trkpt>
      <trkpt lat="50.55895" lon="3.35009">
        <ele>50.060169</ele>
        <time>2018-07-05T13:30:32Z</time>
      </trkpt>
      <trkpt lat="50.55903" lon="3.35016">
        <ele>50.056648</ele>
        <time>2018-07-05T13:30:34Z</time>
      </trkpt>
      <trkpt lat="50.55908" lon="3.35023">
        <ele>49.996021</ele>
        <time>2018-07-05T13:30:36Z</time>
      </trkpt>
      <trkpt lat="50.55911" lon="3.35031">
        <ele>49.910301</ele>
        <time>2018-07-05T13:30:38Z</time>
      </trkpt>
      <trkpt lat="50.55913" lon="3.35042">
        <ele>49.918663</ele>
        <time>2018-07-05T13:30:40Z</time>
      </trkpt>
      <trkpt lat="50.55913" lon="3.35054">
        <ele>49.847599</ele>
        <time>2018-07-05T13:30:42Z</time>
      </trkpt>
      <trkpt lat="50.55912" lon="3.35066">
        <ele>49.826691</ele>
        <time>2018-07-05T13:30:44Z</time>
      </trkpt>
      <trkpt lat="50.5591" lon="3.35077">
        <ele>49.806938</ele>
        <time>2018-07-05T13:30:46Z</time>
      </trkpt>
      <trkpt lat="50.55909" lon="3.35088">
        <ele>49.775562</ele>
        <time>2018-07-05T13:30:48Z</time>
      </trkpt>
      <trkpt lat="50.55908" lon="3.35099">
        <ele>49.747997</ele>
        <time>2018-07-05T13:30:50Z</time>
      </trkpt>
      <trkpt lat="50.55907" lon="3.3511">
        <ele>49.722912</ele>
        <time>2018-07-05T13:30:52Z</time>
      </trkpt>
      <trkpt lat="50.55906" lon="3.35122">
        <ele>49.810715</ele>
        <time>2018-07-05T13:30:54Z</time>
      </trkpt>
      <trkpt lat="50.55905" lon="3.35133">
        <ele>49.879704</ele>
        <time>2018-07-05T13:30:56Z</time>
      </trkpt>
      <trkpt lat="50.55904" lon="3.35145">
        <ele>49.890129</ele>
        <time>2018-07-05T13:30:58Z</time>
      </trkpt>
      <trkpt lat="50.55903" lon="3.35157">
        <ele>49.969559</ele>
        <time>2018-07-05T13:31:00Z</time>
      </trkpt>
      <trkpt lat="50.55901" lon="3.35169">
        <ele>50.025143</ele>
        <time>2018-07-05T13:31:02Z</time>
      </trkpt>
      <trkpt lat="50.559" lon="3.35181">
        <ele>49.945992</ele>
        <time>2018-07-05T13:31:04Z</time>
      </trkpt>
      <trkpt lat="50.55898" lon="3.35194">
        <ele>49.971085</ele>
        <time>2018-07-05T13:31:06Z</time>
      </trkpt>
      <trkpt lat="50.55896" lon="3.35206">
        <ele>49.977356</ele>
        <time>2018-07-05T13:31:08Z</time>
      </trkpt>
      <trkpt lat="50.55895" lon="3.35218">
        <ele>50.07143</ele>
        <time>2018-07-05T13:31:10Z</time>
      </trkpt>
      <trkpt lat="50.55893" lon="3.3523">
        <ele>50.109058</ele>
        <time>2018-07-05T13:31:12Z</time>
      </trkpt>
      <trkpt lat="50.55891" lon="3.35242">
        <ele>50.146034</ele>
        <time>2018-07-05T13:31:14Z</time>
      </trkpt>
      <trkpt lat="50.55889" lon="3.35253">
        <ele>50.221294</ele>
        <time>2018-07-05T13:31:16Z</time>
      </trkpt>
      <trkpt lat="50.55888" lon="3.35265">
        <ele>50.342495</ele>
        <time>2018-07-05T13:31:18Z</time>
      </trkpt>
      <trkpt lat="50.55886" lon="3.35278">
        <ele>50.486763</ele>
        <time>2018-07-05T13:31:20Z</time>
      </trkpt>
      <trkpt lat="50.55884" lon="3.3529">
        <ele>50.543209</ele>
        <time>2018-07-05T13:31:22Z</time>
      </trkpt>
      <trkpt lat="50.55883" lon="3.35303">
        <ele>50.679089</ele>
        <time>2018-07-05T13:31:24Z</time>
      </trkpt>
      <trkpt lat="50.55882" lon="3.35316">
        <ele>50.844246</ele>
        <time>2018-07-05T13:31:26Z</time>
      </trkpt>
      <trkpt lat="50.55881" lon="3.35328">
        <ele>50.91396</ele>
        <time>2018-07-05T13:31:28Z</time>
      </trkpt>
      <trkpt lat="50.5588" lon="3.35341">
        <ele>50.994007</ele>
        <time>2018-07-05T13:31:30Z</time>
      </trkpt>
      <trkpt lat="50.55879" lon="3.35354">
        <ele>51.079727</ele>
        <time>2018-07-05T13:31:32Z</time>
      </trkpt>
      <trkpt lat="50.55878" lon="3.35367">
        <ele>51.16127</ele>
        <time>2018-07-05T13:31:34Z</time>
      </trkpt>
      <trkpt lat="50.55877" lon="3.3538">
        <ele>51.229176</ele>
        <time>2018-07-05T13:31:36Z</time>
      </trkpt>
      <trkpt lat="50.55876" lon="3.35393">
        <ele>51.354614</ele>
        <time>2018-07-05T13:31:38Z</time>
      </trkpt>
      <trkpt lat="50.55875" lon="3.35406">
        <ele>51.446877</ele>
        <time>2018-07-05T13:31:40Z</time>
      </trkpt>
      <trkpt lat="50.55875" lon="3.3542">
        <ele>51.525097</ele>
        <time>2018-07-05T13:31:42Z</time>
      </trkpt>
      <trkpt lat="50.55875" lon="3.35433">
        <ele>51.531372</ele>
        <time>2018-07-05T13:31:44Z</time>
      </trkpt>
      <trkpt lat="50.55874" lon="3.35447">
        <ele>51.694164</ele>
        <time>2018-07-05T13:31:46Z</time>
      </trkpt>
      <trkpt lat="50.55874" lon="3.3546">
        <ele>51.769432</ele>
        <time>2018-07-05T13:31:48Z</time>
      </trkpt>
      <trkpt lat="50.55874" lon="3.35473">
        <ele>51.959717</ele>
        <time>2018-07-05T13:31:50Z</time>
      </trkpt>
      <trkpt lat="50.55874" lon="3.35485">
        <ele>52.214836</ele>
        <time>2018-07-05T13:31:52Z</time>
      </trkpt>
      <trkpt lat="50.55874" lon="3.35498">
        <ele>52.385113</ele>
        <time>2018-07-05T13:31:54Z</time>
      </trkpt>
      <trkpt lat="50.55874" lon="3.35511">
        <ele>52.485485</ele>
        <time>2018-07-05T13:31:56Z</time>
      </trkpt>
      <trkpt lat="50.55874" lon="3.35524">
        <ele>52.622673</ele>
        <time>2018-07-05T13:31:58Z</time>
      </trkpt>
      <trkpt lat="50.55875" lon="3.35536">
        <ele>52.736961</ele>
        <time>2018-07-05T13:32:00Z</time>
      </trkpt>
      <trkpt lat="50.55875" lon="3.35549">
        <ele>52.946106</ele>
        <time>2018-07-05T13:32:02Z</time>
      </trkpt>
      <trkpt lat="50.55875" lon="3.35562">
        <ele>53.079945</ele>
        <time>2018-07-05T13:32:04Z</time>
      </trkpt>
      <trkpt lat="50.55875" lon="3.35575">
        <ele>53.309967</ele>
        <time>2018-07-05T13:32:06Z</time>
      </trkpt>
      <trkpt lat="50.55875" lon="3.35588">
        <ele>53.512287</ele>
        <time>2018-07-05T13:32:08Z</time>
      </trkpt>
      <trkpt lat="50.55876" lon="3.35601">
        <ele>53.602211</ele>
        <time>2018-07-05T13:32:10Z</time>
      </trkpt>
      <trkpt lat="50.55876" lon="3.35614">
        <ele>53.840027</ele>
        <time>2018-07-05T13:32:12Z</time>
      </trkpt>
      <trkpt lat="50.55876" lon="3.35627">
        <ele>54.103523</ele>
        <time>2018-07-05T13:32:14Z</time>
      </trkpt>
      <trkpt lat="50.55877" lon="3.35641">
        <ele>54.295921</ele>
        <time>2018-07-05T13:32:16Z</time>
      </trkpt>
      <trkpt lat="50.55877" lon="3.35653">
        <ele>54.527081</ele>
        <time>2018-07-05T13:32:18Z</time>
      </trkpt>
      <trkpt lat="50.55877" lon="3.35666">
        <ele>54.769695</ele>
        <time>2018-07-05T13:32:20Z</time>
      </trkpt>
      <trkpt lat="50.55877" lon="3.35679">
        <ele>55.007862</ele>
        <time>2018-07-05T13:32:22Z</time>
      </trkpt>
      <trkpt lat="50.55877" lon="3.35692">
        <ele>55.263008</ele>
        <time>2018-07-05T13:32:24Z</time>
      </trkpt>
      <trkpt lat="50.55877" lon="3.35705">
        <ele>55.48053</ele>
        <time>2018-07-05T13:32:26Z</time>
      </trkpt>
      <trkpt lat="50.55878" lon="3.35718">
        <ele>55.757011</ele>
        <time>2018-07-05T13:32:28Z</time>
      </trkpt>
      <trkpt lat="50.55878" lon="3.35731">
        <ele>55.878334</ele>
        <time>2018-07-05T13:32:30Z</time>
      </trkpt>
      <trkpt lat="50.55878" lon="3.35744">
        <ele>56.102741</ele>
        <time>2018-07-05T13:32:32Z</time>
      </trkpt>
      <trkpt lat="50.55878" lon="3.35758">
        <ele>56.196877</ele>
        <time>2018-07-05T13:32:34Z</time>
      </trkpt>
      <trkpt lat="50.55878" lon="3.3577">
        <ele>56.394684</ele>
        <time>2018-07-05T13:32:36Z</time>
      </trkpt>
      <trkpt lat="50.55878" lon="3.35783">
        <ele>56.71056</ele>
        <time>2018-07-05T13:32:38Z</time>
      </trkpt>
      <trkpt lat="50.55878" lon="3.35796">
        <ele>56.96875</ele>
        <time>2018-07-05T13:32:40Z</time>
      </trkpt>
      <trkpt lat="50.55879" lon="3.35809">
        <ele>57.183769</ele>
        <time>2018-07-05T13:32:42Z</time>
      </trkpt>
      <trkpt lat="50.55879" lon="3.35822">
        <ele>57.40554</ele>
        <time>2018-07-05T13:32:44Z</time>
      </trkpt>
      <trkpt lat="50.5588" lon="3.35835">
        <ele>57.746552</ele>
        <time>2018-07-05T13:32:46Z</time>
      </trkpt>
      <trkpt lat="50.5588" lon="3.35848">
        <ele>57.987141</ele>
        <time>2018-07-05T13:32:48Z</time>
      </trkpt>
      <trkpt lat="50.55881" lon="3.35861">
        <ele>58.213097</ele>
        <time>2018-07-05T13:32:50Z</time>
      </trkpt>
      <trkpt lat="50.55882" lon="3.35874">
        <ele>58.462067</ele>
        <time>2018-07-05T13:32:52Z</time>
      </trkpt>
      <trkpt lat="50.55882" lon="3.35887">
        <ele>58.713165</ele>
        <time>2018-07-05T13:32:54Z</time>
      </trkpt>
      <trkpt lat="50.55882" lon="3.359">
        <ele>58.976799</ele>
        <time>2018-07-05T13:32:56Z</time>
      </trkpt>
      <trkpt lat="50.55883" lon="3.35913">
        <ele>59.234161</ele>
        <time>2018-07-05T13:32:58Z</time>
      </trkpt>
      <trkpt lat="50.55883" lon="3.35926">
        <ele>59.504101</ele>
        <time>2018-07-05T13:33:00Z</time>
      </trkpt>
      <trkpt lat="50.55884" lon="3.3594">
        <ele>59.636223</ele>
        <time>2018-07-05T13:33:02Z</time>
      </trkpt>
      <trkpt lat="50.55885" lon="3.35953">
        <ele>59.908257</ele>
        <time>2018-07-05T13:33:04Z</time>
      </trkpt>
      <trkpt lat="50.55885" lon="3.35966">
        <ele>60.170555</ele>
        <time>2018-07-05T13:33:06Z</time>
      </trkpt>
      <trkpt lat="50.55886" lon="3.3598">
        <ele>60.42794</ele>
        <time>2018-07-05T13:33:08Z</time>
      </trkpt>
      <trkpt lat="50.55886" lon="3.35993">
        <ele>60.678673</ele>
        <time>2018-07-05T13:33:10Z</time>
      </trkpt>
      <trkpt lat="50.55887" lon="3.36006">
        <ele>60.911266</ele>
        <time>2018-07-05T13:33:12Z</time>
      </trkpt>
      <trkpt lat="50.55888" lon="3.3602">
        <ele>61.275421</ele>
        <time>2018-07-05T13:33:14Z</time>
      </trkpt>
      <trkpt lat="50.55888" lon="3.36033">
        <ele>61.557934</ele>
        <time>2018-07-05T13:33:16Z</time>
      </trkpt>
      <trkpt lat="50.5589" lon="3.36047">
        <ele>61.765125</ele>
        <time>2018-07-05T13:33:18Z</time>
      </trkpt>
      <trkpt lat="50.5589" lon="3.3606">
        <ele>62.100025</ele>
        <time>2018-07-05T13:33:20Z</time>
      </trkpt>
      <trkpt lat="50.55891" lon="3.36073">
        <ele>62.350258</ele>
        <time>2018-07-05T13:33:22Z</time>
      </trkpt>
      <trkpt lat="50.55892" lon="3.36086">
        <ele>62.622364</ele>
        <time>2018-07-05T13:33:24Z</time>
      </trkpt>
      <trkpt lat="50.55893" lon="3.36099">
        <ele>62.779358</ele>
        <time>2018-07-05T13:33:26Z</time>
      </trkpt>
      <trkpt lat="50.55894" lon="3.36113">
        <ele>62.971931</ele>
        <time>2018-07-05T13:33:28Z</time>
      </trkpt>
      <trkpt lat="50.55894" lon="3.36127">
        <ele>63.189598</ele>
        <time>2018-07-05T13:33:30Z</time>
      </trkpt>
      <trkpt lat="50.55895" lon="3.36141">
        <ele>63.455437</ele>
        <time>2018-07-05T13:33:32Z</time>
      </trkpt>
      <trkpt lat="50.55895" lon="3.36154">
        <ele>63.763153</ele>
        <time>2018-07-05T13:33:34Z</time>
      </trkpt>
      <trkpt lat="50.55895" lon="3.36168">
        <ele>63.878273</ele>
        <time>2018-07-05T13:33:36Z</time>
      </trkpt>
      <trkpt lat="50.55895" lon="3.3618">
        <ele>64.148323</ele>
        <time>2018-07-05T13:33:38Z</time>
      </trkpt>
      <trkpt lat="50.55894" lon="3.36191">
        <ele>64.390671</ele>
        <time>2018-07-05T13:33:40Z</time>
      </trkpt>
      <trkpt lat="50.55893" lon="3.36202">
        <ele>64.569534</ele>
        <time>2018-07-05T13:33:42Z</time>
      </trkpt>
      <trkpt lat="50.55891" lon="3.36212">
        <ele>64.632019</ele>
        <time>2018-07-05T13:33:44Z</time>
      </trkpt>
      <trkpt lat="50.5589" lon="3.36224">
        <ele>64.879044</ele>
        <time>2018-07-05T13:33:46Z</time>
      </trkpt>
      <trkpt lat="50.55887" lon="3.36237">
        <ele>65.152565</ele>
        <time>2018-07-05T13:33:48Z</time>
      </trkpt>
      <trkpt lat="50.55884" lon="3.3625">
        <ele>65.359818</ele>
        <time>2018-07-05T13:33:50Z</time>
      </trkpt>
      <trkpt lat="50.5588" lon="3.36263">
        <ele>65.533577</ele>
        <time>2018-07-05T13:33:52Z</time>
      </trkpt>
      <trkpt lat="50.55877" lon="3.36276">
        <ele>65.618515</ele>
        <time>2018-07-05T13:33:54Z</time>
      </trkpt>
      <trkpt lat="50.55874" lon="3.36289">
        <ele>65.840446</ele>
        <time>2018-07-05T13:33:56Z</time>
      </trkpt>
      <trkpt lat="50.5587" lon="3.36302">
        <ele>65.920013</ele>
        <time>2018-07-05T13:33:58Z</time>
      </trkpt>
      <trkpt lat="50.55867" lon="3.36315">
        <ele>66.095871</ele>
        <time>2018-07-05T13:34:00Z</time>
      </trkpt>
      <trkpt lat="50.55864" lon="3.36329">
        <ele>66.108437</ele>
        <time>2018-07-05T13:34:02Z</time>
      </trkpt>
      <trkpt lat="50.55861" lon="3.36342">
        <ele>66.255692</ele>
        <time>2018-07-05T13:34:04Z</time>
      </trkpt>
      <trkpt lat="50.55857" lon="3.36355">
        <ele>66.328979</ele>
        <time>2018-07-05T13:34:06Z</time>
      </trkpt>
      <trkpt lat="50.55854" lon="3.36368">
        <ele>66.439957</ele>
        <time>2018-07-05T13:34:08Z</time>
      </trkpt>
      <trkpt lat="50.55851" lon="3.36381">
        <ele>66.586517</ele>
        <time>2018-07-05T13:34:10Z</time>
      </trkpt>
      <trkpt lat="50.55847" lon="3.36395">
        <ele>66.756119</ele>
        <time>2018-07-05T13:34:12Z</time>
      </trkpt>
      <trkpt lat="50.55844" lon="3.36408">
        <ele>66.875473</ele>
        <time>2018-07-05T13:34:14Z</time>
      </trkpt>
      <trkpt lat="50.5584" lon="3.36421">
        <ele>66.921532</ele>
        <time>2018-07-05T13:34:16Z</time>
      </trkpt>
      <trkpt lat="50.55837" lon="3.36434">
        <ele>67.140945</ele>
        <time>2018-07-05T13:34:18Z</time>
      </trkpt>
      <trkpt lat="50.55833" lon="3.36447">
        <ele>67.159798</ele>
        <time>2018-07-05T13:34:20Z</time>
      </trkpt>
      <trkpt lat="50.5583" lon="3.36459">
        <ele>67.218918</ele>
        <time>2018-07-05T13:34:22Z</time>
      </trkpt>
      <trkpt lat="50.55826" lon="3.36472">
        <ele>67.253586</ele>
        <time>2018-07-05T13:34:24Z</time>
      </trkpt>
      <trkpt lat="50.55822" lon="3.36485">
        <ele>67.451454</ele>
        <time>2018-07-05T13:34:26Z</time>
      </trkpt>
      <trkpt lat="50.55818" lon="3.36498">
        <ele>67.5373</ele>
        <time>2018-07-05T13:34:28Z</time>
      </trkpt>
      <trkpt lat="50.55814" lon="3.36511">
        <ele>67.466095</ele>
        <time>2018-07-05T13:34:30Z</time>
      </trkpt>
      <trkpt lat="50.5581" lon="3.36525">
        <ele>67.528915</ele>
        <time>2018-07-05T13:34:32Z</time>
      </trkpt>
      <trkpt lat="50.55806" lon="3.36539">
        <ele>67.579178</ele>
        <time>2018-07-05T13:34:34Z</time>
      </trkpt>
      <trkpt lat="50.55802" lon="3.36552">
        <ele>67.685959</ele>
        <time>2018-07-05T13:34:36Z</time>
      </trkpt>
      <trkpt lat="50.55798" lon="3.36566">
        <ele>67.658745</ele>
        <time>2018-07-05T13:34:38Z</time>
      </trkpt>
      <trkpt lat="50.55795" lon="3.36579">
        <ele>67.721573</ele>
        <time>2018-07-05T13:34:40Z</time>
      </trkpt>
      <trkpt lat="50.55791" lon="3.36592">
        <ele>67.771835</ele>
        <time>2018-07-05T13:34:42Z</time>
      </trkpt>
      <trkpt lat="50.55787" lon="3.36606">
        <ele>67.809525</ele>
        <time>2018-07-05T13:34:44Z</time>
      </trkpt>
      <trkpt lat="50.55783" lon="3.36621">
        <ele>67.882858</ele>
        <time>2018-07-05T13:34:46Z</time>
      </trkpt>
      <trkpt lat="50.55779" lon="3.36634">
        <ele>67.845169</ele>
        <time>2018-07-05T13:34:48Z</time>
      </trkpt>
      <trkpt lat="50.55775" lon="3.36648">
        <ele>67.652596</ele>
        <time>2018-07-05T13:34:50Z</time>
      </trkpt>
      <trkpt lat="50.55772" lon="3.36661">
        <ele>67.667252</ele>
        <time>2018-07-05T13:34:52Z</time>
      </trkpt>
      <trkpt lat="50.55773" lon="3.36675">
        <ele>67.641769</ele>
        <time>2018-07-05T13:34:54Z</time>
      </trkpt>
      <trkpt lat="50.55778" lon="3.36688">
        <ele>67.589203</ele>
        <time>2018-07-05T13:34:56Z</time>
      </trkpt>
      <trkpt lat="50.55784" lon="3.36698">
        <ele>67.421669</ele>
        <time>2018-07-05T13:34:58Z</time>
      </trkpt>
      <trkpt lat="50.5579" lon="3.36707">
        <ele>67.290237</ele>
        <time>2018-07-05T13:35:00Z</time>
      </trkpt>
      <trkpt lat="50.55796" lon="3.36717">
        <ele>67.245514</ele>
        <time>2018-07-05T13:35:02Z</time>
      </trkpt>
      <trkpt lat="50.55803" lon="3.36726">
        <ele>67.229591</ele>
        <time>2018-07-05T13:35:04Z</time>
      </trkpt>
      <trkpt lat="50.55809" lon="3.36735">
        <ele>67.183525</ele>
        <time>2018-07-05T13:35:06Z</time>
      </trkpt>
      <trkpt lat="50.55816" lon="3.36744">
        <ele>67.197136</ele>
        <time>2018-07-05T13:35:08Z</time>
      </trkpt>
      <trkpt lat="50.55821" lon="3.36754">
        <ele>67.207603</ele>
        <time>2018-07-05T13:35:10Z</time>
      </trkpt>
      <trkpt lat="50.55828" lon="3.36764">
        <ele>67.251579</ele>
        <time>2018-07-05T13:35:12Z</time>
      </trkpt>
      <trkpt lat="50.55834" lon="3.36774">
        <ele>67.238617</ele>
        <time>2018-07-05T13:35:14Z</time>
      </trkpt>
      <trkpt lat="50.5584" lon="3.36783">
        <ele>67.205116</ele>
        <time>2018-07-05T13:35:16Z</time>
      </trkpt>
      <trkpt lat="50.55846" lon="3.36793">
        <ele>67.273636</ele>
        <time>2018-07-05T13:35:18Z</time>
      </trkpt>
      <trkpt lat="50.55853" lon="3.36804">
        <ele>67.26902</ele>
        <time>2018-07-05T13:35:20Z</time>
      </trkpt>
      <trkpt lat="50.55859" lon="3.36814">
        <ele>67.283035</ele>
        <time>2018-07-05T13:35:22Z</time>
      </trkpt>
      <trkpt lat="50.55866" lon="3.36824">
        <ele>67.327011</ele>
        <time>2018-07-05T13:35:24Z</time>
      </trkpt>
      <trkpt lat="50.55872" lon="3.36832">
        <ele>67.494583</ele>
        <time>2018-07-05T13:35:26Z</time>
      </trkpt>
      <trkpt lat="50.5588" lon="3.36839">
        <ele>67.535721</ele>
        <time>2018-07-05T13:35:28Z</time>
      </trkpt>
      <trkpt lat="50.55888" lon="3.36843">
        <ele>67.548286</ele>
        <time>2018-07-05T13:35:30Z</time>
      </trkpt>
      <trkpt lat="50.55896" lon="3.36845">
        <ele>67.727158</ele>
        <time>2018-07-05T13:35:32Z</time>
      </trkpt>
      <trkpt lat="50.55905" lon="3.36847">
        <ele>67.681091</ele>
        <time>2018-07-05T13:35:34Z</time>
      </trkpt>
      <trkpt lat="50.55914" lon="3.36851">
        <ele>67.807114</ele>
        <time>2018-07-05T13:35:36Z</time>
      </trkpt>
      <trkpt lat="50.55921" lon="3.36861">
        <ele>67.93718</ele>
        <time>2018-07-05T13:35:38Z</time>
      </trkpt>
      <trkpt lat="50.55928" lon="3.36871">
        <ele>68.064919</ele>
        <time>2018-07-05T13:35:40Z</time>
      </trkpt>
      <trkpt lat="50.55936" lon="3.36881">
        <ele>68.172432</ele>
        <time>2018-07-05T13:35:42Z</time>
      </trkpt>
      <trkpt lat="50.55943" lon="3.36891">
        <ele>68.265854</ele>
        <time>2018-07-05T13:35:44Z</time>
      </trkpt>
      <trkpt lat="50.5595" lon="3.36901">
        <ele>68.394737</ele>
        <time>2018-07-05T13:35:46Z</time>
      </trkpt>
      <trkpt lat="50.55957" lon="3.3691">
        <ele>68.445648</ele>
        <time>2018-07-05T13:35:48Z</time>
      </trkpt>
      <trkpt lat="50.55964" lon="3.3692">
        <ele>68.439369</ele>
        <time>2018-07-05T13:35:50Z</time>
      </trkpt>
      <trkpt lat="50.55971" lon="3.3693">
        <ele>68.48587</ele>
        <time>2018-07-05T13:35:52Z</time>
      </trkpt>
      <trkpt lat="50.55979" lon="3.3694">
        <ele>68.504715</ele>
        <time>2018-07-05T13:35:54Z</time>
      </trkpt>
      <trkpt lat="50.55986" lon="3.3695">
        <ele>68.421349</ele>
        <time>2018-07-05T13:35:56Z</time>
      </trkpt>
      <trkpt lat="50.55993" lon="3.3696">
        <ele>68.429718</ele>
        <time>2018-07-05T13:35:58Z</time>
      </trkpt>
      <trkpt lat="50.56001" lon="3.36969">
        <ele>68.358521</ele>
        <time>2018-07-05T13:36:00Z</time>
      </trkpt>
      <trkpt lat="50.56008" lon="3.36979">
        <ele>68.24276</ele>
        <time>2018-07-05T13:36:02Z</time>
      </trkpt>
      <trkpt lat="50.56015" lon="3.3699">
        <ele>68.228745</ele>
        <time>2018-07-05T13:36:04Z</time>
      </trkpt>
      <trkpt lat="50.56022" lon="3.37">
        <ele>68.124054</ele>
        <time>2018-07-05T13:36:06Z</time>
      </trkpt>
      <trkpt lat="50.5603" lon="3.3701">
        <ele>67.89785</ele>
        <time>2018-07-05T13:36:08Z</time>
      </trkpt>
      <trkpt lat="50.56037" lon="3.37021">
        <ele>67.794571</ele>
        <time>2018-07-05T13:36:10Z</time>
      </trkpt>
      <trkpt lat="50.56044" lon="3.37031">
        <ele>67.7827</ele>
        <time>2018-07-05T13:36:12Z</time>
      </trkpt>
      <trkpt lat="50.56052" lon="3.37041">
        <ele>67.707794</ele>
        <time>2018-07-05T13:36:14Z</time>
      </trkpt>
      <trkpt lat="50.56059" lon="3.37052">
        <ele>67.632401</ele>
        <time>2018-07-05T13:36:16Z</time>
      </trkpt>
      <trkpt lat="50.56067" lon="3.37062">
        <ele>67.351776</ele>
        <time>2018-07-05T13:36:18Z</time>
      </trkpt>
      <trkpt lat="50.56074" lon="3.37073">
        <ele>67.263817</ele>
        <time>2018-07-05T13:36:20Z</time>
      </trkpt>
      <trkpt lat="50.56081" lon="3.37083">
        <ele>67.226822</ele>
        <time>2018-07-05T13:36:22Z</time>
      </trkpt>
      <trkpt lat="50.56088" lon="3.37093">
        <ele>67.201691</ele>
        <time>2018-07-05T13:36:24Z</time>
      </trkpt>
      <trkpt lat="50.56096" lon="3.37104">
        <ele>67.030922</ele>
        <time>2018-07-05T13:36:26Z</time>
      </trkpt>
      <trkpt lat="50.56103" lon="3.37114">
        <ele>66.92347</ele>
        <time>2018-07-05T13:36:28Z</time>
      </trkpt>
      <trkpt lat="50.56111" lon="3.37125">
        <ele>66.835526</ele>
        <time>2018-07-05T13:36:30Z</time>
      </trkpt>
      <trkpt lat="50.56118" lon="3.37135">
        <ele>66.676559</ele>
        <time>2018-07-05T13:36:32Z</time>
      </trkpt>
      <trkpt lat="50.56126" lon="3.37145">
        <ele>66.638435</ele>
        <time>2018-07-05T13:36:34Z</time>
      </trkpt>
      <trkpt lat="50.56133" lon="3.37156">
        <ele>66.550491</ele>
        <time>2018-07-05T13:36:36Z</time>
      </trkpt>
      <trkpt lat="50.56141" lon="3.37167">
        <ele>66.483482</ele>
        <time>2018-07-05T13:36:38Z</time>
      </trkpt>
      <trkpt lat="50.56148" lon="3.37177">
        <ele>66.423347</ele>
        <time>2018-07-05T13:36:40Z</time>
      </trkpt>
      <trkpt lat="50.56155" lon="3.37187">
        <ele>66.357368</ele>
        <time>2018-07-05T13:36:42Z</time>
      </trkpt>
      <trkpt lat="50.56163" lon="3.37196">
        <ele>66.328049</ele>
        <time>2018-07-05T13:36:44Z</time>
      </trkpt>
      <trkpt lat="50.5617" lon="3.37207">
        <ele>66.181488</ele>
        <time>2018-07-05T13:36:46Z</time>
      </trkpt>
      <trkpt lat="50.56178" lon="3.37217">
        <ele>66.171455</ele>
        <time>2018-07-05T13:36:48Z</time>
      </trkpt>
      <trkpt lat="50.56186" lon="3.37226">
        <ele>66.195213</ele>
        <time>2018-07-05T13:36:50Z</time>
      </trkpt>
      <trkpt lat="50.56192" lon="3.37236">
        <ele>66.262894</ele>
        <time>2018-07-05T13:36:52Z</time>
      </trkpt>
      <trkpt lat="50.56197" lon="3.37248">
        <ele>66.274063</ele>
        <time>2018-07-05T13:36:54Z</time>
      </trkpt>
      <trkpt lat="50.56202" lon="3.37261">
        <ele>66.252846</ele>
        <time>2018-07-05T13:36:56Z</time>
      </trkpt>
      <trkpt lat="50.56204" lon="3.37276">
        <ele>66.265396</ele>
        <time>2018-07-05T13:36:58Z</time>
      </trkpt>
      <trkpt lat="50.56207" lon="3.3729">
        <ele>66.217239</ele>
        <time>2018-07-05T13:37:00Z</time>
      </trkpt>
      <trkpt lat="50.56208" lon="3.37304">
        <ele>66.213051</ele>
        <time>2018-07-05T13:37:02Z</time>
      </trkpt>
      <trkpt lat="50.5621" lon="3.37317">
        <ele>66.197433</ele>
        <time>2018-07-05T13:37:04Z</time>
      </trkpt>
      <trkpt lat="50.56211" lon="3.37331">
        <ele>66.180679</ele>
        <time>2018-07-05T13:37:06Z</time>
      </trkpt>
      <trkpt lat="50.56214" lon="3.37342">
        <ele>66.33564</ele>
        <time>2018-07-05T13:37:08Z</time>
      </trkpt>
      <trkpt lat="50.56218" lon="3.37351">
        <ele>66.344017</ele>
        <time>2018-07-05T13:37:10Z</time>
      </trkpt>
      <trkpt lat="50.56224" lon="3.37358">
        <ele>66.387817</ele>
        <time>2018-07-05T13:37:12Z</time>
      </trkpt>
      <trkpt lat="50.56229" lon="3.37368">
        <ele>66.361465</ele>
        <time>2018-07-05T13:37:14Z</time>
      </trkpt>
      <trkpt lat="50.56228" lon="3.3738">
        <ele>66.391243</ele>
        <time>2018-07-05T13:37:16Z</time>
      </trkpt>
      <trkpt lat="50.56223" lon="3.37391">
        <ele>66.269821</ele>
        <time>2018-07-05T13:37:18Z</time>
      </trkpt>
      <trkpt lat="50.56217" lon="3.37402">
        <ele>66.380798</ele>
        <time>2018-07-05T13:37:20Z</time>
      </trkpt>
      <trkpt lat="50.56211" lon="3.37414">
        <ele>66.472916</ele>
        <time>2018-07-05T13:37:22Z</time>
      </trkpt>
      <trkpt lat="50.56205" lon="3.37425">
        <ele>66.445702</ele>
        <time>2018-07-05T13:37:24Z</time>
      </trkpt>
      <trkpt lat="50.56199" lon="3.37436">
        <ele>66.556442</ele>
        <time>2018-07-05T13:37:26Z</time>
      </trkpt>
      <trkpt lat="50.56192" lon="3.37448">
        <ele>66.545547</ele>
        <time>2018-07-05T13:37:28Z</time>
      </trkpt>
      <trkpt lat="50.56184" lon="3.37461">
        <ele>66.428314</ele>
        <time>2018-07-05T13:37:30Z</time>
      </trkpt>
      <trkpt lat="50.56175" lon="3.37473">
        <ele>66.400856</ele>
        <time>2018-07-05T13:37:32Z</time>
      </trkpt>
      <trkpt lat="50.56167" lon="3.37486">
        <ele>66.183098</ele>
        <time>2018-07-05T13:37:34Z</time>
      </trkpt>
      <trkpt lat="50.56157" lon="3.375">
        <ele>66.079132</ele>
        <time>2018-07-05T13:37:36Z</time>
      </trkpt>
      <trkpt lat="50.56147" lon="3.37514">
        <ele>66.109383</ele>
        <time>2018-07-05T13:37:38Z</time>
      </trkpt>
      <trkpt lat="50.56137" lon="3.37528">
        <ele>66.060493</ele>
        <time>2018-07-05T13:37:40Z</time>
      </trkpt>
      <trkpt lat="50.56126" lon="3.37542">
        <ele>65.962959</ele>
        <time>2018-07-05T13:37:42Z</time>
      </trkpt>
      <trkpt lat="50.56115" lon="3.37557">
        <ele>65.37072</ele>
        <time>2018-07-05T13:37:44Z</time>
      </trkpt>
      <trkpt lat="50.56103" lon="3.37572">
        <ele>64.931473</ele>
        <time>2018-07-05T13:37:46Z</time>
      </trkpt>
      <trkpt lat="50.56091" lon="3.37586">
        <ele>64.37468</ele>
        <time>2018-07-05T13:37:48Z</time>
      </trkpt>
      <trkpt lat="50.56078" lon="3.37601">
        <ele>63.795067</ele>
        <time>2018-07-05T13:37:50Z</time>
      </trkpt>
      <trkpt lat="50.56066" lon="3.37617">
        <ele>63.604576</ele>
        <time>2018-07-05T13:37:52Z</time>
      </trkpt>
      <trkpt lat="50.56052" lon="3.37632">
        <ele>63.296326</ele>
        <time>2018-07-05T13:37:54Z</time>
      </trkpt>
      <trkpt lat="50.56039" lon="3.37648">
        <ele>63.075695</ele>
        <time>2018-07-05T13:37:56Z</time>
      </trkpt>
      <trkpt lat="50.56026" lon="3.37664">
        <ele>62.399303</ele>
        <time>2018-07-05T13:37:58Z</time>
      </trkpt>
      <trkpt lat="50.56012" lon="3.3768">
        <ele>62.037853</ele>
        <time>2018-07-05T13:38:00Z</time>
      </trkpt>
      <trkpt lat="50.55999" lon="3.37696">
        <ele>61.374428</ele>
        <time>2018-07-05T13:38:02Z</time>
      </trkpt>
      <trkpt lat="50.55986" lon="3.37711">
        <ele>60.922321</ele>
        <time>2018-07-05T13:38:04Z</time>
      </trkpt>
      <trkpt lat="50.55972" lon="3.37727">
        <ele>60.362568</ele>
        <time>2018-07-05T13:38:06Z</time>
      </trkpt>
      <trkpt lat="50.55958" lon="3.37743">
        <ele>59.779522</ele>
        <time>2018-07-05T13:38:08Z</time>
      </trkpt>
      <trkpt lat="50.55944" lon="3.37759">
        <ele>59.300323</ele>
        <time>2018-07-05T13:38:10Z</time>
      </trkpt>
      <trkpt lat="50.55931" lon="3.37776">
        <ele>58.653862</ele>
        <time>2018-07-05T13:38:12Z</time>
      </trkpt>
      <trkpt lat="50.55917" lon="3.37792">
        <ele>58.096783</ele>
        <time>2018-07-05T13:38:14Z</time>
      </trkpt>
      <trkpt lat="50.55904" lon="3.37809">
        <ele>57.368767</ele>
        <time>2018-07-05T13:38:16Z</time>
      </trkpt>
      <trkpt lat="50.55891" lon="3.37826">
        <ele>57.370861</ele>
        <time>2018-07-05T13:38:18Z</time>
      </trkpt>
      <trkpt lat="50.55879" lon="3.37844">
        <ele>56.594921</ele>
        <time>2018-07-05T13:38:20Z</time>
      </trkpt>
      <trkpt lat="50.55869" lon="3.37863">
        <ele>55.984688</ele>
        <time>2018-07-05T13:38:22Z</time>
      </trkpt>
      <trkpt lat="50.55859" lon="3.37882">
        <ele>55.363018</ele>
        <time>2018-07-05T13:38:24Z</time>
      </trkpt>
      <trkpt lat="50.55851" lon="3.37901">
        <ele>55.58065</ele>
        <time>2018-07-05T13:38:26Z</time>
      </trkpt>
      <trkpt lat="50.55843" lon="3.3792">
        <ele>55.363117</ele>
        <time>2018-07-05T13:38:28Z</time>
      </trkpt>
      <trkpt lat="50.55836" lon="3.37938">
        <ele>55.206226</ele>
        <time>2018-07-05T13:38:30Z</time>
      </trkpt>
      <trkpt lat="50.55814" lon="3.37989">
        <ele>55.120461</ele>
        <time>2018-07-05T13:38:36Z</time>
      </trkpt>
      <trkpt lat="50.55807" lon="3.38004">
        <ele>54.660351</ele>
        <time>2018-07-05T13:38:38Z</time>
      </trkpt>
      <trkpt lat="50.558" lon="3.3802">
        <ele>53.958519</ele>
        <time>2018-07-05T13:38:40Z</time>
      </trkpt>
      <trkpt lat="50.55793" lon="3.38035">
        <ele>53.601082</ele>
        <time>2018-07-05T13:38:42Z</time>
      </trkpt>
      <trkpt lat="50.55785" lon="3.38049">
        <ele>53.119637</ele>
        <time>2018-07-05T13:38:44Z</time>
      </trkpt>
      <trkpt lat="50.55777" lon="3.38064">
        <ele>53.046459</ele>
        <time>2018-07-05T13:38:46Z</time>
      </trkpt>
      <trkpt lat="50.55769" lon="3.38078">
        <ele>52.705597</ele>
        <time>2018-07-05T13:38:48Z</time>
      </trkpt>
      <trkpt lat="50.55762" lon="3.38093">
        <ele>52.502724</ele>
        <time>2018-07-05T13:38:50Z</time>
      </trkpt>
      <trkpt lat="50.55754" lon="3.38107">
        <ele>52.248608</ele>
        <time>2018-07-05T13:38:52Z</time>
      </trkpt>
      <trkpt lat="50.55747" lon="3.3812">
        <ele>52.109997</ele>
        <time>2018-07-05T13:38:54Z</time>
      </trkpt>
      <trkpt lat="50.55738" lon="3.38135">
        <ele>51.932228</ele>
        <time>2018-07-05T13:38:56Z</time>
      </trkpt>
      <trkpt lat="50.55731" lon="3.38149">
        <ele>51.744099</ele>
        <time>2018-07-05T13:38:58Z</time>
      </trkpt>
      <trkpt lat="50.55723" lon="3.38163">
        <ele>51.590168</ele>
        <time>2018-07-05T13:39:00Z</time>
      </trkpt>
      <trkpt lat="50.55715" lon="3.38177">
        <ele>51.44416</ele>
        <time>2018-07-05T13:39:02Z</time>
      </trkpt>
      <trkpt lat="50.55707" lon="3.38192">
        <ele>51.006737</ele>
        <time>2018-07-05T13:39:04Z</time>
      </trkpt>
      <trkpt lat="50.55698" lon="3.38209">
        <ele>50.849895</ele>
        <time>2018-07-05T13:39:06Z</time>
      </trkpt>
      <trkpt lat="50.55689" lon="3.38226">
        <ele>51.263611</ele>
        <time>2018-07-05T13:39:08Z</time>
      </trkpt>
      <trkpt lat="50.55679" lon="3.38244">
        <ele>50.088352</ele>
        <time>2018-07-05T13:39:10Z</time>
      </trkpt>
      <trkpt lat="50.55669" lon="3.38263">
        <ele>49.820808</ele>
        <time>2018-07-05T13:39:12Z</time>
      </trkpt>
      <trkpt lat="50.55658" lon="3.38284">
        <ele>49.534065</ele>
        <time>2018-07-05T13:39:14Z</time>
      </trkpt>
      <trkpt lat="50.55635" lon="3.38327">
        <ele>48.974113</ele>
        <time>2018-07-05T13:39:18Z</time>
      </trkpt>
      <trkpt lat="50.55624" lon="3.38348">
        <ele>48.761055</ele>
        <time>2018-07-05T13:39:20Z</time>
      </trkpt>
      <trkpt lat="50.55613" lon="3.38369">
        <ele>48.701336</ele>
        <time>2018-07-05T13:39:22Z</time>
      </trkpt>
      <trkpt lat="50.55603" lon="3.3839">
        <ele>48.492104</ele>
        <time>2018-07-05T13:39:24Z</time>
      </trkpt>
      <trkpt lat="50.55594" lon="3.38411">
        <ele>48.008049</ele>
        <time>2018-07-05T13:39:26Z</time>
      </trkpt>
      <trkpt lat="50.55585" lon="3.38432">
        <ele>47.606773</ele>
        <time>2018-07-05T13:39:28Z</time>
      </trkpt>
      <trkpt lat="50.55576" lon="3.38453">
        <ele>47.544067</ele>
        <time>2018-07-05T13:39:30Z</time>
      </trkpt>
      <trkpt lat="50.55568" lon="3.38474">
        <ele>47.078056</ele>
        <time>2018-07-05T13:39:32Z</time>
      </trkpt>
      <trkpt lat="50.5556" lon="3.38494">
        <ele>46.409557</ele>
        <time>2018-07-05T13:39:34Z</time>
      </trkpt>
      <trkpt lat="50.55552" lon="3.38514">
        <ele>46.15876</ele>
        <time>2018-07-05T13:39:36Z</time>
      </trkpt>
      <trkpt lat="50.55544" lon="3.38533">
        <ele>45.805626</ele>
        <time>2018-07-05T13:39:38Z</time>
      </trkpt>
      <trkpt lat="50.55537" lon="3.38553">
        <ele>45.484596</ele>
        <time>2018-07-05T13:39:40Z</time>
      </trkpt>
      <trkpt lat="50.5553" lon="3.38571">
        <ele>45.266411</ele>
        <time>2018-07-05T13:39:42Z</time>
      </trkpt>
      <trkpt lat="50.55522" lon="3.38589">
        <ele>44.944267</ele>
        <time>2018-07-05T13:39:44Z</time>
      </trkpt>
      <trkpt lat="50.55516" lon="3.38607">
        <ele>44.524494</ele>
        <time>2018-07-05T13:39:46Z</time>
      </trkpt>
      <trkpt lat="50.55508" lon="3.38624">
        <ele>44.000038</ele>
        <time>2018-07-05T13:39:48Z</time>
      </trkpt>
      <trkpt lat="50.55502" lon="3.38642">
        <ele>43.403992</ele>
        <time>2018-07-05T13:39:50Z</time>
      </trkpt>
      <trkpt lat="50.55495" lon="3.3866">
        <ele>43.280632</ele>
        <time>2018-07-05T13:39:52Z</time>
      </trkpt>
      <trkpt lat="50.55488" lon="3.38677">
        <ele>42.906563</ele>
        <time>2018-07-05T13:39:54Z</time>
      </trkpt>
      <trkpt lat="50.55481" lon="3.38695">
        <ele>42.703987</ele>
        <time>2018-07-05T13:39:56Z</time>
      </trkpt>
      <trkpt lat="50.55474" lon="3.38712">
        <ele>42.234142</ele>
        <time>2018-07-05T13:39:58Z</time>
      </trkpt>
      <trkpt lat="50.55467" lon="3.38729">
        <ele>42.201393</ele>
        <time>2018-07-05T13:40:00Z</time>
      </trkpt>
      <trkpt lat="50.5546" lon="3.38746">
        <ele>41.536732</ele>
        <time>2018-07-05T13:40:02Z</time>
      </trkpt>
      <trkpt lat="50.55453" lon="3.38762">
        <ele>41.180744</ele>
        <time>2018-07-05T13:40:04Z</time>
      </trkpt>
      <trkpt lat="50.55446" lon="3.38778">
        <ele>41.237114</ele>
        <time>2018-07-05T13:40:06Z</time>
      </trkpt>
      <trkpt lat="50.55439" lon="3.38794">
        <ele>41.344524</ele>
        <time>2018-07-05T13:40:08Z</time>
      </trkpt>
      <trkpt lat="50.55431" lon="3.38809">
        <ele>41.352882</ele>
        <time>2018-07-05T13:40:10Z</time>
      </trkpt>
      <trkpt lat="50.55425" lon="3.38825">
        <ele>40.824383</ele>
        <time>2018-07-05T13:40:12Z</time>
      </trkpt>
      <trkpt lat="50.55417" lon="3.3884">
        <ele>40.525734</ele>
        <time>2018-07-05T13:40:14Z</time>
      </trkpt>
      <trkpt lat="50.5541" lon="3.38855">
        <ele>40.471722</ele>
        <time>2018-07-05T13:40:16Z</time>
      </trkpt>
      <trkpt lat="50.55403" lon="3.3887">
        <ele>39.932884</ele>
        <time>2018-07-05T13:40:18Z</time>
      </trkpt>
      <trkpt lat="50.55396" lon="3.38885">
        <ele>39.621071</ele>
        <time>2018-07-05T13:40:20Z</time>
      </trkpt>
      <trkpt lat="50.55391" lon="3.38901">
        <ele>39.082233</ele>
        <time>2018-07-05T13:40:22Z</time>
      </trkpt>
      <trkpt lat="50.55384" lon="3.38916">
        <ele>38.568462</ele>
        <time>2018-07-05T13:40:24Z</time>
      </trkpt>
      <trkpt lat="50.55376" lon="3.38929">
        <ele>38.403465</ele>
        <time>2018-07-05T13:40:26Z</time>
      </trkpt>
      <trkpt lat="50.55369" lon="3.38942">
        <ele>38.376656</ele>
        <time>2018-07-05T13:40:28Z</time>
      </trkpt>
      <trkpt lat="50.55363" lon="3.38955">
        <ele>37.982491</ele>
        <time>2018-07-05T13:40:30Z</time>
      </trkpt>
      <trkpt lat="50.55358" lon="3.38966">
        <ele>37.858315</ele>
        <time>2018-07-05T13:40:32Z</time>
      </trkpt>
      <trkpt lat="50.55354" lon="3.38976">
        <ele>37.434296</ele>
        <time>2018-07-05T13:40:34Z</time>
      </trkpt>
      <trkpt lat="50.55351" lon="3.38983">
        <ele>37.404461</ele>
        <time>2018-07-05T13:40:36Z</time>
      </trkpt>
      <trkpt lat="50.55349" lon="3.38988">
        <ele>37.149727</ele>
        <time>2018-07-05T13:40:38Z</time>
      </trkpt>
      <trkpt lat="50.55347" lon="3.38993">
        <ele>36.813515</ele>
        <time>2018-07-05T13:40:40Z</time>
      </trkpt>
      <trkpt lat="50.55349" lon="3.39001">
        <ele>36.511974</ele>
        <time>2018-07-05T13:40:42Z</time>
      </trkpt>
      <trkpt lat="50.55354" lon="3.39006">
        <ele>36.415817</ele>
        <time>2018-07-05T13:40:44Z</time>
      </trkpt>
      <trkpt lat="50.5536" lon="3.39006">
        <ele>36.493046</ele>
        <time>2018-07-05T13:40:46Z</time>
      </trkpt>
      <trkpt lat="50.55367" lon="3.39005">
        <ele>36.185703</ele>
        <time>2018-07-05T13:40:48Z</time>
      </trkpt>
      <trkpt lat="50.55375" lon="3.39004">
        <ele>35.893288</ele>
        <time>2018-07-05T13:40:50Z</time>
      </trkpt>
      <trkpt lat="50.55382" lon="3.39003">
        <ele>35.784645</ele>
        <time>2018-07-05T13:40:52Z</time>
      </trkpt>
      <trkpt lat="50.5539" lon="3.39003">
        <ele>35.753284</ele>
        <time>2018-07-05T13:40:54Z</time>
      </trkpt>
      <trkpt lat="50.55398" lon="3.39003">
        <ele>35.763371</ele>
        <time>2018-07-05T13:40:56Z</time>
      </trkpt>
      <trkpt lat="50.55407" lon="3.39002">
        <ele>35.815559</ele>
        <time>2018-07-05T13:40:58Z</time>
      </trkpt>
      <trkpt lat="50.55415" lon="3.39002">
        <ele>35.908279</ele>
        <time>2018-07-05T13:41:00Z</time>
      </trkpt>
      <trkpt lat="50.55424" lon="3.39002">
        <ele>35.968716</ele>
        <time>2018-07-05T13:41:02Z</time>
      </trkpt>
      <trkpt lat="50.55432" lon="3.39002">
        <ele>36.020905</ele>
        <time>2018-07-05T13:41:04Z</time>
      </trkpt>
      <trkpt lat="50.55441" lon="3.39002">
        <ele>36.189503</ele>
        <time>2018-07-05T13:41:06Z</time>
      </trkpt>
      <trkpt lat="50.5545" lon="3.39002">
        <ele>36.344002</ele>
        <time>2018-07-05T13:41:08Z</time>
      </trkpt>
      <trkpt lat="50.55458" lon="3.39001">
        <ele>36.504459</ele>
        <time>2018-07-05T13:41:10Z</time>
      </trkpt>
      <trkpt lat="50.55467" lon="3.39001">
        <ele>36.577553</ele>
        <time>2018-07-05T13:41:12Z</time>
      </trkpt>
      <trkpt lat="50.55476" lon="3.39002">
        <ele>36.714249</ele>
        <time>2018-07-05T13:41:14Z</time>
      </trkpt>
      <trkpt lat="50.55485" lon="3.39002">
        <ele>36.881126</ele>
        <time>2018-07-05T13:41:16Z</time>
      </trkpt>
      <trkpt lat="50.55494" lon="3.39001">
        <ele>37.059219</ele>
        <time>2018-07-05T13:41:18Z</time>
      </trkpt>
      <trkpt lat="50.55503" lon="3.39002">
        <ele>37.274281</ele>
        <time>2018-07-05T13:41:20Z</time>
      </trkpt>
      <trkpt lat="50.55512" lon="3.39002">
        <ele>37.583294</ele>
        <time>2018-07-05T13:41:22Z</time>
      </trkpt>
      <trkpt lat="50.55521" lon="3.39002">
        <ele>37.750347</ele>
        <time>2018-07-05T13:41:24Z</time>
      </trkpt>
      <trkpt lat="50.5553" lon="3.39002">
        <ele>37.78793</ele>
        <time>2018-07-05T13:41:26Z</time>
      </trkpt>
      <trkpt lat="50.55539" lon="3.39002">
        <ele>37.98217</ele>
        <time>2018-07-05T13:41:28Z</time>
      </trkpt>
      <trkpt lat="50.55549" lon="3.39002">
        <ele>38.212715</ele>
        <time>2018-07-05T13:41:30Z</time>
      </trkpt>
      <trkpt lat="50.55557" lon="3.39003">
        <ele>38.382347</ele>
        <time>2018-07-05T13:41:32Z</time>
      </trkpt>
      <trkpt lat="50.55566" lon="3.39005">
        <ele>38.624577</ele>
        <time>2018-07-05T13:41:34Z</time>
      </trkpt>
      <trkpt lat="50.55575" lon="3.39007">
        <ele>38.814617</ele>
        <time>2018-07-05T13:41:36Z</time>
      </trkpt>
      <trkpt lat="50.55584" lon="3.39009">
        <ele>39.010944</ele>
        <time>2018-07-05T13:41:38Z</time>
      </trkpt>
      <trkpt lat="50.55593" lon="3.39011">
        <ele>39.322121</ele>
        <time>2018-07-05T13:41:40Z</time>
      </trkpt>
      <trkpt lat="50.55602" lon="3.39013">
        <ele>39.63868</ele>
        <time>2018-07-05T13:41:42Z</time>
      </trkpt>
      <trkpt lat="50.55611" lon="3.39015">
        <ele>39.843334</ele>
        <time>2018-07-05T13:41:44Z</time>
      </trkpt>
      <trkpt lat="50.55619" lon="3.39017">
        <ele>40.004646</ele>
        <time>2018-07-05T13:41:46Z</time>
      </trkpt>
      <trkpt lat="50.55628" lon="3.39018">
        <ele>39.942009</ele>
        <time>2018-07-05T13:41:48Z</time>
      </trkpt>
      <trkpt lat="50.55637" lon="3.3902">
        <ele>40.112698</ele>
        <time>2018-07-05T13:41:50Z</time>
      </trkpt>
      <trkpt lat="50.55645" lon="3.39022">
        <ele>40.121052</ele>
        <time>2018-07-05T13:41:52Z</time>
      </trkpt>
      <trkpt lat="50.55654" lon="3.39024">
        <ele>40.227562</ele>
        <time>2018-07-05T13:41:54Z</time>
      </trkpt>
      <trkpt lat="50.55664" lon="3.39027">
        <ele>40.328735</ele>
        <time>2018-07-05T13:41:56Z</time>
      </trkpt>
      <trkpt lat="50.55673" lon="3.39029">
        <ele>40.422924</ele>
        <time>2018-07-05T13:41:58Z</time>
      </trkpt>
      <trkpt lat="50.55682" lon="3.39031">
        <ele>40.546165</ele>
        <time>2018-07-05T13:42:00Z</time>
      </trkpt>
      <trkpt lat="50.55691" lon="3.39033">
        <ele>40.773796</ele>
        <time>2018-07-05T13:42:02Z</time>
      </trkpt>
      <trkpt lat="50.557" lon="3.39035">
        <ele>40.723671</ele>
        <time>2018-07-05T13:42:04Z</time>
      </trkpt>
      <trkpt lat="50.55709" lon="3.39037">
        <ele>40.788429</ele>
        <time>2018-07-05T13:42:06Z</time>
      </trkpt>
      <trkpt lat="50.55718" lon="3.39039">
        <ele>40.934601</ele>
        <time>2018-07-05T13:42:08Z</time>
      </trkpt>
      <trkpt lat="50.55727" lon="3.39041">
        <ele>41.175468</ele>
        <time>2018-07-05T13:42:10Z</time>
      </trkpt>
      <trkpt lat="50.55736" lon="3.39043">
        <ele>41.407379</ele>
        <time>2018-07-05T13:42:12Z</time>
      </trkpt>
      <trkpt lat="50.55744" lon="3.39044">
        <ele>41.563583</ele>
        <time>2018-07-05T13:42:14Z</time>
      </trkpt>
      <trkpt lat="50.55752" lon="3.39046">
        <ele>41.728626</ele>
        <time>2018-07-05T13:42:16Z</time>
      </trkpt>
      <trkpt lat="50.55759" lon="3.39048">
        <ele>42.096397</ele>
        <time>2018-07-05T13:42:18Z</time>
      </trkpt>
      <trkpt lat="50.55767" lon="3.3905">
        <ele>42.265671</ele>
        <time>2018-07-05T13:42:20Z</time>
      </trkpt>
      <trkpt lat="50.55775" lon="3.39051">
        <ele>42.443256</ele>
        <time>2018-07-05T13:42:22Z</time>
      </trkpt>
      <trkpt lat="50.55782" lon="3.39053">
        <ele>42.633652</ele>
        <time>2018-07-05T13:42:24Z</time>
      </trkpt>
      <trkpt lat="50.5579" lon="3.39055">
        <ele>42.955353</ele>
        <time>2018-07-05T13:42:26Z</time>
      </trkpt>
      <trkpt lat="50.55797" lon="3.39057">
        <ele>43.392006</ele>
        <time>2018-07-05T13:42:28Z</time>
      </trkpt>
      <trkpt lat="50.55804" lon="3.39058">
        <ele>43.719608</ele>
        <time>2018-07-05T13:42:30Z</time>
      </trkpt>
      <trkpt lat="50.55811" lon="3.3906">
        <ele>44.104042</ele>
        <time>2018-07-05T13:42:32Z</time>
      </trkpt>
      <trkpt lat="50.55819" lon="3.39061">
        <ele>44.442413</ele>
        <time>2018-07-05T13:42:34Z</time>
      </trkpt>
      <trkpt lat="50.55826" lon="3.39063">
        <ele>44.699402</ele>
        <time>2018-07-05T13:42:36Z</time>
      </trkpt>
      <trkpt lat="50.55834" lon="3.39065">
        <ele>45.243896</ele>
        <time>2018-07-05T13:42:38Z</time>
      </trkpt>
      <trkpt lat="50.55841" lon="3.39067">
        <ele>45.546928</ele>
        <time>2018-07-05T13:42:40Z</time>
      </trkpt>
      <trkpt lat="50.55849" lon="3.39068">
        <ele>45.797592</ele>
        <time>2018-07-05T13:42:42Z</time>
      </trkpt>
      <trkpt lat="50.55858" lon="3.3907">
        <ele>46.111004</ele>
        <time>2018-07-05T13:42:44Z</time>
      </trkpt>
      <trkpt lat="50.55866" lon="3.39072">
        <ele>46.361717</ele>
        <time>2018-07-05T13:42:46Z</time>
      </trkpt>
      <trkpt lat="50.55874" lon="3.39074">
        <ele>46.693932</ele>
        <time>2018-07-05T13:42:48Z</time>
      </trkpt>
      <trkpt lat="50.55882" lon="3.39076">
        <ele>47.168404</ele>
        <time>2018-07-05T13:42:50Z</time>
      </trkpt>
      <trkpt lat="50.5589" lon="3.39078">
        <ele>47.355846</ele>
        <time>2018-07-05T13:42:52Z</time>
      </trkpt>
      <trkpt lat="50.55899" lon="3.3908">
        <ele>47.633865</ele>
        <time>2018-07-05T13:42:54Z</time>
      </trkpt>
      <trkpt lat="50.55907" lon="3.39081">
        <ele>47.72163</ele>
        <time>2018-07-05T13:42:56Z</time>
      </trkpt>
      <trkpt lat="50.55916" lon="3.39084">
        <ele>47.825726</ele>
        <time>2018-07-05T13:42:58Z</time>
      </trkpt>
      <trkpt lat="50.55924" lon="3.39086">
        <ele>47.963631</ele>
        <time>2018-07-05T13:43:00Z</time>
      </trkpt>
      <trkpt lat="50.55932" lon="3.39087">
        <ele>48.06184</ele>
        <time>2018-07-05T13:43:02Z</time>
      </trkpt>
      <trkpt lat="50.5594" lon="3.39089">
        <ele>48.229401</ele>
        <time>2018-07-05T13:43:04Z</time>
      </trkpt>
      <trkpt lat="50.55949" lon="3.39091">
        <ele>48.432156</ele>
        <time>2018-07-05T13:43:06Z</time>
      </trkpt>
      <trkpt lat="50.55957" lon="3.39093">
        <ele>48.542923</ele>
        <time>2018-07-05T13:43:08Z</time>
      </trkpt>
      <trkpt lat="50.55965" lon="3.39095">
        <ele>48.718479</ele>
        <time>2018-07-05T13:43:10Z</time>
      </trkpt>
      <trkpt lat="50.55973" lon="3.39096">
        <ele>48.779991</ele>
        <time>2018-07-05T13:43:12Z</time>
      </trkpt>
      <trkpt lat="50.55981" lon="3.39098">
        <ele>48.861458</ele>
        <time>2018-07-05T13:43:14Z</time>
      </trkpt>
      <trkpt lat="50.5599" lon="3.391">
        <ele>49.193794</ele>
        <time>2018-07-05T13:43:16Z</time>
      </trkpt>
      <trkpt lat="50.55998" lon="3.39102">
        <ele>49.402824</ele>
        <time>2018-07-05T13:43:18Z</time>
      </trkpt>
      <trkpt lat="50.56006" lon="3.39104">
        <ele>49.377739</ele>
        <time>2018-07-05T13:43:20Z</time>
      </trkpt>
      <trkpt lat="50.56015" lon="3.39106">
        <ele>49.3652</ele>
        <time>2018-07-05T13:43:22Z</time>
      </trkpt>
      <trkpt lat="50.56023" lon="3.39108">
        <ele>49.482346</ele>
        <time>2018-07-05T13:43:24Z</time>
      </trkpt>
      <trkpt lat="50.56032" lon="3.3911">
        <ele>49.676876</ele>
        <time>2018-07-05T13:43:26Z</time>
      </trkpt>
      <trkpt lat="50.56041" lon="3.39112">
        <ele>49.674801</ele>
        <time>2018-07-05T13:43:28Z</time>
      </trkpt>
      <trkpt lat="50.56049" lon="3.39114">
        <ele>49.869202</ele>
        <time>2018-07-05T13:43:30Z</time>
      </trkpt>
      <trkpt lat="50.56058" lon="3.39116">
        <ele>49.756264</ele>
        <time>2018-07-05T13:43:32Z</time>
      </trkpt>
      <trkpt lat="50.56067" lon="3.39118">
        <ele>49.760201</ele>
        <time>2018-07-05T13:43:34Z</time>
      </trkpt>
      <trkpt lat="50.56075" lon="3.3912">
        <ele>49.768517</ele>
        <time>2018-07-05T13:43:36Z</time>
      </trkpt>
      <trkpt lat="50.56083" lon="3.39122">
        <ele>49.923637</ele>
        <time>2018-07-05T13:43:38Z</time>
      </trkpt>
      <trkpt lat="50.56091" lon="3.39124">
        <ele>49.961273</ele>
        <time>2018-07-05T13:43:40Z</time>
      </trkpt>
      <trkpt lat="50.56099" lon="3.39126">
        <ele>50.124432</ele>
        <time>2018-07-05T13:43:42Z</time>
      </trkpt>
      <trkpt lat="50.56107" lon="3.39128">
        <ele>50.178783</ele>
        <time>2018-07-05T13:43:44Z</time>
      </trkpt>
      <trkpt lat="50.56115" lon="3.39131">
        <ele>50.240887</ele>
        <time>2018-07-05T13:43:46Z</time>
      </trkpt>
      <trkpt lat="50.56123" lon="3.39133">
        <ele>50.253433</ele>
        <time>2018-07-05T13:43:48Z</time>
      </trkpt>
      <trkpt lat="50.56131" lon="3.39137">
        <ele>50.339134</ele>
        <time>2018-07-05T13:43:50Z</time>
      </trkpt>
      <trkpt lat="50.56139" lon="3.3914">
        <ele>50.442627</ele>
        <time>2018-07-05T13:43:52Z</time>
      </trkpt>
      <trkpt lat="50.56147" lon="3.39142">
        <ele>50.545074</ele>
        <time>2018-07-05T13:43:54Z</time>
      </trkpt>
      <trkpt lat="50.56155" lon="3.39146">
        <ele>50.546013</ele>
        <time>2018-07-05T13:43:56Z</time>
      </trkpt>
      <trkpt lat="50.56163" lon="3.39148">
        <ele>50.46447</ele>
        <time>2018-07-05T13:43:58Z</time>
      </trkpt>
      <trkpt lat="50.56171" lon="3.39152">
        <ele>50.562748</ele>
        <time>2018-07-05T13:44:00Z</time>
      </trkpt>
      <trkpt lat="50.56179" lon="3.39155">
        <ele>50.686119</ele>
        <time>2018-07-05T13:44:02Z</time>
      </trkpt>
      <trkpt lat="50.56188" lon="3.39158">
        <ele>50.704914</ele>
        <time>2018-07-05T13:44:04Z</time>
      </trkpt>
      <trkpt lat="50.56196" lon="3.39161">
        <ele>50.681908</ele>
        <time>2018-07-05T13:44:06Z</time>
      </trkpt>
      <trkpt lat="50.56204" lon="3.39164">
        <ele>50.690147</ele>
        <time>2018-07-05T13:44:08Z</time>
      </trkpt>
      <trkpt lat="50.56212" lon="3.39167">
        <ele>50.883873</ele>
        <time>2018-07-05T13:44:10Z</time>
      </trkpt>
      <trkpt lat="50.56221" lon="3.3917">
        <ele>50.974098</ele>
        <time>2018-07-05T13:44:12Z</time>
      </trkpt>
      <trkpt lat="50.56229" lon="3.39173">
        <ele>50.949013</ele>
        <time>2018-07-05T13:44:14Z</time>
      </trkpt>
      <trkpt lat="50.56238" lon="3.39176">
        <ele>51.060059</ele>
        <time>2018-07-05T13:44:16Z</time>
      </trkpt>
      <trkpt lat="50.56246" lon="3.39179">
        <ele>51.317253</ele>
        <time>2018-07-05T13:44:18Z</time>
      </trkpt>
      <trkpt lat="50.56255" lon="3.39183">
        <ele>51.396717</ele>
        <time>2018-07-05T13:44:20Z</time>
      </trkpt>
      <trkpt lat="50.56263" lon="3.39186">
        <ele>51.471886</ele>
        <time>2018-07-05T13:44:22Z</time>
      </trkpt>
      <trkpt lat="50.56271" lon="3.39189">
        <ele>51.588959</ele>
        <time>2018-07-05T13:44:24Z</time>
      </trkpt>
      <trkpt lat="50.5628" lon="3.39192">
        <ele>51.718609</ele>
        <time>2018-07-05T13:44:26Z</time>
      </trkpt>
      <trkpt lat="50.56288" lon="3.39196">
        <ele>51.971649</ele>
        <time>2018-07-05T13:44:28Z</time>
      </trkpt>
      <trkpt lat="50.56297" lon="3.39199">
        <ele>52.057381</ele>
        <time>2018-07-05T13:44:30Z</time>
      </trkpt>
      <trkpt lat="50.56305" lon="3.39201">
        <ele>52.250923</ele>
        <time>2018-07-05T13:44:32Z</time>
      </trkpt>
      <trkpt lat="50.56314" lon="3.39205">
        <ele>52.3283</ele>
        <time>2018-07-05T13:44:34Z</time>
      </trkpt>
      <trkpt lat="50.56323" lon="3.39208">
        <ele>52.519844</ele>
        <time>2018-07-05T13:44:36Z</time>
      </trkpt>
      <trkpt lat="50.56332" lon="3.39211">
        <ele>52.671593</ele>
        <time>2018-07-05T13:44:38Z</time>
      </trkpt>
      <trkpt lat="50.5634" lon="3.39215">
        <ele>52.832611</ele>
        <time>2018-07-05T13:44:40Z</time>
      </trkpt>
      <trkpt lat="50.56349" lon="3.39218">
        <ele>52.916279</ele>
        <time>2018-07-05T13:44:42Z</time>
      </trkpt>
      <trkpt lat="50.56358" lon="3.39222">
        <ele>52.90583</ele>
        <time>2018-07-05T13:44:44Z</time>
      </trkpt>
      <trkpt lat="50.56366" lon="3.39225">
        <ele>53.090881</ele>
        <time>2018-07-05T13:44:46Z</time>
      </trkpt>
      <trkpt lat="50.56374" lon="3.39228">
        <ele>53.370247</ele>
        <time>2018-07-05T13:44:48Z</time>
      </trkpt>
      <trkpt lat="50.56383" lon="3.39231">
        <ele>53.41695</ele>
        <time>2018-07-05T13:44:50Z</time>
      </trkpt>
      <trkpt lat="50.56392" lon="3.39234">
        <ele>53.52956</ele>
        <time>2018-07-05T13:44:52Z</time>
      </trkpt>
      <trkpt lat="50.564" lon="3.39237">
        <ele>53.606922</ele>
        <time>2018-07-05T13:44:54Z</time>
      </trkpt>
      <trkpt lat="50.56409" lon="3.3924">
        <ele>53.583916</ele>
        <time>2018-07-05T13:44:56Z</time>
      </trkpt>
      <trkpt lat="50.56418" lon="3.39244">
        <ele>53.834869</ele>
        <time>2018-07-05T13:44:58Z</time>
      </trkpt>
      <trkpt lat="50.56426" lon="3.39246">
        <ele>53.997322</ele>
        <time>2018-07-05T13:45:00Z</time>
      </trkpt>
      <trkpt lat="50.56435" lon="3.3925">
        <ele>54.062775</ele>
        <time>2018-07-05T13:45:02Z</time>
      </trkpt>
      <trkpt lat="50.56443" lon="3.39253">
        <ele>54.330467</ele>
        <time>2018-07-05T13:45:04Z</time>
      </trkpt>
      <trkpt lat="50.56452" lon="3.39257">
        <ele>54.554272</ele>
        <time>2018-07-05T13:45:06Z</time>
      </trkpt>
      <trkpt lat="50.56461" lon="3.3926">
        <ele>54.604481</ele>
        <time>2018-07-05T13:45:08Z</time>
      </trkpt>
      <trkpt lat="50.5647" lon="3.39263">
        <ele>54.74044</ele>
        <time>2018-07-05T13:45:10Z</time>
      </trkpt>
      <trkpt lat="50.56479" lon="3.39266">
        <ele>54.941093</ele>
        <time>2018-07-05T13:45:12Z</time>
      </trkpt>
      <trkpt lat="50.56488" lon="3.39269">
        <ele>54.968231</ele>
        <time>2018-07-05T13:45:14Z</time>
      </trkpt>
      <trkpt lat="50.56497" lon="3.39272">
        <ele>54.917564</ele>
        <time>2018-07-05T13:45:16Z</time>
      </trkpt>
      <trkpt lat="50.56506" lon="3.39275">
        <ele>55.060619</ele>
        <time>2018-07-05T13:45:18Z</time>
      </trkpt>
      <trkpt lat="50.56515" lon="3.39277">
        <ele>55.194477</ele>
        <time>2018-07-05T13:45:20Z</time>
      </trkpt>
      <trkpt lat="50.56524" lon="3.3928">
        <ele>55.340912</ele>
        <time>2018-07-05T13:45:22Z</time>
      </trkpt>
      <trkpt lat="50.56533" lon="3.39282">
        <ele>55.386932</ele>
        <time>2018-07-05T13:45:24Z</time>
      </trkpt>
      <trkpt lat="50.56543" lon="3.39284">
        <ele>55.557373</ele>
        <time>2018-07-05T13:45:26Z</time>
      </trkpt>
      <trkpt lat="50.56552" lon="3.39286">
        <ele>55.791645</ele>
        <time>2018-07-05T13:45:28Z</time>
      </trkpt>
      <trkpt lat="50.56561" lon="3.39288">
        <ele>56.024971</ele>
        <time>2018-07-05T13:45:30Z</time>
      </trkpt>
      <trkpt lat="50.56569" lon="3.3929">
        <ele>56.058441</ele>
        <time>2018-07-05T13:45:32Z</time>
      </trkpt>
      <trkpt lat="50.56578" lon="3.39292">
        <ele>56.407818</ele>
        <time>2018-07-05T13:45:34Z</time>
      </trkpt>
      <trkpt lat="50.56585" lon="3.39294">
        <ele>56.761272</ele>
        <time>2018-07-05T13:45:36Z</time>
      </trkpt>
      <trkpt lat="50.56594" lon="3.39296">
        <ele>56.895683</ele>
        <time>2018-07-05T13:45:38Z</time>
      </trkpt>
      <trkpt lat="50.56603" lon="3.39298">
        <ele>56.839203</ele>
        <time>2018-07-05T13:45:40Z</time>
      </trkpt>
      <trkpt lat="50.56611" lon="3.393">
        <ele>56.89637</ele>
        <time>2018-07-05T13:45:42Z</time>
      </trkpt>
      <trkpt lat="50.56619" lon="3.39302">
        <ele>56.987804</ele>
        <time>2018-07-05T13:45:44Z</time>
      </trkpt>
      <trkpt lat="50.56627" lon="3.39304">
        <ele>57.144844</ele>
        <time>2018-07-05T13:45:46Z</time>
      </trkpt>
      <trkpt lat="50.56636" lon="3.39306">
        <ele>57.291279</ele>
        <time>2018-07-05T13:45:48Z</time>
      </trkpt>
      <trkpt lat="50.56644" lon="3.39308">
        <ele>57.339394</ele>
        <time>2018-07-05T13:45:50Z</time>
      </trkpt>
      <trkpt lat="50.56652" lon="3.3931">
        <ele>57.510994</ele>
        <time>2018-07-05T13:45:52Z</time>
      </trkpt>
      <trkpt lat="50.56661" lon="3.39312">
        <ele>57.690926</ele>
        <time>2018-07-05T13:45:54Z</time>
      </trkpt>
      <trkpt lat="50.56669" lon="3.39314">
        <ele>57.872936</ele>
        <time>2018-07-05T13:45:56Z</time>
      </trkpt>
      <trkpt lat="50.56677" lon="3.39315">
        <ele>58.016705</ele>
        <time>2018-07-05T13:45:58Z</time>
      </trkpt>
      <trkpt lat="50.56686" lon="3.39318">
        <ele>58.154785</ele>
        <time>2018-07-05T13:46:00Z</time>
      </trkpt>
      <trkpt lat="50.56694" lon="3.3932">
        <ele>58.276562</ele>
        <time>2018-07-05T13:46:02Z</time>
      </trkpt>
      <trkpt lat="50.56704" lon="3.39322">
        <ele>58.423027</ele>
        <time>2018-07-05T13:46:04Z</time>
      </trkpt>
      <trkpt lat="50.56712" lon="3.39324">
        <ele>58.490894</ele>
        <time>2018-07-05T13:46:06Z</time>
      </trkpt>
      <trkpt lat="50.56721" lon="3.39327">
        <ele>58.570374</ele>
        <time>2018-07-05T13:46:08Z</time>
      </trkpt>
      <trkpt lat="50.5673" lon="3.39329">
        <ele>58.570374</ele>
        <time>2018-07-05T13:46:10Z</time>
      </trkpt>
      <trkpt lat="50.56738" lon="3.39331">
        <ele>58.644569</ele>
        <time>2018-07-05T13:46:12Z</time>
      </trkpt>
      <trkpt lat="50.56746" lon="3.39333">
        <ele>58.92284</ele>
        <time>2018-07-05T13:46:14Z</time>
      </trkpt>
      <trkpt lat="50.56755" lon="3.39336">
        <ele>58.805664</ele>
        <time>2018-07-05T13:46:16Z</time>
      </trkpt>
      <trkpt lat="50.56763" lon="3.39338">
        <ele>58.995228</ele>
        <time>2018-07-05T13:46:18Z</time>
      </trkpt>
      <trkpt lat="50.56772" lon="3.3934">
        <ele>59.076271</ele>
        <time>2018-07-05T13:46:20Z</time>
      </trkpt>
      <trkpt lat="50.5678" lon="3.39342">
        <ele>59.291759</ele>
        <time>2018-07-05T13:46:22Z</time>
      </trkpt>
      <trkpt lat="50.56789" lon="3.39344">
        <ele>59.49054</ele>
        <time>2018-07-05T13:46:24Z</time>
      </trkpt>
      <trkpt lat="50.56798" lon="3.39347">
        <ele>59.542725</ele>
        <time>2018-07-05T13:46:26Z</time>
      </trkpt>
      <trkpt lat="50.56806" lon="3.39349">
        <ele>59.582497</ele>
        <time>2018-07-05T13:46:28Z</time>
      </trkpt>
      <trkpt lat="50.56814" lon="3.39351">
        <ele>59.678749</ele>
        <time>2018-07-05T13:46:30Z</time>
      </trkpt>
      <trkpt lat="50.56822" lon="3.39352">
        <ele>59.885914</ele>
        <time>2018-07-05T13:46:32Z</time>
      </trkpt>
      <trkpt lat="50.5683" lon="3.39354">
        <ele>59.988441</ele>
        <time>2018-07-05T13:46:34Z</time>
      </trkpt>
      <trkpt lat="50.56838" lon="3.39357">
        <ele>60.091225</ele>
        <time>2018-07-05T13:46:36Z</time>
      </trkpt>
      <trkpt lat="50.56845" lon="3.39359">
        <ele>60.398827</ele>
        <time>2018-07-05T13:46:38Z</time>
      </trkpt>
      <trkpt lat="50.56852" lon="3.39361">
        <ele>60.473145</ele>
        <time>2018-07-05T13:46:40Z</time>
      </trkpt>
      <trkpt lat="50.5686" lon="3.39362">
        <ele>60.655224</ele>
        <time>2018-07-05T13:46:42Z</time>
      </trkpt>
      <trkpt lat="50.56867" lon="3.39362">
        <ele>60.784496</ele>
        <time>2018-07-05T13:46:44Z</time>
      </trkpt>
      <trkpt lat="50.56874" lon="3.39363">
        <ele>60.740551</ele>
        <time>2018-07-05T13:46:46Z</time>
      </trkpt>
      <trkpt lat="50.56881" lon="3.39363">
        <ele>60.828857</ele>
        <time>2018-07-05T13:46:48Z</time>
      </trkpt>
      <trkpt lat="50.56887" lon="3.39364">
        <ele>61.023449</ele>
        <time>2018-07-05T13:46:50Z</time>
      </trkpt>
      <trkpt lat="50.56894" lon="3.39364">
        <ele>61.038097</ele>
        <time>2018-07-05T13:46:52Z</time>
      </trkpt>
      <trkpt lat="50.56901" lon="3.39364">
        <ele>61.011681</ele>
        <time>2018-07-05T13:46:54Z</time>
      </trkpt>
      <trkpt lat="50.56907" lon="3.39364">
        <ele>60.961464</ele>
        <time>2018-07-05T13:46:56Z</time>
      </trkpt>
      <trkpt lat="50.56914" lon="3.39363">
        <ele>61.005371</ele>
        <time>2018-07-05T13:46:58Z</time>
      </trkpt>
      <trkpt lat="50.56921" lon="3.39364">
        <ele>60.999977</ele>
        <time>2018-07-05T13:47:00Z</time>
      </trkpt>
      <trkpt lat="50.56928" lon="3.39365">
        <ele>61.043922</ele>
        <time>2018-07-05T13:47:02Z</time>
      </trkpt>
      <trkpt lat="50.56934" lon="3.39365">
        <ele>61.095436</ele>
        <time>2018-07-05T13:47:04Z</time>
      </trkpt>
      <trkpt lat="50.56941" lon="3.39365">
        <ele>61.005444</ele>
        <time>2018-07-05T13:47:06Z</time>
      </trkpt>
      <trkpt lat="50.56948" lon="3.39367">
        <ele>61.085804</ele>
        <time>2018-07-05T13:47:08Z</time>
      </trkpt>
      <trkpt lat="50.56955" lon="3.39368">
        <ele>60.964439</ele>
        <time>2018-07-05T13:47:10Z</time>
      </trkpt>
      <trkpt lat="50.56962" lon="3.39369">
        <ele>60.889099</ele>
        <time>2018-07-05T13:47:12Z</time>
      </trkpt>
      <trkpt lat="50.56969" lon="3.39371">
        <ele>60.780262</ele>
        <time>2018-07-05T13:47:14Z</time>
      </trkpt>
      <trkpt lat="50.56976" lon="3.39372">
        <ele>60.840736</ele>
        <time>2018-07-05T13:47:16Z</time>
      </trkpt>
      <trkpt lat="50.56982" lon="3.39374">
        <ele>60.723412</ele>
        <time>2018-07-05T13:47:18Z</time>
      </trkpt>
      <trkpt lat="50.5699" lon="3.39376">
        <ele>60.735962</ele>
        <time>2018-07-05T13:47:20Z</time>
      </trkpt>
      <trkpt lat="50.56997" lon="3.39378">
        <ele>60.581104</ele>
        <time>2018-07-05T13:47:22Z</time>
      </trkpt>
      <trkpt lat="50.57004" lon="3.3938">
        <ele>60.390656</ele>
        <time>2018-07-05T13:47:24Z</time>
      </trkpt>
      <trkpt lat="50.57011" lon="3.39383">
        <ele>60.41853</ele>
        <time>2018-07-05T13:47:26Z</time>
      </trkpt>
      <trkpt lat="50.57019" lon="3.39386">
        <ele>60.470856</ele>
        <time>2018-07-05T13:47:28Z</time>
      </trkpt>
      <trkpt lat="50.57027" lon="3.39389">
        <ele>60.417217</ele>
        <time>2018-07-05T13:47:30Z</time>
      </trkpt>
      <trkpt lat="50.57035" lon="3.39393">
        <ele>60.375374</ele>
        <time>2018-07-05T13:47:32Z</time>
      </trkpt>
      <trkpt lat="50.57043" lon="3.39397">
        <ele>60.418793</ele>
        <time>2018-07-05T13:47:34Z</time>
      </trkpt>
      <trkpt lat="50.57051" lon="3.39401">
        <ele>60.559002</ele>
        <time>2018-07-05T13:47:36Z</time>
      </trkpt>
      <trkpt lat="50.57059" lon="3.39405">
        <ele>60.663643</ele>
        <time>2018-07-05T13:47:38Z</time>
      </trkpt>
      <trkpt lat="50.57066" lon="3.39409">
        <ele>60.657368</ele>
        <time>2018-07-05T13:47:40Z</time>
      </trkpt>
      <trkpt lat="50.57074" lon="3.39412">
        <ele>60.538105</ele>
        <time>2018-07-05T13:47:42Z</time>
      </trkpt>
      <trkpt lat="50.57081" lon="3.39416">
        <ele>60.557747</ele>
        <time>2018-07-05T13:47:44Z</time>
      </trkpt>
      <trkpt lat="50.57087" lon="3.39418">
        <ele>60.540997</ele>
        <time>2018-07-05T13:47:46Z</time>
      </trkpt>
      <trkpt lat="50.57093" lon="3.39422">
        <ele>60.484505</ele>
        <time>2018-07-05T13:47:48Z</time>
      </trkpt>
      <trkpt lat="50.571" lon="3.39426">
        <ele>60.579903</ele>
        <time>2018-07-05T13:47:50Z</time>
      </trkpt>
      <trkpt lat="50.57106" lon="3.39429">
        <ele>60.586174</ele>
        <time>2018-07-05T13:47:52Z</time>
      </trkpt>
      <trkpt lat="50.57113" lon="3.39433">
        <ele>60.613373</ele>
        <time>2018-07-05T13:47:54Z</time>
      </trkpt>
      <trkpt lat="50.57119" lon="3.39436">
        <ele>60.48991</ele>
        <time>2018-07-05T13:47:56Z</time>
      </trkpt>
      <trkpt lat="50.57126" lon="3.39439">
        <ele>60.487812</ele>
        <time>2018-07-05T13:47:58Z</time>
      </trkpt>
      <trkpt lat="50.57134" lon="3.39441">
        <ele>60.402142</ele>
        <time>2018-07-05T13:48:00Z</time>
      </trkpt>
      <trkpt lat="50.57141" lon="3.39444">
        <ele>60.468742</ele>
        <time>2018-07-05T13:48:02Z</time>
      </trkpt>
      <trkpt lat="50.57148" lon="3.39447">
        <ele>60.508503</ele>
        <time>2018-07-05T13:48:04Z</time>
      </trkpt>
      <trkpt lat="50.57155" lon="3.39449">
        <ele>60.523151</ele>
        <time>2018-07-05T13:48:06Z</time>
      </trkpt>
      <trkpt lat="50.57163" lon="3.39451">
        <ele>60.686348</ele>
        <time>2018-07-05T13:48:08Z</time>
      </trkpt>
      <trkpt lat="50.5717" lon="3.39452">
        <ele>60.629841</ele>
        <time>2018-07-05T13:48:10Z</time>
      </trkpt>
      <trkpt lat="50.57176" lon="3.39452">
        <ele>60.701</ele>
        <time>2018-07-05T13:48:12Z</time>
      </trkpt>
      <trkpt lat="50.57182" lon="3.39454">
        <ele>60.688446</ele>
        <time>2018-07-05T13:48:14Z</time>
      </trkpt>
      <trkpt lat="50.57189" lon="3.39454">
        <ele>60.693165</ele>
        <time>2018-07-05T13:48:16Z</time>
      </trkpt>
      <trkpt lat="50.57196" lon="3.39456">
        <ele>60.605263</ele>
        <time>2018-07-05T13:48:18Z</time>
      </trkpt>
      <trkpt lat="50.57202" lon="3.39456">
        <ele>60.549488</ele>
        <time>2018-07-05T13:48:20Z</time>
      </trkpt>
      <trkpt lat="50.57209" lon="3.39457">
        <ele>60.644279</ele>
        <time>2018-07-05T13:48:22Z</time>
      </trkpt>
      <trkpt lat="50.57215" lon="3.39459">
        <ele>60.535484</ele>
        <time>2018-07-05T13:48:24Z</time>
      </trkpt>
      <trkpt lat="50.57221" lon="3.39459">
        <ele>60.353462</ele>
        <time>2018-07-05T13:48:26Z</time>
      </trkpt>
      <trkpt lat="50.57225" lon="3.3946">
        <ele>60.441353</ele>
        <time>2018-07-05T13:48:28Z</time>
      </trkpt>
      <trkpt lat="50.5723" lon="3.39461">
        <ele>60.470642</ele>
        <time>2018-07-05T13:48:30Z</time>
      </trkpt>
      <trkpt lat="50.57234" lon="3.39462">
        <ele>60.386932</ele>
        <time>2018-07-05T13:48:32Z</time>
      </trkpt>
      <trkpt lat="50.57238" lon="3.39463">
        <ele>60.491352</ele>
        <time>2018-07-05T13:48:34Z</time>
      </trkpt>
      <trkpt lat="50.57242" lon="3.39463">
        <ele>60.397186</ele>
        <time>2018-07-05T13:48:36Z</time>
      </trkpt>
      <trkpt lat="50.57245" lon="3.39464">
        <ele>60.506001</ele>
        <time>2018-07-05T13:48:38Z</time>
      </trkpt>
      <trkpt lat="50.57252" lon="3.39464">
        <ele>60.385681</ele>
        <time>2018-07-05T13:49:36Z</time>
      </trkpt>
      <trkpt lat="50.57258" lon="3.39465">
        <ele>60.374176</ele>
        <time>2018-07-05T13:49:38Z</time>
      </trkpt>
      <trkpt lat="50.57264" lon="3.39465">
        <ele>60.390919</ele>
        <time>2018-07-05T13:49:40Z</time>
      </trkpt>
      <trkpt lat="50.5727" lon="3.39464">
        <ele>60.418121</ele>
        <time>2018-07-05T13:49:42Z</time>
      </trkpt>
      <trkpt lat="50.57278" lon="3.39462">
        <ele>60.497643</ele>
        <time>2018-07-05T13:49:44Z</time>
      </trkpt>
      <trkpt lat="50.57285" lon="3.39462">
        <ele>60.646248</ele>
        <time>2018-07-05T13:49:46Z</time>
      </trkpt>
      <trkpt lat="50.57293" lon="3.39462">
        <ele>60.686695</ele>
        <time>2018-07-05T13:49:48Z</time>
      </trkpt>
      <trkpt lat="50.57301" lon="3.39461">
        <ele>60.715355</ele>
        <time>2018-07-05T13:49:50Z</time>
      </trkpt>
      <trkpt lat="50.57309" lon="3.39461">
        <ele>60.681877</ele>
        <time>2018-07-05T13:49:52Z</time>
      </trkpt>
      <trkpt lat="50.57318" lon="3.3946">
        <ele>60.705395</ele>
        <time>2018-07-05T13:49:54Z</time>
      </trkpt>
      <trkpt lat="50.57327" lon="3.39459">
        <ele>60.835163</ele>
        <time>2018-07-05T13:49:56Z</time>
      </trkpt>
      <trkpt lat="50.57335" lon="3.39458">
        <ele>60.895851</ele>
        <time>2018-07-05T13:49:58Z</time>
      </trkpt>
      <trkpt lat="50.57344" lon="3.39457">
        <ele>61.052826</ele>
        <time>2018-07-05T13:50:00Z</time>
      </trkpt>
      <trkpt lat="50.57352" lon="3.39456">
        <ele>61.109333</ele>
        <time>2018-07-05T13:50:02Z</time>
      </trkpt>
      <trkpt lat="50.5736" lon="3.39454">
        <ele>61.216515</ele>
        <time>2018-07-05T13:50:04Z</time>
      </trkpt>
      <trkpt lat="50.57369" lon="3.39453">
        <ele>61.139099</ele>
        <time>2018-07-05T13:50:06Z</time>
      </trkpt>
      <trkpt lat="50.57378" lon="3.39452">
        <ele>61.149372</ele>
        <time>2018-07-05T13:50:08Z</time>
      </trkpt>
      <trkpt lat="50.57386" lon="3.3945">
        <ele>61.243568</ele>
        <time>2018-07-05T13:50:10Z</time>
      </trkpt>
      <trkpt lat="50.57395" lon="3.39449">
        <ele>61.203827</ele>
        <time>2018-07-05T13:50:12Z</time>
      </trkpt>
      <trkpt lat="50.57404" lon="3.39447">
        <ele>61.281689</ele>
        <time>2018-07-05T13:50:14Z</time>
      </trkpt>
      <trkpt lat="50.57413" lon="3.39446">
        <ele>61.46587</ele>
        <time>2018-07-05T13:50:16Z</time>
      </trkpt>
      <trkpt lat="50.57422" lon="3.39445">
        <ele>61.504578</ele>
        <time>2018-07-05T13:50:18Z</time>
      </trkpt>
      <trkpt lat="50.57431" lon="3.39443">
        <ele>61.529457</ele>
        <time>2018-07-05T13:50:20Z</time>
      </trkpt>
      <trkpt lat="50.57439" lon="3.39442">
        <ele>61.554577</ele>
        <time>2018-07-05T13:50:22Z</time>
      </trkpt>
      <trkpt lat="50.57448" lon="3.39441">
        <ele>61.598522</ele>
        <time>2018-07-05T13:50:24Z</time>
      </trkpt>
      <trkpt lat="50.57457" lon="3.39439">
        <ele>61.635876</ele>
        <time>2018-07-05T13:50:26Z</time>
      </trkpt>
      <trkpt lat="50.57465" lon="3.39436">
        <ele>61.583534</ele>
        <time>2018-07-05T13:50:28Z</time>
      </trkpt>
      <trkpt lat="50.57473" lon="3.39434">
        <ele>61.681213</ele>
        <time>2018-07-05T13:50:30Z</time>
      </trkpt>
      <trkpt lat="50.57482" lon="3.39431">
        <ele>61.738831</ele>
        <time>2018-07-05T13:50:32Z</time>
      </trkpt>
      <trkpt lat="50.57491" lon="3.39428">
        <ele>61.90625</ele>
        <time>2018-07-05T13:50:34Z</time>
      </trkpt>
      <trkpt lat="50.57499" lon="3.39424">
        <ele>62.094643</ele>
        <time>2018-07-05T13:50:36Z</time>
      </trkpt>
      <trkpt lat="50.57508" lon="3.3942">
        <ele>62.089806</ele>
        <time>2018-07-05T13:50:38Z</time>
      </trkpt>
      <trkpt lat="50.57517" lon="3.39417">
        <ele>62.192039</ele>
        <time>2018-07-05T13:50:40Z</time>
      </trkpt>
      <trkpt lat="50.57539" lon="3.39407">
        <ele>62.168663</ele>
        <time>2018-07-05T13:50:45Z</time>
      </trkpt>
      <trkpt lat="50.57549" lon="3.39403">
        <ele>62.17511</ele>
        <time>2018-07-05T13:50:47Z</time>
      </trkpt>
      <trkpt lat="50.57558" lon="3.39401">
        <ele>62.193958</ele>
        <time>2018-07-05T13:50:49Z</time>
      </trkpt>
      <trkpt lat="50.57567" lon="3.39399">
        <ele>62.272118</ele>
        <time>2018-07-05T13:50:51Z</time>
      </trkpt>
      <trkpt lat="50.57576" lon="3.39396">
        <ele>62.448109</ele>
        <time>2018-07-05T13:50:53Z</time>
      </trkpt>
      <trkpt lat="50.57586" lon="3.39394">
        <ele>62.579956</ele>
        <time>2018-07-05T13:50:55Z</time>
      </trkpt>
      <trkpt lat="50.57596" lon="3.39391">
        <ele>62.785057</ele>
        <time>2018-07-05T13:50:57Z</time>
      </trkpt>
      <trkpt lat="50.57606" lon="3.39389">
        <ele>62.935768</ele>
        <time>2018-07-05T13:50:59Z</time>
      </trkpt>
      <trkpt lat="50.57616" lon="3.39388">
        <ele>62.878296</ele>
        <time>2018-07-05T13:51:01Z</time>
      </trkpt>
      <trkpt lat="50.57626" lon="3.39386">
        <ele>62.997368</ele>
        <time>2018-07-05T13:51:03Z</time>
      </trkpt>
      <trkpt lat="50.57636" lon="3.39384">
        <ele>63.004341</ele>
        <time>2018-07-05T13:51:05Z</time>
      </trkpt>
      <trkpt lat="50.57645" lon="3.39384">
        <ele>63.027367</ele>
        <time>2018-07-05T13:51:07Z</time>
      </trkpt>
      <trkpt lat="50.57655" lon="3.39385">
        <ele>62.943653</ele>
        <time>2018-07-05T13:51:09Z</time>
      </trkpt>
      <trkpt lat="50.57665" lon="3.39387">
        <ele>62.84771</ele>
        <time>2018-07-05T13:51:11Z</time>
      </trkpt>
      <trkpt lat="50.57675" lon="3.39389">
        <ele>62.803764</ele>
        <time>2018-07-05T13:51:13Z</time>
      </trkpt>
      <trkpt lat="50.57685" lon="3.39393">
        <ele>62.70332</ele>
        <time>2018-07-05T13:51:15Z</time>
      </trkpt>
      <trkpt lat="50.57695" lon="3.39397">
        <ele>62.531719</ele>
        <time>2018-07-05T13:51:17Z</time>
      </trkpt>
      <trkpt lat="50.57706" lon="3.39401">
        <ele>62.451427</ele>
        <time>2018-07-05T13:51:19Z</time>
      </trkpt>
      <trkpt lat="50.57716" lon="3.39406">
        <ele>62.363518</ele>
        <time>2018-07-05T13:51:21Z</time>
      </trkpt>
      <trkpt lat="50.57727" lon="3.39413">
        <ele>62.25182</ele>
        <time>2018-07-05T13:51:23Z</time>
      </trkpt>
      <trkpt lat="50.57739" lon="3.39421">
        <ele>61.942482</ele>
        <time>2018-07-05T13:51:25Z</time>
      </trkpt>
      <trkpt lat="50.5775" lon="3.39429">
        <ele>62.018257</ele>
        <time>2018-07-05T13:51:27Z</time>
      </trkpt>
      <trkpt lat="50.57761" lon="3.39438">
        <ele>61.781597</ele>
        <time>2018-07-05T13:51:29Z</time>
      </trkpt>
      <trkpt lat="50.57772" lon="3.39448">
        <ele>61.511791</ele>
        <time>2018-07-05T13:51:31Z</time>
      </trkpt>
      <trkpt lat="50.57784" lon="3.39457">
        <ele>61.293377</ele>
        <time>2018-07-05T13:51:33Z</time>
      </trkpt>
      <trkpt lat="50.57795" lon="3.39467">
        <ele>61.148964</ele>
        <time>2018-07-05T13:51:35Z</time>
      </trkpt>
      <trkpt lat="50.57806" lon="3.39476">
        <ele>61.079906</ele>
        <time>2018-07-05T13:51:37Z</time>
      </trkpt>
      <trkpt lat="50.57818" lon="3.39484">
        <ele>60.856987</ele>
        <time>2018-07-05T13:51:39Z</time>
      </trkpt>
      <trkpt lat="50.57829" lon="3.3949">
        <ele>60.458221</ele>
        <time>2018-07-05T13:51:41Z</time>
      </trkpt>
      <trkpt lat="50.57842" lon="3.39495">
        <ele>60.079731</ele>
        <time>2018-07-05T13:51:43Z</time>
      </trkpt>
      <trkpt lat="50.57854" lon="3.39499">
        <ele>59.954872</ele>
        <time>2018-07-05T13:51:45Z</time>
      </trkpt>
      <trkpt lat="50.57867" lon="3.395">
        <ele>59.517078</ele>
        <time>2018-07-05T13:51:47Z</time>
      </trkpt>
      <trkpt lat="50.57881" lon="3.39502">
        <ele>59.387337</ele>
        <time>2018-07-05T13:51:49Z</time>
      </trkpt>
      <trkpt lat="50.57895" lon="3.39503">
        <ele>59.127937</ele>
        <time>2018-07-05T13:51:51Z</time>
      </trkpt>
      <trkpt lat="50.57908" lon="3.39504">
        <ele>58.91872</ele>
        <time>2018-07-05T13:51:53Z</time>
      </trkpt>
      <trkpt lat="50.57922" lon="3.39505">
        <ele>58.441795</ele>
        <time>2018-07-05T13:51:55Z</time>
      </trkpt>
      <trkpt lat="50.57936" lon="3.39506">
        <ele>58.251446</ele>
        <time>2018-07-05T13:51:57Z</time>
      </trkpt>
      <trkpt lat="50.5795" lon="3.39508">
        <ele>57.837532</ele>
        <time>2018-07-05T13:51:59Z</time>
      </trkpt>
      <trkpt lat="50.57964" lon="3.39509">
        <ele>57.182854</ele>
        <time>2018-07-05T13:52:01Z</time>
      </trkpt>
      <trkpt lat="50.57978" lon="3.3951">
        <ele>56.743763</ele>
        <time>2018-07-05T13:52:03Z</time>
      </trkpt>
      <trkpt lat="50.57992" lon="3.39511">
        <ele>56.11792</ele>
        <time>2018-07-05T13:52:05Z</time>
      </trkpt>
      <trkpt lat="50.58006" lon="3.39512">
        <ele>55.337517</ele>
        <time>2018-07-05T13:52:07Z</time>
      </trkpt>
      <trkpt lat="50.5802" lon="3.39513">
        <ele>54.892189</ele>
        <time>2018-07-05T13:52:09Z</time>
      </trkpt>
      <trkpt lat="50.58034" lon="3.39514">
        <ele>54.624474</ele>
        <time>2018-07-05T13:52:11Z</time>
      </trkpt>
      <trkpt lat="50.58049" lon="3.39515">
        <ele>54.289898</ele>
        <time>2018-07-05T13:52:13Z</time>
      </trkpt>
      <trkpt lat="50.58063" lon="3.39517">
        <ele>53.646004</ele>
        <time>2018-07-05T13:52:15Z</time>
      </trkpt>
      <trkpt lat="50.58078" lon="3.39518">
        <ele>53.047832</ele>
        <time>2018-07-05T13:52:17Z</time>
      </trkpt>
      <trkpt lat="50.58092" lon="3.39519">
        <ele>52.288696</ele>
        <time>2018-07-05T13:52:19Z</time>
      </trkpt>
      <trkpt lat="50.58106" lon="3.3952">
        <ele>52.088959</ele>
        <time>2018-07-05T13:52:21Z</time>
      </trkpt>
      <trkpt lat="50.58121" lon="3.39521">
        <ele>51.745995</ele>
        <time>2018-07-05T13:52:23Z</time>
      </trkpt>
      <trkpt lat="50.58136" lon="3.39522">
        <ele>51.302765</ele>
        <time>2018-07-05T13:52:25Z</time>
      </trkpt>
      <trkpt lat="50.5815" lon="3.39523">
        <ele>51.023956</ele>
        <time>2018-07-05T13:52:27Z</time>
      </trkpt>
      <trkpt lat="50.58164" lon="3.39524">
        <ele>50.400978</ele>
        <time>2018-07-05T13:52:29Z</time>
      </trkpt>
      <trkpt lat="50.58178" lon="3.39525">
        <ele>49.782272</ele>
        <time>2018-07-05T13:52:31Z</time>
      </trkpt>
      <trkpt lat="50.58192" lon="3.39526">
        <ele>49.2677</ele>
        <time>2018-07-05T13:52:33Z</time>
      </trkpt>
      <trkpt lat="50.58206" lon="3.39527">
        <ele>48.814056</ele>
        <time>2018-07-05T13:52:35Z</time>
      </trkpt>
      <trkpt lat="50.58219" lon="3.39528">
        <ele>48.347847</ele>
        <time>2018-07-05T13:52:37Z</time>
      </trkpt>
      <trkpt lat="50.58232" lon="3.39529">
        <ele>48.132545</ele>
        <time>2018-07-05T13:52:39Z</time>
      </trkpt>
      <trkpt lat="50.58244" lon="3.3953">
        <ele>47.58672</ele>
        <time>2018-07-05T13:52:41Z</time>
      </trkpt>
      <trkpt lat="50.58256" lon="3.39531">
        <ele>47.399891</ele>
        <time>2018-07-05T13:52:43Z</time>
      </trkpt>
      <trkpt lat="50.58268" lon="3.39532">
        <ele>47.004715</ele>
        <time>2018-07-05T13:52:45Z</time>
      </trkpt>
      <trkpt lat="50.5828" lon="3.39533">
        <ele>46.987976</ele>
        <time>2018-07-05T13:52:47Z</time>
      </trkpt>
      <trkpt lat="50.58292" lon="3.39534">
        <ele>46.724655</ele>
        <time>2018-07-05T13:52:49Z</time>
      </trkpt>
      <trkpt lat="50.58304" lon="3.39535">
        <ele>46.122746</ele>
        <time>2018-07-05T13:52:51Z</time>
      </trkpt>
      <trkpt lat="50.58316" lon="3.39536">
        <ele>45.635792</ele>
        <time>2018-07-05T13:52:53Z</time>
      </trkpt>
      <trkpt lat="50.58328" lon="3.39537">
        <ele>45.353767</ele>
        <time>2018-07-05T13:52:55Z</time>
      </trkpt>
      <trkpt lat="50.5834" lon="3.39538">
        <ele>45.249779</ele>
        <time>2018-07-05T13:52:57Z</time>
      </trkpt>
      <trkpt lat="50.58352" lon="3.39539">
        <ele>44.925884</ele>
        <time>2018-07-05T13:52:59Z</time>
      </trkpt>
      <trkpt lat="50.58363" lon="3.3954">
        <ele>44.530994</ele>
        <time>2018-07-05T13:53:01Z</time>
      </trkpt>
      <trkpt lat="50.58375" lon="3.3954">
        <ele>43.925072</ele>
        <time>2018-07-05T13:53:03Z</time>
      </trkpt>
      <trkpt lat="50.58387" lon="3.39542">
        <ele>43.576233</ele>
        <time>2018-07-05T13:53:05Z</time>
      </trkpt>
      <trkpt lat="50.584" lon="3.39542">
        <ele>43.089722</ele>
        <time>2018-07-05T13:53:07Z</time>
      </trkpt>
      <trkpt lat="50.58412" lon="3.39543">
        <ele>42.822247</ele>
        <time>2018-07-05T13:53:09Z</time>
      </trkpt>
      <trkpt lat="50.58425" lon="3.39543">
        <ele>42.339745</ele>
        <time>2018-07-05T13:53:11Z</time>
      </trkpt>
      <trkpt lat="50.58437" lon="3.39542">
        <ele>42.285362</ele>
        <time>2018-07-05T13:53:13Z</time>
      </trkpt>
      <trkpt lat="50.5845" lon="3.3954">
        <ele>41.723679</ele>
        <time>2018-07-05T13:53:15Z</time>
      </trkpt>
      <trkpt lat="50.58463" lon="3.39537">
        <ele>41.462532</ele>
        <time>2018-07-05T13:53:17Z</time>
      </trkpt>
      <trkpt lat="50.58476" lon="3.39533">
        <ele>40.99049</ele>
        <time>2018-07-05T13:53:19Z</time>
      </trkpt>
      <trkpt lat="50.58489" lon="3.39529">
        <ele>40.692467</ele>
        <time>2018-07-05T13:53:21Z</time>
      </trkpt>
      <trkpt lat="50.58502" lon="3.39524">
        <ele>40.446053</ele>
        <time>2018-07-05T13:53:23Z</time>
      </trkpt>
      <trkpt lat="50.58515" lon="3.39519">
        <ele>39.850918</ele>
        <time>2018-07-05T13:53:25Z</time>
      </trkpt>
      <trkpt lat="50.58528" lon="3.39514">
        <ele>39.284904</ele>
        <time>2018-07-05T13:53:27Z</time>
      </trkpt>
      <trkpt lat="50.58541" lon="3.3951">
        <ele>38.900757</ele>
        <time>2018-07-05T13:53:29Z</time>
      </trkpt>
      <trkpt lat="50.58555" lon="3.39505">
        <ele>38.255512</ele>
        <time>2018-07-05T13:53:31Z</time>
      </trkpt>
      <trkpt lat="50.58567" lon="3.39501">
        <ele>37.908947</ele>
        <time>2018-07-05T13:53:33Z</time>
      </trkpt>
      <trkpt lat="50.5858" lon="3.39496">
        <ele>37.771103</ele>
        <time>2018-07-05T13:53:35Z</time>
      </trkpt>
      <trkpt lat="50.58593" lon="3.39491">
        <ele>37.314537</ele>
        <time>2018-07-05T13:53:37Z</time>
      </trkpt>
      <trkpt lat="50.58605" lon="3.39486">
        <ele>36.648079</ele>
        <time>2018-07-05T13:53:39Z</time>
      </trkpt>
      <trkpt lat="50.58617" lon="3.39482">
        <ele>36.071831</ele>
        <time>2018-07-05T13:53:41Z</time>
      </trkpt>
      <trkpt lat="50.5863" lon="3.39478">
        <ele>35.545784</ele>
        <time>2018-07-05T13:53:43Z</time>
      </trkpt>
      <trkpt lat="50.58642" lon="3.39473">
        <ele>34.697777</ele>
        <time>2018-07-05T13:53:45Z</time>
      </trkpt>
      <trkpt lat="50.58654" lon="3.39468">
        <ele>34.144573</ele>
        <time>2018-07-05T13:53:47Z</time>
      </trkpt>
      <trkpt lat="50.58666" lon="3.39463">
        <ele>33.787666</ele>
        <time>2018-07-05T13:53:49Z</time>
      </trkpt>
      <trkpt lat="50.58678" lon="3.39457">
        <ele>33.163437</ele>
        <time>2018-07-05T13:53:51Z</time>
      </trkpt>
      <trkpt lat="50.5869" lon="3.39449">
        <ele>32.668835</ele>
        <time>2018-07-05T13:53:53Z</time>
      </trkpt>
      <trkpt lat="50.58702" lon="3.39443">
        <ele>32.17411</ele>
        <time>2018-07-05T13:53:55Z</time>
      </trkpt>
      <trkpt lat="50.58714" lon="3.39436">
        <ele>31.796316</ele>
        <time>2018-07-05T13:53:57Z</time>
      </trkpt>
      <trkpt lat="50.58725" lon="3.39428">
        <ele>31.431011</ele>
        <time>2018-07-05T13:53:59Z</time>
      </trkpt>
      <trkpt lat="50.58737" lon="3.3942">
        <ele>31.3204</ele>
        <time>2018-07-05T13:54:01Z</time>
      </trkpt>
      <trkpt lat="50.58749" lon="3.39413">
        <ele>30.977697</ele>
        <time>2018-07-05T13:54:03Z</time>
      </trkpt>
      <trkpt lat="50.58761" lon="3.39405">
        <ele>30.433838</ele>
        <time>2018-07-05T13:54:05Z</time>
      </trkpt>
      <trkpt lat="50.58773" lon="3.39397">
        <ele>30.185553</ele>
        <time>2018-07-05T13:54:07Z</time>
      </trkpt>
      <trkpt lat="50.58785" lon="3.39389">
        <ele>29.747379</ele>
        <time>2018-07-05T13:54:09Z</time>
      </trkpt>
      <trkpt lat="50.58796" lon="3.39383">
        <ele>29.319616</ele>
        <time>2018-07-05T13:54:11Z</time>
      </trkpt>
      <trkpt lat="50.58806" lon="3.39376">
        <ele>28.987921</ele>
        <time>2018-07-05T13:54:13Z</time>
      </trkpt>
      <trkpt lat="50.58816" lon="3.3937">
        <ele>28.689709</ele>
        <time>2018-07-05T13:54:15Z</time>
      </trkpt>
      <trkpt lat="50.58826" lon="3.39365">
        <ele>28.035803</ele>
        <time>2018-07-05T13:54:17Z</time>
      </trkpt>
      <trkpt lat="50.58836" lon="3.39359">
        <ele>27.791729</ele>
        <time>2018-07-05T13:54:19Z</time>
      </trkpt>
      <trkpt lat="50.58845" lon="3.39353">
        <ele>27.520565</ele>
        <time>2018-07-05T13:54:21Z</time>
      </trkpt>
      <trkpt lat="50.58853" lon="3.39348">
        <ele>27.286942</ele>
        <time>2018-07-05T13:54:23Z</time>
      </trkpt>
      <trkpt lat="50.58862" lon="3.39342">
        <ele>27.124218</ele>
        <time>2018-07-05T13:54:25Z</time>
      </trkpt>
      <trkpt lat="50.5887" lon="3.39337">
        <ele>27.044964</ele>
        <time>2018-07-05T13:54:27Z</time>
      </trkpt>
      <trkpt lat="50.58878" lon="3.39331">
        <ele>26.926062</ele>
        <time>2018-07-05T13:54:29Z</time>
      </trkpt>
      <trkpt lat="50.58884" lon="3.39325">
        <ele>26.78916</ele>
        <time>2018-07-05T13:54:31Z</time>
      </trkpt>
      <trkpt lat="50.58889" lon="3.3932">
        <ele>26.5138</ele>
        <time>2018-07-05T13:54:33Z</time>
      </trkpt>
      <trkpt lat="50.58894" lon="3.39316">
        <ele>26.380295</ele>
        <time>2018-07-05T13:54:35Z</time>
      </trkpt>
      <trkpt lat="50.58897" lon="3.39313">
        <ele>26.165442</ele>
        <time>2018-07-05T13:54:37Z</time>
      </trkpt>
      <trkpt lat="50.58901" lon="3.39307">
        <ele>25.902594</ele>
        <time>2018-07-05T13:54:39Z</time>
      </trkpt>
      <trkpt lat="50.58899" lon="3.39299">
        <ele>25.611963</ele>
        <time>2018-07-05T13:54:41Z</time>
      </trkpt>
      <trkpt lat="50.58894" lon="3.39293">
        <ele>25.349689</ele>
        <time>2018-07-05T13:54:43Z</time>
      </trkpt>
      <trkpt lat="50.58888" lon="3.39284">
        <ele>24.909575</ele>
        <time>2018-07-05T13:54:45Z</time>
      </trkpt>
      <trkpt lat="50.58884" lon="3.39273">
        <ele>24.901276</ele>
        <time>2018-07-05T13:54:47Z</time>
      </trkpt>
      <trkpt lat="50.5888" lon="3.39262">
        <ele>24.751099</ele>
        <time>2018-07-05T13:54:49Z</time>
      </trkpt>
      <trkpt lat="50.58875" lon="3.39251">
        <ele>24.661432</ele>
        <time>2018-07-05T13:54:51Z</time>
      </trkpt>
      <trkpt lat="50.5887" lon="3.39239">
        <ele>24.590536</ele>
        <time>2018-07-05T13:54:53Z</time>
      </trkpt>
      <trkpt lat="50.58866" lon="3.39227">
        <ele>24.611391</ele>
        <time>2018-07-05T13:54:55Z</time>
      </trkpt>
      <trkpt lat="50.58862" lon="3.39214">
        <ele>24.547413</ele>
        <time>2018-07-05T13:54:57Z</time>
      </trkpt>
      <trkpt lat="50.58858" lon="3.39201">
        <ele>24.720526</ele>
        <time>2018-07-05T13:54:59Z</time>
      </trkpt>
      <trkpt lat="50.58854" lon="3.39188">
        <ele>24.645279</ele>
        <time>2018-07-05T13:55:01Z</time>
      </trkpt>
      <trkpt lat="50.58851" lon="3.39174">
        <ele>24.651127</ele>
        <time>2018-07-05T13:55:03Z</time>
      </trkpt>
      <trkpt lat="50.58847" lon="3.39161">
        <ele>24.780859</ele>
        <time>2018-07-05T13:55:05Z</time>
      </trkpt>
      <trkpt lat="50.58844" lon="3.39147">
        <ele>24.726627</ele>
        <time>2018-07-05T13:55:07Z</time>
      </trkpt>
      <trkpt lat="50.5884" lon="3.39133">
        <ele>24.753742</ele>
        <time>2018-07-05T13:55:09Z</time>
      </trkpt>
      <trkpt lat="50.58836" lon="3.3912">
        <ele>24.738415</ele>
        <time>2018-07-05T13:55:11Z</time>
      </trkpt>
      <trkpt lat="50.58832" lon="3.39106">
        <ele>24.830173</ele>
        <time>2018-07-05T13:55:13Z</time>
      </trkpt>
      <trkpt lat="50.58827" lon="3.39093">
        <ele>24.915684</ele>
        <time>2018-07-05T13:55:15Z</time>
      </trkpt>
      <trkpt lat="50.58822" lon="3.3908">
        <ele>24.955311</ele>
        <time>2018-07-05T13:55:17Z</time>
      </trkpt>
      <trkpt lat="50.58817" lon="3.39068">
        <ele>24.690874</ele>
        <time>2018-07-05T13:55:19Z</time>
      </trkpt>
      <trkpt lat="50.58812" lon="3.39055">
        <ele>24.639599</ele>
        <time>2018-07-05T13:55:21Z</time>
      </trkpt>
      <trkpt lat="50.58807" lon="3.39043">
        <ele>24.646511</ele>
        <time>2018-07-05T13:55:23Z</time>
      </trkpt>
      <trkpt lat="50.58802" lon="3.39031">
        <ele>24.658466</ele>
        <time>2018-07-05T13:55:25Z</time>
      </trkpt>
      <trkpt lat="50.58797" lon="3.39019">
        <ele>24.923328</ele>
        <time>2018-07-05T13:55:27Z</time>
      </trkpt>
      <trkpt lat="50.58791" lon="3.39006">
        <ele>24.829988</ele>
        <time>2018-07-05T13:55:29Z</time>
      </trkpt>
      <trkpt lat="50.58786" lon="3.38993">
        <ele>24.89917</ele>
        <time>2018-07-05T13:55:31Z</time>
      </trkpt>
      <trkpt lat="50.58781" lon="3.3898">
        <ele>24.949213</ele>
        <time>2018-07-05T13:55:33Z</time>
      </trkpt>
      <trkpt lat="50.58776" lon="3.38967">
        <ele>24.988842</ele>
        <time>2018-07-05T13:55:35Z</time>
      </trkpt>
      <trkpt lat="50.58771" lon="3.38953">
        <ele>25.03809</ele>
        <time>2018-07-05T13:55:37Z</time>
      </trkpt>
      <trkpt lat="50.58765" lon="3.3894">
        <ele>24.996363</ele>
        <time>2018-07-05T13:55:39Z</time>
      </trkpt>
      <trkpt lat="50.5876" lon="3.38927">
        <ele>25.094381</ele>
        <time>2018-07-05T13:55:41Z</time>
      </trkpt>
      <trkpt lat="50.58755" lon="3.38914">
        <ele>25.077871</ele>
        <time>2018-07-05T13:55:43Z</time>
      </trkpt>
      <trkpt lat="50.5875" lon="3.38901">
        <ele>25.25556</ele>
        <time>2018-07-05T13:55:45Z</time>
      </trkpt>
      <trkpt lat="50.58744" lon="3.38888">
        <ele>25.029917</ele>
        <time>2018-07-05T13:55:47Z</time>
      </trkpt>
      <trkpt lat="50.58739" lon="3.38875">
        <ele>24.936071</ele>
        <time>2018-07-05T13:55:49Z</time>
      </trkpt>
      <trkpt lat="50.58733" lon="3.38861">
        <ele>24.851967</ele>
        <time>2018-07-05T13:55:51Z</time>
      </trkpt>
      <trkpt lat="50.58728" lon="3.38848">
        <ele>25.03133</ele>
        <time>2018-07-05T13:55:53Z</time>
      </trkpt>
      <trkpt lat="50.58722" lon="3.38835">
        <ele>25.035048</ele>
        <time>2018-07-05T13:55:55Z</time>
      </trkpt>
      <trkpt lat="50.58717" lon="3.38822">
        <ele>25.045759</ele>
        <time>2018-07-05T13:55:57Z</time>
      </trkpt>
      <trkpt lat="50.58711" lon="3.38809">
        <ele>25.085701</ele>
        <time>2018-07-05T13:55:59Z</time>
      </trkpt>
      <trkpt lat="50.58706" lon="3.38796">
        <ele>25.29118</ele>
        <time>2018-07-05T13:56:01Z</time>
      </trkpt>
      <trkpt lat="50.58701" lon="3.38782">
        <ele>25.403893</ele>
        <time>2018-07-05T13:56:03Z</time>
      </trkpt>
      <trkpt lat="50.58697" lon="3.38768">
        <ele>25.389315</ele>
        <time>2018-07-05T13:56:05Z</time>
      </trkpt>
      <trkpt lat="50.58693" lon="3.38754">
        <ele>25.351759</ele>
        <time>2018-07-05T13:56:07Z</time>
      </trkpt>
      <trkpt lat="50.58688" lon="3.3874">
        <ele>25.422676</ele>
        <time>2018-07-05T13:56:09Z</time>
      </trkpt>
      <trkpt lat="50.58685" lon="3.38725">
        <ele>25.556761</ele>
        <time>2018-07-05T13:56:11Z</time>
      </trkpt>
      <trkpt lat="50.58681" lon="3.38709">
        <ele>25.543388</ele>
        <time>2018-07-05T13:56:13Z</time>
      </trkpt>
      <trkpt lat="50.58678" lon="3.38694">
        <ele>25.532961</ele>
        <time>2018-07-05T13:56:15Z</time>
      </trkpt>
      <trkpt lat="50.58674" lon="3.38678">
        <ele>25.691458</ele>
        <time>2018-07-05T13:56:17Z</time>
      </trkpt>
      <trkpt lat="50.58671" lon="3.38663">
        <ele>25.655996</ele>
        <time>2018-07-05T13:56:19Z</time>
      </trkpt>
      <trkpt lat="50.58668" lon="3.38648">
        <ele>25.724274</ele>
        <time>2018-07-05T13:56:21Z</time>
      </trkpt>
      <trkpt lat="50.58665" lon="3.38633">
        <ele>25.632523</ele>
        <time>2018-07-05T13:56:23Z</time>
      </trkpt>
      <trkpt lat="50.58662" lon="3.38618">
        <ele>25.572037</ele>
        <time>2018-07-05T13:56:25Z</time>
      </trkpt>
      <trkpt lat="50.58659" lon="3.38603">
        <ele>25.505291</ele>
        <time>2018-07-05T13:56:27Z</time>
      </trkpt>
      <trkpt lat="50.58656" lon="3.38588">
        <ele>25.692984</ele>
        <time>2018-07-05T13:56:29Z</time>
      </trkpt>
      <trkpt lat="50.58653" lon="3.38573">
        <ele>25.518511</ele>
        <time>2018-07-05T13:56:31Z</time>
      </trkpt>
      <trkpt lat="50.58649" lon="3.38558">
        <ele>25.601933</ele>
        <time>2018-07-05T13:56:33Z</time>
      </trkpt>
      <trkpt lat="50.58646" lon="3.38543">
        <ele>25.530346</ele>
        <time>2018-07-05T13:56:35Z</time>
      </trkpt>
      <trkpt lat="50.58643" lon="3.38528">
        <ele>25.614233</ele>
        <time>2018-07-05T13:56:37Z</time>
      </trkpt>
      <trkpt lat="50.5864" lon="3.38513">
        <ele>25.532616</ele>
        <time>2018-07-05T13:56:39Z</time>
      </trkpt>
      <trkpt lat="50.58637" lon="3.38497">
        <ele>25.515078</ele>
        <time>2018-07-05T13:56:41Z</time>
      </trkpt>
      <trkpt lat="50.58634" lon="3.38481">
        <ele>25.602671</ele>
        <time>2018-07-05T13:56:43Z</time>
      </trkpt>
      <trkpt lat="50.58631" lon="3.38465">
        <ele>25.562931</ele>
        <time>2018-07-05T13:56:45Z</time>
      </trkpt>
      <trkpt lat="50.58629" lon="3.3845">
        <ele>25.633814</ele>
        <time>2018-07-05T13:56:47Z</time>
      </trkpt>
      <trkpt lat="50.58625" lon="3.38434">
        <ele>25.77774</ele>
        <time>2018-07-05T13:56:49Z</time>
      </trkpt>
      <trkpt lat="50.58623" lon="3.38419">
        <ele>25.799526</ele>
        <time>2018-07-05T13:56:51Z</time>
      </trkpt>
      <trkpt lat="50.5862" lon="3.38405">
        <ele>25.860569</ele>
        <time>2018-07-05T13:56:53Z</time>
      </trkpt>
      <trkpt lat="50.58617" lon="3.38389">
        <ele>25.792242</ele>
        <time>2018-07-05T13:56:55Z</time>
      </trkpt>
      <trkpt lat="50.58614" lon="3.38375">
        <ele>25.73177</ele>
        <time>2018-07-05T13:56:57Z</time>
      </trkpt>
      <trkpt lat="50.58611" lon="3.38359">
        <ele>25.66503</ele>
        <time>2018-07-05T13:56:59Z</time>
      </trkpt>
      <trkpt lat="50.58608" lon="3.38345">
        <ele>25.61706</ele>
        <time>2018-07-05T13:57:01Z</time>
      </trkpt>
      <trkpt lat="50.58604" lon="3.3833">
        <ele>25.540455</ele>
        <time>2018-07-05T13:57:03Z</time>
      </trkpt>
      <trkpt lat="50.58601" lon="3.38315">
        <ele>25.627991</ele>
        <time>2018-07-05T13:57:05Z</time>
      </trkpt>
      <trkpt lat="50.58598" lon="3.38299">
        <ele>25.732269</ele>
        <time>2018-07-05T13:57:07Z</time>
      </trkpt>
      <trkpt lat="50.58596" lon="3.38284">
        <ele>25.74062</ele>
        <time>2018-07-05T13:57:09Z</time>
      </trkpt>
      <trkpt lat="50.58593" lon="3.38269">
        <ele>25.861588</ele>
        <time>2018-07-05T13:57:11Z</time>
      </trkpt>
      <trkpt lat="50.58592" lon="3.38253">
        <ele>26.090958</ele>
        <time>2018-07-05T13:57:13Z</time>
      </trkpt>
      <trkpt lat="50.5859" lon="3.38237">
        <ele>26.129162</ele>
        <time>2018-07-05T13:57:15Z</time>
      </trkpt>
      <trkpt lat="50.58589" lon="3.38222">
        <ele>26.095791</ele>
        <time>2018-07-05T13:57:17Z</time>
      </trkpt>
      <trkpt lat="50.58588" lon="3.38206">
        <ele>26.016529</ele>
        <time>2018-07-05T13:57:19Z</time>
      </trkpt>
      <trkpt lat="50.58588" lon="3.3819">
        <ele>26.004019</ele>
        <time>2018-07-05T13:57:21Z</time>
      </trkpt>
      <trkpt lat="50.58588" lon="3.38175">
        <ele>26.053181</ele>
        <time>2018-07-05T13:57:23Z</time>
      </trkpt>
      <trkpt lat="50.58589" lon="3.3816">
        <ele>26.130352</ele>
        <time>2018-07-05T13:57:25Z</time>
      </trkpt>
      <trkpt lat="50.58589" lon="3.38145">
        <ele>26.151224</ele>
        <time>2018-07-05T13:57:27Z</time>
      </trkpt>
      <trkpt lat="50.58589" lon="3.38131">
        <ele>26.178341</ele>
        <time>2018-07-05T13:57:29Z</time>
      </trkpt>
      <trkpt lat="50.58588" lon="3.38116">
        <ele>26.053181</ele>
        <time>2018-07-05T13:57:31Z</time>
      </trkpt>
      <trkpt lat="50.58587" lon="3.38102">
        <ele>26.17627</ele>
        <time>2018-07-05T13:57:33Z</time>
      </trkpt>
      <trkpt lat="50.58585" lon="3.38087">
        <ele>26.27854</ele>
        <time>2018-07-05T13:57:35Z</time>
      </trkpt>
      <trkpt lat="50.58583" lon="3.38073">
        <ele>26.491308</ele>
        <time>2018-07-05T13:57:37Z</time>
      </trkpt>
      <trkpt lat="50.5858" lon="3.38059">
        <ele>26.891834</ele>
        <time>2018-07-05T13:57:39Z</time>
      </trkpt>
      <trkpt lat="50.58577" lon="3.38044">
        <ele>26.989868</ele>
        <time>2018-07-05T13:57:41Z</time>
      </trkpt>
      <trkpt lat="50.58575" lon="3.38029">
        <ele>27.246429</ele>
        <time>2018-07-05T13:57:43Z</time>
      </trkpt>
      <trkpt lat="50.58572" lon="3.38014">
        <ele>27.304831</ele>
        <time>2018-07-05T13:57:45Z</time>
      </trkpt>
      <trkpt lat="50.5857" lon="3.37999">
        <ele>27.327824</ele>
        <time>2018-07-05T13:57:47Z</time>
      </trkpt>
      <trkpt lat="50.58567" lon="3.37985">
        <ele>27.440495</ele>
        <time>2018-07-05T13:57:49Z</time>
      </trkpt>
      <trkpt lat="50.58565" lon="3.3797">
        <ele>27.529327</ele>
        <time>2018-07-05T13:57:51Z</time>
      </trkpt>
      <trkpt lat="50.58562" lon="3.37955">
        <ele>27.554935</ele>
        <time>2018-07-05T13:57:53Z</time>
      </trkpt>
      <trkpt lat="50.58559" lon="3.37939">
        <ele>27.753117</ele>
        <time>2018-07-05T13:57:55Z</time>
      </trkpt>
      <trkpt lat="50.58556" lon="3.37925">
        <ele>27.786503</ele>
        <time>2018-07-05T13:57:57Z</time>
      </trkpt>
      <trkpt lat="50.58552" lon="3.3791">
        <ele>27.90661</ele>
        <time>2018-07-05T13:57:59Z</time>
      </trkpt>
      <trkpt lat="50.58548" lon="3.37895">
        <ele>27.914963</ele>
        <time>2018-07-05T13:58:01Z</time>
      </trkpt>
      <trkpt lat="50.58543" lon="3.37881">
        <ele>28.195923</ele>
        <time>2018-07-05T13:58:03Z</time>
      </trkpt>
      <trkpt lat="50.58538" lon="3.37867">
        <ele>28.293982</ele>
        <time>2018-07-05T13:58:05Z</time>
      </trkpt>
      <trkpt lat="50.58532" lon="3.37853">
        <ele>28.367001</ele>
        <time>2018-07-05T13:58:07Z</time>
      </trkpt>
      <trkpt lat="50.58526" lon="3.37841">
        <ele>28.671579</ele>
        <time>2018-07-05T13:58:09Z</time>
      </trkpt>
      <trkpt lat="50.58519" lon="3.37828">
        <ele>28.907343</ele>
        <time>2018-07-05T13:58:11Z</time>
      </trkpt>
      <trkpt lat="50.58512" lon="3.37816">
        <ele>29.009567</ele>
        <time>2018-07-05T13:58:13Z</time>
      </trkpt>
      <trkpt lat="50.58505" lon="3.37805">
        <ele>29.075781</ele>
        <time>2018-07-05T13:58:15Z</time>
      </trkpt>
      <trkpt lat="50.58497" lon="3.37794">
        <ele>29.146093</ele>
        <time>2018-07-05T13:58:17Z</time>
      </trkpt>
      <trkpt lat="50.58489" lon="3.37784">
        <ele>29.260828</ele>
        <time>2018-07-05T13:58:19Z</time>
      </trkpt>
      <trkpt lat="50.58481" lon="3.37773">
        <ele>29.029242</ele>
        <time>2018-07-05T13:58:21Z</time>
      </trkpt>
      <trkpt lat="50.58473" lon="3.37762">
        <ele>29.112696</ele>
        <time>2018-07-05T13:58:23Z</time>
      </trkpt>
      <trkpt lat="50.58466" lon="3.37751">
        <ele>28.991751</ele>
        <time>2018-07-05T13:58:25Z</time>
      </trkpt>
      <trkpt lat="50.58458" lon="3.3774">
        <ele>29.057266</ele>
        <time>2018-07-05T13:58:27Z</time>
      </trkpt>
      <trkpt lat="50.5845" lon="3.37729">
        <ele>28.986319</ele>
        <time>2018-07-05T13:58:29Z</time>
      </trkpt>
      <trkpt lat="50.58444" lon="3.37717">
        <ele>29.07552</ele>
        <time>2018-07-05T13:58:31Z</time>
      </trkpt>
      <trkpt lat="50.58436" lon="3.37705">
        <ele>29.331547</ele>
        <time>2018-07-05T13:58:33Z</time>
      </trkpt>
      <trkpt lat="50.58429" lon="3.37692">
        <ele>29.246008</ele>
        <time>2018-07-05T13:58:35Z</time>
      </trkpt>
      <trkpt lat="50.58423" lon="3.37679">
        <ele>29.074947</ele>
        <time>2018-07-05T13:58:37Z</time>
      </trkpt>
      <trkpt lat="50.58416" lon="3.37665">
        <ele>29.266867</ele>
        <time>2018-07-05T13:58:39Z</time>
      </trkpt>
      <trkpt lat="50.5841" lon="3.37652">
        <ele>29.520212</ele>
        <time>2018-07-05T13:58:41Z</time>
      </trkpt>
      <trkpt lat="50.58404" lon="3.37638">
        <ele>29.538717</ele>
        <time>2018-07-05T13:58:43Z</time>
      </trkpt>
      <trkpt lat="50.58398" lon="3.37624">
        <ele>29.430241</ele>
        <time>2018-07-05T13:58:45Z</time>
      </trkpt>
      <trkpt lat="50.58394" lon="3.3761">
        <ele>29.211273</ele>
        <time>2018-07-05T13:58:47Z</time>
      </trkpt>
      <trkpt lat="50.58388" lon="3.37596">
        <ele>29.411596</ele>
        <time>2018-07-05T13:58:49Z</time>
      </trkpt>
      <trkpt lat="50.58383" lon="3.37581">
        <ele>29.248636</ele>
        <time>2018-07-05T13:58:51Z</time>
      </trkpt>
      <trkpt lat="50.58379" lon="3.37566">
        <ele>28.931528</ele>
        <time>2018-07-05T13:58:53Z</time>
      </trkpt>
      <trkpt lat="50.58375" lon="3.37551">
        <ele>28.885864</ele>
        <time>2018-07-05T13:58:55Z</time>
      </trkpt>
      <trkpt lat="50.58371" lon="3.37537">
        <ele>28.756491</ele>
        <time>2018-07-05T13:58:57Z</time>
      </trkpt>
      <trkpt lat="50.58367" lon="3.37522">
        <ele>28.737711</ele>
        <time>2018-07-05T13:58:59Z</time>
      </trkpt>
      <trkpt lat="50.58363" lon="3.37507">
        <ele>28.583359</ele>
        <time>2018-07-05T13:59:01Z</time>
      </trkpt>
      <trkpt lat="50.58359" lon="3.37492">
        <ele>28.871349</ele>
        <time>2018-07-05T13:59:03Z</time>
      </trkpt>
      <trkpt lat="50.58356" lon="3.37478">
        <ele>28.867182</ele>
        <time>2018-07-05T13:59:05Z</time>
      </trkpt>
      <trkpt lat="50.58352" lon="3.37463">
        <ele>29.236435</ele>
        <time>2018-07-05T13:59:07Z</time>
      </trkpt>
      <trkpt lat="50.58348" lon="3.37449">
        <ele>29.211849</ele>
        <time>2018-07-05T13:59:09Z</time>
      </trkpt>
      <trkpt lat="50.58344" lon="3.37435">
        <ele>29.157223</ele>
        <time>2018-07-05T13:59:11Z</time>
      </trkpt>
      <trkpt lat="50.58341" lon="3.37421">
        <ele>29.260843</ele>
        <time>2018-07-05T13:59:13Z</time>
      </trkpt>
      <trkpt lat="50.58337" lon="3.37407">
        <ele>29.033421</ele>
        <time>2018-07-05T13:59:15Z</time>
      </trkpt>
      <trkpt lat="50.58333" lon="3.37394">
        <ele>29.171124</ele>
        <time>2018-07-05T13:59:17Z</time>
      </trkpt>
      <trkpt lat="50.58329" lon="3.3738">
        <ele>29.383892</ele>
        <time>2018-07-05T13:59:19Z</time>
      </trkpt>
      <trkpt lat="50.58323" lon="3.37366">
        <ele>29.377625</ele>
        <time>2018-07-05T13:59:21Z</time>
      </trkpt>
      <trkpt lat="50.58318" lon="3.37352">
        <ele>29.196081</ele>
        <time>2018-07-05T13:59:23Z</time>
      </trkpt>
      <trkpt lat="50.58312" lon="3.37338">
        <ele>29.202322</ele>
        <time>2018-07-05T13:59:25Z</time>
      </trkpt>
      <trkpt lat="50.58306" lon="3.37325">
        <ele>29.271168</ele>
        <time>2018-07-05T13:59:27Z</time>
      </trkpt>
      <trkpt lat="50.583" lon="3.37311">
        <ele>29.588215</ele>
        <time>2018-07-05T13:59:29Z</time>
      </trkpt>
      <trkpt lat="50.58294" lon="3.37298">
        <ele>29.511234</ele>
        <time>2018-07-05T13:59:31Z</time>
      </trkpt>
      <trkpt lat="50.58288" lon="3.37285">
        <ele>29.730322</ele>
        <time>2018-07-05T13:59:33Z</time>
      </trkpt>
      <trkpt lat="50.58283" lon="3.37272">
        <ele>29.851313</ele>
        <time>2018-07-05T13:59:35Z</time>
      </trkpt>
      <trkpt lat="50.58277" lon="3.3726">
        <ele>29.872702</ele>
        <time>2018-07-05T13:59:37Z</time>
      </trkpt>
      <trkpt lat="50.58271" lon="3.37247">
        <ele>30.050549</ele>
        <time>2018-07-05T13:59:39Z</time>
      </trkpt>
      <trkpt lat="50.58265" lon="3.37234">
        <ele>29.969173</ele>
        <time>2018-07-05T13:59:41Z</time>
      </trkpt>
      <trkpt lat="50.58259" lon="3.37221">
        <ele>29.92745</ele>
        <time>2018-07-05T13:59:43Z</time>
      </trkpt>
      <trkpt lat="50.58253" lon="3.37208">
        <ele>29.745926</ele>
        <time>2018-07-05T13:59:45Z</time>
      </trkpt>
      <trkpt lat="50.58247" lon="3.37194">
        <ele>29.639505</ele>
        <time>2018-07-05T13:59:47Z</time>
      </trkpt>
      <trkpt lat="50.58241" lon="3.37181">
        <ele>29.193707</ele>
        <time>2018-07-05T13:59:49Z</time>
      </trkpt>
      <trkpt lat="50.58235" lon="3.37167">
        <ele>29.16328</ele>
        <time>2018-07-05T13:59:51Z</time>
      </trkpt>
      <trkpt lat="50.58229" lon="3.37154">
        <ele>29.179951</ele>
        <time>2018-07-05T13:59:53Z</time>
      </trkpt>
      <trkpt lat="50.58224" lon="3.37142">
        <ele>28.994251</ele>
        <time>2018-07-05T13:59:55Z</time>
      </trkpt>
      <trkpt lat="50.58218" lon="3.37128">
        <ele>28.923304</ele>
        <time>2018-07-05T13:59:57Z</time>
      </trkpt>
      <trkpt lat="50.58213" lon="3.37115">
        <ele>28.950439</ele>
        <time>2018-07-05T13:59:59Z</time>
      </trkpt>
      <trkpt lat="50.58208" lon="3.37101">
        <ele>28.921246</ele>
        <time>2018-07-05T14:00:01Z</time>
      </trkpt>
      <trkpt lat="50.58203" lon="3.37087">
        <ele>28.883091</ele>
        <time>2018-07-05T14:00:03Z</time>
      </trkpt>
      <trkpt lat="50.58199" lon="3.37072">
        <ele>28.910025</ele>
        <time>2018-07-05T14:00:05Z</time>
      </trkpt>
      <trkpt lat="50.58194" lon="3.37058">
        <ele>28.864124</ele>
        <time>2018-07-05T14:00:07Z</time>
      </trkpt>
      <trkpt lat="50.58189" lon="3.37044">
        <ele>28.835474</ele>
        <time>2018-07-05T14:00:09Z</time>
      </trkpt>
      <trkpt lat="50.58184" lon="3.37031">
        <ele>28.678965</ele>
        <time>2018-07-05T14:00:11Z</time>
      </trkpt>
      <trkpt lat="50.58178" lon="3.37018">
        <ele>28.660177</ele>
        <time>2018-07-05T14:00:13Z</time>
      </trkpt>
      <trkpt lat="50.58172" lon="3.37005">
        <ele>28.63509</ele>
        <time>2018-07-05T14:00:15Z</time>
      </trkpt>
      <trkpt lat="50.58166" lon="3.36992">
        <ele>28.578564</ele>
        <time>2018-07-05T14:00:17Z</time>
      </trkpt>
      <trkpt lat="50.5816" lon="3.36979">
        <ele>28.496685</ele>
        <time>2018-07-05T14:00:19Z</time>
      </trkpt>
      <trkpt lat="50.58154" lon="3.36966">
        <ele>28.552319</ele>
        <time>2018-07-05T14:00:21Z</time>
      </trkpt>
      <trkpt lat="50.58148" lon="3.36953">
        <ele>28.669144</ele>
        <time>2018-07-05T14:00:23Z</time>
      </trkpt>
      <trkpt lat="50.58142" lon="3.3694">
        <ele>28.854788</ele>
        <time>2018-07-05T14:00:25Z</time>
      </trkpt>
      <trkpt lat="50.58135" lon="3.36928">
        <ele>28.856808</ele>
        <time>2018-07-05T14:00:27Z</time>
      </trkpt>
      <trkpt lat="50.58129" lon="3.36916">
        <ele>29.186279</ele>
        <time>2018-07-05T14:00:29Z</time>
      </trkpt>
      <trkpt lat="50.58123" lon="3.36905">
        <ele>29.28384</ele>
        <time>2018-07-05T14:00:31Z</time>
      </trkpt>
      <trkpt lat="50.58117" lon="3.36894">
        <ele>29.449062</ele>
        <time>2018-07-05T14:00:33Z</time>
      </trkpt>
      <trkpt lat="50.58111" lon="3.36883">
        <ele>29.597698</ele>
        <time>2018-07-05T14:00:35Z</time>
      </trkpt>
      <trkpt lat="50.58104" lon="3.36871">
        <ele>29.654022</ele>
        <time>2018-07-05T14:00:37Z</time>
      </trkpt>
      <trkpt lat="50.58098" lon="3.3686">
        <ele>29.727051</ele>
        <time>2018-07-05T14:00:39Z</time>
      </trkpt>
      <trkpt lat="50.58091" lon="3.36849">
        <ele>29.806326</ele>
        <time>2018-07-05T14:00:41Z</time>
      </trkpt>
      <trkpt lat="50.58083" lon="3.36839">
        <ele>29.792225</ele>
        <time>2018-07-05T14:00:43Z</time>
      </trkpt>
      <trkpt lat="50.58075" lon="3.36828">
        <ele>30.067856</ele>
        <time>2018-07-05T14:00:45Z</time>
      </trkpt>
      <trkpt lat="50.58068" lon="3.36815">
        <ele>30.124186</ele>
        <time>2018-07-05T14:00:47Z</time>
      </trkpt>
      <trkpt lat="50.58061" lon="3.36803">
        <ele>30.102762</ele>
        <time>2018-07-05T14:00:49Z</time>
      </trkpt>
      <trkpt lat="50.58054" lon="3.36789">
        <ele>30.069382</ele>
        <time>2018-07-05T14:00:51Z</time>
      </trkpt>
      <trkpt lat="50.58048" lon="3.36775">
        <ele>30.050608</ele>
        <time>2018-07-05T14:00:53Z</time>
      </trkpt>
      <trkpt lat="50.58042" lon="3.36761">
        <ele>30.010962</ele>
        <time>2018-07-05T14:00:55Z</time>
      </trkpt>
      <trkpt lat="50.58036" lon="3.36746">
        <ele>29.984793</ele>
        <time>2018-07-05T14:00:57Z</time>
      </trkpt>
      <trkpt lat="50.5803" lon="3.36733">
        <ele>30.08287</ele>
        <time>2018-07-05T14:00:59Z</time>
      </trkpt>
      <trkpt lat="50.58024" lon="3.36719">
        <ele>30.220575</ele>
        <time>2018-07-05T14:01:01Z</time>
      </trkpt>
      <trkpt lat="50.58019" lon="3.36705">
        <ele>30.14616</ele>
        <time>2018-07-05T14:01:03Z</time>
      </trkpt>
      <trkpt lat="50.58013" lon="3.36691">
        <ele>30.14201</ele>
        <time>2018-07-05T14:01:05Z</time>
      </trkpt>
      <trkpt lat="50.58008" lon="3.36677">
        <ele>30.058554</ele>
        <time>2018-07-05T14:01:07Z</time>
      </trkpt>
      <trkpt lat="50.58003" lon="3.36663">
        <ele>30.273502</ele>
        <time>2018-07-05T14:01:09Z</time>
      </trkpt>
      <trkpt lat="50.57998" lon="3.3665">
        <ele>30.190052</ele>
        <time>2018-07-05T14:01:11Z</time>
      </trkpt>
      <trkpt lat="50.57993" lon="3.36637">
        <ele>30.000122</ele>
        <time>2018-07-05T14:01:13Z</time>
      </trkpt>
      <trkpt lat="50.57988" lon="3.36625">
        <ele>30.160303</ele>
        <time>2018-07-05T14:01:15Z</time>
      </trkpt>
      <trkpt lat="50.57984" lon="3.36612">
        <ele>30.25211</ele>
        <time>2018-07-05T14:01:17Z</time>
      </trkpt>
      <trkpt lat="50.57979" lon="3.366">
        <ele>30.224976</ele>
        <time>2018-07-05T14:01:19Z</time>
      </trkpt>
      <trkpt lat="50.57974" lon="3.36587">
        <ele>30.448267</ele>
        <time>2018-07-05T14:01:21Z</time>
      </trkpt>
      <trkpt lat="50.5797" lon="3.36574">
        <ele>30.487925</ele>
        <time>2018-07-05T14:01:23Z</time>
      </trkpt>
      <trkpt lat="50.57966" lon="3.36561">
        <ele>30.425449</ele>
        <time>2018-07-05T14:01:25Z</time>
      </trkpt>
      <trkpt lat="50.57962" lon="3.36548">
        <ele>30.429676</ele>
        <time>2018-07-05T14:01:27Z</time>
      </trkpt>
      <trkpt lat="50.57958" lon="3.36536">
        <ele>30.579651</ele>
        <time>2018-07-05T14:01:29Z</time>
      </trkpt>
      <trkpt lat="50.57953" lon="3.36523">
        <ele>30.617977</ele>
        <time>2018-07-05T14:01:31Z</time>
      </trkpt>
      <trkpt lat="50.5795" lon="3.36511">
        <ele>30.88299</ele>
        <time>2018-07-05T14:01:33Z</time>
      </trkpt>
      <trkpt lat="50.57946" lon="3.36498">
        <ele>30.95393</ele>
        <time>2018-07-05T14:01:35Z</time>
      </trkpt>
      <trkpt lat="50.57942" lon="3.36486">
        <ele>31.026947</ele>
        <time>2018-07-05T14:01:37Z</time>
      </trkpt>
      <trkpt lat="50.57938" lon="3.36473">
        <ele>30.875763</ele>
        <time>2018-07-05T14:01:39Z</time>
      </trkpt>
      <trkpt lat="50.57934" lon="3.36459">
        <ele>30.800678</ele>
        <time>2018-07-05T14:01:41Z</time>
      </trkpt>
      <trkpt lat="50.5793" lon="3.36446">
        <ele>30.809025</ele>
        <time>2018-07-05T14:01:43Z</time>
      </trkpt>
      <trkpt lat="50.57925" lon="3.36432">
        <ele>30.934195</ele>
        <time>2018-07-05T14:01:45Z</time>
      </trkpt>
      <trkpt lat="50.5792" lon="3.36419">
        <ele>30.888281</ele>
        <time>2018-07-05T14:01:47Z</time>
      </trkpt>
      <trkpt lat="50.57916" lon="3.36406">
        <ele>30.86948</ele>
        <time>2018-07-05T14:01:49Z</time>
      </trkpt>
      <trkpt lat="50.57911" lon="3.36393">
        <ele>30.794348</ele>
        <time>2018-07-05T14:01:51Z</time>
      </trkpt>
      <trkpt lat="50.57906" lon="3.3638">
        <ele>30.992207</ele>
        <time>2018-07-05T14:01:53Z</time>
      </trkpt>
      <trkpt lat="50.57902" lon="3.36367">
        <ele>30.971354</ele>
        <time>2018-07-05T14:01:55Z</time>
      </trkpt>
      <trkpt lat="50.57897" lon="3.36353">
        <ele>30.846157</ele>
        <time>2018-07-05T14:01:57Z</time>
      </trkpt>
      <trkpt lat="50.57893" lon="3.3634">
        <ele>30.641712</ele>
        <time>2018-07-05T14:01:59Z</time>
      </trkpt>
      <trkpt lat="50.57888" lon="3.36327">
        <ele>30.714748</ele>
        <time>2018-07-05T14:02:01Z</time>
      </trkpt>
      <trkpt lat="50.57884" lon="3.36315">
        <ele>30.683437</ele>
        <time>2018-07-05T14:02:03Z</time>
      </trkpt>
      <trkpt lat="50.5788" lon="3.36303">
        <ele>30.602047</ele>
        <time>2018-07-05T14:02:05Z</time>
      </trkpt>
      <trkpt lat="50.57875" lon="3.3629">
        <ele>30.253534</ele>
        <time>2018-07-05T14:02:07Z</time>
      </trkpt>
      <trkpt lat="50.57871" lon="3.36276">
        <ele>30.385014</ele>
        <time>2018-07-05T14:02:09Z</time>
      </trkpt>
      <trkpt lat="50.57866" lon="3.36263">
        <ele>30.443283</ele>
        <time>2018-07-05T14:02:11Z</time>
      </trkpt>
      <trkpt lat="50.57861" lon="3.36249">
        <ele>30.525986</ele>
        <time>2018-07-05T14:02:13Z</time>
      </trkpt>
      <trkpt lat="50.57856" lon="3.36236">
        <ele>30.573528</ele>
        <time>2018-07-05T14:02:15Z</time>
      </trkpt>
      <trkpt lat="50.57851" lon="3.36223">
        <ele>30.50885</ele>
        <time>2018-07-05T14:02:17Z</time>
      </trkpt>
      <trkpt lat="50.57847" lon="3.3621">
        <ele>30.575632</ele>
        <time>2018-07-05T14:02:19Z</time>
      </trkpt>
      <trkpt lat="50.57842" lon="3.36197">
        <ele>30.717524</ele>
        <time>2018-07-05T14:02:21Z</time>
      </trkpt>
      <trkpt lat="50.57835" lon="3.36186">
        <ele>30.842005</ele>
        <time>2018-07-05T14:02:23Z</time>
      </trkpt>
      <trkpt lat="50.57828" lon="3.36174">
        <ele>30.787802</ele>
        <time>2018-07-05T14:02:25Z</time>
      </trkpt>
      <trkpt lat="50.57821" lon="3.36164">
        <ele>30.878244</ele>
        <time>2018-07-05T14:02:27Z</time>
      </trkpt>
      <trkpt lat="50.57814" lon="3.36153">
        <ele>30.782284</ele>
        <time>2018-07-05T14:02:29Z</time>
      </trkpt>
      <trkpt lat="50.57808" lon="3.36143">
        <ele>30.792719</ele>
        <time>2018-07-05T14:02:31Z</time>
      </trkpt>
      <trkpt lat="50.57803" lon="3.36131">
        <ele>30.805597</ele>
        <time>2018-07-05T14:02:33Z</time>
      </trkpt>
      <trkpt lat="50.57799" lon="3.36116">
        <ele>30.605978</ele>
        <time>2018-07-05T14:02:35Z</time>
      </trkpt>
      <trkpt lat="50.57797" lon="3.36101">
        <ele>30.420307</ele>
        <time>2018-07-05T14:02:37Z</time>
      </trkpt>
      <trkpt lat="50.57795" lon="3.36086">
        <ele>30.606012</ele>
        <time>2018-07-05T14:02:39Z</time>
      </trkpt>
      <trkpt lat="50.57794" lon="3.36071">
        <ele>30.825064</ele>
        <time>2018-07-05T14:02:41Z</time>
      </trkpt>
      <trkpt lat="50.57793" lon="3.36055">
        <ele>30.760372</ele>
        <time>2018-07-05T14:02:43Z</time>
      </trkpt>
      <trkpt lat="50.57793" lon="3.3604">
        <ele>30.831318</ele>
        <time>2018-07-05T14:02:45Z</time>
      </trkpt>
      <trkpt lat="50.57793" lon="3.36025">
        <ele>30.906635</ele>
        <time>2018-07-05T14:02:47Z</time>
      </trkpt>
      <trkpt lat="50.57792" lon="3.36011">
        <ele>31.106907</ele>
        <time>2018-07-05T14:02:49Z</time>
      </trkpt>
      <trkpt lat="50.5779" lon="3.35972">
        <ele>30.839798</ele>
        <time>2018-07-05T14:02:54Z</time>
      </trkpt>
      <trkpt lat="50.57788" lon="3.35956">
        <ele>30.783752</ele>
        <time>2018-07-05T14:02:56Z</time>
      </trkpt>
      <trkpt lat="50.57784" lon="3.35943">
        <ele>30.650192</ele>
        <time>2018-07-05T14:02:58Z</time>
      </trkpt>
      <trkpt lat="50.57778" lon="3.35931">
        <ele>30.585835</ele>
        <time>2018-07-05T14:03:00Z</time>
      </trkpt>
      <trkpt lat="50.57772" lon="3.3592">
        <ele>30.678738</ele>
        <time>2018-07-05T14:03:02Z</time>
      </trkpt>
      <trkpt lat="50.57764" lon="3.3591">
        <ele>30.589008</ele>
        <time>2018-07-05T14:03:04Z</time>
      </trkpt>
      <trkpt lat="50.57756" lon="3.35899">
        <ele>30.543097</ele>
        <time>2018-07-05T14:03:06Z</time>
      </trkpt>
      <trkpt lat="50.57749" lon="3.3589">
        <ele>30.53896</ele>
        <time>2018-07-05T14:03:08Z</time>
      </trkpt>
      <trkpt lat="50.57741" lon="3.35881">
        <ele>30.674545</ele>
        <time>2018-07-05T14:03:10Z</time>
      </trkpt>
      <trkpt lat="50.57733" lon="3.35871">
        <ele>30.504827</ele>
        <time>2018-07-05T14:03:12Z</time>
      </trkpt>
      <trkpt lat="50.57724" lon="3.35864">
        <ele>30.621658</ele>
        <time>2018-07-05T14:03:14Z</time>
      </trkpt>
      <trkpt lat="50.57715" lon="3.35859">
        <ele>30.669064</ele>
        <time>2018-07-05T14:03:16Z</time>
      </trkpt>
      <trkpt lat="50.57706" lon="3.35857">
        <ele>30.731836</ele>
        <time>2018-07-05T14:03:18Z</time>
      </trkpt>
      <trkpt lat="50.57696" lon="3.35857">
        <ele>30.811604</ele>
        <time>2018-07-05T14:03:20Z</time>
      </trkpt>
      <trkpt lat="50.57687" lon="3.35858">
        <ele>31.049427</ele>
        <time>2018-07-05T14:03:22Z</time>
      </trkpt>
      <trkpt lat="50.57678" lon="3.35858">
        <ele>31.022629</ele>
        <time>2018-07-05T14:03:24Z</time>
      </trkpt>
      <trkpt lat="50.57668" lon="3.35858">
        <ele>31.129551</ele>
        <time>2018-07-05T14:03:26Z</time>
      </trkpt>
      <trkpt lat="50.57658" lon="3.35856">
        <ele>31.110651</ele>
        <time>2018-07-05T14:03:28Z</time>
      </trkpt>
      <trkpt lat="50.5765" lon="3.3585">
        <ele>31.008392</ele>
        <time>2018-07-05T14:03:30Z</time>
      </trkpt>
      <trkpt lat="50.57644" lon="3.35839">
        <ele>30.993586</ele>
        <time>2018-07-05T14:03:32Z</time>
      </trkpt>
      <trkpt lat="50.57639" lon="3.35827">
        <ele>31.073969</ele>
        <time>2018-07-05T14:03:34Z</time>
      </trkpt>
      <trkpt lat="50.57637" lon="3.35813">
        <ele>31.324377</ele>
        <time>2018-07-05T14:03:36Z</time>
      </trkpt>
      <trkpt lat="50.57633" lon="3.35799">
        <ele>31.537403</ele>
        <time>2018-07-05T14:03:38Z</time>
      </trkpt>
      <trkpt lat="50.5763" lon="3.35785">
        <ele>31.627827</ele>
        <time>2018-07-05T14:03:40Z</time>
      </trkpt>
      <trkpt lat="50.57626" lon="3.3577">
        <ele>31.767323</ele>
        <time>2018-07-05T14:03:42Z</time>
      </trkpt>
      <trkpt lat="50.57624" lon="3.35756">
        <ele>32.00666</ele>
        <time>2018-07-05T14:03:44Z</time>
      </trkpt>
      <trkpt lat="50.5762" lon="3.35742">
        <ele>32.129791</ele>
        <time>2018-07-05T14:03:46Z</time>
      </trkpt>
      <trkpt lat="50.57617" lon="3.35728">
        <ele>32.228981</ele>
        <time>2018-07-05T14:03:48Z</time>
      </trkpt>
      <trkpt lat="50.57614" lon="3.35713">
        <ele>32.46273</ele>
        <time>2018-07-05T14:03:50Z</time>
      </trkpt>
      <trkpt lat="50.57611" lon="3.35699">
        <ele>32.683014</ele>
        <time>2018-07-05T14:03:52Z</time>
      </trkpt>
      <trkpt lat="50.57608" lon="3.35685">
        <ele>33.002304</ele>
        <time>2018-07-05T14:03:54Z</time>
      </trkpt>
      <trkpt lat="50.57605" lon="3.35671">
        <ele>33.208931</ele>
        <time>2018-07-05T14:03:56Z</time>
      </trkpt>
      <trkpt lat="50.57602" lon="3.35656">
        <ele>33.487171</ele>
        <time>2018-07-05T14:03:58Z</time>
      </trkpt>
      <trkpt lat="50.57599" lon="3.35642">
        <ele>34.026733</ele>
        <time>2018-07-05T14:04:00Z</time>
      </trkpt>
      <trkpt lat="50.57596" lon="3.35626">
        <ele>34.139442</ele>
        <time>2018-07-05T14:04:02Z</time>
      </trkpt>
      <trkpt lat="50.57593" lon="3.35612">
        <ele>34.427803</ele>
        <time>2018-07-05T14:04:04Z</time>
      </trkpt>
      <trkpt lat="50.57591" lon="3.35597">
        <ele>34.677349</ele>
        <time>2018-07-05T14:04:06Z</time>
      </trkpt>
      <trkpt lat="50.57588" lon="3.35582">
        <ele>34.724873</ele>
        <time>2018-07-05T14:04:08Z</time>
      </trkpt>
      <trkpt lat="50.57586" lon="3.35566">
        <ele>35.004688</ele>
        <time>2018-07-05T14:04:10Z</time>
      </trkpt>
      <trkpt lat="50.57583" lon="3.35551">
        <ele>35.296196</ele>
        <time>2018-07-05T14:04:12Z</time>
      </trkpt>
      <trkpt lat="50.57581" lon="3.35536">
        <ele>35.668808</ele>
        <time>2018-07-05T14:04:14Z</time>
      </trkpt>
      <trkpt lat="50.57579" lon="3.3552">
        <ele>36.090675</ele>
        <time>2018-07-05T14:04:16Z</time>
      </trkpt>
      <trkpt lat="50.57576" lon="3.35505">
        <ele>36.441422</ele>
        <time>2018-07-05T14:04:18Z</time>
      </trkpt>
      <trkpt lat="50.57573" lon="3.35489">
        <ele>36.403839</ele>
        <time>2018-07-05T14:04:20Z</time>
      </trkpt>
      <trkpt lat="50.57571" lon="3.35474">
        <ele>36.650681</ele>
        <time>2018-07-05T14:04:22Z</time>
      </trkpt>
      <trkpt lat="50.57568" lon="3.35459">
        <ele>36.815609</ele>
        <time>2018-07-05T14:04:24Z</time>
      </trkpt>
      <trkpt lat="50.57566" lon="3.35443">
        <ele>36.899117</ele>
        <time>2018-07-05T14:04:26Z</time>
      </trkpt>
      <trkpt lat="50.57564" lon="3.35428">
        <ele>37.143028</ele>
        <time>2018-07-05T14:04:28Z</time>
      </trkpt>
      <trkpt lat="50.57561" lon="3.35412">
        <ele>37.370152</ele>
        <time>2018-07-05T14:04:30Z</time>
      </trkpt>
      <trkpt lat="50.57558" lon="3.35397">
        <ele>37.510044</ele>
        <time>2018-07-05T14:04:32Z</time>
      </trkpt>
      <trkpt lat="50.57556" lon="3.35381">
        <ele>37.656818</ele>
        <time>2018-07-05T14:04:34Z</time>
      </trkpt>
      <trkpt lat="50.57554" lon="3.35365">
        <ele>37.761204</ele>
        <time>2018-07-05T14:04:36Z</time>
      </trkpt>
      <trkpt lat="50.57551" lon="3.35349">
        <ele>37.825924</ele>
        <time>2018-07-05T14:04:38Z</time>
      </trkpt>
      <trkpt lat="50.57549" lon="3.35334">
        <ele>37.802956</ele>
        <time>2018-07-05T14:04:40Z</time>
      </trkpt>
      <trkpt lat="50.57546" lon="3.35318">
        <ele>37.470757</ele>
        <time>2018-07-05T14:04:42Z</time>
      </trkpt>
      <trkpt lat="50.57544" lon="3.35302">
        <ele>37.602028</ele>
        <time>2018-07-05T14:04:44Z</time>
      </trkpt>
      <trkpt lat="50.57541" lon="3.35286">
        <ele>37.554604</ele>
        <time>2018-07-05T14:04:46Z</time>
      </trkpt>
      <trkpt lat="50.57538" lon="3.3527">
        <ele>37.606804</ele>
        <time>2018-07-05T14:04:48Z</time>
      </trkpt>
      <trkpt lat="50.57536" lon="3.35253">
        <ele>37.721935</ele>
        <time>2018-07-05T14:04:50Z</time>
      </trkpt>
      <trkpt lat="50.57534" lon="3.35236">
        <ele>37.845135</ele>
        <time>2018-07-05T14:04:52Z</time>
      </trkpt>
      <trkpt lat="50.57531" lon="3.35219">
        <ele>37.866726</ele>
        <time>2018-07-05T14:04:54Z</time>
      </trkpt>
      <trkpt lat="50.57529" lon="3.35202">
        <ele>37.507645</ele>
        <time>2018-07-05T14:04:56Z</time>
      </trkpt>
      <trkpt lat="50.57526" lon="3.35186">
        <ele>37.165108</ele>
        <time>2018-07-05T14:04:58Z</time>
      </trkpt>
      <trkpt lat="50.57524" lon="3.3517">
        <ele>36.847755</ele>
        <time>2018-07-05T14:05:00Z</time>
      </trkpt>
      <trkpt lat="50.57521" lon="3.35153">
        <ele>36.641838</ele>
        <time>2018-07-05T14:05:02Z</time>
      </trkpt>
      <trkpt lat="50.57518" lon="3.35136">
        <ele>36.446457</ele>
        <time>2018-07-05T14:05:04Z</time>
      </trkpt>
      <trkpt lat="50.57515" lon="3.35119">
        <ele>36.406792</ele>
        <time>2018-07-05T14:05:06Z</time>
      </trkpt>
      <trkpt lat="50.57509" lon="3.35104">
        <ele>36.304489</ele>
        <time>2018-07-05T14:05:08Z</time>
      </trkpt>
      <trkpt lat="50.57502" lon="3.35091">
        <ele>36.06266</ele>
        <time>2018-07-05T14:05:10Z</time>
      </trkpt>
      <trkpt lat="50.57493" lon="3.3508">
        <ele>35.885201</ele>
        <time>2018-07-05T14:05:12Z</time>
      </trkpt>
      <trkpt lat="50.57483" lon="3.35071">
        <ele>35.766182</ele>
        <time>2018-07-05T14:05:14Z</time>
      </trkpt>
      <trkpt lat="50.57473" lon="3.35061">
        <ele>35.581043</ele>
        <time>2018-07-05T14:05:16Z</time>
      </trkpt>
      <trkpt lat="50.57464" lon="3.35052">
        <ele>35.455784</ele>
        <time>2018-07-05T14:05:18Z</time>
      </trkpt>
      <trkpt lat="50.57454" lon="3.35043">
        <ele>35.351398</ele>
        <time>2018-07-05T14:05:20Z</time>
      </trkpt>
      <trkpt lat="50.57445" lon="3.35034">
        <ele>35.198997</ele>
        <time>2018-07-05T14:05:22Z</time>
      </trkpt>
      <trkpt lat="50.57436" lon="3.35025">
        <ele>35.169769</ele>
        <time>2018-07-05T14:05:24Z</time>
      </trkpt>
      <trkpt lat="50.57427" lon="3.35016">
        <ele>34.988113</ele>
        <time>2018-07-05T14:05:26Z</time>
      </trkpt>
      <trkpt lat="50.57419" lon="3.35007">
        <ele>34.852074</ele>
        <time>2018-07-05T14:05:28Z</time>
      </trkpt>
      <trkpt lat="50.5741" lon="3.34998">
        <ele>34.655273</ele>
        <time>2018-07-05T14:05:30Z</time>
      </trkpt>
      <trkpt lat="50.57402" lon="3.34989">
        <ele>34.532661</ele>
        <time>2018-07-05T14:05:32Z</time>
      </trkpt>
      <trkpt lat="50.57394" lon="3.34979">
        <ele>34.357288</ele>
        <time>2018-07-05T14:05:34Z</time>
      </trkpt>
      <trkpt lat="50.57386" lon="3.34969">
        <ele>34.34473</ele>
        <time>2018-07-05T14:05:36Z</time>
      </trkpt>
      <trkpt lat="50.57378" lon="3.34961">
        <ele>34.315498</ele>
        <time>2018-07-05T14:05:38Z</time>
      </trkpt>
      <trkpt lat="50.5737" lon="3.34952">
        <ele>34.486656</ele>
        <time>2018-07-05T14:05:40Z</time>
      </trkpt>
      <trkpt lat="50.57362" lon="3.34941">
        <ele>34.471363</ele>
        <time>2018-07-05T14:05:42Z</time>
      </trkpt>
      <trkpt lat="50.57356" lon="3.34929">
        <ele>34.673794</ele>
        <time>2018-07-05T14:05:44Z</time>
      </trkpt>
      <trkpt lat="50.57352" lon="3.34915">
        <ele>34.734482</ele>
        <time>2018-07-05T14:05:46Z</time>
      </trkpt>
      <trkpt lat="50.57348" lon="3.349">
        <ele>34.747009</ele>
        <time>2018-07-05T14:05:48Z</time>
      </trkpt>
      <trkpt lat="50.57346" lon="3.34886">
        <ele>34.69899</ele>
        <time>2018-07-05T14:05:50Z</time>
      </trkpt>
      <trkpt lat="50.57342" lon="3.34871">
        <ele>34.828415</ele>
        <time>2018-07-05T14:05:52Z</time>
      </trkpt>
      <trkpt lat="50.57338" lon="3.34856">
        <ele>34.845116</ele>
        <time>2018-07-05T14:05:54Z</time>
      </trkpt>
      <trkpt lat="50.57335" lon="3.3484">
        <ele>34.840588</ele>
        <time>2018-07-05T14:05:56Z</time>
      </trkpt>
      <trkpt lat="50.57331" lon="3.34825">
        <ele>34.917068</ele>
        <time>2018-07-05T14:05:58Z</time>
      </trkpt>
      <trkpt lat="50.57327" lon="3.3481">
        <ele>35.017277</ele>
        <time>2018-07-05T14:06:00Z</time>
      </trkpt>
      <trkpt lat="50.57324" lon="3.34794">
        <ele>35.026146</ele>
        <time>2018-07-05T14:06:02Z</time>
      </trkpt>
      <trkpt lat="50.57322" lon="3.34778">
        <ele>35.126793</ele>
        <time>2018-07-05T14:06:04Z</time>
      </trkpt>
      <trkpt lat="50.57321" lon="3.34762">
        <ele>35.176891</ele>
        <time>2018-07-05T14:06:06Z</time>
      </trkpt>
      <trkpt lat="50.57319" lon="3.34745">
        <ele>35.21447</ele>
        <time>2018-07-05T14:06:08Z</time>
      </trkpt>
      <trkpt lat="50.57318" lon="3.34729">
        <ele>35.358856</ele>
        <time>2018-07-05T14:06:10Z</time>
      </trkpt>
      <trkpt lat="50.57316" lon="3.34714">
        <ele>35.44622</ele>
        <time>2018-07-05T14:06:12Z</time>
      </trkpt>
      <trkpt lat="50.57315" lon="3.34698">
        <ele>35.458748</ele>
        <time>2018-07-05T14:06:14Z</time>
      </trkpt>
      <trkpt lat="50.57314" lon="3.34682">
        <ele>35.613144</ele>
        <time>2018-07-05T14:06:16Z</time>
      </trkpt>
      <trkpt lat="50.57312" lon="3.34667">
        <ele>35.738094</ele>
        <time>2018-07-05T14:06:18Z</time>
      </trkpt>
      <trkpt lat="50.57311" lon="3.34652">
        <ele>35.875889</ele>
        <time>2018-07-05T14:06:20Z</time>
      </trkpt>
      <trkpt lat="50.57309" lon="3.34637">
        <ele>35.869625</ele>
        <time>2018-07-05T14:06:22Z</time>
      </trkpt>
      <trkpt lat="50.57307" lon="3.34622">
        <ele>35.969833</ele>
        <time>2018-07-05T14:06:24Z</time>
      </trkpt>
      <trkpt lat="50.57305" lon="3.34607">
        <ele>36.001156</ele>
        <time>2018-07-05T14:06:26Z</time>
      </trkpt>
      <trkpt lat="50.57301" lon="3.34593">
        <ele>36.089195</ele>
        <time>2018-07-05T14:06:28Z</time>
      </trkpt>
      <trkpt lat="50.57298" lon="3.34579">
        <ele>36.116356</ele>
        <time>2018-07-05T14:06:30Z</time>
      </trkpt>
      <trkpt lat="50.57293" lon="3.34565">
        <ele>36.193203</ele>
        <time>2018-07-05T14:06:32Z</time>
      </trkpt>
      <trkpt lat="50.5729" lon="3.34552">
        <ele>36.408279</ele>
        <time>2018-07-05T14:06:34Z</time>
      </trkpt>
      <trkpt lat="50.57286" lon="3.34537">
        <ele>36.500149</ele>
        <time>2018-07-05T14:06:36Z</time>
      </trkpt>
      <trkpt lat="50.57282" lon="3.34522">
        <ele>36.676304</ele>
        <time>2018-07-05T14:06:38Z</time>
      </trkpt>
      <trkpt lat="50.57277" lon="3.34508">
        <ele>36.941494</ele>
        <time>2018-07-05T14:06:40Z</time>
      </trkpt>
      <trkpt lat="50.57273" lon="3.34493">
        <ele>36.981174</ele>
        <time>2018-07-05T14:06:42Z</time>
      </trkpt>
      <trkpt lat="50.57269" lon="3.34479">
        <ele>37.339699</ele>
        <time>2018-07-05T14:06:44Z</time>
      </trkpt>
      <trkpt lat="50.57264" lon="3.34464">
        <ele>37.537624</ele>
        <time>2018-07-05T14:06:46Z</time>
      </trkpt>
      <trkpt lat="50.57261" lon="3.3445">
        <ele>37.662899</ele>
        <time>2018-07-05T14:06:48Z</time>
      </trkpt>
      <trkpt lat="50.57256" lon="3.34436">
        <ele>37.921837</ele>
        <time>2018-07-05T14:06:50Z</time>
      </trkpt>
      <trkpt lat="50.57252" lon="3.34421">
        <ele>38.047123</ele>
        <time>2018-07-05T14:06:52Z</time>
      </trkpt>
      <trkpt lat="50.57248" lon="3.34407">
        <ele>38.287289</ele>
        <time>2018-07-05T14:06:54Z</time>
      </trkpt>
      <trkpt lat="50.57244" lon="3.34393">
        <ele>38.555668</ele>
        <time>2018-07-05T14:06:56Z</time>
      </trkpt>
      <trkpt lat="50.5724" lon="3.34379">
        <ele>38.750217</ele>
        <time>2018-07-05T14:06:58Z</time>
      </trkpt>
      <trkpt lat="50.57236" lon="3.34364">
        <ele>38.850441</ele>
        <time>2018-07-05T14:07:00Z</time>
      </trkpt>
      <trkpt lat="50.57231" lon="3.3435">
        <ele>39.105217</ele>
        <time>2018-07-05T14:07:02Z</time>
      </trkpt>
      <trkpt lat="50.57227" lon="3.34336">
        <ele>39.286892</ele>
        <time>2018-07-05T14:07:04Z</time>
      </trkpt>
      <trkpt lat="50.57223" lon="3.34322">
        <ele>39.527054</ele>
        <time>2018-07-05T14:07:06Z</time>
      </trkpt>
      <trkpt lat="50.57219" lon="3.34307">
        <ele>39.848148</ele>
        <time>2018-07-05T14:07:08Z</time>
      </trkpt>
      <trkpt lat="50.57214" lon="3.34293">
        <ele>40.05278</ele>
        <time>2018-07-05T14:07:10Z</time>
      </trkpt>
      <trkpt lat="50.5721" lon="3.34279">
        <ele>40.303406</ele>
        <time>2018-07-05T14:07:12Z</time>
      </trkpt>
      <trkpt lat="50.57206" lon="3.34265">
        <ele>40.673531</ele>
        <time>2018-07-05T14:07:14Z</time>
      </trkpt>
      <trkpt lat="50.57201" lon="3.3425">
        <ele>40.903278</ele>
        <time>2018-07-05T14:07:16Z</time>
      </trkpt>
      <trkpt lat="50.57197" lon="3.34236">
        <ele>41.167671</ele>
        <time>2018-07-05T14:07:18Z</time>
      </trkpt>
      <trkpt lat="50.57194" lon="3.34221">
        <ele>41.324322</ele>
        <time>2018-07-05T14:07:20Z</time>
      </trkpt>
      <trkpt lat="50.5719" lon="3.34207">
        <ele>41.608456</ele>
        <time>2018-07-05T14:07:22Z</time>
      </trkpt>
      <trkpt lat="50.57187" lon="3.34192">
        <ele>41.97422</ele>
        <time>2018-07-05T14:07:24Z</time>
      </trkpt>
      <trkpt lat="50.57184" lon="3.34178">
        <ele>41.995094</ele>
        <time>2018-07-05T14:07:26Z</time>
      </trkpt>
      <trkpt lat="50.57182" lon="3.34164">
        <ele>42.233215</ele>
        <time>2018-07-05T14:07:28Z</time>
      </trkpt>
      <trkpt lat="50.57179" lon="3.34149">
        <ele>42.483875</ele>
        <time>2018-07-05T14:07:30Z</time>
      </trkpt>
      <trkpt lat="50.57177" lon="3.34135">
        <ele>42.715759</ele>
        <time>2018-07-05T14:07:32Z</time>
      </trkpt>
      <trkpt lat="50.57174" lon="3.3412">
        <ele>42.922581</ele>
        <time>2018-07-05T14:07:34Z</time>
      </trkpt>
      <trkpt lat="50.57171" lon="3.34104">
        <ele>43.131523</ele>
        <time>2018-07-05T14:07:36Z</time>
      </trkpt>
      <trkpt lat="50.57168" lon="3.34089">
        <ele>43.211998</ele>
        <time>2018-07-05T14:07:38Z</time>
      </trkpt>
      <trkpt lat="50.57166" lon="3.34074">
        <ele>43.544125</ele>
        <time>2018-07-05T14:07:40Z</time>
      </trkpt>
      <trkpt lat="50.57163" lon="3.34059">
        <ele>43.811539</ele>
        <time>2018-07-05T14:07:42Z</time>
      </trkpt>
      <trkpt lat="50.5716" lon="3.34044">
        <ele>43.922276</ele>
        <time>2018-07-05T14:07:44Z</time>
      </trkpt>
      <trkpt lat="50.57158" lon="3.3403">
        <ele>44.204311</ele>
        <time>2018-07-05T14:07:46Z</time>
      </trkpt>
      <trkpt lat="50.57155" lon="3.34015">
        <ele>44.450996</ele>
        <time>2018-07-05T14:07:48Z</time>
      </trkpt>
      <trkpt lat="50.57152" lon="3.34">
        <ele>44.881588</ele>
        <time>2018-07-05T14:07:50Z</time>
      </trkpt>
      <trkpt lat="50.57149" lon="3.33984">
        <ele>45.151108</ele>
        <time>2018-07-05T14:07:52Z</time>
      </trkpt>
      <trkpt lat="50.57146" lon="3.33969">
        <ele>45.192898</ele>
        <time>2018-07-05T14:07:54Z</time>
      </trkpt>
      <trkpt lat="50.57143" lon="3.33954">
        <ele>45.420658</ele>
        <time>2018-07-05T14:07:56Z</time>
      </trkpt>
      <trkpt lat="50.57139" lon="3.33931">
        <ele>45.567532</ele>
        <time>2018-07-05T14:07:59Z</time>
      </trkpt>
      <trkpt lat="50.57136" lon="3.33915">
        <ele>45.870522</ele>
        <time>2018-07-05T14:08:01Z</time>
      </trkpt>
      <trkpt lat="50.57132" lon="3.33899">
        <ele>45.958267</ele>
        <time>2018-07-05T14:08:03Z</time>
      </trkpt>
      <trkpt lat="50.5713" lon="3.33884">
        <ele>46.043949</ele>
        <time>2018-07-05T14:08:05Z</time>
      </trkpt>
      <trkpt lat="50.57127" lon="3.33869">
        <ele>46.081566</ele>
        <time>2018-07-05T14:08:07Z</time>
      </trkpt>
      <trkpt lat="50.57125" lon="3.33855">
        <ele>46.163052</ele>
        <time>2018-07-05T14:08:09Z</time>
      </trkpt>
      <trkpt lat="50.57123" lon="3.3384">
        <ele>46.342758</ele>
        <time>2018-07-05T14:08:11Z</time>
      </trkpt>
      <trkpt lat="50.57121" lon="3.33825">
        <ele>46.497398</ele>
        <time>2018-07-05T14:08:13Z</time>
      </trkpt>
      <trkpt lat="50.57119" lon="3.3381">
        <ele>46.662514</ele>
        <time>2018-07-05T14:08:15Z</time>
      </trkpt>
      <trkpt lat="50.57118" lon="3.33795">
        <ele>46.689671</ele>
        <time>2018-07-05T14:08:17Z</time>
      </trkpt>
      <trkpt lat="50.57118" lon="3.3378">
        <ele>46.724052</ele>
        <time>2018-07-05T14:08:19Z</time>
      </trkpt>
      <trkpt lat="50.57117" lon="3.33765">
        <ele>46.81599</ele>
        <time>2018-07-05T14:08:21Z</time>
      </trkpt>
      <trkpt lat="50.57117" lon="3.3375">
        <ele>46.916298</ele>
        <time>2018-07-05T14:08:23Z</time>
      </trkpt>
      <trkpt lat="50.57117" lon="3.33736">
        <ele>46.981087</ele>
        <time>2018-07-05T14:08:25Z</time>
      </trkpt>
      <trkpt lat="50.57117" lon="3.33722">
        <ele>47.010345</ele>
        <time>2018-07-05T14:08:27Z</time>
      </trkpt>
      <trkpt lat="50.57117" lon="3.33708">
        <ele>47.041691</ele>
        <time>2018-07-05T14:08:29Z</time>
      </trkpt>
      <trkpt lat="50.57117" lon="3.33694">
        <ele>46.949619</ele>
        <time>2018-07-05T14:08:31Z</time>
      </trkpt>
      <trkpt lat="50.57117" lon="3.33681">
        <ele>46.793343</ele>
        <time>2018-07-05T14:08:33Z</time>
      </trkpt>
      <trkpt lat="50.57116" lon="3.33668">
        <ele>46.847679</ele>
        <time>2018-07-05T14:08:35Z</time>
      </trkpt>
      <trkpt lat="50.57117" lon="3.33655">
        <ele>46.778725</ele>
        <time>2018-07-05T14:08:37Z</time>
      </trkpt>
      <trkpt lat="50.57117" lon="3.33643">
        <ele>46.791523</ele>
        <time>2018-07-05T14:08:39Z</time>
      </trkpt>
      <trkpt lat="50.57117" lon="3.33631">
        <ele>46.649662</ele>
        <time>2018-07-05T14:08:41Z</time>
      </trkpt>
      <trkpt lat="50.57117" lon="3.3362">
        <ele>46.593235</ele>
        <time>2018-07-05T14:08:43Z</time>
      </trkpt>
      <trkpt lat="50.57117" lon="3.3361">
        <ele>46.580082</ele>
        <time>2018-07-05T14:08:45Z</time>
      </trkpt>
      <trkpt lat="50.57118" lon="3.336">
        <ele>46.540375</ele>
        <time>2018-07-05T14:08:47Z</time>
      </trkpt>
      <trkpt lat="50.57118" lon="3.33589">
        <ele>46.542469</ele>
        <time>2018-07-05T14:08:49Z</time>
      </trkpt>
      <trkpt lat="50.57118" lon="3.3358">
        <ele>46.565453</ele>
        <time>2018-07-05T14:08:51Z</time>
      </trkpt>
      <trkpt lat="50.57118" lon="3.33572">
        <ele>46.590534</ele>
        <time>2018-07-05T14:08:53Z</time>
      </trkpt>
      <trkpt lat="50.57118" lon="3.33566">
        <ele>46.44212</ele>
        <time>2018-07-05T14:08:55Z</time>
      </trkpt>
      <trkpt lat="50.57119" lon="3.33561">
        <ele>46.492271</ele>
        <time>2018-07-05T14:08:57Z</time>
      </trkpt>
      <trkpt lat="50.57118" lon="3.33551">
        <ele>46.425034</ele>
        <time>2018-07-05T14:09:13Z</time>
      </trkpt>
      <trkpt lat="50.57117" lon="3.33545">
        <ele>46.393097</ele>
        <time>2018-07-05T14:09:15Z</time>
      </trkpt>
      <trkpt lat="50.57115" lon="3.3354">
        <ele>46.349209</ele>
        <time>2018-07-05T14:09:17Z</time>
      </trkpt>
      <trkpt lat="50.57112" lon="3.33532">
        <ele>46.34478</ele>
        <time>2018-07-05T14:09:19Z</time>
      </trkpt>
      <trkpt lat="50.5711" lon="3.33523">
        <ele>46.238209</ele>
        <time>2018-07-05T14:09:21Z</time>
      </trkpt>
      <trkpt lat="50.57108" lon="3.33514">
        <ele>46.432522</ele>
        <time>2018-07-05T14:09:23Z</time>
      </trkpt>
      <trkpt lat="50.57106" lon="3.33504">
        <ele>46.388634</ele>
        <time>2018-07-05T14:09:25Z</time>
      </trkpt>
      <trkpt lat="50.57103" lon="3.33494">
        <ele>46.427483</ele>
        <time>2018-07-05T14:09:27Z</time>
      </trkpt>
      <trkpt lat="50.571" lon="3.33483">
        <ele>46.494362</ele>
        <time>2018-07-05T14:09:29Z</time>
      </trkpt>
      <trkpt lat="50.57097" lon="3.3347">
        <ele>46.506897</ele>
        <time>2018-07-05T14:09:31Z</time>
      </trkpt>
      <trkpt lat="50.57094" lon="3.33457">
        <ele>46.542427</ele>
        <time>2018-07-05T14:09:33Z</time>
      </trkpt>
      <trkpt lat="50.57091" lon="3.33444">
        <ele>46.546612</ele>
        <time>2018-07-05T14:09:35Z</time>
      </trkpt>
      <trkpt lat="50.57087" lon="3.33431">
        <ele>46.611408</ele>
        <time>2018-07-05T14:09:37Z</time>
      </trkpt>
      <trkpt lat="50.57083" lon="3.33418">
        <ele>46.678509</ele>
        <time>2018-07-05T14:09:39Z</time>
      </trkpt>
      <trkpt lat="50.57079" lon="3.33405">
        <ele>46.613731</ele>
        <time>2018-07-05T14:09:41Z</time>
      </trkpt>
      <trkpt lat="50.57075" lon="3.33392">
        <ele>46.703602</ele>
        <time>2018-07-05T14:09:43Z</time>
      </trkpt>
      <trkpt lat="50.5707" lon="3.33379">
        <ele>46.751671</ele>
        <time>2018-07-05T14:09:45Z</time>
      </trkpt>
      <trkpt lat="50.57065" lon="3.33366">
        <ele>46.723732</ele>
        <time>2018-07-05T14:09:47Z</time>
      </trkpt>
      <trkpt lat="50.5706" lon="3.33354">
        <ele>46.719566</ele>
        <time>2018-07-05T14:09:49Z</time>
      </trkpt>
      <trkpt lat="50.57055" lon="3.33341">
        <ele>46.719566</ele>
        <time>2018-07-05T14:09:51Z</time>
      </trkpt>
      <trkpt lat="50.5705" lon="3.33328">
        <ele>46.671394</ele>
        <time>2018-07-05T14:09:53Z</time>
      </trkpt>
      <trkpt lat="50.57045" lon="3.33316">
        <ele>46.827011</ele>
        <time>2018-07-05T14:09:55Z</time>
      </trkpt>
      <trkpt lat="50.5704" lon="3.33303">
        <ele>46.718357</ele>
        <time>2018-07-05T14:09:57Z</time>
      </trkpt>
      <trkpt lat="50.57035" lon="3.3329">
        <ele>46.747616</ele>
        <time>2018-07-05T14:09:59Z</time>
      </trkpt>
      <trkpt lat="50.57026" lon="3.33265">
        <ele>46.912876</ele>
        <time>2018-07-05T14:10:03Z</time>
      </trkpt>
      <trkpt lat="50.57021" lon="3.33252">
        <ele>47.046616</ele>
        <time>2018-07-05T14:10:05Z</time>
      </trkpt>
      <trkpt lat="50.57016" lon="3.3324">
        <ele>47.025723</ele>
        <time>2018-07-05T14:10:07Z</time>
      </trkpt>
      <trkpt lat="50.57011" lon="3.33229">
        <ele>47.038754</ele>
        <time>2018-07-05T14:10:09Z</time>
      </trkpt>
      <trkpt lat="50.57007" lon="3.33218">
        <ele>47.01096</ele>
        <time>2018-07-05T14:10:11Z</time>
      </trkpt>
      <trkpt lat="50.57003" lon="3.33208">
        <ele>47.096653</ele>
        <time>2018-07-05T14:10:13Z</time>
      </trkpt>
      <trkpt lat="50.57" lon="3.33198">
        <ele>47.015144</ele>
        <time>2018-07-05T14:10:15Z</time>
      </trkpt>
      <trkpt lat="50.56995" lon="3.33189">
        <ele>47.008877</ele>
        <time>2018-07-05T14:10:17Z</time>
      </trkpt>
      <trkpt lat="50.5699" lon="3.33179">
        <ele>46.958714</ele>
        <time>2018-07-05T14:10:19Z</time>
      </trkpt>
      <trkpt lat="50.56986" lon="3.33167">
        <ele>46.83123</ele>
        <time>2018-07-05T14:10:21Z</time>
      </trkpt>
      <trkpt lat="50.56981" lon="3.33154">
        <ele>46.824741</ele>
        <time>2018-07-05T14:10:23Z</time>
      </trkpt>
      <trkpt lat="50.56976" lon="3.33142">
        <ele>47.021194</ele>
        <time>2018-07-05T14:10:25Z</time>
      </trkpt>
      <trkpt lat="50.56971" lon="3.3313">
        <ele>46.948044</ele>
        <time>2018-07-05T14:10:27Z</time>
      </trkpt>
      <trkpt lat="50.56966" lon="3.33118">
        <ele>46.960579</ele>
        <time>2018-07-05T14:10:29Z</time>
      </trkpt>
      <trkpt lat="50.56961" lon="3.33106">
        <ele>47.081795</ele>
        <time>2018-07-05T14:10:31Z</time>
      </trkpt>
      <trkpt lat="50.56955" lon="3.33093">
        <ele>47.163292</ele>
        <time>2018-07-05T14:10:33Z</time>
      </trkpt>
      <trkpt lat="50.56951" lon="3.3308">
        <ele>47.144974</ele>
        <time>2018-07-05T14:10:35Z</time>
      </trkpt>
      <trkpt lat="50.56946" lon="3.33065">
        <ele>47.115707</ele>
        <time>2018-07-05T14:10:37Z</time>
      </trkpt>
      <trkpt lat="50.56944" lon="3.3305">
        <ele>46.896301</ele>
        <time>2018-07-05T14:10:39Z</time>
      </trkpt>
      <trkpt lat="50.56941" lon="3.33035">
        <ele>47.034214</ele>
        <time>2018-07-05T14:10:41Z</time>
      </trkpt>
      <trkpt lat="50.56937" lon="3.3302">
        <ele>46.900452</ele>
        <time>2018-07-05T14:10:43Z</time>
      </trkpt>
      <trkpt lat="50.56932" lon="3.33005">
        <ele>46.808342</ele>
        <time>2018-07-05T14:10:45Z</time>
      </trkpt>
      <trkpt lat="50.56928" lon="3.32992">
        <ele>46.733459</ele>
        <time>2018-07-05T14:10:47Z</time>
      </trkpt>
      <trkpt lat="50.56923" lon="3.32978">
        <ele>46.655682</ele>
        <time>2018-07-05T14:10:49Z</time>
      </trkpt>
      <trkpt lat="50.56918" lon="3.32964">
        <ele>46.641052</ele>
        <time>2018-07-05T14:10:51Z</time>
      </trkpt>
      <trkpt lat="50.56914" lon="3.32951">
        <ele>46.615974</ele>
        <time>2018-07-05T14:10:53Z</time>
      </trkpt>
      <trkpt lat="50.5691" lon="3.32937">
        <ele>46.558586</ele>
        <time>2018-07-05T14:10:55Z</time>
      </trkpt>
      <trkpt lat="50.56905" lon="3.32924">
        <ele>46.589512</ele>
        <time>2018-07-05T14:10:57Z</time>
      </trkpt>
      <trkpt lat="50.569" lon="3.32911">
        <ele>46.576973</ele>
        <time>2018-07-05T14:10:59Z</time>
      </trkpt>
      <trkpt lat="50.56895" lon="3.32898">
        <ele>46.602043</ele>
        <time>2018-07-05T14:11:01Z</time>
      </trkpt>
      <trkpt lat="50.56889" lon="3.32886">
        <ele>46.52681</ele>
        <time>2018-07-05T14:11:03Z</time>
      </trkpt>
      <trkpt lat="50.56883" lon="3.32874">
        <ele>46.376343</ele>
        <time>2018-07-05T14:11:05Z</time>
      </trkpt>
      <trkpt lat="50.56876" lon="3.32862">
        <ele>46.265274</ele>
        <time>2018-07-05T14:11:07Z</time>
      </trkpt>
      <trkpt lat="50.5687" lon="3.32849">
        <ele>46.296684</ele>
        <time>2018-07-05T14:11:09Z</time>
      </trkpt>
      <trkpt lat="50.56863" lon="3.32837">
        <ele>46.244007</ele>
        <time>2018-07-05T14:11:11Z</time>
      </trkpt>
      <trkpt lat="50.56857" lon="3.32826">
        <ele>46.308811</ele>
        <time>2018-07-05T14:11:13Z</time>
      </trkpt>
      <trkpt lat="50.56851" lon="3.32814">
        <ele>46.28046</ele>
        <time>2018-07-05T14:11:15Z</time>
      </trkpt>
      <trkpt lat="50.56845" lon="3.32802">
        <ele>46.332703</ele>
        <time>2018-07-05T14:11:17Z</time>
      </trkpt>
      <trkpt lat="50.56839" lon="3.3279">
        <ele>46.496162</ele>
        <time>2018-07-05T14:11:19Z</time>
      </trkpt>
      <trkpt lat="50.56833" lon="3.32778">
        <ele>46.602718</ele>
        <time>2018-07-05T14:11:21Z</time>
      </trkpt>
      <trkpt lat="50.56827" lon="3.32766">
        <ele>46.550472</ele>
        <time>2018-07-05T14:11:23Z</time>
      </trkpt>
      <trkpt lat="50.56821" lon="3.32753">
        <ele>46.676193</ele>
        <time>2018-07-05T14:11:25Z</time>
      </trkpt>
      <trkpt lat="50.56815" lon="3.32741">
        <ele>46.765541</ele>
        <time>2018-07-05T14:11:27Z</time>
      </trkpt>
      <trkpt lat="50.5681" lon="3.32729">
        <ele>46.783997</ele>
        <time>2018-07-05T14:11:29Z</time>
      </trkpt>
      <trkpt lat="50.56804" lon="3.32717">
        <ele>46.921894</ele>
        <time>2018-07-05T14:11:31Z</time>
      </trkpt>
      <trkpt lat="50.56798" lon="3.32704">
        <ele>47.022213</ele>
        <time>2018-07-05T14:11:33Z</time>
      </trkpt>
      <trkpt lat="50.56793" lon="3.32692">
        <ele>47.171562</ele>
        <time>2018-07-05T14:11:35Z</time>
      </trkpt>
      <trkpt lat="50.56788" lon="3.32679">
        <ele>47.249325</ele>
        <time>2018-07-05T14:11:37Z</time>
      </trkpt>
      <trkpt lat="50.56782" lon="3.32666">
        <ele>47.481335</ele>
        <time>2018-07-05T14:11:39Z</time>
      </trkpt>
      <trkpt lat="50.56778" lon="3.32653">
        <ele>47.650459</ele>
        <time>2018-07-05T14:11:41Z</time>
      </trkpt>
      <trkpt lat="50.56773" lon="3.3264">
        <ele>47.732674</ele>
        <time>2018-07-05T14:11:43Z</time>
      </trkpt>
      <trkpt lat="50.56768" lon="3.32626">
        <ele>47.977188</ele>
        <time>2018-07-05T14:11:45Z</time>
      </trkpt>
      <trkpt lat="50.56762" lon="3.32614">
        <ele>48.113338</ele>
        <time>2018-07-05T14:11:47Z</time>
      </trkpt>
      <trkpt lat="50.56757" lon="3.32601">
        <ele>48.265862</ele>
        <time>2018-07-05T14:11:49Z</time>
      </trkpt>
      <trkpt lat="50.56752" lon="3.32588">
        <ele>48.381241</ele>
        <time>2018-07-05T14:11:51Z</time>
      </trkpt>
      <trkpt lat="50.56747" lon="3.32575">
        <ele>48.36451</ele>
        <time>2018-07-05T14:11:53Z</time>
      </trkpt>
      <trkpt lat="50.56742" lon="3.32562">
        <ele>48.351967</ele>
        <time>2018-07-05T14:11:55Z</time>
      </trkpt>
      <trkpt lat="50.56737" lon="3.32549">
        <ele>48.392052</ele>
        <time>2018-07-05T14:11:57Z</time>
      </trkpt>
      <trkpt lat="50.56732" lon="3.32536">
        <ele>48.500736</ele>
        <time>2018-07-05T14:11:59Z</time>
      </trkpt>
      <trkpt lat="50.56727" lon="3.32523">
        <ele>48.562981</ele>
        <time>2018-07-05T14:12:01Z</time>
      </trkpt>
      <trkpt lat="50.56723" lon="3.32509">
        <ele>48.686302</ele>
        <time>2018-07-05T14:12:03Z</time>
      </trkpt>
      <trkpt lat="50.56718" lon="3.32495">
        <ele>48.843063</ele>
        <time>2018-07-05T14:12:05Z</time>
      </trkpt>
      <trkpt lat="50.56714" lon="3.32481">
        <ele>48.970238</ele>
        <time>2018-07-05T14:12:07Z</time>
      </trkpt>
      <trkpt lat="50.5671" lon="3.32467">
        <ele>49.171413</ele>
        <time>2018-07-05T14:12:09Z</time>
      </trkpt>
      <trkpt lat="50.56706" lon="3.32452">
        <ele>49.25037</ele>
        <time>2018-07-05T14:12:11Z</time>
      </trkpt>
      <trkpt lat="50.56702" lon="3.32438">
        <ele>49.364262</ele>
        <time>2018-07-05T14:12:13Z</time>
      </trkpt>
      <trkpt lat="50.56698" lon="3.32424">
        <ele>49.443691</ele>
        <time>2018-07-05T14:12:15Z</time>
      </trkpt>
      <trkpt lat="50.56695" lon="3.3241">
        <ele>49.468777</ele>
        <time>2018-07-05T14:12:17Z</time>
      </trkpt>
      <trkpt lat="50.56691" lon="3.32395">
        <ele>49.508499</ele>
        <time>2018-07-05T14:12:19Z</time>
      </trkpt>
      <trkpt lat="50.56688" lon="3.32381">
        <ele>49.498215</ele>
        <time>2018-07-05T14:12:21Z</time>
      </trkpt>
      <trkpt lat="50.56685" lon="3.32366">
        <ele>49.53933</ele>
        <time>2018-07-05T14:12:23Z</time>
      </trkpt>
      <trkpt lat="50.56681" lon="3.32352">
        <ele>49.622948</ele>
        <time>2018-07-05T14:12:25Z</time>
      </trkpt>
      <trkpt lat="50.56679" lon="3.32336">
        <ele>49.696987</ele>
        <time>2018-07-05T14:12:27Z</time>
      </trkpt>
      <trkpt lat="50.56676" lon="3.32321">
        <ele>49.76807</ele>
        <time>2018-07-05T14:12:29Z</time>
      </trkpt>
      <trkpt lat="50.56673" lon="3.32307">
        <ele>49.885143</ele>
        <time>2018-07-05T14:12:31Z</time>
      </trkpt>
      <trkpt lat="50.5667" lon="3.32292">
        <ele>49.903957</ele>
        <time>2018-07-05T14:12:33Z</time>
      </trkpt>
      <trkpt lat="50.56667" lon="3.32278">
        <ele>50.025211</ele>
        <time>2018-07-05T14:12:35Z</time>
      </trkpt>
      <trkpt lat="50.56664" lon="3.32263">
        <ele>50.202549</ele>
        <time>2018-07-05T14:12:37Z</time>
      </trkpt>
      <trkpt lat="50.56661" lon="3.32249">
        <ele>50.315426</ele>
        <time>2018-07-05T14:12:39Z</time>
      </trkpt>
      <trkpt lat="50.56659" lon="3.32235">
        <ele>50.392776</ele>
        <time>2018-07-05T14:12:41Z</time>
      </trkpt>
      <trkpt lat="50.56656" lon="3.32221">
        <ele>50.503059</ele>
        <time>2018-07-05T14:12:43Z</time>
      </trkpt>
      <trkpt lat="50.56654" lon="3.32207">
        <ele>50.607597</ele>
        <time>2018-07-05T14:12:45Z</time>
      </trkpt>
      <trkpt lat="50.56652" lon="3.32194">
        <ele>50.699589</ele>
        <time>2018-07-05T14:12:47Z</time>
      </trkpt>
      <trkpt lat="50.56651" lon="3.32179">
        <ele>50.789486</ele>
        <time>2018-07-05T14:12:49Z</time>
      </trkpt>
      <trkpt lat="50.56651" lon="3.32164">
        <ele>50.839672</ele>
        <time>2018-07-05T14:12:51Z</time>
      </trkpt>
      <trkpt lat="50.56656" lon="3.32149">
        <ele>50.908131</ele>
        <time>2018-07-05T14:12:53Z</time>
      </trkpt>
      <trkpt lat="50.56664" lon="3.32139">
        <ele>50.874683</ele>
        <time>2018-07-05T14:12:55Z</time>
      </trkpt>
      <trkpt lat="50.56674" lon="3.32131">
        <ele>50.889317</ele>
        <time>2018-07-05T14:12:57Z</time>
      </trkpt>
      <trkpt lat="50.56684" lon="3.32124">
        <ele>50.905682</ele>
        <time>2018-07-05T14:12:59Z</time>
      </trkpt>
      <trkpt lat="50.56694" lon="3.32116">
        <ele>50.828331</ele>
        <time>2018-07-05T14:13:01Z</time>
      </trkpt>
      <trkpt lat="50.56703" lon="3.3211">
        <ele>50.765621</ele>
        <time>2018-07-05T14:13:03Z</time>
      </trkpt>
      <trkpt lat="50.56713" lon="3.32102">
        <ele>50.750984</ele>
        <time>2018-07-05T14:13:05Z</time>
      </trkpt>
      <trkpt lat="50.56722" lon="3.32096">
        <ele>50.656036</ele>
        <time>2018-07-05T14:13:07Z</time>
      </trkpt>
      <trkpt lat="50.56731" lon="3.32089">
        <ele>50.578682</ele>
        <time>2018-07-05T14:13:09Z</time>
      </trkpt>
      <trkpt lat="50.56739" lon="3.32083">
        <ele>50.541054</ele>
        <time>2018-07-05T14:13:11Z</time>
      </trkpt>
      <trkpt lat="50.56748" lon="3.32076">
        <ele>50.444893</ele>
        <time>2018-07-05T14:13:13Z</time>
      </trkpt>
      <trkpt lat="50.56757" lon="3.3207">
        <ele>50.300655</ele>
        <time>2018-07-05T14:13:15Z</time>
      </trkpt>
      <trkpt lat="50.56767" lon="3.32064">
        <ele>50.204597</ele>
        <time>2018-07-05T14:13:17Z</time>
      </trkpt>
      <trkpt lat="50.56775" lon="3.32057">
        <ele>50.02063</ele>
        <time>2018-07-05T14:13:19Z</time>
      </trkpt>
      <trkpt lat="50.56784" lon="3.32051">
        <ele>49.903576</ele>
        <time>2018-07-05T14:13:21Z</time>
      </trkpt>
      <trkpt lat="50.56793" lon="3.32045">
        <ele>49.736347</ele>
        <time>2018-07-05T14:13:23Z</time>
      </trkpt>
      <trkpt lat="50.56802" lon="3.32038">
        <ele>49.67205</ele>
        <time>2018-07-05T14:13:25Z</time>
      </trkpt>
      <trkpt lat="50.56811" lon="3.32031">
        <ele>49.450459</ele>
        <time>2018-07-05T14:13:27Z</time>
      </trkpt>
      <trkpt lat="50.5682" lon="3.32023">
        <ele>49.302025</ele>
        <time>2018-07-05T14:13:29Z</time>
      </trkpt>
      <trkpt lat="50.56828" lon="3.32015">
        <ele>49.168232</ele>
        <time>2018-07-05T14:13:31Z</time>
      </trkpt>
      <trkpt lat="50.56836" lon="3.32005">
        <ele>48.915276</ele>
        <time>2018-07-05T14:13:33Z</time>
      </trkpt>
      <trkpt lat="50.56842" lon="3.31994">
        <ele>48.762676</ele>
        <time>2018-07-05T14:13:35Z</time>
      </trkpt>
      <trkpt lat="50.56849" lon="3.31983">
        <ele>48.664436</ele>
        <time>2018-07-05T14:13:37Z</time>
      </trkpt>
      <trkpt lat="50.56854" lon="3.31971">
        <ele>48.577492</ele>
        <time>2018-07-05T14:13:39Z</time>
      </trkpt>
      <trkpt lat="50.5686" lon="3.31958">
        <ele>48.481987</ele>
        <time>2018-07-05T14:13:41Z</time>
      </trkpt>
      <trkpt lat="50.56865" lon="3.31945">
        <ele>48.469444</ele>
        <time>2018-07-05T14:13:43Z</time>
      </trkpt>
      <trkpt lat="50.5687" lon="3.31931">
        <ele>48.421375</ele>
        <time>2018-07-05T14:13:45Z</time>
      </trkpt>
      <trkpt lat="50.56875" lon="3.31917">
        <ele>48.31477</ele>
        <time>2018-07-05T14:13:47Z</time>
      </trkpt>
      <trkpt lat="50.5688" lon="3.31904">
        <ele>48.252064</ele>
        <time>2018-07-05T14:13:49Z</time>
      </trkpt>
      <trkpt lat="50.56885" lon="3.31891">
        <ele>48.124542</ele>
        <time>2018-07-05T14:13:51Z</time>
      </trkpt>
      <trkpt lat="50.56888" lon="3.31878">
        <ele>48.130817</ele>
        <time>2018-07-05T14:13:53Z</time>
      </trkpt>
      <trkpt lat="50.56888" lon="3.31865">
        <ele>48.0588</ele>
        <time>2018-07-05T14:13:55Z</time>
      </trkpt>
      <trkpt lat="50.56884" lon="3.31852">
        <ele>48.080849</ele>
        <time>2018-07-05T14:13:57Z</time>
      </trkpt>
      <trkpt lat="50.56878" lon="3.31839">
        <ele>47.976238</ele>
        <time>2018-07-05T14:13:59Z</time>
      </trkpt>
      <trkpt lat="50.56873" lon="3.31826">
        <ele>47.957424</ele>
        <time>2018-07-05T14:14:01Z</time>
      </trkpt>
      <trkpt lat="50.56867" lon="3.31813">
        <ele>47.947701</ele>
        <time>2018-07-05T14:14:03Z</time>
      </trkpt>
      <trkpt lat="50.56862" lon="3.318">
        <ele>47.937248</ele>
        <time>2018-07-05T14:14:05Z</time>
      </trkpt>
      <trkpt lat="50.56856" lon="3.31787">
        <ele>47.845291</ele>
        <time>2018-07-05T14:14:07Z</time>
      </trkpt>
      <trkpt lat="50.5685" lon="3.31774">
        <ele>47.838554</ele>
        <time>2018-07-05T14:14:09Z</time>
      </trkpt>
      <trkpt lat="50.56845" lon="3.31761">
        <ele>47.831635</ele>
        <time>2018-07-05T14:14:11Z</time>
      </trkpt>
      <trkpt lat="50.56839" lon="3.31748">
        <ele>47.78775</ele>
        <time>2018-07-05T14:14:13Z</time>
      </trkpt>
      <trkpt lat="50.56834" lon="3.31735">
        <ele>47.781479</ele>
        <time>2018-07-05T14:14:15Z</time>
      </trkpt>
      <trkpt lat="50.56828" lon="3.31722">
        <ele>47.823288</ele>
        <time>2018-07-05T14:14:17Z</time>
      </trkpt>
      <trkpt lat="50.56823" lon="3.31709">
        <ele>47.797352</ele>
        <time>2018-07-05T14:14:19Z</time>
      </trkpt>
      <trkpt lat="50.56817" lon="3.31697">
        <ele>47.780506</ele>
        <time>2018-07-05T14:14:21Z</time>
      </trkpt>
      <trkpt lat="50.56812" lon="3.31684">
        <ele>47.840828</ele>
        <time>2018-07-05T14:14:23Z</time>
      </trkpt>
      <trkpt lat="50.56806" lon="3.31671">
        <ele>47.790661</ele>
        <time>2018-07-05T14:14:25Z</time>
      </trkpt>
      <trkpt lat="50.56801" lon="3.31658">
        <ele>47.81992</ele>
        <time>2018-07-05T14:14:27Z</time>
      </trkpt>
      <trkpt lat="50.56795" lon="3.31646">
        <ele>47.838734</ele>
        <time>2018-07-05T14:14:29Z</time>
      </trkpt>
      <trkpt lat="50.5679" lon="3.31633">
        <ele>47.900547</ele>
        <time>2018-07-05T14:14:31Z</time>
      </trkpt>
      <trkpt lat="50.56784" lon="3.31621">
        <ele>47.848301</ele>
        <time>2018-07-05T14:14:33Z</time>
      </trkpt>
      <trkpt lat="50.56779" lon="3.31607">
        <ele>47.89637</ele>
        <time>2018-07-05T14:14:35Z</time>
      </trkpt>
      <trkpt lat="50.56773" lon="3.31595">
        <ele>47.888954</ele>
        <time>2018-07-05T14:14:37Z</time>
      </trkpt>
      <trkpt lat="50.56768" lon="3.31582">
        <ele>48.019493</ele>
        <time>2018-07-05T14:14:39Z</time>
      </trkpt>
      <trkpt lat="50.56762" lon="3.31569">
        <ele>48.103107</ele>
        <time>2018-07-05T14:14:41Z</time>
      </trkpt>
      <trkpt lat="50.56756" lon="3.31557">
        <ele>48.238972</ele>
        <time>2018-07-05T14:14:43Z</time>
      </trkpt>
      <trkpt lat="50.5675" lon="3.31544">
        <ele>48.185997</ele>
        <time>2018-07-05T14:14:45Z</time>
      </trkpt>
      <trkpt lat="50.56743" lon="3.31532">
        <ele>48.167187</ele>
        <time>2018-07-05T14:14:47Z</time>
      </trkpt>
      <trkpt lat="50.56736" lon="3.31521">
        <ele>48.260735</ele>
        <time>2018-07-05T14:14:49Z</time>
      </trkpt>
      <trkpt lat="50.56728" lon="3.31511">
        <ele>48.183868</ele>
        <time>2018-07-05T14:14:51Z</time>
      </trkpt>
      <trkpt lat="50.56721" lon="3.315">
        <ele>48.182453</ele>
        <time>2018-07-05T14:14:53Z</time>
      </trkpt>
      <trkpt lat="50.56713" lon="3.3149">
        <ele>48.268139</ele>
        <time>2018-07-05T14:14:55Z</time>
      </trkpt>
      <trkpt lat="50.56705" lon="3.3148">
        <ele>48.312031</ele>
        <time>2018-07-05T14:14:57Z</time>
      </trkpt>
      <trkpt lat="50.56696" lon="3.31471">
        <ele>48.314697</ele>
        <time>2018-07-05T14:14:59Z</time>
      </trkpt>
      <trkpt lat="50.56688" lon="3.31462">
        <ele>48.435932</ele>
        <time>2018-07-05T14:15:01Z</time>
      </trkpt>
      <trkpt lat="50.56679" lon="3.31453">
        <ele>48.462746</ele>
        <time>2018-07-05T14:15:03Z</time>
      </trkpt>
      <trkpt lat="50.56671" lon="3.31445">
        <ele>48.560936</ele>
        <time>2018-07-05T14:15:05Z</time>
      </trkpt>
      <trkpt lat="50.56663" lon="3.31438">
        <ele>48.598564</ele>
        <time>2018-07-05T14:15:07Z</time>
      </trkpt>
      <trkpt lat="50.56656" lon="3.3143">
        <ele>48.682182</ele>
        <time>2018-07-05T14:15:09Z</time>
      </trkpt>
      <trkpt lat="50.56651" lon="3.3142">
        <ele>48.805531</ele>
        <time>2018-07-05T14:15:11Z</time>
      </trkpt>
      <trkpt lat="50.5665" lon="3.31408">
        <ele>49.007244</ele>
        <time>2018-07-05T14:15:13Z</time>
      </trkpt>
      <trkpt lat="50.56652" lon="3.31397">
        <ele>49.013538</ele>
        <time>2018-07-05T14:15:15Z</time>
      </trkpt>
      <trkpt lat="50.56655" lon="3.31385">
        <ele>49.078342</ele>
        <time>2018-07-05T14:15:17Z</time>
      </trkpt>
      <trkpt lat="50.56658" lon="3.31373">
        <ele>49.177372</ele>
        <time>2018-07-05T14:15:19Z</time>
      </trkpt>
      <trkpt lat="50.56662" lon="3.3136">
        <ele>49.313873</ele>
        <time>2018-07-05T14:15:21Z</time>
      </trkpt>
      <trkpt lat="50.56665" lon="3.31348">
        <ele>49.307606</ele>
        <time>2018-07-05T14:15:23Z</time>
      </trkpt>
      <trkpt lat="50.56669" lon="3.31335">
        <ele>49.190552</ele>
        <time>2018-07-05T14:15:25Z</time>
      </trkpt>
      <trkpt lat="50.56672" lon="3.31321">
        <ele>49.217709</ele>
        <time>2018-07-05T14:15:27Z</time>
      </trkpt>
      <trkpt lat="50.56676" lon="3.31308">
        <ele>49.255833</ele>
        <time>2018-07-05T14:15:29Z</time>
      </trkpt>
      <trkpt lat="50.56679" lon="3.31295">
        <ele>49.377159</ele>
        <time>2018-07-05T14:15:31Z</time>
      </trkpt>
      <trkpt lat="50.56683" lon="3.31281">
        <ele>49.494209</ele>
        <time>2018-07-05T14:15:33Z</time>
      </trkpt>
      <trkpt lat="50.56687" lon="3.31268">
        <ele>49.479561</ele>
        <time>2018-07-05T14:15:35Z</time>
      </trkpt>
      <trkpt lat="50.56691" lon="3.31255">
        <ele>49.467018</ele>
        <time>2018-07-05T14:15:37Z</time>
      </trkpt>
      <trkpt lat="50.56694" lon="3.31242">
        <ele>49.437176</ele>
        <time>2018-07-05T14:15:39Z</time>
      </trkpt>
      <trkpt lat="50.56698" lon="3.31228">
        <ele>49.363945</ele>
        <time>2018-07-05T14:15:41Z</time>
      </trkpt>
      <trkpt lat="50.56702" lon="3.31215">
        <ele>49.351402</ele>
        <time>2018-07-05T14:15:43Z</time>
      </trkpt>
      <trkpt lat="50.56705" lon="3.31202">
        <ele>49.293362</ele>
        <time>2018-07-05T14:15:45Z</time>
      </trkpt>
      <trkpt lat="50.56709" lon="3.31189">
        <ele>49.140827</ele>
        <time>2018-07-05T14:15:47Z</time>
      </trkpt>
      <trkpt lat="50.56713" lon="3.31177">
        <ele>49.170109</ele>
        <time>2018-07-05T14:15:49Z</time>
      </trkpt>
      <trkpt lat="50.56716" lon="3.31164">
        <ele>49.141342</ele>
        <time>2018-07-05T14:15:51Z</time>
      </trkpt>
      <trkpt lat="50.56715" lon="3.31152">
        <ele>49.114159</ele>
        <time>2018-07-05T14:15:53Z</time>
      </trkpt>
      <trkpt lat="50.56711" lon="3.31144">
        <ele>49.06385</ele>
        <time>2018-07-05T14:15:55Z</time>
      </trkpt>
      <trkpt lat="50.56705" lon="3.31138">
        <ele>49.061737</ele>
        <time>2018-07-05T14:15:57Z</time>
      </trkpt>
      <trkpt lat="50.56697" lon="3.31132">
        <ele>48.902504</ele>
        <time>2018-07-05T14:15:59Z</time>
      </trkpt>
      <trkpt lat="50.56689" lon="3.31125">
        <ele>48.880951</ele>
        <time>2018-07-05T14:16:01Z</time>
      </trkpt>
      <trkpt lat="50.56681" lon="3.31119">
        <ele>48.868397</ele>
        <time>2018-07-05T14:16:03Z</time>
      </trkpt>
      <trkpt lat="50.56672" lon="3.31113">
        <ele>48.922741</ele>
        <time>2018-07-05T14:16:05Z</time>
      </trkpt>
      <trkpt lat="50.56664" lon="3.31108">
        <ele>49.092091</ele>
        <time>2018-07-05T14:16:07Z</time>
      </trkpt>
      <trkpt lat="50.56657" lon="3.31104">
        <ele>49.278198</ele>
        <time>2018-07-05T14:16:09Z</time>
      </trkpt>
      <trkpt lat="50.56649" lon="3.31099">
        <ele>49.451714</ele>
        <time>2018-07-05T14:16:11Z</time>
      </trkpt>
      <trkpt lat="50.56643" lon="3.31095">
        <ele>49.614716</ele>
        <time>2018-07-05T14:16:13Z</time>
      </trkpt>
      <trkpt lat="50.56636" lon="3.3109">
        <ele>49.779877</ele>
        <time>2018-07-05T14:16:15Z</time>
      </trkpt>
      <trkpt lat="50.56629" lon="3.31087">
        <ele>50.009857</ele>
        <time>2018-07-05T14:16:17Z</time>
      </trkpt>
      <trkpt lat="50.56622" lon="3.31085">
        <ele>50.266346</ele>
        <time>2018-07-05T14:16:19Z</time>
      </trkpt>
      <trkpt lat="50.56615" lon="3.31084">
        <ele>50.602989</ele>
        <time>2018-07-05T14:16:21Z</time>
      </trkpt>
      <trkpt lat="50.56608" lon="3.31082">
        <ele>50.957233</ele>
        <time>2018-07-05T14:16:23Z</time>
      </trkpt>
      <trkpt lat="50.566" lon="3.31081">
        <ele>51.213562</ele>
        <time>2018-07-05T14:16:25Z</time>
      </trkpt>
      <trkpt lat="50.56591" lon="3.3108">
        <ele>51.56889</ele>
        <time>2018-07-05T14:16:27Z</time>
      </trkpt>
      <trkpt lat="50.56583" lon="3.31078">
        <ele>51.782135</ele>
        <time>2018-07-05T14:16:29Z</time>
      </trkpt>
      <trkpt lat="50.56574" lon="3.31076">
        <ele>52.060219</ele>
        <time>2018-07-05T14:16:31Z</time>
      </trkpt>
      <trkpt lat="50.56564" lon="3.31074">
        <ele>52.256256</ele>
        <time>2018-07-05T14:16:33Z</time>
      </trkpt>
      <trkpt lat="50.56554" lon="3.31073">
        <ele>52.442345</ele>
        <time>2018-07-05T14:16:35Z</time>
      </trkpt>
      <trkpt lat="50.56543" lon="3.31071">
        <ele>52.33363</ele>
        <time>2018-07-05T14:16:37Z</time>
      </trkpt>
      <trkpt lat="50.56532" lon="3.31068">
        <ele>52.51947</ele>
        <time>2018-07-05T14:16:39Z</time>
      </trkpt>
      <trkpt lat="50.56519" lon="3.31067">
        <ele>52.70092</ele>
        <time>2018-07-05T14:16:41Z</time>
      </trkpt>
      <trkpt lat="50.56505" lon="3.31068">
        <ele>52.830589</ele>
        <time>2018-07-05T14:16:43Z</time>
      </trkpt>
      <trkpt lat="50.56492" lon="3.31071">
        <ele>52.857765</ele>
        <time>2018-07-05T14:16:45Z</time>
      </trkpt>
      <trkpt lat="50.56479" lon="3.31078">
        <ele>52.93512</ele>
        <time>2018-07-05T14:16:47Z</time>
      </trkpt>
      <trkpt lat="50.56467" lon="3.31086">
        <ele>52.914173</ele>
        <time>2018-07-05T14:16:49Z</time>
      </trkpt>
      <trkpt lat="50.56457" lon="3.31096">
        <ele>52.672443</ele>
        <time>2018-07-05T14:16:51Z</time>
      </trkpt>
      <trkpt lat="50.56447" lon="3.31105">
        <ele>52.528206</ele>
        <time>2018-07-05T14:16:53Z</time>
      </trkpt>
      <trkpt lat="50.56437" lon="3.3111">
        <ele>52.580494</ele>
        <time>2018-07-05T14:16:55Z</time>
      </trkpt>
      <trkpt lat="50.56427" lon="3.31111">
        <ele>52.571941</ele>
        <time>2018-07-05T14:16:57Z</time>
      </trkpt>
      <trkpt lat="50.56418" lon="3.31109">
        <ele>52.509209</ele>
        <time>2018-07-05T14:16:59Z</time>
      </trkpt>
      <trkpt lat="50.5641" lon="3.31104">
        <ele>52.311199</ele>
        <time>2018-07-05T14:17:01Z</time>
      </trkpt>
      <trkpt lat="50.56403" lon="3.31095">
        <ele>52.467243</ele>
        <time>2018-07-05T14:17:03Z</time>
      </trkpt>
      <trkpt lat="50.56398" lon="3.31083">
        <ele>52.371044</ele>
        <time>2018-07-05T14:17:05Z</time>
      </trkpt>
      <trkpt lat="50.56393" lon="3.31071">
        <ele>52.293926</ele>
        <time>2018-07-05T14:17:07Z</time>
      </trkpt>
      <trkpt lat="50.56389" lon="3.31059">
        <ele>52.128826</ele>
        <time>2018-07-05T14:17:09Z</time>
      </trkpt>
      <trkpt lat="50.56384" lon="3.31047">
        <ele>52.078636</ele>
        <time>2018-07-05T14:17:11Z</time>
      </trkpt>
      <trkpt lat="50.56379" lon="3.31036">
        <ele>52.028435</ele>
        <time>2018-07-05T14:17:13Z</time>
      </trkpt>
      <trkpt lat="50.56374" lon="3.31025">
        <ele>52.126732</ele>
        <time>2018-07-05T14:17:15Z</time>
      </trkpt>
      <trkpt lat="50.56368" lon="3.31014">
        <ele>52.101635</ele>
        <time>2018-07-05T14:17:17Z</time>
      </trkpt>
      <trkpt lat="50.56362" lon="3.31003">
        <ele>52.179211</ele>
        <time>2018-07-05T14:17:19Z</time>
      </trkpt>
      <trkpt lat="50.56356" lon="3.30992">
        <ele>52.287941</ele>
        <time>2018-07-05T14:17:21Z</time>
      </trkpt>
      <trkpt lat="50.5635" lon="3.30982">
        <ele>52.411324</ele>
        <time>2018-07-05T14:17:23Z</time>
      </trkpt>
      <trkpt lat="50.56344" lon="3.30972">
        <ele>52.616253</ele>
        <time>2018-07-05T14:17:25Z</time>
      </trkpt>
      <trkpt lat="50.56337" lon="3.30963">
        <ele>52.827484</ele>
        <time>2018-07-05T14:17:27Z</time>
      </trkpt>
      <trkpt lat="50.5633" lon="3.30953">
        <ele>53.032421</ele>
        <time>2018-07-05T14:17:29Z</time>
      </trkpt>
      <trkpt lat="50.56323" lon="3.30944">
        <ele>53.238628</ele>
        <time>2018-07-05T14:17:31Z</time>
      </trkpt>
      <trkpt lat="50.56316" lon="3.30934">
        <ele>53.466541</ele>
        <time>2018-07-05T14:17:33Z</time>
      </trkpt>
      <trkpt lat="50.5631" lon="3.30924">
        <ele>53.824226</ele>
        <time>2018-07-05T14:17:35Z</time>
      </trkpt>
      <trkpt lat="50.56304" lon="3.30914">
        <ele>53.885399</ele>
        <time>2018-07-05T14:17:37Z</time>
      </trkpt>
      <trkpt lat="50.56298" lon="3.30902">
        <ele>54.086365</ele>
        <time>2018-07-05T14:17:39Z</time>
      </trkpt>
      <trkpt lat="50.56294" lon="3.3089">
        <ele>54.22401</ele>
        <time>2018-07-05T14:17:41Z</time>
      </trkpt>
      <trkpt lat="50.56291" lon="3.30875">
        <ele>54.385033</ele>
        <time>2018-07-05T14:17:43Z</time>
      </trkpt>
      <trkpt lat="50.56291" lon="3.3086">
        <ele>54.353657</ele>
        <time>2018-07-05T14:17:45Z</time>
      </trkpt>
      <trkpt lat="50.56291" lon="3.30844">
        <ele>54.514687</ele>
        <time>2018-07-05T14:17:47Z</time>
      </trkpt>
      <trkpt lat="50.56292" lon="3.30829">
        <ele>54.68885</ele>
        <time>2018-07-05T14:17:49Z</time>
      </trkpt>
      <trkpt lat="50.56293" lon="3.30814">
        <ele>54.881237</ele>
        <time>2018-07-05T14:17:51Z</time>
      </trkpt>
      <trkpt lat="50.56295" lon="3.308">
        <ele>55.036003</ele>
        <time>2018-07-05T14:17:53Z</time>
      </trkpt>
      <trkpt lat="50.56297" lon="3.30785">
        <ele>55.068958</ele>
        <time>2018-07-05T14:17:55Z</time>
      </trkpt>
      <trkpt lat="50.563" lon="3.30771">
        <ele>55.027122</ele>
        <time>2018-07-05T14:17:57Z</time>
      </trkpt>
      <trkpt lat="50.56304" lon="3.30757">
        <ele>55.135872</ele>
        <time>2018-07-05T14:17:59Z</time>
      </trkpt>
      <trkpt lat="50.56308" lon="3.30744">
        <ele>55.299004</ele>
        <time>2018-07-05T14:18:01Z</time>
      </trkpt>
      <trkpt lat="50.56312" lon="3.3073">
        <ele>55.28019</ele>
        <time>2018-07-05T14:18:03Z</time>
      </trkpt>
      <trkpt lat="50.56316" lon="3.30716">
        <ele>55.332478</ele>
        <time>2018-07-05T14:18:05Z</time>
      </trkpt>
      <trkpt lat="50.56319" lon="3.30702">
        <ele>55.366344</ele>
        <time>2018-07-05T14:18:07Z</time>
      </trkpt>
      <trkpt lat="50.56322" lon="3.30688">
        <ele>55.380981</ele>
        <time>2018-07-05T14:18:09Z</time>
      </trkpt>
      <trkpt lat="50.56323" lon="3.30674">
        <ele>55.393532</ele>
        <time>2018-07-05T14:18:11Z</time>
      </trkpt>
      <trkpt lat="50.56321" lon="3.30659">
        <ele>55.535767</ele>
        <time>2018-07-05T14:18:13Z</time>
      </trkpt>
      <trkpt lat="50.56316" lon="3.30646">
        <ele>55.563721</ele>
        <time>2018-07-05T14:18:15Z</time>
      </trkpt>
      <trkpt lat="50.56311" lon="3.30634">
        <ele>55.525566</ele>
        <time>2018-07-05T14:18:17Z</time>
      </trkpt>
      <trkpt lat="50.56303" lon="3.30625">
        <ele>55.592499</ele>
        <time>2018-07-05T14:18:19Z</time>
      </trkpt>
      <trkpt lat="50.56296" lon="3.30616">
        <ele>55.607525</ele>
        <time>2018-07-05T14:18:21Z</time>
      </trkpt>
      <trkpt lat="50.56289" lon="3.30608">
        <ele>55.693287</ele>
        <time>2018-07-05T14:18:23Z</time>
      </trkpt>
      <trkpt lat="50.56281" lon="3.30601">
        <ele>55.841808</ele>
        <time>2018-07-05T14:18:25Z</time>
      </trkpt>
      <trkpt lat="50.56273" lon="3.30595">
        <ele>56.007072</ele>
        <time>2018-07-05T14:18:27Z</time>
      </trkpt>
      <trkpt lat="50.56264" lon="3.30588">
        <ele>56.027992</ele>
        <time>2018-07-05T14:18:29Z</time>
      </trkpt>
      <trkpt lat="50.56256" lon="3.30582">
        <ele>56.067371</ele>
        <time>2018-07-05T14:18:31Z</time>
      </trkpt>
      <trkpt lat="50.56247" lon="3.30575">
        <ele>56.125946</ele>
        <time>2018-07-05T14:18:33Z</time>
      </trkpt>
      <trkpt lat="50.56239" lon="3.30567">
        <ele>56.204437</ele>
        <time>2018-07-05T14:18:35Z</time>
      </trkpt>
      <trkpt lat="50.56231" lon="3.30559">
        <ele>56.420418</ele>
        <time>2018-07-05T14:18:37Z</time>
      </trkpt>
      <trkpt lat="50.56223" lon="3.30549">
        <ele>56.699657</ele>
        <time>2018-07-05T14:18:39Z</time>
      </trkpt>
      <trkpt lat="50.56215" lon="3.30539">
        <ele>56.810528</ele>
        <time>2018-07-05T14:18:41Z</time>
      </trkpt>
      <trkpt lat="50.56208" lon="3.3053">
        <ele>56.894176</ele>
        <time>2018-07-05T14:18:43Z</time>
      </trkpt>
      <trkpt lat="50.562" lon="3.3052">
        <ele>57.086403</ele>
        <time>2018-07-05T14:18:45Z</time>
      </trkpt>
      <trkpt lat="50.56192" lon="3.3051">
        <ele>57.170116</ele>
        <time>2018-07-05T14:18:47Z</time>
      </trkpt>
      <trkpt lat="50.56185" lon="3.305">
        <ele>57.406147</ele>
        <time>2018-07-05T14:18:49Z</time>
      </trkpt>
      <trkpt lat="50.56178" lon="3.3049">
        <ele>57.523285</ele>
        <time>2018-07-05T14:18:51Z</time>
      </trkpt>
      <trkpt lat="50.56171" lon="3.30481">
        <ele>57.652985</ele>
        <time>2018-07-05T14:18:53Z</time>
      </trkpt>
      <trkpt lat="50.56163" lon="3.30472">
        <ele>57.678089</ele>
        <time>2018-07-05T14:18:55Z</time>
      </trkpt>
      <trkpt lat="50.56156" lon="3.30463">
        <ele>57.670929</ele>
        <time>2018-07-05T14:18:57Z</time>
      </trkpt>
      <trkpt lat="50.56149" lon="3.30454">
        <ele>57.811058</ele>
        <time>2018-07-05T14:18:59Z</time>
      </trkpt>
      <trkpt lat="50.56141" lon="3.30445">
        <ele>57.898926</ele>
        <time>2018-07-05T14:19:01Z</time>
      </trkpt>
      <trkpt lat="50.56134" lon="3.30436">
        <ele>57.967964</ele>
        <time>2018-07-05T14:19:03Z</time>
      </trkpt>
      <trkpt lat="50.56125" lon="3.30427">
        <ele>58.149986</ele>
        <time>2018-07-05T14:19:05Z</time>
      </trkpt>
      <trkpt lat="50.56117" lon="3.3042">
        <ele>58.147907</ele>
        <time>2018-07-05T14:19:07Z</time>
      </trkpt>
      <trkpt lat="50.56107" lon="3.30415">
        <ele>58.18557</ele>
        <time>2018-07-05T14:19:09Z</time>
      </trkpt>
      <trkpt lat="50.56098" lon="3.30411">
        <ele>58.380135</ele>
        <time>2018-07-05T14:19:11Z</time>
      </trkpt>
      <trkpt lat="50.56088" lon="3.30407">
        <ele>58.512299</ele>
        <time>2018-07-05T14:19:13Z</time>
      </trkpt>
      <trkpt lat="50.56078" lon="3.30403">
        <ele>58.527973</ele>
        <time>2018-07-05T14:19:15Z</time>
      </trkpt>
      <trkpt lat="50.56069" lon="3.30399">
        <ele>58.576092</ele>
        <time>2018-07-05T14:19:17Z</time>
      </trkpt>
      <trkpt lat="50.56059" lon="3.30395">
        <ele>58.645149</ele>
        <time>2018-07-05T14:19:19Z</time>
      </trkpt>
      <trkpt lat="50.56049" lon="3.30391">
        <ele>58.72641</ele>
        <time>2018-07-05T14:19:21Z</time>
      </trkpt>
      <trkpt lat="50.56039" lon="3.30387">
        <ele>58.860321</ele>
        <time>2018-07-05T14:19:23Z</time>
      </trkpt>
      <trkpt lat="50.5603" lon="3.30383">
        <ele>58.872871</ele>
        <time>2018-07-05T14:19:25Z</time>
      </trkpt>
      <trkpt lat="50.5602" lon="3.30379">
        <ele>58.929649</ele>
        <time>2018-07-05T14:19:27Z</time>
      </trkpt>
      <trkpt lat="50.5601" lon="3.30376">
        <ele>58.986931</ele>
        <time>2018-07-05T14:19:29Z</time>
      </trkpt>
      <trkpt lat="50.56" lon="3.30372">
        <ele>58.850914</ele>
        <time>2018-07-05T14:19:31Z</time>
      </trkpt>
      <trkpt lat="50.5599" lon="3.30368">
        <ele>58.936695</ele>
        <time>2018-07-05T14:19:33Z</time>
      </trkpt>
      <trkpt lat="50.5598" lon="3.30364">
        <ele>58.955524</ele>
        <time>2018-07-05T14:19:35Z</time>
      </trkpt>
      <trkpt lat="50.55971" lon="3.3036">
        <ele>58.924145</ele>
        <time>2018-07-05T14:19:37Z</time>
      </trkpt>
      <trkpt lat="50.55962" lon="3.30357">
        <ele>58.9618</ele>
        <time>2018-07-05T14:19:39Z</time>
      </trkpt>
      <trkpt lat="50.55953" lon="3.30354">
        <ele>59.003643</ele>
        <time>2018-07-05T14:19:41Z</time>
      </trkpt>
      <trkpt lat="50.55943" lon="3.3035">
        <ele>58.968079</ele>
        <time>2018-07-05T14:19:43Z</time>
      </trkpt>
      <trkpt lat="50.55933" lon="3.30346">
        <ele>58.852997</ele>
        <time>2018-07-05T14:19:45Z</time>
      </trkpt>
      <trkpt lat="50.55923" lon="3.30341">
        <ele>58.834167</ele>
        <time>2018-07-05T14:19:47Z</time>
      </trkpt>
      <trkpt lat="50.55913" lon="3.30338">
        <ele>58.871868</ele>
        <time>2018-07-05T14:19:49Z</time>
      </trkpt>
      <trkpt lat="50.55903" lon="3.30334">
        <ele>58.744244</ele>
        <time>2018-07-05T14:19:51Z</time>
      </trkpt>
      <trkpt lat="50.55892" lon="3.3033">
        <ele>58.685669</ele>
        <time>2018-07-05T14:19:53Z</time>
      </trkpt>
      <trkpt lat="50.55881" lon="3.30325">
        <ele>58.582329</ele>
        <time>2018-07-05T14:19:55Z</time>
      </trkpt>
      <trkpt lat="50.5587" lon="3.30321">
        <ele>58.571846</ele>
        <time>2018-07-05T14:19:57Z</time>
      </trkpt>
      <trkpt lat="50.55858" lon="3.30317">
        <ele>58.481873</ele>
        <time>2018-07-05T14:19:59Z</time>
      </trkpt>
      <trkpt lat="50.55847" lon="3.30313">
        <ele>58.222431</ele>
        <time>2018-07-05T14:20:01Z</time>
      </trkpt>
      <trkpt lat="50.55835" lon="3.30308">
        <ele>58.029278</ele>
        <time>2018-07-05T14:20:03Z</time>
      </trkpt>
      <trkpt lat="50.55824" lon="3.30304">
        <ele>57.897026</ele>
        <time>2018-07-05T14:20:05Z</time>
      </trkpt>
      <trkpt lat="50.55813" lon="3.303">
        <ele>57.83802</ele>
        <time>2018-07-05T14:20:07Z</time>
      </trkpt>
      <trkpt lat="50.55801" lon="3.30295">
        <ele>57.789074</ele>
        <time>2018-07-05T14:20:09Z</time>
      </trkpt>
      <trkpt lat="50.5579" lon="3.30292">
        <ele>57.598705</ele>
        <time>2018-07-05T14:20:11Z</time>
      </trkpt>
      <trkpt lat="50.5578" lon="3.30287">
        <ele>57.402088</ele>
        <time>2018-07-05T14:20:13Z</time>
      </trkpt>
      <trkpt lat="50.55769" lon="3.30285">
        <ele>57.249352</ele>
        <time>2018-07-05T14:20:15Z</time>
      </trkpt>
      <trkpt lat="50.55759" lon="3.30289">
        <ele>57.117577</ele>
        <time>2018-07-05T14:20:17Z</time>
      </trkpt>
      <trkpt lat="50.55752" lon="3.30301">
        <ele>56.923054</ele>
        <time>2018-07-05T14:20:19Z</time>
      </trkpt>
      <trkpt lat="50.55747" lon="3.30315">
        <ele>56.755726</ele>
        <time>2018-07-05T14:20:21Z</time>
      </trkpt>
      <trkpt lat="50.5574" lon="3.30328">
        <ele>56.501446</ele>
        <time>2018-07-05T14:20:23Z</time>
      </trkpt>
      <trkpt lat="50.55731" lon="3.30339">
        <ele>56.35503</ele>
        <time>2018-07-05T14:20:25Z</time>
      </trkpt>
      <trkpt lat="50.55721" lon="3.30348">
        <ele>56.265076</ele>
        <time>2018-07-05T14:20:27Z</time>
      </trkpt>
      <trkpt lat="50.5571" lon="3.30353">
        <ele>55.957581</ele>
        <time>2018-07-05T14:20:29Z</time>
      </trkpt>
      <trkpt lat="50.55699" lon="3.30355">
        <ele>55.656319</ele>
        <time>2018-07-05T14:20:31Z</time>
      </trkpt>
      <trkpt lat="50.55687" lon="3.30356">
        <ele>55.675995</ele>
        <time>2018-07-05T14:20:33Z</time>
      </trkpt>
      <trkpt lat="50.55676" lon="3.30357">
        <ele>55.471832</ele>
        <time>2018-07-05T14:20:35Z</time>
      </trkpt>
      <trkpt lat="50.55664" lon="3.30361">
        <ele>55.386066</ele>
        <time>2018-07-05T14:20:37Z</time>
      </trkpt>
      <trkpt lat="50.55654" lon="3.30365">
        <ele>55.258472</ele>
        <time>2018-07-05T14:20:39Z</time>
      </trkpt>
      <trkpt lat="50.55644" lon="3.30369">
        <ele>55.258472</ele>
        <time>2018-07-05T14:20:41Z</time>
      </trkpt>
      <trkpt lat="50.55634" lon="3.30373">
        <ele>55.05352</ele>
        <time>2018-07-05T14:20:43Z</time>
      </trkpt>
      <trkpt lat="50.55625" lon="3.30378">
        <ele>55.032604</ele>
        <time>2018-07-05T14:20:45Z</time>
      </trkpt>
      <trkpt lat="50.55617" lon="3.30382">
        <ele>54.932648</ele>
        <time>2018-07-05T14:20:47Z</time>
      </trkpt>
      <trkpt lat="50.5561" lon="3.30386">
        <ele>54.806091</ele>
        <time>2018-07-05T14:20:49Z</time>
      </trkpt>
      <trkpt lat="50.55603" lon="3.3039">
        <ele>54.651295</ele>
        <time>2018-07-05T14:20:51Z</time>
      </trkpt>
      <trkpt lat="50.55597" lon="3.30392">
        <ele>54.770527</ele>
        <time>2018-07-05T14:20:53Z</time>
      </trkpt>
      <trkpt lat="50.55592" lon="3.30393">
        <ele>54.840271</ele>
        <time>2018-07-05T14:20:55Z</time>
      </trkpt>
      <trkpt lat="50.55589" lon="3.30395">
        <ele>54.74715</ele>
        <time>2018-07-05T14:20:57Z</time>
      </trkpt>
      <trkpt lat="50.55586" lon="3.30396">
        <ele>54.749229</ele>
        <time>2018-07-05T14:20:59Z</time>
      </trkpt>
      <trkpt lat="50.55586" lon="3.30396">
        <ele>54.800579</ele>
        <time>2018-07-05T14:21:03Z</time>
      </trkpt>
      <trkpt lat="50.55586" lon="3.30394">
        <ele>54.909332</ele>
        <time>2018-07-05T14:21:05Z</time>
      </trkpt>
    </trkseg>
  </trk>
</gpx>